<?xml version="1.0" encoding="UTF-8" standalone="no" ?>
<gpx xmlns="http://www.topografix.com/GPX/1/1" xmlns:xsi="http://www.w3.org/2001/XMLSchema-instance" xsi:schemaLocation="http://www.topografix.com/GPX/1/1 http://www.topografix.com/GPX/1/1/gpx.xsd" version="1.1" creator="VisuGPX - https://www.visugpx.com">
  <metadata>
    <name>L'Abbaye en Grandvaux,La vierge d'Ecuvet,Le belvédère du Moulin,Le tour du Lac.</name>
    <desc><![CDATA[
]]></desc>
  </metadata>
  <trk>
    <name><![CDATA[L'Abbaye en Grandvaux,La vierge d'Ecuvet,Le belvédère du Moulin,Le tour du Lac._1]]></name>
    <trkseg>
      <trkpt lat="46.53535" lon="5.92219">
        <ele>896.5</ele>
        <time>2020-01-16T07:51:34Z</time>
      </trkpt>
      <trkpt lat="46.5353" lon="5.92222">
        <ele>880.3</ele>
        <time>2020-01-16T07:53:53Z</time>
      </trkpt>
      <trkpt lat="46.53523" lon="5.92218">
        <ele>879.9</ele>
        <time>2020-01-16T07:54:02Z</time>
      </trkpt>
      <trkpt lat="46.53514" lon="5.9221">
        <ele>879.4</ele>
        <time>2020-01-16T07:54:31Z</time>
      </trkpt>
      <trkpt lat="46.5351" lon="5.92206">
        <ele>879.3</ele>
        <time>2020-01-16T07:54:34Z</time>
      </trkpt>
      <trkpt lat="46.53506" lon="5.92201">
        <ele>878.9</ele>
        <time>2020-01-16T07:54:40Z</time>
      </trkpt>
      <trkpt lat="46.53501" lon="5.92196">
        <ele>878.7</ele>
        <time>2020-01-16T07:54:43Z</time>
      </trkpt>
      <trkpt lat="46.53497" lon="5.92193">
        <ele>878.5</ele>
        <time>2020-01-16T07:54:46Z</time>
      </trkpt>
      <trkpt lat="46.53492" lon="5.92192">
        <ele>878.4</ele>
        <time>2020-01-16T07:54:50Z</time>
      </trkpt>
      <trkpt lat="46.53487" lon="5.92187">
        <ele>878.4</ele>
        <time>2020-01-16T07:54:54Z</time>
      </trkpt>
      <trkpt lat="46.53484" lon="5.92183">
        <ele>878.2</ele>
        <time>2020-01-16T07:54:59Z</time>
      </trkpt>
      <trkpt lat="46.5348" lon="5.92178">
        <ele>878</ele>
        <time>2020-01-16T07:55:04Z</time>
      </trkpt>
      <trkpt lat="46.53476" lon="5.92175">
        <ele>877.7</ele>
        <time>2020-01-16T07:55:08Z</time>
      </trkpt>
      <trkpt lat="46.5347" lon="5.92175">
        <ele>877.6</ele>
        <time>2020-01-16T07:55:12Z</time>
      </trkpt>
      <trkpt lat="46.53466" lon="5.92179">
        <ele>877.7</ele>
        <time>2020-01-16T07:55:16Z</time>
      </trkpt>
      <trkpt lat="46.53464" lon="5.92186">
        <ele>878.2</ele>
        <time>2020-01-16T07:55:25Z</time>
      </trkpt>
      <trkpt lat="46.53464" lon="5.92193">
        <ele>878.5</ele>
        <time>2020-01-16T07:55:32Z</time>
      </trkpt>
      <trkpt lat="46.53463" lon="5.92199">
        <ele>878.7</ele>
        <time>2020-01-16T07:55:39Z</time>
      </trkpt>
      <trkpt lat="46.53462" lon="5.92207">
        <ele>879.4</ele>
        <time>2020-01-16T07:55:47Z</time>
      </trkpt>
      <trkpt lat="46.53459" lon="5.92213">
        <ele>879.7</ele>
        <time>2020-01-16T07:55:51Z</time>
      </trkpt>
      <trkpt lat="46.53455" lon="5.92219">
        <ele>880</ele>
        <time>2020-01-16T07:55:55Z</time>
      </trkpt>
      <trkpt lat="46.53452" lon="5.92223">
        <ele>879.9</ele>
        <time>2020-01-16T07:55:59Z</time>
      </trkpt>
      <trkpt lat="46.53448" lon="5.92228">
        <ele>879.8</ele>
        <time>2020-01-16T07:56:02Z</time>
      </trkpt>
      <trkpt lat="46.53444" lon="5.92232">
        <ele>879.5</ele>
        <time>2020-01-16T07:56:06Z</time>
      </trkpt>
      <trkpt lat="46.5344" lon="5.92237">
        <ele>879.4</ele>
        <time>2020-01-16T07:56:10Z</time>
      </trkpt>
      <trkpt lat="46.53436" lon="5.92242">
        <ele>879.4</ele>
        <time>2020-01-16T07:56:14Z</time>
      </trkpt>
      <trkpt lat="46.53432" lon="5.92247">
        <ele>879.5</ele>
        <time>2020-01-16T07:56:20Z</time>
      </trkpt>
      <trkpt lat="46.53428" lon="5.92251">
        <ele>879.7</ele>
        <time>2020-01-16T07:56:28Z</time>
      </trkpt>
      <trkpt lat="46.53426" lon="5.92257">
        <ele>880</ele>
        <time>2020-01-16T07:56:33Z</time>
      </trkpt>
      <trkpt lat="46.53422" lon="5.92261">
        <ele>880.5</ele>
        <time>2020-01-16T07:56:41Z</time>
      </trkpt>
      <trkpt lat="46.53417" lon="5.92259">
        <ele>881.2</ele>
        <time>2020-01-16T07:56:48Z</time>
      </trkpt>
      <trkpt lat="46.53413" lon="5.92258">
        <ele>882.3</ele>
        <time>2020-01-16T07:56:57Z</time>
      </trkpt>
      <trkpt lat="46.53408" lon="5.92256">
        <ele>882.7</ele>
        <time>2020-01-16T07:57:02Z</time>
      </trkpt>
      <trkpt lat="46.53404" lon="5.92255">
        <ele>883.1</ele>
        <time>2020-01-16T07:57:07Z</time>
      </trkpt>
      <trkpt lat="46.53399" lon="5.92255">
        <ele>883.5</ele>
        <time>2020-01-16T07:57:12Z</time>
      </trkpt>
      <trkpt lat="46.53394" lon="5.92255">
        <ele>884.2</ele>
        <time>2020-01-16T07:57:18Z</time>
      </trkpt>
      <trkpt lat="46.5339" lon="5.92252">
        <ele>884.7</ele>
        <time>2020-01-16T07:57:24Z</time>
      </trkpt>
      <trkpt lat="46.53385" lon="5.92245">
        <ele>885.7</ele>
        <time>2020-01-16T07:57:48Z</time>
      </trkpt>
      <trkpt lat="46.5338" lon="5.92249">
        <ele>885.7</ele>
        <time>2020-01-16T07:57:52Z</time>
      </trkpt>
      <trkpt lat="46.5338" lon="5.92255">
        <ele>885.9</ele>
        <time>2020-01-16T07:57:59Z</time>
      </trkpt>
      <trkpt lat="46.53375" lon="5.92255">
        <ele>887.1</ele>
        <time>2020-01-16T07:58:17Z</time>
      </trkpt>
      <trkpt lat="46.5337" lon="5.92252">
        <ele>887.7</ele>
        <time>2020-01-16T07:58:22Z</time>
      </trkpt>
      <trkpt lat="46.53366" lon="5.92251">
        <ele>888.5</ele>
        <time>2020-01-16T07:58:27Z</time>
      </trkpt>
      <trkpt lat="46.53361" lon="5.9225">
        <ele>889</ele>
        <time>2020-01-16T07:58:31Z</time>
      </trkpt>
      <trkpt lat="46.53357" lon="5.92246">
        <ele>889.6</ele>
        <time>2020-01-16T07:58:36Z</time>
      </trkpt>
      <trkpt lat="46.53352" lon="5.92245">
        <ele>890.1</ele>
        <time>2020-01-16T07:58:41Z</time>
      </trkpt>
      <trkpt lat="46.53347" lon="5.92243">
        <ele>890.4</ele>
        <time>2020-01-16T07:58:46Z</time>
      </trkpt>
      <trkpt lat="46.53343" lon="5.92242">
        <ele>890.7</ele>
        <time>2020-01-16T07:58:51Z</time>
      </trkpt>
      <trkpt lat="46.53338" lon="5.92243">
        <ele>891</ele>
        <time>2020-01-16T07:58:58Z</time>
      </trkpt>
      <trkpt lat="46.53334" lon="5.92247">
        <ele>891.3</ele>
        <time>2020-01-16T07:59:06Z</time>
      </trkpt>
      <trkpt lat="46.5333" lon="5.92251">
        <ele>891.6</ele>
        <time>2020-01-16T07:59:12Z</time>
      </trkpt>
      <trkpt lat="46.53326" lon="5.92255">
        <ele>892.5</ele>
        <time>2020-01-16T07:59:19Z</time>
      </trkpt>
      <trkpt lat="46.53322" lon="5.92257">
        <ele>893.2</ele>
        <time>2020-01-16T07:59:24Z</time>
      </trkpt>
      <trkpt lat="46.53319" lon="5.92263">
        <ele>894.4</ele>
        <time>2020-01-16T07:59:36Z</time>
      </trkpt>
      <trkpt lat="46.53315" lon="5.92267">
        <ele>894.7</ele>
        <time>2020-01-16T07:59:41Z</time>
      </trkpt>
      <trkpt lat="46.53311" lon="5.92272">
        <ele>895.3</ele>
        <time>2020-01-16T07:59:46Z</time>
      </trkpt>
      <trkpt lat="46.53308" lon="5.92276">
        <ele>896.4</ele>
        <time>2020-01-16T07:59:54Z</time>
      </trkpt>
      <trkpt lat="46.53303" lon="5.92279">
        <ele>897.1</ele>
        <time>2020-01-16T08:00:00Z</time>
      </trkpt>
      <trkpt lat="46.53298" lon="5.92281">
        <ele>897.5</ele>
        <time>2020-01-16T08:00:04Z</time>
      </trkpt>
      <trkpt lat="46.53293" lon="5.92281">
        <ele>898.4</ele>
        <time>2020-01-16T08:00:11Z</time>
      </trkpt>
      <trkpt lat="46.53289" lon="5.92277">
        <ele>899.3</ele>
        <time>2020-01-16T08:00:17Z</time>
      </trkpt>
      <trkpt lat="46.53285" lon="5.92273">
        <ele>900.1</ele>
        <time>2020-01-16T08:00:22Z</time>
      </trkpt>
      <trkpt lat="46.53283" lon="5.92266">
        <ele>901.3</ele>
        <time>2020-01-16T08:00:28Z</time>
      </trkpt>
      <trkpt lat="46.5328" lon="5.9226">
        <ele>902.3</ele>
        <time>2020-01-16T08:00:34Z</time>
      </trkpt>
      <trkpt lat="46.53277" lon="5.92254">
        <ele>902.8</ele>
        <time>2020-01-16T08:00:38Z</time>
      </trkpt>
      <trkpt lat="46.53274" lon="5.92248">
        <ele>903.3</ele>
        <time>2020-01-16T08:00:44Z</time>
      </trkpt>
      <trkpt lat="46.53271" lon="5.92242">
        <ele>903.8</ele>
        <time>2020-01-16T08:00:49Z</time>
      </trkpt>
      <trkpt lat="46.5327" lon="5.92236">
        <ele>904.6</ele>
        <time>2020-01-16T08:00:56Z</time>
      </trkpt>
      <trkpt lat="46.53266" lon="5.92232">
        <ele>905.4</ele>
        <time>2020-01-16T08:01:03Z</time>
      </trkpt>
      <trkpt lat="46.53262" lon="5.92227">
        <ele>906.3</ele>
        <time>2020-01-16T08:01:09Z</time>
      </trkpt>
      <trkpt lat="46.53259" lon="5.92221">
        <ele>907.9</ele>
        <time>2020-01-16T08:01:17Z</time>
      </trkpt>
      <trkpt lat="46.53256" lon="5.92216">
        <ele>910</ele>
        <time>2020-01-16T08:01:25Z</time>
      </trkpt>
      <trkpt lat="46.53252" lon="5.92213">
        <ele>911.6</ele>
        <time>2020-01-16T08:01:33Z</time>
      </trkpt>
      <trkpt lat="46.53247" lon="5.92211">
        <ele>913</ele>
        <time>2020-01-16T08:01:40Z</time>
      </trkpt>
      <trkpt lat="46.53241" lon="5.92212">
        <ele>914.9</ele>
        <time>2020-01-16T08:02:29Z</time>
      </trkpt>
      <trkpt lat="46.53237" lon="5.92209">
        <ele>914.7</ele>
        <time>2020-01-16T08:02:34Z</time>
      </trkpt>
      <trkpt lat="46.53233" lon="5.92206">
        <ele>914.7</ele>
        <time>2020-01-16T08:02:38Z</time>
      </trkpt>
      <trkpt lat="46.53229" lon="5.92202">
        <ele>914.8</ele>
        <time>2020-01-16T08:02:42Z</time>
      </trkpt>
      <trkpt lat="46.53224" lon="5.92198">
        <ele>915.3</ele>
        <time>2020-01-16T08:02:47Z</time>
      </trkpt>
      <trkpt lat="46.5322" lon="5.92197">
        <ele>915.7</ele>
        <time>2020-01-16T08:02:51Z</time>
      </trkpt>
      <trkpt lat="46.53215" lon="5.92195">
        <ele>916</ele>
        <time>2020-01-16T08:02:55Z</time>
      </trkpt>
      <trkpt lat="46.53211" lon="5.92194">
        <ele>916.3</ele>
        <time>2020-01-16T08:03:01Z</time>
      </trkpt>
      <trkpt lat="46.53206" lon="5.92192">
        <ele>916.8</ele>
        <time>2020-01-16T08:03:07Z</time>
      </trkpt>
      <trkpt lat="46.53201" lon="5.92193">
        <ele>917.9</ele>
        <time>2020-01-16T08:03:13Z</time>
      </trkpt>
      <trkpt lat="46.53196" lon="5.92195">
        <ele>919.3</ele>
        <time>2020-01-16T08:03:22Z</time>
      </trkpt>
      <trkpt lat="46.53191" lon="5.92195">
        <ele>920.8</ele>
        <time>2020-01-16T08:03:30Z</time>
      </trkpt>
      <trkpt lat="46.53187" lon="5.92195">
        <ele>921.8</ele>
        <time>2020-01-16T08:03:36Z</time>
      </trkpt>
      <trkpt lat="46.53182" lon="5.92197">
        <ele>923.1</ele>
        <time>2020-01-16T08:03:44Z</time>
      </trkpt>
      <trkpt lat="46.53177" lon="5.92196">
        <ele>924.7</ele>
        <time>2020-01-16T08:03:52Z</time>
      </trkpt>
      <trkpt lat="46.53173" lon="5.92193">
        <ele>926.1</ele>
        <time>2020-01-16T08:04:00Z</time>
      </trkpt>
      <trkpt lat="46.53168" lon="5.9219">
        <ele>927.3</ele>
        <time>2020-01-16T08:04:08Z</time>
      </trkpt>
      <trkpt lat="46.53164" lon="5.92188">
        <ele>928.5</ele>
        <time>2020-01-16T08:04:15Z</time>
      </trkpt>
      <trkpt lat="46.53159" lon="5.9219">
        <ele>929.5</ele>
        <time>2020-01-16T08:04:23Z</time>
      </trkpt>
      <trkpt lat="46.53155" lon="5.9219">
        <ele>930.4</ele>
        <time>2020-01-16T08:04:34Z</time>
      </trkpt>
      <trkpt lat="46.5315" lon="5.92189">
        <ele>930.8</ele>
        <time>2020-01-16T08:04:42Z</time>
      </trkpt>
      <trkpt lat="46.53145" lon="5.92188">
        <ele>931.5</ele>
        <time>2020-01-16T08:04:51Z</time>
      </trkpt>
      <trkpt lat="46.5314" lon="5.92188">
        <ele>932.3</ele>
        <time>2020-01-16T08:04:58Z</time>
      </trkpt>
      <trkpt lat="46.53135" lon="5.92187">
        <ele>933.6</ele>
        <time>2020-01-16T08:05:11Z</time>
      </trkpt>
      <trkpt lat="46.5313" lon="5.92185">
        <ele>934</ele>
        <time>2020-01-16T08:05:21Z</time>
      </trkpt>
      <trkpt lat="46.53127" lon="5.9219">
        <ele>934</ele>
        <time>2020-01-16T08:05:33Z</time>
      </trkpt>
      <trkpt lat="46.53124" lon="5.92195">
        <ele>934.6</ele>
        <time>2020-01-16T08:05:45Z</time>
      </trkpt>
      <trkpt lat="46.53119" lon="5.92194">
        <ele>934.7</ele>
        <time>2020-01-16T08:05:50Z</time>
      </trkpt>
      <trkpt lat="46.53107" lon="5.92196">
        <ele>936.1</ele>
        <time>2020-01-16T08:06:07Z</time>
      </trkpt>
      <trkpt lat="46.53102" lon="5.92198">
        <ele>936.6</ele>
        <time>2020-01-16T08:06:13Z</time>
      </trkpt>
      <trkpt lat="46.53098" lon="5.92201">
        <ele>937.6</ele>
        <time>2020-01-16T08:06:23Z</time>
      </trkpt>
      <trkpt lat="46.53094" lon="5.92202">
        <ele>938.4</ele>
        <time>2020-01-16T08:06:29Z</time>
      </trkpt>
      <trkpt lat="46.53089" lon="5.92203">
        <ele>939.8</ele>
        <time>2020-01-16T08:06:37Z</time>
      </trkpt>
      <trkpt lat="46.53084" lon="5.92203">
        <ele>940.6</ele>
        <time>2020-01-16T08:06:44Z</time>
      </trkpt>
      <trkpt lat="46.53079" lon="5.92201">
        <ele>942.2</ele>
        <time>2020-01-16T08:06:56Z</time>
      </trkpt>
      <trkpt lat="46.53075" lon="5.922">
        <ele>942.9</ele>
        <time>2020-01-16T08:07:04Z</time>
      </trkpt>
      <trkpt lat="46.5307" lon="5.922">
        <ele>943.5</ele>
        <time>2020-01-16T08:07:14Z</time>
      </trkpt>
      <trkpt lat="46.53065" lon="5.922">
        <ele>943.9</ele>
        <time>2020-01-16T08:07:23Z</time>
      </trkpt>
      <trkpt lat="46.5306" lon="5.922">
        <ele>943.9</ele>
        <time>2020-01-16T08:07:29Z</time>
      </trkpt>
      <trkpt lat="46.53056" lon="5.92202">
        <ele>949.3</ele>
        <time>2020-01-16T08:07:49Z</time>
      </trkpt>
      <trkpt lat="46.53052" lon="5.92206">
        <ele>951.4</ele>
        <time>2020-01-16T08:07:56Z</time>
      </trkpt>
      <trkpt lat="46.53048" lon="5.92208">
        <ele>953.3</ele>
        <time>2020-01-16T08:08:03Z</time>
      </trkpt>
      <trkpt lat="46.53044" lon="5.9221">
        <ele>955.5</ele>
        <time>2020-01-16T08:08:10Z</time>
      </trkpt>
      <trkpt lat="46.53039" lon="5.92211">
        <ele>957.4</ele>
        <time>2020-01-16T08:08:18Z</time>
      </trkpt>
      <trkpt lat="46.53035" lon="5.92213">
        <ele>958.6</ele>
        <time>2020-01-16T08:08:25Z</time>
      </trkpt>
      <trkpt lat="46.53031" lon="5.92218">
        <ele>958.9</ele>
        <time>2020-01-16T08:08:32Z</time>
      </trkpt>
      <trkpt lat="46.53026" lon="5.92218">
        <ele>959.4</ele>
        <time>2020-01-16T08:08:44Z</time>
      </trkpt>
      <trkpt lat="46.53021" lon="5.92218">
        <ele>960.8</ele>
        <time>2020-01-16T08:09:02Z</time>
      </trkpt>
      <trkpt lat="46.53017" lon="5.92217">
        <ele>962.1</ele>
        <time>2020-01-16T08:09:13Z</time>
      </trkpt>
      <trkpt lat="46.53012" lon="5.92219">
        <ele>962.5</ele>
        <time>2020-01-16T08:09:20Z</time>
      </trkpt>
      <trkpt lat="46.53008" lon="5.92221">
        <ele>962.7</ele>
        <time>2020-01-16T08:09:27Z</time>
      </trkpt>
      <trkpt lat="46.53003" lon="5.92222">
        <ele>962.9</ele>
        <time>2020-01-16T08:09:37Z</time>
      </trkpt>
      <trkpt lat="46.52998" lon="5.9222">
        <ele>963.1</ele>
        <time>2020-01-16T08:09:46Z</time>
      </trkpt>
      <trkpt lat="46.52996" lon="5.92215">
        <ele>963.4</ele>
        <time>2020-01-16T08:09:56Z</time>
      </trkpt>
      <trkpt lat="46.52991" lon="5.92211">
        <ele>963.4</ele>
        <time>2020-01-16T08:10:05Z</time>
      </trkpt>
      <trkpt lat="46.52987" lon="5.92209">
        <ele>963.2</ele>
        <time>2020-01-16T08:10:12Z</time>
      </trkpt>
      <trkpt lat="46.52983" lon="5.92207">
        <ele>962.5</ele>
        <time>2020-01-16T08:10:19Z</time>
      </trkpt>
      <trkpt lat="46.52978" lon="5.92205">
        <ele>962.2</ele>
        <time>2020-01-16T08:10:24Z</time>
      </trkpt>
      <trkpt lat="46.52973" lon="5.92203">
        <ele>962.3</ele>
        <time>2020-01-16T08:10:30Z</time>
      </trkpt>
      <trkpt lat="46.52969" lon="5.92202">
        <ele>962.7</ele>
        <time>2020-01-16T08:10:39Z</time>
      </trkpt>
      <trkpt lat="46.52964" lon="5.92203">
        <ele>963.4</ele>
        <time>2020-01-16T08:10:46Z</time>
      </trkpt>
      <trkpt lat="46.52959" lon="5.92204">
        <ele>963.9</ele>
        <time>2020-01-16T08:10:51Z</time>
      </trkpt>
      <trkpt lat="46.52954" lon="5.92202">
        <ele>964.9</ele>
        <time>2020-01-16T08:10:58Z</time>
      </trkpt>
      <trkpt lat="46.5295" lon="5.92202">
        <ele>966</ele>
        <time>2020-01-16T08:11:05Z</time>
      </trkpt>
      <trkpt lat="46.52945" lon="5.92202">
        <ele>968.2</ele>
        <time>2020-01-16T08:11:15Z</time>
      </trkpt>
      <trkpt lat="46.5294" lon="5.92201">
        <ele>969.5</ele>
        <time>2020-01-16T08:11:22Z</time>
      </trkpt>
      <trkpt lat="46.52935" lon="5.92201">
        <ele>971.6</ele>
        <time>2020-01-16T08:11:34Z</time>
      </trkpt>
      <trkpt lat="46.5293" lon="5.92201">
        <ele>972.4</ele>
        <time>2020-01-16T08:11:40Z</time>
      </trkpt>
      <trkpt lat="46.52925" lon="5.92202">
        <ele>973</ele>
        <time>2020-01-16T08:11:45Z</time>
      </trkpt>
      <trkpt lat="46.5292" lon="5.922">
        <ele>975.1</ele>
        <time>2020-01-16T08:11:56Z</time>
      </trkpt>
      <trkpt lat="46.52915" lon="5.92198">
        <ele>978.1</ele>
        <time>2020-01-16T08:12:12Z</time>
      </trkpt>
      <trkpt lat="46.52911" lon="5.92194">
        <ele>978.8</ele>
        <time>2020-01-16T08:12:19Z</time>
      </trkpt>
      <trkpt lat="46.52906" lon="5.92193">
        <ele>979.7</ele>
        <time>2020-01-16T08:12:27Z</time>
      </trkpt>
      <trkpt lat="46.52902" lon="5.9219">
        <ele>980.5</ele>
        <time>2020-01-16T08:12:34Z</time>
      </trkpt>
      <trkpt lat="46.52897" lon="5.92189">
        <ele>981.6</ele>
        <time>2020-01-16T08:12:42Z</time>
      </trkpt>
      <trkpt lat="46.52893" lon="5.92188">
        <ele>982.2</ele>
        <time>2020-01-16T08:12:49Z</time>
      </trkpt>
      <trkpt lat="46.52888" lon="5.92188">
        <ele>982.6</ele>
        <time>2020-01-16T08:12:55Z</time>
      </trkpt>
      <trkpt lat="46.52884" lon="5.92189">
        <ele>983.1</ele>
        <time>2020-01-16T08:13:00Z</time>
      </trkpt>
      <trkpt lat="46.52879" lon="5.9219">
        <ele>984.2</ele>
        <time>2020-01-16T08:13:09Z</time>
      </trkpt>
      <trkpt lat="46.52875" lon="5.92189">
        <ele>985.5</ele>
        <time>2020-01-16T08:13:18Z</time>
      </trkpt>
      <trkpt lat="46.52871" lon="5.92185">
        <ele>987.1</ele>
        <time>2020-01-16T08:13:27Z</time>
      </trkpt>
      <trkpt lat="46.52866" lon="5.92183">
        <ele>988.3</ele>
        <time>2020-01-16T08:13:34Z</time>
      </trkpt>
      <trkpt lat="46.52861" lon="5.92181">
        <ele>989</ele>
        <time>2020-01-16T08:13:40Z</time>
      </trkpt>
      <trkpt lat="46.52857" lon="5.92184">
        <ele>990.2</ele>
        <time>2020-01-16T08:13:51Z</time>
      </trkpt>
      <trkpt lat="46.52853" lon="5.92184">
        <ele>991.6</ele>
        <time>2020-01-16T08:14:02Z</time>
      </trkpt>
      <trkpt lat="46.52848" lon="5.92186">
        <ele>991.8</ele>
        <time>2020-01-16T08:14:09Z</time>
      </trkpt>
      <trkpt lat="46.52844" lon="5.92189">
        <ele>991.6</ele>
        <time>2020-01-16T08:14:14Z</time>
      </trkpt>
      <trkpt lat="46.52839" lon="5.92193">
        <ele>991.2</ele>
        <time>2020-01-16T08:14:20Z</time>
      </trkpt>
      <trkpt lat="46.52835" lon="5.92196">
        <ele>990.9</ele>
        <time>2020-01-16T08:14:27Z</time>
      </trkpt>
      <trkpt lat="46.5283" lon="5.92198">
        <ele>991.3</ele>
        <time>2020-01-16T08:14:35Z</time>
      </trkpt>
      <trkpt lat="46.52825" lon="5.922">
        <ele>992.3</ele>
        <time>2020-01-16T08:14:43Z</time>
      </trkpt>
      <trkpt lat="46.52821" lon="5.92202">
        <ele>993.6</ele>
        <time>2020-01-16T08:14:50Z</time>
      </trkpt>
      <trkpt lat="46.52817" lon="5.92206">
        <ele>995.1</ele>
        <time>2020-01-16T08:14:59Z</time>
      </trkpt>
      <trkpt lat="46.52814" lon="5.9221">
        <ele>995.8</ele>
        <time>2020-01-16T08:15:08Z</time>
      </trkpt>
      <trkpt lat="46.52809" lon="5.92212">
        <ele>996.2</ele>
        <time>2020-01-16T08:15:14Z</time>
      </trkpt>
      <trkpt lat="46.52805" lon="5.92213">
        <ele>997.1</ele>
        <time>2020-01-16T08:15:22Z</time>
      </trkpt>
      <trkpt lat="46.528" lon="5.92211">
        <ele>998.6</ele>
        <time>2020-01-16T08:15:31Z</time>
      </trkpt>
      <trkpt lat="46.52795" lon="5.92212">
        <ele>999</ele>
        <time>2020-01-16T08:15:37Z</time>
      </trkpt>
      <trkpt lat="46.5279" lon="5.92214">
        <ele>998.8</ele>
        <time>2020-01-16T08:15:43Z</time>
      </trkpt>
      <trkpt lat="46.52786" lon="5.92216">
        <ele>998.6</ele>
        <time>2020-01-16T08:15:48Z</time>
      </trkpt>
      <trkpt lat="46.52781" lon="5.92218">
        <ele>998.6</ele>
        <time>2020-01-16T08:15:53Z</time>
      </trkpt>
      <trkpt lat="46.52777" lon="5.92222">
        <ele>998.7</ele>
        <time>2020-01-16T08:15:59Z</time>
      </trkpt>
      <trkpt lat="46.52773" lon="5.92226">
        <ele>998.5</ele>
        <time>2020-01-16T08:16:11Z</time>
      </trkpt>
      <trkpt lat="46.52769" lon="5.92224">
        <ele>998.4</ele>
        <time>2020-01-16T08:16:18Z</time>
      </trkpt>
      <trkpt lat="46.52767" lon="5.9223">
        <ele>999.7</ele>
        <time>2020-01-16T08:16:31Z</time>
      </trkpt>
      <trkpt lat="46.52762" lon="5.92237">
        <ele>1001.3</ele>
        <time>2020-01-16T08:16:43Z</time>
      </trkpt>
      <trkpt lat="46.52758" lon="5.92241">
        <ele>1001.5</ele>
        <time>2020-01-16T08:16:45Z</time>
      </trkpt>
      <trkpt lat="46.52754" lon="5.92245">
        <ele>1001.9</ele>
        <time>2020-01-16T08:16:49Z</time>
      </trkpt>
      <trkpt lat="46.5275" lon="5.92251">
        <ele>1003.6</ele>
        <time>2020-01-16T08:16:58Z</time>
      </trkpt>
      <trkpt lat="46.52748" lon="5.92257">
        <ele>1004.9</ele>
        <time>2020-01-16T08:17:06Z</time>
      </trkpt>
      <trkpt lat="46.52744" lon="5.9226">
        <ele>1005.4</ele>
        <time>2020-01-16T08:17:14Z</time>
      </trkpt>
      <trkpt lat="46.52739" lon="5.92261">
        <ele>1005.4</ele>
        <time>2020-01-16T08:17:23Z</time>
      </trkpt>
      <trkpt lat="46.52734" lon="5.92264">
        <ele>1005.3</ele>
        <time>2020-01-16T08:17:30Z</time>
      </trkpt>
      <trkpt lat="46.52732" lon="5.92269">
        <ele>1005.9</ele>
        <time>2020-01-16T08:17:45Z</time>
      </trkpt>
      <trkpt lat="46.52731" lon="5.92276">
        <ele>1006.7</ele>
        <time>2020-01-16T08:18:00Z</time>
      </trkpt>
      <trkpt lat="46.5273" lon="5.92283">
        <ele>1007.3</ele>
        <time>2020-01-16T08:18:04Z</time>
      </trkpt>
      <trkpt lat="46.52727" lon="5.92288">
        <ele>1007.7</ele>
        <time>2020-01-16T08:18:07Z</time>
      </trkpt>
      <trkpt lat="46.52724" lon="5.92294">
        <ele>1008.3</ele>
        <time>2020-01-16T08:18:19Z</time>
      </trkpt>
      <trkpt lat="46.52721" lon="5.923">
        <ele>1010.5</ele>
        <time>2020-01-16T08:18:43Z</time>
      </trkpt>
      <trkpt lat="46.52721" lon="5.9231">
        <ele>1017.1</ele>
        <time>2020-01-16T08:19:18Z</time>
      </trkpt>
      <trkpt lat="46.52722" lon="5.92324">
        <ele>1021</ele>
        <time>2020-01-16T08:19:26Z</time>
      </trkpt>
      <trkpt lat="46.52721" lon="5.9233">
        <ele>1022.5</ele>
        <time>2020-01-16T08:19:33Z</time>
      </trkpt>
      <trkpt lat="46.52716" lon="5.92334">
        <ele>1022.8</ele>
        <time>2020-01-16T08:19:39Z</time>
      </trkpt>
      <trkpt lat="46.52711" lon="5.92339">
        <ele>1022.6</ele>
        <time>2020-01-16T08:19:42Z</time>
      </trkpt>
      <trkpt lat="46.52707" lon="5.92343">
        <ele>1022.4</ele>
        <time>2020-01-16T08:19:46Z</time>
      </trkpt>
      <trkpt lat="46.52702" lon="5.92345">
        <ele>1022.1</ele>
        <time>2020-01-16T08:19:51Z</time>
      </trkpt>
      <trkpt lat="46.52698" lon="5.92349">
        <ele>1022.7</ele>
        <time>2020-01-16T08:19:57Z</time>
      </trkpt>
      <trkpt lat="46.52697" lon="5.92355">
        <ele>1024.7</ele>
        <time>2020-01-16T08:20:07Z</time>
      </trkpt>
      <trkpt lat="46.52695" lon="5.92362">
        <ele>1025.8</ele>
        <time>2020-01-16T08:20:12Z</time>
      </trkpt>
      <trkpt lat="46.52693" lon="5.92368">
        <ele>1027</ele>
        <time>2020-01-16T08:20:21Z</time>
      </trkpt>
      <trkpt lat="46.52692" lon="5.92375">
        <ele>1028.1</ele>
        <time>2020-01-16T08:20:29Z</time>
      </trkpt>
      <trkpt lat="46.52689" lon="5.92382">
        <ele>1029.3</ele>
        <time>2020-01-16T08:20:41Z</time>
      </trkpt>
      <trkpt lat="46.52687" lon="5.92387">
        <ele>1029.7</ele>
        <time>2020-01-16T08:20:50Z</time>
      </trkpt>
      <trkpt lat="46.52684" lon="5.92392">
        <ele>1030</ele>
        <time>2020-01-16T08:21:05Z</time>
      </trkpt>
      <trkpt lat="46.52681" lon="5.92397">
        <ele>1026.7</ele>
        <time>2020-01-16T08:21:25Z</time>
      </trkpt>
      <trkpt lat="46.5268" lon="5.92403">
        <ele>1024.7</ele>
        <time>2020-01-16T08:21:33Z</time>
      </trkpt>
      <trkpt lat="46.52678" lon="5.9241">
        <ele>1022.3</ele>
        <time>2020-01-16T08:21:40Z</time>
      </trkpt>
      <trkpt lat="46.52677" lon="5.92416">
        <ele>1020.6</ele>
        <time>2020-01-16T08:21:45Z</time>
      </trkpt>
      <trkpt lat="46.52675" lon="5.92423">
        <ele>1019</ele>
        <time>2020-01-16T08:21:51Z</time>
      </trkpt>
      <trkpt lat="46.52673" lon="5.9243">
        <ele>1018.3</ele>
        <time>2020-01-16T08:21:57Z</time>
      </trkpt>
      <trkpt lat="46.52672" lon="5.92437">
        <ele>1018.4</ele>
        <time>2020-01-16T08:22:04Z</time>
      </trkpt>
      <trkpt lat="46.5267" lon="5.92443">
        <ele>1018.8</ele>
        <time>2020-01-16T08:22:11Z</time>
      </trkpt>
      <trkpt lat="46.52668" lon="5.9245">
        <ele>1020.7</ele>
        <time>2020-01-16T08:22:23Z</time>
      </trkpt>
      <trkpt lat="46.52664" lon="5.92455">
        <ele>1021.3</ele>
        <time>2020-01-16T08:22:27Z</time>
      </trkpt>
      <trkpt lat="46.52658" lon="5.92459">
        <ele>1021.6</ele>
        <time>2020-01-16T08:22:29Z</time>
      </trkpt>
      <trkpt lat="46.52654" lon="5.92463">
        <ele>1021.9</ele>
        <time>2020-01-16T08:22:32Z</time>
      </trkpt>
      <trkpt lat="46.52652" lon="5.9247">
        <ele>1022.1</ele>
        <time>2020-01-16T08:22:35Z</time>
      </trkpt>
      <trkpt lat="46.52646" lon="5.9248">
        <ele>1025.6</ele>
        <time>2020-01-16T08:23:08Z</time>
      </trkpt>
      <trkpt lat="46.52643" lon="5.92486">
        <ele>1026.5</ele>
        <time>2020-01-16T08:23:16Z</time>
      </trkpt>
      <trkpt lat="46.52639" lon="5.9249">
        <ele>1027.1</ele>
        <time>2020-01-16T08:23:23Z</time>
      </trkpt>
      <trkpt lat="46.52635" lon="5.92494">
        <ele>1027.3</ele>
        <time>2020-01-16T08:23:29Z</time>
      </trkpt>
      <trkpt lat="46.52631" lon="5.92499">
        <ele>1027.5</ele>
        <time>2020-01-16T08:23:36Z</time>
      </trkpt>
      <trkpt lat="46.52627" lon="5.92503">
        <ele>1027.6</ele>
        <time>2020-01-16T08:23:42Z</time>
      </trkpt>
      <trkpt lat="46.52623" lon="5.92506">
        <ele>1027.5</ele>
        <time>2020-01-16T08:23:46Z</time>
      </trkpt>
      <trkpt lat="46.52618" lon="5.92511">
        <ele>1027.3</ele>
        <time>2020-01-16T08:23:49Z</time>
      </trkpt>
      <trkpt lat="46.52614" lon="5.92512">
        <ele>1026.8</ele>
        <time>2020-01-16T08:23:57Z</time>
      </trkpt>
      <trkpt lat="46.52609" lon="5.92511">
        <ele>1026.7</ele>
        <time>2020-01-16T08:24:03Z</time>
      </trkpt>
      <trkpt lat="46.52604" lon="5.92512">
        <ele>1026.7</ele>
        <time>2020-01-16T08:24:07Z</time>
      </trkpt>
      <trkpt lat="46.52599" lon="5.92516">
        <ele>1026.6</ele>
        <time>2020-01-16T08:24:10Z</time>
      </trkpt>
      <trkpt lat="46.52595" lon="5.9252">
        <ele>1026.4</ele>
        <time>2020-01-16T08:24:14Z</time>
      </trkpt>
      <trkpt lat="46.52579" lon="5.9254">
        <ele>1022.2</ele>
        <time>2020-01-16T08:24:35Z</time>
      </trkpt>
      <trkpt lat="46.52575" lon="5.92544">
        <ele>1021.5</ele>
        <time>2020-01-16T08:24:39Z</time>
      </trkpt>
      <trkpt lat="46.52572" lon="5.92549">
        <ele>1020.3</ele>
        <time>2020-01-16T08:24:44Z</time>
      </trkpt>
      <trkpt lat="46.52568" lon="5.92553">
        <ele>1018.5</ele>
        <time>2020-01-16T08:24:52Z</time>
      </trkpt>
      <trkpt lat="46.52563" lon="5.92553">
        <ele>1016.6</ele>
        <time>2020-01-16T08:25:02Z</time>
      </trkpt>
      <trkpt lat="46.52559" lon="5.92558">
        <ele>1016.4</ele>
        <time>2020-01-16T08:25:05Z</time>
      </trkpt>
      <trkpt lat="46.52554" lon="5.9256">
        <ele>1016.2</ele>
        <time>2020-01-16T08:25:09Z</time>
      </trkpt>
      <trkpt lat="46.52549" lon="5.9256">
        <ele>1016.7</ele>
        <time>2020-01-16T08:25:14Z</time>
      </trkpt>
      <trkpt lat="46.52531" lon="5.92561">
        <ele>1020</ele>
        <time>2020-01-16T08:25:28Z</time>
      </trkpt>
      <trkpt lat="46.52526" lon="5.92562">
        <ele>1021.1</ele>
        <time>2020-01-16T08:25:37Z</time>
      </trkpt>
      <trkpt lat="46.52521" lon="5.92564">
        <ele>1022.1</ele>
        <time>2020-01-16T08:25:48Z</time>
      </trkpt>
      <trkpt lat="46.52517" lon="5.92566">
        <ele>1021.8</ele>
        <time>2020-01-16T08:25:55Z</time>
      </trkpt>
      <trkpt lat="46.52512" lon="5.92567">
        <ele>1022</ele>
        <time>2020-01-16T08:26:03Z</time>
      </trkpt>
      <trkpt lat="46.52506" lon="5.9257">
        <ele>1022.9</ele>
        <time>2020-01-16T08:26:10Z</time>
      </trkpt>
      <trkpt lat="46.52502" lon="5.92572">
        <ele>1023.2</ele>
        <time>2020-01-16T08:26:12Z</time>
      </trkpt>
      <trkpt lat="46.52497" lon="5.92575">
        <ele>1024.1</ele>
        <time>2020-01-16T08:26:16Z</time>
      </trkpt>
      <trkpt lat="46.52491" lon="5.92588">
        <ele>1026.7</ele>
        <time>2020-01-16T08:26:27Z</time>
      </trkpt>
      <trkpt lat="46.52487" lon="5.92594">
        <ele>1027</ele>
        <time>2020-01-16T08:26:31Z</time>
      </trkpt>
      <trkpt lat="46.52483" lon="5.92597">
        <ele>1027.4</ele>
        <time>2020-01-16T08:26:37Z</time>
      </trkpt>
      <trkpt lat="46.52471" lon="5.92598">
        <ele>1027.7</ele>
        <time>2020-01-16T08:26:51Z</time>
      </trkpt>
      <trkpt lat="46.52466" lon="5.92599">
        <ele>1027.4</ele>
        <time>2020-01-16T08:26:55Z</time>
      </trkpt>
      <trkpt lat="46.52462" lon="5.92602">
        <ele>1026.9</ele>
        <time>2020-01-16T08:27:00Z</time>
      </trkpt>
      <trkpt lat="46.52457" lon="5.92605">
        <ele>1026.2</ele>
        <time>2020-01-16T08:27:08Z</time>
      </trkpt>
      <trkpt lat="46.52452" lon="5.92605">
        <ele>1025.9</ele>
        <time>2020-01-16T08:27:17Z</time>
      </trkpt>
      <trkpt lat="46.52447" lon="5.92607">
        <ele>1026.1</ele>
        <time>2020-01-16T08:27:21Z</time>
      </trkpt>
      <trkpt lat="46.52442" lon="5.92605">
        <ele>1026.5</ele>
        <time>2020-01-16T08:27:26Z</time>
      </trkpt>
      <trkpt lat="46.52438" lon="5.92604">
        <ele>1027.1</ele>
        <time>2020-01-16T08:27:33Z</time>
      </trkpt>
      <trkpt lat="46.52435" lon="5.92597">
        <ele>1027.8</ele>
        <time>2020-01-16T08:27:39Z</time>
      </trkpt>
      <trkpt lat="46.52431" lon="5.92593">
        <ele>1028.9</ele>
        <time>2020-01-16T08:27:46Z</time>
      </trkpt>
      <trkpt lat="46.52426" lon="5.92593">
        <ele>1030.1</ele>
        <time>2020-01-16T08:27:52Z</time>
      </trkpt>
      <trkpt lat="46.52421" lon="5.92594">
        <ele>1030.9</ele>
        <time>2020-01-16T08:27:56Z</time>
      </trkpt>
      <trkpt lat="46.52416" lon="5.92595">
        <ele>1032</ele>
        <time>2020-01-16T08:28:01Z</time>
      </trkpt>
      <trkpt lat="46.52411" lon="5.92594">
        <ele>1033.4</ele>
        <time>2020-01-16T08:28:10Z</time>
      </trkpt>
      <trkpt lat="46.52407" lon="5.9259">
        <ele>1034.1</ele>
        <time>2020-01-16T08:28:18Z</time>
      </trkpt>
      <trkpt lat="46.52404" lon="5.92585">
        <ele>1035</ele>
        <time>2020-01-16T08:28:24Z</time>
      </trkpt>
      <trkpt lat="46.524" lon="5.9258">
        <ele>1036.3</ele>
        <time>2020-01-16T08:28:32Z</time>
      </trkpt>
      <trkpt lat="46.52397" lon="5.92576">
        <ele>1037.9</ele>
        <time>2020-01-16T08:28:39Z</time>
      </trkpt>
      <trkpt lat="46.52391" lon="5.92575">
        <ele>1038.7</ele>
        <time>2020-01-16T08:28:46Z</time>
      </trkpt>
      <trkpt lat="46.52386" lon="5.92573">
        <ele>1039.2</ele>
        <time>2020-01-16T08:28:51Z</time>
      </trkpt>
      <trkpt lat="46.52381" lon="5.92571">
        <ele>1039.8</ele>
        <time>2020-01-16T08:28:57Z</time>
      </trkpt>
      <trkpt lat="46.52376" lon="5.92572">
        <ele>1039.4</ele>
        <time>2020-01-16T08:29:06Z</time>
      </trkpt>
      <trkpt lat="46.52371" lon="5.92571">
        <ele>1039.1</ele>
        <time>2020-01-16T08:29:11Z</time>
      </trkpt>
      <trkpt lat="46.52366" lon="5.92571">
        <ele>1039</ele>
        <time>2020-01-16T08:29:17Z</time>
      </trkpt>
      <trkpt lat="46.52361" lon="5.92574">
        <ele>1038.9</ele>
        <time>2020-01-16T08:29:25Z</time>
      </trkpt>
      <trkpt lat="46.52357" lon="5.92573">
        <ele>1038.5</ele>
        <time>2020-01-16T08:29:30Z</time>
      </trkpt>
      <trkpt lat="46.52352" lon="5.92573">
        <ele>1037.7</ele>
        <time>2020-01-16T08:29:36Z</time>
      </trkpt>
      <trkpt lat="46.52347" lon="5.92576">
        <ele>1036.9</ele>
        <time>2020-01-16T08:29:41Z</time>
      </trkpt>
      <trkpt lat="46.52342" lon="5.92578">
        <ele>1036.3</ele>
        <time>2020-01-16T08:29:46Z</time>
      </trkpt>
      <trkpt lat="46.52337" lon="5.92578">
        <ele>1036.1</ele>
        <time>2020-01-16T08:29:52Z</time>
      </trkpt>
      <trkpt lat="46.52332" lon="5.92577">
        <ele>1036</ele>
        <time>2020-01-16T08:29:56Z</time>
      </trkpt>
      <trkpt lat="46.52328" lon="5.92581">
        <ele>1035.6</ele>
        <time>2020-01-16T08:30:03Z</time>
      </trkpt>
      <trkpt lat="46.5233" lon="5.92597">
        <ele>1035.4</ele>
        <time>2020-01-16T08:30:19Z</time>
      </trkpt>
      <trkpt lat="46.52331" lon="5.92604">
        <ele>1035.5</ele>
        <time>2020-01-16T08:30:25Z</time>
      </trkpt>
      <trkpt lat="46.52329" lon="5.92611">
        <ele>1035.2</ele>
        <time>2020-01-16T08:30:33Z</time>
      </trkpt>
      <trkpt lat="46.52327" lon="5.92617">
        <ele>1035.2</ele>
        <time>2020-01-16T08:30:40Z</time>
      </trkpt>
      <trkpt lat="46.52326" lon="5.92625">
        <ele>1035.3</ele>
        <time>2020-01-16T08:30:46Z</time>
      </trkpt>
      <trkpt lat="46.52323" lon="5.9263">
        <ele>1035.5</ele>
        <time>2020-01-16T08:30:52Z</time>
      </trkpt>
      <trkpt lat="46.52318" lon="5.92633">
        <ele>1035.4</ele>
        <time>2020-01-16T08:30:58Z</time>
      </trkpt>
      <trkpt lat="46.52314" lon="5.92636">
        <ele>1035.3</ele>
        <time>2020-01-16T08:31:04Z</time>
      </trkpt>
      <trkpt lat="46.5231" lon="5.9264">
        <ele>1035.1</ele>
        <time>2020-01-16T08:31:11Z</time>
      </trkpt>
      <trkpt lat="46.52305" lon="5.92643">
        <ele>1034.8</ele>
        <time>2020-01-16T08:31:18Z</time>
      </trkpt>
      <trkpt lat="46.52294" lon="5.92649">
        <ele>1034.1</ele>
        <time>2020-01-16T08:31:38Z</time>
      </trkpt>
      <trkpt lat="46.5229" lon="5.92651">
        <ele>1033.7</ele>
        <time>2020-01-16T08:31:44Z</time>
      </trkpt>
      <trkpt lat="46.52285" lon="5.92654">
        <ele>1033.1</ele>
        <time>2020-01-16T08:31:50Z</time>
      </trkpt>
      <trkpt lat="46.5228" lon="5.92658">
        <ele>1032.7</ele>
        <time>2020-01-16T08:31:55Z</time>
      </trkpt>
      <trkpt lat="46.52276" lon="5.92663">
        <ele>1032.5</ele>
        <time>2020-01-16T08:31:58Z</time>
      </trkpt>
      <trkpt lat="46.5227" lon="5.92675">
        <ele>1030.6</ele>
        <time>2020-01-16T08:32:12Z</time>
      </trkpt>
      <trkpt lat="46.52268" lon="5.92681">
        <ele>1030.2</ele>
        <time>2020-01-16T08:32:16Z</time>
      </trkpt>
      <trkpt lat="46.52266" lon="5.92687">
        <ele>1029.7</ele>
        <time>2020-01-16T08:32:21Z</time>
      </trkpt>
      <trkpt lat="46.52264" lon="5.92694">
        <ele>1029.1</ele>
        <time>2020-01-16T08:32:27Z</time>
      </trkpt>
      <trkpt lat="46.52262" lon="5.92701">
        <ele>1028.7</ele>
        <time>2020-01-16T08:32:31Z</time>
      </trkpt>
      <trkpt lat="46.52261" lon="5.92708">
        <ele>1028</ele>
        <time>2020-01-16T08:32:36Z</time>
      </trkpt>
      <trkpt lat="46.52255" lon="5.92718">
        <ele>1018.1</ele>
        <time>2020-01-16T08:33:56Z</time>
      </trkpt>
      <trkpt lat="46.52256" lon="5.92731">
        <ele>1017</ele>
        <time>2020-01-16T08:34:08Z</time>
      </trkpt>
      <trkpt lat="46.52256" lon="5.92738">
        <ele>1016.5</ele>
        <time>2020-01-16T08:34:11Z</time>
      </trkpt>
      <trkpt lat="46.52256" lon="5.92746">
        <ele>1015.7</ele>
        <time>2020-01-16T08:34:17Z</time>
      </trkpt>
      <trkpt lat="46.52256" lon="5.92752">
        <ele>1014.8</ele>
        <time>2020-01-16T08:34:27Z</time>
      </trkpt>
      <trkpt lat="46.52253" lon="5.92761">
        <ele>1014.9</ele>
        <time>2020-01-16T08:34:33Z</time>
      </trkpt>
      <trkpt lat="46.52251" lon="5.92768">
        <ele>1015.3</ele>
        <time>2020-01-16T08:34:36Z</time>
      </trkpt>
      <trkpt lat="46.52248" lon="5.92775">
        <ele>1015.8</ele>
        <time>2020-01-16T08:34:39Z</time>
      </trkpt>
      <trkpt lat="46.52245" lon="5.92782">
        <ele>1016.2</ele>
        <time>2020-01-16T08:34:42Z</time>
      </trkpt>
      <trkpt lat="46.52242" lon="5.92787">
        <ele>1016.5</ele>
        <time>2020-01-16T08:34:45Z</time>
      </trkpt>
      <trkpt lat="46.52238" lon="5.92793">
        <ele>1016.9</ele>
        <time>2020-01-16T08:34:50Z</time>
      </trkpt>
      <trkpt lat="46.52235" lon="5.92796">
        <ele>1017.3</ele>
        <time>2020-01-16T08:34:55Z</time>
      </trkpt>
      <trkpt lat="46.52232" lon="5.92802">
        <ele>1017.1</ele>
        <time>2020-01-16T08:35:02Z</time>
      </trkpt>
      <trkpt lat="46.52229" lon="5.92808">
        <ele>1016.6</ele>
        <time>2020-01-16T08:35:08Z</time>
      </trkpt>
      <trkpt lat="46.52226" lon="5.92813">
        <ele>1015.5</ele>
        <time>2020-01-16T08:35:16Z</time>
      </trkpt>
      <trkpt lat="46.52221" lon="5.92817">
        <ele>1014.9</ele>
        <time>2020-01-16T08:35:20Z</time>
      </trkpt>
      <trkpt lat="46.52218" lon="5.92822">
        <ele>1014.3</ele>
        <time>2020-01-16T08:35:24Z</time>
      </trkpt>
      <trkpt lat="46.52214" lon="5.92827">
        <ele>1013.9</ele>
        <time>2020-01-16T08:35:28Z</time>
      </trkpt>
      <trkpt lat="46.52209" lon="5.9283">
        <ele>1013.5</ele>
        <time>2020-01-16T08:35:33Z</time>
      </trkpt>
      <trkpt lat="46.52206" lon="5.92834">
        <ele>1013.1</ele>
        <time>2020-01-16T08:35:39Z</time>
      </trkpt>
      <trkpt lat="46.52201" lon="5.92837">
        <ele>1012.4</ele>
        <time>2020-01-16T08:35:45Z</time>
      </trkpt>
      <trkpt lat="46.52196" lon="5.9284">
        <ele>1011.5</ele>
        <time>2020-01-16T08:35:51Z</time>
      </trkpt>
      <trkpt lat="46.52193" lon="5.92845">
        <ele>1010.8</ele>
        <time>2020-01-16T08:35:56Z</time>
      </trkpt>
      <trkpt lat="46.52189" lon="5.92849">
        <ele>1010.2</ele>
        <time>2020-01-16T08:36:02Z</time>
      </trkpt>
      <trkpt lat="46.52185" lon="5.92853">
        <ele>1009.4</ele>
        <time>2020-01-16T08:36:08Z</time>
      </trkpt>
      <trkpt lat="46.5218" lon="5.92856">
        <ele>1008.7</ele>
        <time>2020-01-16T08:36:12Z</time>
      </trkpt>
      <trkpt lat="46.52175" lon="5.92856">
        <ele>1007.5</ele>
        <time>2020-01-16T08:36:18Z</time>
      </trkpt>
      <trkpt lat="46.5217" lon="5.92855">
        <ele>1006.1</ele>
        <time>2020-01-16T08:36:24Z</time>
      </trkpt>
      <trkpt lat="46.52164" lon="5.92856">
        <ele>1005</ele>
        <time>2020-01-16T08:36:29Z</time>
      </trkpt>
      <trkpt lat="46.5216" lon="5.92857">
        <ele>1004.3</ele>
        <time>2020-01-16T08:36:35Z</time>
      </trkpt>
      <trkpt lat="46.52155" lon="5.92859">
        <ele>1004</ele>
        <time>2020-01-16T08:36:42Z</time>
      </trkpt>
      <trkpt lat="46.5215" lon="5.92858">
        <ele>1003.4</ele>
        <time>2020-01-16T08:36:47Z</time>
      </trkpt>
      <trkpt lat="46.52145" lon="5.92858">
        <ele>1003</ele>
        <time>2020-01-16T08:36:51Z</time>
      </trkpt>
      <trkpt lat="46.5214" lon="5.92858">
        <ele>1002.8</ele>
        <time>2020-01-16T08:36:54Z</time>
      </trkpt>
      <trkpt lat="46.52135" lon="5.92859">
        <ele>1002.9</ele>
        <time>2020-01-16T08:37:00Z</time>
      </trkpt>
      <trkpt lat="46.5213" lon="5.92859">
        <ele>1002.9</ele>
        <time>2020-01-16T08:37:06Z</time>
      </trkpt>
      <trkpt lat="46.52124" lon="5.92858">
        <ele>1002.7</ele>
        <time>2020-01-16T08:37:11Z</time>
      </trkpt>
      <trkpt lat="46.52119" lon="5.92858">
        <ele>1002.5</ele>
        <time>2020-01-16T08:37:14Z</time>
      </trkpt>
      <trkpt lat="46.52114" lon="5.92857">
        <ele>1001.9</ele>
        <time>2020-01-16T08:37:20Z</time>
      </trkpt>
      <trkpt lat="46.5211" lon="5.92855">
        <ele>1001.4</ele>
        <time>2020-01-16T08:37:26Z</time>
      </trkpt>
      <trkpt lat="46.52105" lon="5.92856">
        <ele>1001</ele>
        <time>2020-01-16T08:37:33Z</time>
      </trkpt>
      <trkpt lat="46.521" lon="5.92857">
        <ele>1000.8</ele>
        <time>2020-01-16T08:37:38Z</time>
      </trkpt>
      <trkpt lat="46.52095" lon="5.92861">
        <ele>1000.4</ele>
        <time>2020-01-16T08:37:43Z</time>
      </trkpt>
      <trkpt lat="46.52091" lon="5.92864">
        <ele>1000.1</ele>
        <time>2020-01-16T08:37:47Z</time>
      </trkpt>
      <trkpt lat="46.52086" lon="5.92866">
        <ele>1000</ele>
        <time>2020-01-16T08:37:51Z</time>
      </trkpt>
      <trkpt lat="46.52081" lon="5.92867">
        <ele>999.9</ele>
        <time>2020-01-16T08:37:54Z</time>
      </trkpt>
      <trkpt lat="46.52077" lon="5.92869">
        <ele>999.8</ele>
        <time>2020-01-16T08:37:57Z</time>
      </trkpt>
      <trkpt lat="46.52072" lon="5.92867">
        <ele>999.8</ele>
        <time>2020-01-16T08:38:01Z</time>
      </trkpt>
      <trkpt lat="46.52068" lon="5.92863">
        <ele>1000.1</ele>
        <time>2020-01-16T08:38:06Z</time>
      </trkpt>
      <trkpt lat="46.52064" lon="5.92859">
        <ele>1000.5</ele>
        <time>2020-01-16T08:38:11Z</time>
      </trkpt>
      <trkpt lat="46.5206" lon="5.92854">
        <ele>1001.4</ele>
        <time>2020-01-16T08:38:18Z</time>
      </trkpt>
      <trkpt lat="46.52056" lon="5.9285">
        <ele>1001.8</ele>
        <time>2020-01-16T08:38:23Z</time>
      </trkpt>
      <trkpt lat="46.52051" lon="5.92847">
        <ele>1002.1</ele>
        <time>2020-01-16T08:38:30Z</time>
      </trkpt>
      <trkpt lat="46.52046" lon="5.92848">
        <ele>1002</ele>
        <time>2020-01-16T08:38:38Z</time>
      </trkpt>
      <trkpt lat="46.5204" lon="5.9285">
        <ele>1001.7</ele>
        <time>2020-01-16T08:38:42Z</time>
      </trkpt>
      <trkpt lat="46.52036" lon="5.92853">
        <ele>1001.2</ele>
        <time>2020-01-16T08:38:47Z</time>
      </trkpt>
      <trkpt lat="46.52031" lon="5.92854">
        <ele>1000.5</ele>
        <time>2020-01-16T08:38:55Z</time>
      </trkpt>
      <trkpt lat="46.52026" lon="5.92853">
        <ele>1000.2</ele>
        <time>2020-01-16T08:39:00Z</time>
      </trkpt>
      <trkpt lat="46.52021" lon="5.92851">
        <ele>999.7</ele>
        <time>2020-01-16T08:39:06Z</time>
      </trkpt>
      <trkpt lat="46.52017" lon="5.92848">
        <ele>998.7</ele>
        <time>2020-01-16T08:39:15Z</time>
      </trkpt>
      <trkpt lat="46.52011" lon="5.92844">
        <ele>997.8</ele>
        <time>2020-01-16T08:39:21Z</time>
      </trkpt>
      <trkpt lat="46.52007" lon="5.92841">
        <ele>997.3</ele>
        <time>2020-01-16T08:39:24Z</time>
      </trkpt>
      <trkpt lat="46.52003" lon="5.92838">
        <ele>996.7</ele>
        <time>2020-01-16T08:39:29Z</time>
      </trkpt>
      <trkpt lat="46.51996" lon="5.92831">
        <ele>996.3</ele>
        <time>2020-01-16T08:39:39Z</time>
      </trkpt>
      <trkpt lat="46.51991" lon="5.92828">
        <ele>996.3</ele>
        <time>2020-01-16T08:39:44Z</time>
      </trkpt>
      <trkpt lat="46.51986" lon="5.92827">
        <ele>996.2</ele>
        <time>2020-01-16T08:39:50Z</time>
      </trkpt>
      <trkpt lat="46.51981" lon="5.92826">
        <ele>996</ele>
        <time>2020-01-16T08:39:58Z</time>
      </trkpt>
      <trkpt lat="46.51976" lon="5.92827">
        <ele>995.3</ele>
        <time>2020-01-16T08:40:06Z</time>
      </trkpt>
      <trkpt lat="46.51972" lon="5.92829">
        <ele>994.5</ele>
        <time>2020-01-16T08:40:12Z</time>
      </trkpt>
      <trkpt lat="46.51964" lon="5.92833">
        <ele>991.8</ele>
        <time>2020-01-16T08:40:31Z</time>
      </trkpt>
      <trkpt lat="46.5196" lon="5.92835">
        <ele>990.3</ele>
        <time>2020-01-16T08:40:38Z</time>
      </trkpt>
      <trkpt lat="46.51952" lon="5.9284">
        <ele>988.1</ele>
        <time>2020-01-16T08:40:49Z</time>
      </trkpt>
      <trkpt lat="46.51946" lon="5.92843">
        <ele>987.9</ele>
        <time>2020-01-16T08:40:54Z</time>
      </trkpt>
      <trkpt lat="46.51941" lon="5.92846">
        <ele>987.9</ele>
        <time>2020-01-16T08:40:56Z</time>
      </trkpt>
      <trkpt lat="46.51935" lon="5.92847">
        <ele>988</ele>
        <time>2020-01-16T08:41:00Z</time>
      </trkpt>
      <trkpt lat="46.5193" lon="5.92851">
        <ele>988</ele>
        <time>2020-01-16T08:41:03Z</time>
      </trkpt>
      <trkpt lat="46.51923" lon="5.92855">
        <ele>988</ele>
        <time>2020-01-16T08:41:05Z</time>
      </trkpt>
      <trkpt lat="46.51917" lon="5.92859">
        <ele>987.9</ele>
        <time>2020-01-16T08:41:07Z</time>
      </trkpt>
      <trkpt lat="46.51912" lon="5.92863">
        <ele>987.7</ele>
        <time>2020-01-16T08:41:10Z</time>
      </trkpt>
      <trkpt lat="46.51908" lon="5.92866">
        <ele>987.3</ele>
        <time>2020-01-16T08:41:15Z</time>
      </trkpt>
      <trkpt lat="46.51903" lon="5.92869">
        <ele>987</ele>
        <time>2020-01-16T08:41:23Z</time>
      </trkpt>
      <trkpt lat="46.51899" lon="5.92871">
        <ele>986.8</ele>
        <time>2020-01-16T08:41:29Z</time>
      </trkpt>
      <trkpt lat="46.51894" lon="5.92873">
        <ele>986.6</ele>
        <time>2020-01-16T08:41:33Z</time>
      </trkpt>
      <trkpt lat="46.5189" lon="5.92875">
        <ele>986.3</ele>
        <time>2020-01-16T08:41:36Z</time>
      </trkpt>
      <trkpt lat="46.51886" lon="5.92881">
        <ele>985.8</ele>
        <time>2020-01-16T08:41:42Z</time>
      </trkpt>
      <trkpt lat="46.51882" lon="5.92884">
        <ele>985.5</ele>
        <time>2020-01-16T08:41:48Z</time>
      </trkpt>
      <trkpt lat="46.51877" lon="5.92885">
        <ele>985.1</ele>
        <time>2020-01-16T08:41:53Z</time>
      </trkpt>
      <trkpt lat="46.51872" lon="5.92886">
        <ele>984.4</ele>
        <time>2020-01-16T08:41:59Z</time>
      </trkpt>
      <trkpt lat="46.51867" lon="5.92888">
        <ele>983.8</ele>
        <time>2020-01-16T08:42:04Z</time>
      </trkpt>
      <trkpt lat="46.51863" lon="5.9289">
        <ele>983.7</ele>
        <time>2020-01-16T08:42:11Z</time>
      </trkpt>
      <trkpt lat="46.51858" lon="5.92893">
        <ele>983.7</ele>
        <time>2020-01-16T08:42:16Z</time>
      </trkpt>
      <trkpt lat="46.51854" lon="5.92897">
        <ele>983.7</ele>
        <time>2020-01-16T08:42:21Z</time>
      </trkpt>
      <trkpt lat="46.51849" lon="5.929">
        <ele>983.4</ele>
        <time>2020-01-16T08:42:26Z</time>
      </trkpt>
      <trkpt lat="46.51844" lon="5.92902">
        <ele>983</ele>
        <time>2020-01-16T08:42:32Z</time>
      </trkpt>
      <trkpt lat="46.5184" lon="5.92907">
        <ele>982.8</ele>
        <time>2020-01-16T08:42:35Z</time>
      </trkpt>
      <trkpt lat="46.51836" lon="5.9291">
        <ele>982.7</ele>
        <time>2020-01-16T08:42:39Z</time>
      </trkpt>
      <trkpt lat="46.51831" lon="5.92913">
        <ele>982.6</ele>
        <time>2020-01-16T08:42:44Z</time>
      </trkpt>
      <trkpt lat="46.51827" lon="5.92915">
        <ele>982.1</ele>
        <time>2020-01-16T08:42:51Z</time>
      </trkpt>
      <trkpt lat="46.51822" lon="5.92917">
        <ele>981.4</ele>
        <time>2020-01-16T08:42:57Z</time>
      </trkpt>
      <trkpt lat="46.51818" lon="5.9292">
        <ele>980.4</ele>
        <time>2020-01-16T08:43:03Z</time>
      </trkpt>
      <trkpt lat="46.51813" lon="5.92922">
        <ele>979.1</ele>
        <time>2020-01-16T08:43:09Z</time>
      </trkpt>
      <trkpt lat="46.51811" lon="5.92928">
        <ele>977.9</ele>
        <time>2020-01-16T08:43:15Z</time>
      </trkpt>
      <trkpt lat="46.51809" lon="5.92936">
        <ele>977</ele>
        <time>2020-01-16T08:43:21Z</time>
      </trkpt>
      <trkpt lat="46.51807" lon="5.92943">
        <ele>976.2</ele>
        <time>2020-01-16T08:43:25Z</time>
      </trkpt>
      <trkpt lat="46.51802" lon="5.92957">
        <ele>972.8</ele>
        <time>2020-01-16T08:43:39Z</time>
      </trkpt>
      <trkpt lat="46.51799" lon="5.92963">
        <ele>972.1</ele>
        <time>2020-01-16T08:43:50Z</time>
      </trkpt>
      <trkpt lat="46.518" lon="5.9297">
        <ele>971.3</ele>
        <time>2020-01-16T08:43:59Z</time>
      </trkpt>
      <trkpt lat="46.51803" lon="5.92977">
        <ele>970.7</ele>
        <time>2020-01-16T08:44:05Z</time>
      </trkpt>
      <trkpt lat="46.51805" lon="5.92983">
        <ele>970.2</ele>
        <time>2020-01-16T08:44:19Z</time>
      </trkpt>
      <trkpt lat="46.51808" lon="5.92989">
        <ele>967.6</ele>
        <time>2020-01-16T08:44:29Z</time>
      </trkpt>
      <trkpt lat="46.51806" lon="5.92995">
        <ele>966.8</ele>
        <time>2020-01-16T08:44:37Z</time>
      </trkpt>
      <trkpt lat="46.51803" lon="5.92984">
        <ele>986.5</ele>
        <time>2020-01-16T08:48:45Z</time>
      </trkpt>
      <trkpt lat="46.51801" lon="5.9299">
        <ele>987.8</ele>
        <time>2020-01-16T08:49:10Z</time>
      </trkpt>
      <trkpt lat="46.51801" lon="5.92997">
        <ele>986.6</ele>
        <time>2020-01-16T08:49:17Z</time>
      </trkpt>
      <trkpt lat="46.51802" lon="5.93004">
        <ele>985.6</ele>
        <time>2020-01-16T08:49:22Z</time>
      </trkpt>
      <trkpt lat="46.51802" lon="5.93012">
        <ele>984.6</ele>
        <time>2020-01-16T08:49:27Z</time>
      </trkpt>
      <trkpt lat="46.51801" lon="5.93019">
        <ele>984</ele>
        <time>2020-01-16T08:49:30Z</time>
      </trkpt>
      <trkpt lat="46.51801" lon="5.93026">
        <ele>982.7</ele>
        <time>2020-01-16T08:49:35Z</time>
      </trkpt>
      <trkpt lat="46.518" lon="5.93033">
        <ele>981.5</ele>
        <time>2020-01-16T08:49:40Z</time>
      </trkpt>
      <trkpt lat="46.51799" lon="5.93039">
        <ele>980.9</ele>
        <time>2020-01-16T08:49:43Z</time>
      </trkpt>
      <trkpt lat="46.51796" lon="5.93047">
        <ele>980.2</ele>
        <time>2020-01-16T08:49:47Z</time>
      </trkpt>
      <trkpt lat="46.51794" lon="5.93054">
        <ele>979.5</ele>
        <time>2020-01-16T08:49:52Z</time>
      </trkpt>
      <trkpt lat="46.5179" lon="5.93058">
        <ele>978.9</ele>
        <time>2020-01-16T08:49:57Z</time>
      </trkpt>
      <trkpt lat="46.51786" lon="5.93058">
        <ele>978.4</ele>
        <time>2020-01-16T08:50:02Z</time>
      </trkpt>
      <trkpt lat="46.51781" lon="5.93059">
        <ele>977.5</ele>
        <time>2020-01-16T08:50:10Z</time>
      </trkpt>
      <trkpt lat="46.51776" lon="5.93062">
        <ele>976.9</ele>
        <time>2020-01-16T08:50:15Z</time>
      </trkpt>
      <trkpt lat="46.51772" lon="5.93064">
        <ele>973.5</ele>
        <time>2020-01-16T08:51:24Z</time>
      </trkpt>
      <trkpt lat="46.51779" lon="5.93055">
        <ele>975.5</ele>
        <time>2020-01-16T08:52:28Z</time>
      </trkpt>
      <trkpt lat="46.51783" lon="5.93052">
        <ele>974.9</ele>
        <time>2020-01-16T08:52:33Z</time>
      </trkpt>
      <trkpt lat="46.51787" lon="5.93046">
        <ele>974</ele>
        <time>2020-01-16T08:52:40Z</time>
      </trkpt>
      <trkpt lat="46.51788" lon="5.93039">
        <ele>973.8</ele>
        <time>2020-01-16T08:52:44Z</time>
      </trkpt>
      <trkpt lat="46.51789" lon="5.93031">
        <ele>973.7</ele>
        <time>2020-01-16T08:52:47Z</time>
      </trkpt>
      <trkpt lat="46.51789" lon="5.93025">
        <ele>974</ele>
        <time>2020-01-16T08:52:52Z</time>
      </trkpt>
      <trkpt lat="46.51787" lon="5.93018">
        <ele>974.3</ele>
        <time>2020-01-16T08:52:55Z</time>
      </trkpt>
      <trkpt lat="46.51786" lon="5.93011">
        <ele>975.1</ele>
        <time>2020-01-16T08:53:01Z</time>
      </trkpt>
      <trkpt lat="46.51789" lon="5.93005">
        <ele>975.3</ele>
        <time>2020-01-16T08:53:09Z</time>
      </trkpt>
      <trkpt lat="46.51793" lon="5.93001">
        <ele>975.7</ele>
        <time>2020-01-16T08:53:14Z</time>
      </trkpt>
      <trkpt lat="46.51797" lon="5.92994">
        <ele>976.3</ele>
        <time>2020-01-16T08:53:18Z</time>
      </trkpt>
      <trkpt lat="46.518" lon="5.92989">
        <ele>977</ele>
        <time>2020-01-16T08:53:25Z</time>
      </trkpt>
      <trkpt lat="46.51804" lon="5.92985">
        <ele>977.4</ele>
        <time>2020-01-16T08:53:33Z</time>
      </trkpt>
      <trkpt lat="46.51802" lon="5.92992">
        <ele>978.9</ele>
        <time>2020-01-16T08:53:44Z</time>
      </trkpt>
      <trkpt lat="46.51801" lon="5.93">
        <ele>978.8</ele>
        <time>2020-01-16T08:53:51Z</time>
      </trkpt>
      <trkpt lat="46.51801" lon="5.93009">
        <ele>978.7</ele>
        <time>2020-01-16T08:53:54Z</time>
      </trkpt>
      <trkpt lat="46.51799" lon="5.93018">
        <ele>978.6</ele>
        <time>2020-01-16T08:53:56Z</time>
      </trkpt>
      <trkpt lat="46.51797" lon="5.93025">
        <ele>978.5</ele>
        <time>2020-01-16T08:53:58Z</time>
      </trkpt>
      <trkpt lat="46.51796" lon="5.93032">
        <ele>978.5</ele>
        <time>2020-01-16T08:54:01Z</time>
      </trkpt>
      <trkpt lat="46.51796" lon="5.93039">
        <ele>978.6</ele>
        <time>2020-01-16T08:54:06Z</time>
      </trkpt>
      <trkpt lat="46.51795" lon="5.93047">
        <ele>978.3</ele>
        <time>2020-01-16T08:54:12Z</time>
      </trkpt>
      <trkpt lat="46.51793" lon="5.93053">
        <ele>977.5</ele>
        <time>2020-01-16T08:54:19Z</time>
      </trkpt>
      <trkpt lat="46.5179" lon="5.93058">
        <ele>975.9</ele>
        <time>2020-01-16T08:54:29Z</time>
      </trkpt>
      <trkpt lat="46.51787" lon="5.93062">
        <ele>971.6</ele>
        <time>2020-01-16T08:55:00Z</time>
      </trkpt>
      <trkpt lat="46.51784" lon="5.93067">
        <ele>971.4</ele>
        <time>2020-01-16T08:55:08Z</time>
      </trkpt>
      <trkpt lat="46.51781" lon="5.93072">
        <ele>971.5</ele>
        <time>2020-01-16T08:55:16Z</time>
      </trkpt>
      <trkpt lat="46.51782" lon="5.93079">
        <ele>971.5</ele>
        <time>2020-01-16T08:55:51Z</time>
      </trkpt>
      <trkpt lat="46.51785" lon="5.93074">
        <ele>971.4</ele>
        <time>2020-01-16T08:56:52Z</time>
      </trkpt>
      <trkpt lat="46.51787" lon="5.9308">
        <ele>967.4</ele>
        <time>2020-01-16T08:57:42Z</time>
      </trkpt>
      <trkpt lat="46.51787" lon="5.93073">
        <ele>976.4</ele>
        <time>2020-01-16T08:58:28Z</time>
      </trkpt>
      <trkpt lat="46.51787" lon="5.93066">
        <ele>977.8</ele>
        <time>2020-01-16T08:58:33Z</time>
      </trkpt>
      <trkpt lat="46.51789" lon="5.93058">
        <ele>978.5</ele>
        <time>2020-01-16T08:58:37Z</time>
      </trkpt>
      <trkpt lat="46.51792" lon="5.93052">
        <ele>978.9</ele>
        <time>2020-01-16T08:58:42Z</time>
      </trkpt>
      <trkpt lat="46.51793" lon="5.93045">
        <ele>979</ele>
        <time>2020-01-16T08:58:46Z</time>
      </trkpt>
      <trkpt lat="46.51793" lon="5.93037">
        <ele>978.8</ele>
        <time>2020-01-16T08:58:51Z</time>
      </trkpt>
      <trkpt lat="46.51793" lon="5.9303">
        <ele>978.4</ele>
        <time>2020-01-16T08:58:55Z</time>
      </trkpt>
      <trkpt lat="46.51794" lon="5.93023">
        <ele>977.7</ele>
        <time>2020-01-16T08:59:02Z</time>
      </trkpt>
      <trkpt lat="46.51796" lon="5.93017">
        <ele>976.4</ele>
        <time>2020-01-16T08:59:11Z</time>
      </trkpt>
      <trkpt lat="46.51798" lon="5.9301">
        <ele>976</ele>
        <time>2020-01-16T08:59:16Z</time>
      </trkpt>
      <trkpt lat="46.51799" lon="5.93003">
        <ele>976.3</ele>
        <time>2020-01-16T08:59:21Z</time>
      </trkpt>
      <trkpt lat="46.518" lon="5.92995">
        <ele>977</ele>
        <time>2020-01-16T08:59:27Z</time>
      </trkpt>
      <trkpt lat="46.518" lon="5.92988">
        <ele>977.5</ele>
        <time>2020-01-16T08:59:32Z</time>
      </trkpt>
      <trkpt lat="46.51802" lon="5.92981">
        <ele>978.2</ele>
        <time>2020-01-16T08:59:39Z</time>
      </trkpt>
      <trkpt lat="46.518" lon="5.92975">
        <ele>978.5</ele>
        <time>2020-01-16T08:59:48Z</time>
      </trkpt>
      <trkpt lat="46.51797" lon="5.92969">
        <ele>978.2</ele>
        <time>2020-01-16T08:59:54Z</time>
      </trkpt>
      <trkpt lat="46.51793" lon="5.92964">
        <ele>977.7</ele>
        <time>2020-01-16T09:00:02Z</time>
      </trkpt>
      <trkpt lat="46.51788" lon="5.92962">
        <ele>977.3</ele>
        <time>2020-01-16T09:00:08Z</time>
      </trkpt>
      <trkpt lat="46.51783" lon="5.92964">
        <ele>976.9</ele>
        <time>2020-01-16T09:00:17Z</time>
      </trkpt>
      <trkpt lat="46.51777" lon="5.92964">
        <ele>976.6</ele>
        <time>2020-01-16T09:00:21Z</time>
      </trkpt>
      <trkpt lat="46.51772" lon="5.92965">
        <ele>976.1</ele>
        <time>2020-01-16T09:00:25Z</time>
      </trkpt>
      <trkpt lat="46.51768" lon="5.92966">
        <ele>975.3</ele>
        <time>2020-01-16T09:00:31Z</time>
      </trkpt>
      <trkpt lat="46.51763" lon="5.92967">
        <ele>974.4</ele>
        <time>2020-01-16T09:00:38Z</time>
      </trkpt>
      <trkpt lat="46.51758" lon="5.92968">
        <ele>973.5</ele>
        <time>2020-01-16T09:00:43Z</time>
      </trkpt>
      <trkpt lat="46.51754" lon="5.92971">
        <ele>972.5</ele>
        <time>2020-01-16T09:00:47Z</time>
      </trkpt>
      <trkpt lat="46.51749" lon="5.92973">
        <ele>971.5</ele>
        <time>2020-01-16T09:00:51Z</time>
      </trkpt>
      <trkpt lat="46.51744" lon="5.92974">
        <ele>969.8</ele>
        <time>2020-01-16T09:00:58Z</time>
      </trkpt>
      <trkpt lat="46.5174" lon="5.92975">
        <ele>968.2</ele>
        <time>2020-01-16T09:01:04Z</time>
      </trkpt>
      <trkpt lat="46.51736" lon="5.92978">
        <ele>966.6</ele>
        <time>2020-01-16T09:01:10Z</time>
      </trkpt>
      <trkpt lat="46.51731" lon="5.92979">
        <ele>965.4</ele>
        <time>2020-01-16T09:01:16Z</time>
      </trkpt>
      <trkpt lat="46.51726" lon="5.92981">
        <ele>964.2</ele>
        <time>2020-01-16T09:01:24Z</time>
      </trkpt>
      <trkpt lat="46.51722" lon="5.92984">
        <ele>963.6</ele>
        <time>2020-01-16T09:01:29Z</time>
      </trkpt>
      <trkpt lat="46.51717" lon="5.92985">
        <ele>963</ele>
        <time>2020-01-16T09:01:33Z</time>
      </trkpt>
      <trkpt lat="46.51712" lon="5.92986">
        <ele>962.5</ele>
        <time>2020-01-16T09:01:37Z</time>
      </trkpt>
      <trkpt lat="46.51707" lon="5.92985">
        <ele>961.8</ele>
        <time>2020-01-16T09:01:43Z</time>
      </trkpt>
      <trkpt lat="46.51702" lon="5.92987">
        <ele>961.1</ele>
        <time>2020-01-16T09:01:48Z</time>
      </trkpt>
      <trkpt lat="46.51697" lon="5.92987">
        <ele>960.5</ele>
        <time>2020-01-16T09:01:53Z</time>
      </trkpt>
      <trkpt lat="46.51692" lon="5.92987">
        <ele>960</ele>
        <time>2020-01-16T09:01:58Z</time>
      </trkpt>
      <trkpt lat="46.51688" lon="5.92988">
        <ele>959.7</ele>
        <time>2020-01-16T09:02:01Z</time>
      </trkpt>
      <trkpt lat="46.51682" lon="5.9299">
        <ele>959.3</ele>
        <time>2020-01-16T09:02:05Z</time>
      </trkpt>
      <trkpt lat="46.51677" lon="5.92992">
        <ele>958.9</ele>
        <time>2020-01-16T09:02:09Z</time>
      </trkpt>
      <trkpt lat="46.51672" lon="5.92993">
        <ele>958.6</ele>
        <time>2020-01-16T09:02:12Z</time>
      </trkpt>
      <trkpt lat="46.51667" lon="5.92993">
        <ele>958.5</ele>
        <time>2020-01-16T09:02:17Z</time>
      </trkpt>
      <trkpt lat="46.51662" lon="5.92993">
        <ele>958.5</ele>
        <time>2020-01-16T09:02:21Z</time>
      </trkpt>
      <trkpt lat="46.51657" lon="5.92993">
        <ele>958.5</ele>
        <time>2020-01-16T09:02:25Z</time>
      </trkpt>
      <trkpt lat="46.51652" lon="5.92994">
        <ele>958.6</ele>
        <time>2020-01-16T09:02:29Z</time>
      </trkpt>
      <trkpt lat="46.51647" lon="5.92994">
        <ele>958.5</ele>
        <time>2020-01-16T09:02:33Z</time>
      </trkpt>
      <trkpt lat="46.51642" lon="5.92994">
        <ele>958.2</ele>
        <time>2020-01-16T09:02:38Z</time>
      </trkpt>
      <trkpt lat="46.51637" lon="5.92994">
        <ele>957.6</ele>
        <time>2020-01-16T09:02:42Z</time>
      </trkpt>
      <trkpt lat="46.51632" lon="5.92993">
        <ele>956.5</ele>
        <time>2020-01-16T09:02:47Z</time>
      </trkpt>
      <trkpt lat="46.51627" lon="5.92993">
        <ele>955.8</ele>
        <time>2020-01-16T09:02:51Z</time>
      </trkpt>
      <trkpt lat="46.51622" lon="5.92993">
        <ele>955.3</ele>
        <time>2020-01-16T09:02:55Z</time>
      </trkpt>
      <trkpt lat="46.51617" lon="5.92993">
        <ele>954.7</ele>
        <time>2020-01-16T09:02:59Z</time>
      </trkpt>
      <trkpt lat="46.51612" lon="5.92992">
        <ele>954.3</ele>
        <time>2020-01-16T09:03:03Z</time>
      </trkpt>
      <trkpt lat="46.51608" lon="5.92992">
        <ele>954</ele>
        <time>2020-01-16T09:03:07Z</time>
      </trkpt>
      <trkpt lat="46.51602" lon="5.9299">
        <ele>954.1</ele>
        <time>2020-01-16T09:03:12Z</time>
      </trkpt>
      <trkpt lat="46.51597" lon="5.92989">
        <ele>954.1</ele>
        <time>2020-01-16T09:03:17Z</time>
      </trkpt>
      <trkpt lat="46.51592" lon="5.92989">
        <ele>954.4</ele>
        <time>2020-01-16T09:03:21Z</time>
      </trkpt>
      <trkpt lat="46.51587" lon="5.92989">
        <ele>954.5</ele>
        <time>2020-01-16T09:03:25Z</time>
      </trkpt>
      <trkpt lat="46.51582" lon="5.92988">
        <ele>954.5</ele>
        <time>2020-01-16T09:03:29Z</time>
      </trkpt>
      <trkpt lat="46.51577" lon="5.92987">
        <ele>954.4</ele>
        <time>2020-01-16T09:03:33Z</time>
      </trkpt>
      <trkpt lat="46.51573" lon="5.92984">
        <ele>954.3</ele>
        <time>2020-01-16T09:03:36Z</time>
      </trkpt>
      <trkpt lat="46.51569" lon="5.92981">
        <ele>954.1</ele>
        <time>2020-01-16T09:03:40Z</time>
      </trkpt>
      <trkpt lat="46.51565" lon="5.92977">
        <ele>953.8</ele>
        <time>2020-01-16T09:03:44Z</time>
      </trkpt>
      <trkpt lat="46.5156" lon="5.92974">
        <ele>953.4</ele>
        <time>2020-01-16T09:03:48Z</time>
      </trkpt>
      <trkpt lat="46.51556" lon="5.92971">
        <ele>952.9</ele>
        <time>2020-01-16T09:03:52Z</time>
      </trkpt>
      <trkpt lat="46.51551" lon="5.92967">
        <ele>952.3</ele>
        <time>2020-01-16T09:03:57Z</time>
      </trkpt>
      <trkpt lat="46.51547" lon="5.92962">
        <ele>952</ele>
        <time>2020-01-16T09:04:01Z</time>
      </trkpt>
      <trkpt lat="46.51543" lon="5.92958">
        <ele>951.7</ele>
        <time>2020-01-16T09:04:05Z</time>
      </trkpt>
      <trkpt lat="46.51541" lon="5.92952">
        <ele>951.4</ele>
        <time>2020-01-16T09:04:10Z</time>
      </trkpt>
      <trkpt lat="46.51539" lon="5.92945">
        <ele>951.4</ele>
        <time>2020-01-16T09:04:14Z</time>
      </trkpt>
      <trkpt lat="46.51538" lon="5.92938">
        <ele>951.3</ele>
        <time>2020-01-16T09:04:18Z</time>
      </trkpt>
      <trkpt lat="46.51532" lon="5.92922">
        <ele>952</ele>
        <time>2020-01-16T09:04:29Z</time>
      </trkpt>
      <trkpt lat="46.51528" lon="5.92917">
        <ele>952.3</ele>
        <time>2020-01-16T09:04:34Z</time>
      </trkpt>
      <trkpt lat="46.51522" lon="5.92915">
        <ele>952.6</ele>
        <time>2020-01-16T09:04:38Z</time>
      </trkpt>
      <trkpt lat="46.51518" lon="5.92912">
        <ele>952.7</ele>
        <time>2020-01-16T09:04:43Z</time>
      </trkpt>
      <trkpt lat="46.51513" lon="5.92909">
        <ele>952.8</ele>
        <time>2020-01-16T09:04:48Z</time>
      </trkpt>
      <trkpt lat="46.51509" lon="5.92904">
        <ele>953</ele>
        <time>2020-01-16T09:04:53Z</time>
      </trkpt>
      <trkpt lat="46.51504" lon="5.92901">
        <ele>953.1</ele>
        <time>2020-01-16T09:04:57Z</time>
      </trkpt>
      <trkpt lat="46.515" lon="5.92898">
        <ele>953</ele>
        <time>2020-01-16T09:05:01Z</time>
      </trkpt>
      <trkpt lat="46.51494" lon="5.92896">
        <ele>952.8</ele>
        <time>2020-01-16T09:05:05Z</time>
      </trkpt>
      <trkpt lat="46.5149" lon="5.92894">
        <ele>952.7</ele>
        <time>2020-01-16T09:05:09Z</time>
      </trkpt>
      <trkpt lat="46.51486" lon="5.9289">
        <ele>952.8</ele>
        <time>2020-01-16T09:05:14Z</time>
      </trkpt>
      <trkpt lat="46.51482" lon="5.92886">
        <ele>952.9</ele>
        <time>2020-01-16T09:05:18Z</time>
      </trkpt>
      <trkpt lat="46.51479" lon="5.92881">
        <ele>952.8</ele>
        <time>2020-01-16T09:05:23Z</time>
      </trkpt>
      <trkpt lat="46.51474" lon="5.92878">
        <ele>952.4</ele>
        <time>2020-01-16T09:05:28Z</time>
      </trkpt>
      <trkpt lat="46.51469" lon="5.92875">
        <ele>952.2</ele>
        <time>2020-01-16T09:05:32Z</time>
      </trkpt>
      <trkpt lat="46.51466" lon="5.9287">
        <ele>952</ele>
        <time>2020-01-16T09:05:36Z</time>
      </trkpt>
      <trkpt lat="46.51462" lon="5.92866">
        <ele>951.8</ele>
        <time>2020-01-16T09:05:42Z</time>
      </trkpt>
      <trkpt lat="46.51457" lon="5.92862">
        <ele>951.6</ele>
        <time>2020-01-16T09:05:48Z</time>
      </trkpt>
      <trkpt lat="46.51453" lon="5.9286">
        <ele>951.7</ele>
        <time>2020-01-16T09:05:52Z</time>
      </trkpt>
      <trkpt lat="46.51448" lon="5.9286">
        <ele>951.9</ele>
        <time>2020-01-16T09:05:57Z</time>
      </trkpt>
      <trkpt lat="46.51442" lon="5.92862">
        <ele>952.1</ele>
        <time>2020-01-16T09:06:02Z</time>
      </trkpt>
      <trkpt lat="46.51438" lon="5.92863">
        <ele>952.3</ele>
        <time>2020-01-16T09:06:05Z</time>
      </trkpt>
      <trkpt lat="46.51433" lon="5.92862">
        <ele>952.8</ele>
        <time>2020-01-16T09:06:09Z</time>
      </trkpt>
      <trkpt lat="46.51428" lon="5.92861">
        <ele>953.2</ele>
        <time>2020-01-16T09:06:15Z</time>
      </trkpt>
      <trkpt lat="46.51422" lon="5.9286">
        <ele>953.2</ele>
        <time>2020-01-16T09:06:19Z</time>
      </trkpt>
      <trkpt lat="46.51417" lon="5.92858">
        <ele>953.1</ele>
        <time>2020-01-16T09:06:25Z</time>
      </trkpt>
      <trkpt lat="46.51412" lon="5.92859">
        <ele>952.9</ele>
        <time>2020-01-16T09:06:31Z</time>
      </trkpt>
      <trkpt lat="46.51398" lon="5.92866">
        <ele>952.3</ele>
        <time>2020-01-16T09:06:44Z</time>
      </trkpt>
      <trkpt lat="46.51394" lon="5.92871">
        <ele>952.2</ele>
        <time>2020-01-16T09:06:50Z</time>
      </trkpt>
      <trkpt lat="46.51391" lon="5.92876">
        <ele>952.3</ele>
        <time>2020-01-16T09:06:55Z</time>
      </trkpt>
      <trkpt lat="46.51387" lon="5.92883">
        <ele>952.2</ele>
        <time>2020-01-16T09:06:59Z</time>
      </trkpt>
      <trkpt lat="46.51384" lon="5.92891">
        <ele>952.1</ele>
        <time>2020-01-16T09:07:02Z</time>
      </trkpt>
      <trkpt lat="46.51382" lon="5.92897">
        <ele>952</ele>
        <time>2020-01-16T09:07:05Z</time>
      </trkpt>
      <trkpt lat="46.51379" lon="5.92905">
        <ele>952</ele>
        <time>2020-01-16T09:07:08Z</time>
      </trkpt>
      <trkpt lat="46.51376" lon="5.92911">
        <ele>952</ele>
        <time>2020-01-16T09:07:11Z</time>
      </trkpt>
      <trkpt lat="46.51373" lon="5.92918">
        <ele>952.1</ele>
        <time>2020-01-16T09:07:15Z</time>
      </trkpt>
      <trkpt lat="46.5137" lon="5.92924">
        <ele>952.2</ele>
        <time>2020-01-16T09:07:19Z</time>
      </trkpt>
      <trkpt lat="46.51368" lon="5.92931">
        <ele>952.4</ele>
        <time>2020-01-16T09:07:24Z</time>
      </trkpt>
      <trkpt lat="46.51365" lon="5.92936">
        <ele>952.6</ele>
        <time>2020-01-16T09:07:30Z</time>
      </trkpt>
      <trkpt lat="46.5136" lon="5.9294">
        <ele>952.5</ele>
        <time>2020-01-16T09:07:34Z</time>
      </trkpt>
      <trkpt lat="46.51356" lon="5.92944">
        <ele>952.6</ele>
        <time>2020-01-16T09:07:38Z</time>
      </trkpt>
      <trkpt lat="46.51351" lon="5.92946">
        <ele>952.5</ele>
        <time>2020-01-16T09:07:43Z</time>
      </trkpt>
      <trkpt lat="46.51346" lon="5.92947">
        <ele>951.8</ele>
        <time>2020-01-16T09:07:48Z</time>
      </trkpt>
      <trkpt lat="46.51341" lon="5.92947">
        <ele>950.4</ele>
        <time>2020-01-16T09:07:54Z</time>
      </trkpt>
      <trkpt lat="46.51337" lon="5.92944">
        <ele>949</ele>
        <time>2020-01-16T09:07:59Z</time>
      </trkpt>
      <trkpt lat="46.51332" lon="5.9294">
        <ele>948</ele>
        <time>2020-01-16T09:08:03Z</time>
      </trkpt>
      <trkpt lat="46.51327" lon="5.92937">
        <ele>947.1</ele>
        <time>2020-01-16T09:08:07Z</time>
      </trkpt>
      <trkpt lat="46.51323" lon="5.92933">
        <ele>946.3</ele>
        <time>2020-01-16T09:08:11Z</time>
      </trkpt>
      <trkpt lat="46.51319" lon="5.92929">
        <ele>945.7</ele>
        <time>2020-01-16T09:08:14Z</time>
      </trkpt>
      <trkpt lat="46.51314" lon="5.92926">
        <ele>945.2</ele>
        <time>2020-01-16T09:08:18Z</time>
      </trkpt>
      <trkpt lat="46.51309" lon="5.92924">
        <ele>944.7</ele>
        <time>2020-01-16T09:08:22Z</time>
      </trkpt>
      <trkpt lat="46.51304" lon="5.9292">
        <ele>944.2</ele>
        <time>2020-01-16T09:08:27Z</time>
      </trkpt>
      <trkpt lat="46.513" lon="5.92917">
        <ele>943.8</ele>
        <time>2020-01-16T09:08:32Z</time>
      </trkpt>
      <trkpt lat="46.51295" lon="5.92914">
        <ele>943.3</ele>
        <time>2020-01-16T09:08:37Z</time>
      </trkpt>
      <trkpt lat="46.51291" lon="5.9291">
        <ele>942.6</ele>
        <time>2020-01-16T09:08:43Z</time>
      </trkpt>
      <trkpt lat="46.51287" lon="5.92906">
        <ele>942</ele>
        <time>2020-01-16T09:08:47Z</time>
      </trkpt>
      <trkpt lat="46.51282" lon="5.92904">
        <ele>941.5</ele>
        <time>2020-01-16T09:08:50Z</time>
      </trkpt>
      <trkpt lat="46.51277" lon="5.92902">
        <ele>940.9</ele>
        <time>2020-01-16T09:08:54Z</time>
      </trkpt>
      <trkpt lat="46.5127" lon="5.929">
        <ele>940.3</ele>
        <time>2020-01-16T09:08:58Z</time>
      </trkpt>
      <trkpt lat="46.51265" lon="5.92897">
        <ele>939.9</ele>
        <time>2020-01-16T09:09:01Z</time>
      </trkpt>
      <trkpt lat="46.51262" lon="5.92892">
        <ele>939.2</ele>
        <time>2020-01-16T09:09:05Z</time>
      </trkpt>
      <trkpt lat="46.5126" lon="5.92884">
        <ele>938.4</ele>
        <time>2020-01-16T09:09:10Z</time>
      </trkpt>
      <trkpt lat="46.51259" lon="5.92878">
        <ele>938</ele>
        <time>2020-01-16T09:09:13Z</time>
      </trkpt>
      <trkpt lat="46.51257" lon="5.92871">
        <ele>937.6</ele>
        <time>2020-01-16T09:09:17Z</time>
      </trkpt>
      <trkpt lat="46.51257" lon="5.92863">
        <ele>937.2</ele>
        <time>2020-01-16T09:09:22Z</time>
      </trkpt>
      <trkpt lat="46.51255" lon="5.92856">
        <ele>937.1</ele>
        <time>2020-01-16T09:09:26Z</time>
      </trkpt>
      <trkpt lat="46.51253" lon="5.92849">
        <ele>937</ele>
        <time>2020-01-16T09:09:31Z</time>
      </trkpt>
      <trkpt lat="46.51251" lon="5.92843">
        <ele>936.9</ele>
        <time>2020-01-16T09:09:35Z</time>
      </trkpt>
      <trkpt lat="46.51249" lon="5.92836">
        <ele>936.8</ele>
        <time>2020-01-16T09:09:39Z</time>
      </trkpt>
      <trkpt lat="46.51247" lon="5.9283">
        <ele>936.8</ele>
        <time>2020-01-16T09:09:42Z</time>
      </trkpt>
      <trkpt lat="46.51245" lon="5.92821">
        <ele>936.7</ele>
        <time>2020-01-16T09:09:46Z</time>
      </trkpt>
      <trkpt lat="46.51245" lon="5.92815">
        <ele>936.8</ele>
        <time>2020-01-16T09:09:50Z</time>
      </trkpt>
      <trkpt lat="46.51245" lon="5.92807">
        <ele>937</ele>
        <time>2020-01-16T09:09:56Z</time>
      </trkpt>
      <trkpt lat="46.51243" lon="5.928">
        <ele>937</ele>
        <time>2020-01-16T09:10:01Z</time>
      </trkpt>
      <trkpt lat="46.51241" lon="5.92793">
        <ele>937</ele>
        <time>2020-01-16T09:10:06Z</time>
      </trkpt>
      <trkpt lat="46.5124" lon="5.92785">
        <ele>936.9</ele>
        <time>2020-01-16T09:10:12Z</time>
      </trkpt>
      <trkpt lat="46.5124" lon="5.92778">
        <ele>936.8</ele>
        <time>2020-01-16T09:10:17Z</time>
      </trkpt>
      <trkpt lat="46.5124" lon="5.92771">
        <ele>936.8</ele>
        <time>2020-01-16T09:10:22Z</time>
      </trkpt>
      <trkpt lat="46.5124" lon="5.92763">
        <ele>936.9</ele>
        <time>2020-01-16T09:10:27Z</time>
      </trkpt>
      <trkpt lat="46.51241" lon="5.92756">
        <ele>937.2</ele>
        <time>2020-01-16T09:10:32Z</time>
      </trkpt>
      <trkpt lat="46.51242" lon="5.92749">
        <ele>938</ele>
        <time>2020-01-16T09:10:38Z</time>
      </trkpt>
      <trkpt lat="46.51242" lon="5.92741">
        <ele>938.4</ele>
        <time>2020-01-16T09:10:42Z</time>
      </trkpt>
      <trkpt lat="46.51242" lon="5.92733">
        <ele>938.9</ele>
        <time>2020-01-16T09:10:47Z</time>
      </trkpt>
      <trkpt lat="46.51241" lon="5.92726">
        <ele>939.3</ele>
        <time>2020-01-16T09:10:51Z</time>
      </trkpt>
      <trkpt lat="46.5124" lon="5.92719">
        <ele>939.7</ele>
        <time>2020-01-16T09:10:55Z</time>
      </trkpt>
      <trkpt lat="46.51237" lon="5.92712">
        <ele>939.9</ele>
        <time>2020-01-16T09:11:01Z</time>
      </trkpt>
      <trkpt lat="46.51234" lon="5.92706">
        <ele>939.7</ele>
        <time>2020-01-16T09:11:05Z</time>
      </trkpt>
      <trkpt lat="46.51233" lon="5.92699">
        <ele>939.3</ele>
        <time>2020-01-16T09:11:09Z</time>
      </trkpt>
      <trkpt lat="46.51231" lon="5.92693">
        <ele>938.7</ele>
        <time>2020-01-16T09:11:15Z</time>
      </trkpt>
      <trkpt lat="46.51228" lon="5.92688">
        <ele>938.1</ele>
        <time>2020-01-16T09:11:20Z</time>
      </trkpt>
      <trkpt lat="46.51223" lon="5.92684">
        <ele>937.6</ele>
        <time>2020-01-16T09:11:25Z</time>
      </trkpt>
      <trkpt lat="46.51218" lon="5.92681">
        <ele>937.2</ele>
        <time>2020-01-16T09:11:29Z</time>
      </trkpt>
      <trkpt lat="46.51213" lon="5.92678">
        <ele>936.7</ele>
        <time>2020-01-16T09:11:36Z</time>
      </trkpt>
      <trkpt lat="46.51209" lon="5.92677">
        <ele>936.3</ele>
        <time>2020-01-16T09:11:40Z</time>
      </trkpt>
      <trkpt lat="46.51204" lon="5.92676">
        <ele>935.6</ele>
        <time>2020-01-16T09:11:45Z</time>
      </trkpt>
      <trkpt lat="46.51199" lon="5.92676">
        <ele>934.9</ele>
        <time>2020-01-16T09:11:50Z</time>
      </trkpt>
      <trkpt lat="46.51194" lon="5.92676">
        <ele>934.6</ele>
        <time>2020-01-16T09:11:54Z</time>
      </trkpt>
      <trkpt lat="46.51189" lon="5.92674">
        <ele>934.3</ele>
        <time>2020-01-16T09:11:58Z</time>
      </trkpt>
      <trkpt lat="46.51183" lon="5.92671">
        <ele>934.2</ele>
        <time>2020-01-16T09:12:02Z</time>
      </trkpt>
      <trkpt lat="46.51178" lon="5.92668">
        <ele>934.2</ele>
        <time>2020-01-16T09:12:06Z</time>
      </trkpt>
      <trkpt lat="46.51174" lon="5.92664">
        <ele>934.2</ele>
        <time>2020-01-16T09:12:12Z</time>
      </trkpt>
      <trkpt lat="46.51168" lon="5.92663">
        <ele>934.3</ele>
        <time>2020-01-16T09:12:16Z</time>
      </trkpt>
      <trkpt lat="46.51163" lon="5.92662">
        <ele>934.3</ele>
        <time>2020-01-16T09:12:20Z</time>
      </trkpt>
      <trkpt lat="46.51159" lon="5.9266">
        <ele>934.4</ele>
        <time>2020-01-16T09:12:24Z</time>
      </trkpt>
      <trkpt lat="46.51154" lon="5.92657">
        <ele>934.3</ele>
        <time>2020-01-16T09:12:28Z</time>
      </trkpt>
      <trkpt lat="46.51149" lon="5.92656">
        <ele>934.2</ele>
        <time>2020-01-16T09:12:34Z</time>
      </trkpt>
      <trkpt lat="46.51143" lon="5.92656">
        <ele>934.3</ele>
        <time>2020-01-16T09:12:39Z</time>
      </trkpt>
      <trkpt lat="46.51138" lon="5.92657">
        <ele>934.4</ele>
        <time>2020-01-16T09:12:44Z</time>
      </trkpt>
      <trkpt lat="46.51133" lon="5.92658">
        <ele>934.1</ele>
        <time>2020-01-16T09:12:52Z</time>
      </trkpt>
      <trkpt lat="46.51128" lon="5.9266">
        <ele>933.7</ele>
        <time>2020-01-16T09:12:57Z</time>
      </trkpt>
      <trkpt lat="46.51123" lon="5.9266">
        <ele>933.3</ele>
        <time>2020-01-16T09:13:01Z</time>
      </trkpt>
      <trkpt lat="46.51118" lon="5.92659">
        <ele>932.9</ele>
        <time>2020-01-16T09:13:06Z</time>
      </trkpt>
      <trkpt lat="46.51113" lon="5.92656">
        <ele>932.8</ele>
        <time>2020-01-16T09:13:11Z</time>
      </trkpt>
      <trkpt lat="46.51107" lon="5.92654">
        <ele>932.7</ele>
        <time>2020-01-16T09:13:15Z</time>
      </trkpt>
      <trkpt lat="46.51102" lon="5.92653">
        <ele>932.7</ele>
        <time>2020-01-16T09:13:18Z</time>
      </trkpt>
      <trkpt lat="46.51098" lon="5.92654">
        <ele>932.4</ele>
        <time>2020-01-16T09:13:22Z</time>
      </trkpt>
      <trkpt lat="46.51093" lon="5.92656">
        <ele>932.3</ele>
        <time>2020-01-16T09:13:26Z</time>
      </trkpt>
      <trkpt lat="46.51088" lon="5.92656">
        <ele>931.9</ele>
        <time>2020-01-16T09:13:31Z</time>
      </trkpt>
      <trkpt lat="46.51084" lon="5.92653">
        <ele>931.5</ele>
        <time>2020-01-16T09:13:38Z</time>
      </trkpt>
      <trkpt lat="46.51079" lon="5.92651">
        <ele>931.2</ele>
        <time>2020-01-16T09:13:42Z</time>
      </trkpt>
      <trkpt lat="46.51075" lon="5.92648">
        <ele>931</ele>
        <time>2020-01-16T09:13:46Z</time>
      </trkpt>
      <trkpt lat="46.51071" lon="5.92643">
        <ele>930.6</ele>
        <time>2020-01-16T09:13:50Z</time>
      </trkpt>
      <trkpt lat="46.51066" lon="5.9264">
        <ele>930.3</ele>
        <time>2020-01-16T09:13:55Z</time>
      </trkpt>
      <trkpt lat="46.51061" lon="5.9264">
        <ele>930.1</ele>
        <time>2020-01-16T09:13:59Z</time>
      </trkpt>
      <trkpt lat="46.51056" lon="5.92637">
        <ele>929.5</ele>
        <time>2020-01-16T09:14:03Z</time>
      </trkpt>
      <trkpt lat="46.51051" lon="5.92637">
        <ele>929.3</ele>
        <time>2020-01-16T09:14:05Z</time>
      </trkpt>
      <trkpt lat="46.51045" lon="5.92637">
        <ele>928.8</ele>
        <time>2020-01-16T09:14:08Z</time>
      </trkpt>
      <trkpt lat="46.5104" lon="5.92637">
        <ele>928.2</ele>
        <time>2020-01-16T09:14:11Z</time>
      </trkpt>
      <trkpt lat="46.51035" lon="5.92635">
        <ele>927.4</ele>
        <time>2020-01-16T09:14:15Z</time>
      </trkpt>
      <trkpt lat="46.5103" lon="5.92633">
        <ele>926.8</ele>
        <time>2020-01-16T09:14:19Z</time>
      </trkpt>
      <trkpt lat="46.51025" lon="5.92629">
        <ele>926.4</ele>
        <time>2020-01-16T09:14:23Z</time>
      </trkpt>
      <trkpt lat="46.5102" lon="5.92626">
        <ele>926.4</ele>
        <time>2020-01-16T09:14:27Z</time>
      </trkpt>
      <trkpt lat="46.51015" lon="5.92623">
        <ele>926.5</ele>
        <time>2020-01-16T09:14:33Z</time>
      </trkpt>
      <trkpt lat="46.5101" lon="5.92622">
        <ele>926.4</ele>
        <time>2020-01-16T09:14:37Z</time>
      </trkpt>
      <trkpt lat="46.51004" lon="5.92622">
        <ele>926.1</ele>
        <time>2020-01-16T09:14:42Z</time>
      </trkpt>
      <trkpt lat="46.50999" lon="5.92623">
        <ele>925.9</ele>
        <time>2020-01-16T09:14:46Z</time>
      </trkpt>
      <trkpt lat="46.50994" lon="5.92625">
        <ele>925.9</ele>
        <time>2020-01-16T09:14:48Z</time>
      </trkpt>
      <trkpt lat="46.5099" lon="5.92627">
        <ele>925.8</ele>
        <time>2020-01-16T09:14:51Z</time>
      </trkpt>
      <trkpt lat="46.50985" lon="5.92629">
        <ele>925.7</ele>
        <time>2020-01-16T09:14:54Z</time>
      </trkpt>
      <trkpt lat="46.5098" lon="5.92632">
        <ele>925.5</ele>
        <time>2020-01-16T09:14:57Z</time>
      </trkpt>
      <trkpt lat="46.50975" lon="5.92634">
        <ele>925.6</ele>
        <time>2020-01-16T09:15:02Z</time>
      </trkpt>
      <trkpt lat="46.50971" lon="5.92636">
        <ele>925.8</ele>
        <time>2020-01-16T09:15:07Z</time>
      </trkpt>
      <trkpt lat="46.50966" lon="5.92637">
        <ele>926.1</ele>
        <time>2020-01-16T09:15:14Z</time>
      </trkpt>
      <trkpt lat="46.50962" lon="5.92642">
        <ele>926.4</ele>
        <time>2020-01-16T09:15:20Z</time>
      </trkpt>
      <trkpt lat="46.50959" lon="5.92648">
        <ele>926.4</ele>
        <time>2020-01-16T09:15:25Z</time>
      </trkpt>
      <trkpt lat="46.50954" lon="5.9265">
        <ele>926.3</ele>
        <time>2020-01-16T09:15:30Z</time>
      </trkpt>
      <trkpt lat="46.50949" lon="5.92653">
        <ele>926.2</ele>
        <time>2020-01-16T09:15:34Z</time>
      </trkpt>
      <trkpt lat="46.50944" lon="5.92654">
        <ele>926.1</ele>
        <time>2020-01-16T09:15:38Z</time>
      </trkpt>
      <trkpt lat="46.5094" lon="5.92659">
        <ele>926</ele>
        <time>2020-01-16T09:15:41Z</time>
      </trkpt>
      <trkpt lat="46.50935" lon="5.92662">
        <ele>926.1</ele>
        <time>2020-01-16T09:15:45Z</time>
      </trkpt>
      <trkpt lat="46.50931" lon="5.92667">
        <ele>926.5</ele>
        <time>2020-01-16T09:15:49Z</time>
      </trkpt>
      <trkpt lat="46.50927" lon="5.92671">
        <ele>927</ele>
        <time>2020-01-16T09:15:55Z</time>
      </trkpt>
      <trkpt lat="46.50923" lon="5.92677">
        <ele>927.3</ele>
        <time>2020-01-16T09:16:00Z</time>
      </trkpt>
      <trkpt lat="46.50919" lon="5.92683">
        <ele>927.6</ele>
        <time>2020-01-16T09:16:05Z</time>
      </trkpt>
      <trkpt lat="46.50915" lon="5.92687">
        <ele>927.8</ele>
        <time>2020-01-16T09:16:09Z</time>
      </trkpt>
      <trkpt lat="46.5091" lon="5.92688">
        <ele>927.9</ele>
        <time>2020-01-16T09:16:13Z</time>
      </trkpt>
      <trkpt lat="46.50905" lon="5.9269">
        <ele>927.9</ele>
        <time>2020-01-16T09:16:19Z</time>
      </trkpt>
      <trkpt lat="46.509" lon="5.92692">
        <ele>927.7</ele>
        <time>2020-01-16T09:16:26Z</time>
      </trkpt>
      <trkpt lat="46.50895" lon="5.92693">
        <ele>927.5</ele>
        <time>2020-01-16T09:16:32Z</time>
      </trkpt>
      <trkpt lat="46.5089" lon="5.92694">
        <ele>927</ele>
        <time>2020-01-16T09:16:37Z</time>
      </trkpt>
      <trkpt lat="46.50885" lon="5.92694">
        <ele>925.6</ele>
        <time>2020-01-16T09:16:46Z</time>
      </trkpt>
      <trkpt lat="46.5088" lon="5.92695">
        <ele>924.9</ele>
        <time>2020-01-16T09:16:50Z</time>
      </trkpt>
      <trkpt lat="46.50876" lon="5.92692">
        <ele>924.4</ele>
        <time>2020-01-16T09:16:53Z</time>
      </trkpt>
      <trkpt lat="46.5087" lon="5.92691">
        <ele>923.9</ele>
        <time>2020-01-16T09:16:57Z</time>
      </trkpt>
      <trkpt lat="46.50866" lon="5.92692">
        <ele>923.3</ele>
        <time>2020-01-16T09:17:01Z</time>
      </trkpt>
      <trkpt lat="46.50861" lon="5.92693">
        <ele>922.9</ele>
        <time>2020-01-16T09:17:04Z</time>
      </trkpt>
      <trkpt lat="46.50856" lon="5.92691">
        <ele>922.4</ele>
        <time>2020-01-16T09:17:08Z</time>
      </trkpt>
      <trkpt lat="46.50851" lon="5.92689">
        <ele>922.1</ele>
        <time>2020-01-16T09:17:11Z</time>
      </trkpt>
      <trkpt lat="46.50847" lon="5.92688">
        <ele>921.7</ele>
        <time>2020-01-16T09:17:14Z</time>
      </trkpt>
      <trkpt lat="46.50842" lon="5.92685">
        <ele>921.1</ele>
        <time>2020-01-16T09:17:19Z</time>
      </trkpt>
      <trkpt lat="46.50836" lon="5.92686">
        <ele>920.6</ele>
        <time>2020-01-16T09:17:23Z</time>
      </trkpt>
      <trkpt lat="46.50831" lon="5.92686">
        <ele>920</ele>
        <time>2020-01-16T09:17:28Z</time>
      </trkpt>
      <trkpt lat="46.50827" lon="5.92683">
        <ele>919.3</ele>
        <time>2020-01-16T09:17:33Z</time>
      </trkpt>
      <trkpt lat="46.50822" lon="5.92679">
        <ele>918.9</ele>
        <time>2020-01-16T09:17:38Z</time>
      </trkpt>
      <trkpt lat="46.50818" lon="5.92676">
        <ele>918.7</ele>
        <time>2020-01-16T09:17:42Z</time>
      </trkpt>
      <trkpt lat="46.50814" lon="5.92672">
        <ele>918.2</ele>
        <time>2020-01-16T09:17:46Z</time>
      </trkpt>
      <trkpt lat="46.5081" lon="5.92668">
        <ele>917.7</ele>
        <time>2020-01-16T09:17:50Z</time>
      </trkpt>
      <trkpt lat="46.50807" lon="5.92662">
        <ele>917.6</ele>
        <time>2020-01-16T09:17:57Z</time>
      </trkpt>
      <trkpt lat="46.50803" lon="5.92656">
        <ele>918</ele>
        <time>2020-01-16T09:18:01Z</time>
      </trkpt>
      <trkpt lat="46.50799" lon="5.9265">
        <ele>918.2</ele>
        <time>2020-01-16T09:18:05Z</time>
      </trkpt>
      <trkpt lat="46.50796" lon="5.92644">
        <ele>918.5</ele>
        <time>2020-01-16T09:18:09Z</time>
      </trkpt>
      <trkpt lat="46.50793" lon="5.92638">
        <ele>919</ele>
        <time>2020-01-16T09:18:15Z</time>
      </trkpt>
      <trkpt lat="46.50786" lon="5.9263">
        <ele>919.3</ele>
        <time>2020-01-16T09:18:25Z</time>
      </trkpt>
      <trkpt lat="46.50782" lon="5.92625">
        <ele>918.8</ele>
        <time>2020-01-16T09:18:30Z</time>
      </trkpt>
      <trkpt lat="46.50779" lon="5.9262">
        <ele>917.6</ele>
        <time>2020-01-16T09:18:36Z</time>
      </trkpt>
      <trkpt lat="46.50775" lon="5.92616">
        <ele>916.1</ele>
        <time>2020-01-16T09:18:41Z</time>
      </trkpt>
      <trkpt lat="46.50771" lon="5.92612">
        <ele>914.9</ele>
        <time>2020-01-16T09:18:45Z</time>
      </trkpt>
      <trkpt lat="46.50768" lon="5.92605">
        <ele>913.7</ele>
        <time>2020-01-16T09:18:49Z</time>
      </trkpt>
      <trkpt lat="46.50765" lon="5.92599">
        <ele>912.7</ele>
        <time>2020-01-16T09:18:53Z</time>
      </trkpt>
      <trkpt lat="46.50762" lon="5.92594">
        <ele>912.1</ele>
        <time>2020-01-16T09:18:56Z</time>
      </trkpt>
      <trkpt lat="46.50759" lon="5.92588">
        <ele>911.6</ele>
        <time>2020-01-16T09:19:00Z</time>
      </trkpt>
      <trkpt lat="46.50757" lon="5.92582">
        <ele>911.5</ele>
        <time>2020-01-16T09:19:03Z</time>
      </trkpt>
      <trkpt lat="46.50754" lon="5.92576">
        <ele>911.5</ele>
        <time>2020-01-16T09:19:06Z</time>
      </trkpt>
      <trkpt lat="46.50752" lon="5.92569">
        <ele>911.6</ele>
        <time>2020-01-16T09:19:10Z</time>
      </trkpt>
      <trkpt lat="46.5075" lon="5.92563">
        <ele>911.8</ele>
        <time>2020-01-16T09:19:15Z</time>
      </trkpt>
      <trkpt lat="46.50747" lon="5.92556">
        <ele>912</ele>
        <time>2020-01-16T09:19:20Z</time>
      </trkpt>
      <trkpt lat="46.50746" lon="5.9255">
        <ele>912.1</ele>
        <time>2020-01-16T09:19:24Z</time>
      </trkpt>
      <trkpt lat="46.50743" lon="5.92543">
        <ele>912.3</ele>
        <time>2020-01-16T09:19:29Z</time>
      </trkpt>
      <trkpt lat="46.50741" lon="5.92535">
        <ele>912.5</ele>
        <time>2020-01-16T09:19:34Z</time>
      </trkpt>
      <trkpt lat="46.50739" lon="5.92529">
        <ele>912.7</ele>
        <time>2020-01-16T09:19:39Z</time>
      </trkpt>
      <trkpt lat="46.50738" lon="5.92523">
        <ele>913</ele>
        <time>2020-01-16T09:19:44Z</time>
      </trkpt>
      <trkpt lat="46.50737" lon="5.92516">
        <ele>913.5</ele>
        <time>2020-01-16T09:19:49Z</time>
      </trkpt>
      <trkpt lat="46.50737" lon="5.92509">
        <ele>914.3</ele>
        <time>2020-01-16T09:19:54Z</time>
      </trkpt>
      <trkpt lat="46.50739" lon="5.92501">
        <ele>915.5</ele>
        <time>2020-01-16T09:19:59Z</time>
      </trkpt>
      <trkpt lat="46.5074" lon="5.92494">
        <ele>916.7</ele>
        <time>2020-01-16T09:20:05Z</time>
      </trkpt>
      <trkpt lat="46.50741" lon="5.92488">
        <ele>917.7</ele>
        <time>2020-01-16T09:20:10Z</time>
      </trkpt>
      <trkpt lat="46.50742" lon="5.92481">
        <ele>918.2</ele>
        <time>2020-01-16T09:20:13Z</time>
      </trkpt>
      <trkpt lat="46.50744" lon="5.92474">
        <ele>919</ele>
        <time>2020-01-16T09:20:17Z</time>
      </trkpt>
      <trkpt lat="46.50744" lon="5.92467">
        <ele>920</ele>
        <time>2020-01-16T09:20:23Z</time>
      </trkpt>
      <trkpt lat="46.50745" lon="5.9246">
        <ele>920.7</ele>
        <time>2020-01-16T09:20:28Z</time>
      </trkpt>
      <trkpt lat="46.50746" lon="5.92453">
        <ele>921</ele>
        <time>2020-01-16T09:20:33Z</time>
      </trkpt>
      <trkpt lat="46.50747" lon="5.92445">
        <ele>921.1</ele>
        <time>2020-01-16T09:20:39Z</time>
      </trkpt>
      <trkpt lat="46.50749" lon="5.92439">
        <ele>921.2</ele>
        <time>2020-01-16T09:20:44Z</time>
      </trkpt>
      <trkpt lat="46.5075" lon="5.92432">
        <ele>921.3</ele>
        <time>2020-01-16T09:20:49Z</time>
      </trkpt>
      <trkpt lat="46.50751" lon="5.92424">
        <ele>921.3</ele>
        <time>2020-01-16T09:20:53Z</time>
      </trkpt>
      <trkpt lat="46.50753" lon="5.92417">
        <ele>921.3</ele>
        <time>2020-01-16T09:20:58Z</time>
      </trkpt>
      <trkpt lat="46.50753" lon="5.92409">
        <ele>921.3</ele>
        <time>2020-01-16T09:21:03Z</time>
      </trkpt>
      <trkpt lat="46.50754" lon="5.92402">
        <ele>920.7</ele>
        <time>2020-01-16T09:21:08Z</time>
      </trkpt>
      <trkpt lat="46.50756" lon="5.92395">
        <ele>919.7</ele>
        <time>2020-01-16T09:21:13Z</time>
      </trkpt>
      <trkpt lat="46.50759" lon="5.92389">
        <ele>918.6</ele>
        <time>2020-01-16T09:21:18Z</time>
      </trkpt>
      <trkpt lat="46.50761" lon="5.92383">
        <ele>917.5</ele>
        <time>2020-01-16T09:21:24Z</time>
      </trkpt>
      <trkpt lat="46.50762" lon="5.92375">
        <ele>916.7</ele>
        <time>2020-01-16T09:21:29Z</time>
      </trkpt>
      <trkpt lat="46.50764" lon="5.92369">
        <ele>916.1</ele>
        <time>2020-01-16T09:21:35Z</time>
      </trkpt>
      <trkpt lat="46.50766" lon="5.92362">
        <ele>915.9</ele>
        <time>2020-01-16T09:21:39Z</time>
      </trkpt>
      <trkpt lat="46.50768" lon="5.92356">
        <ele>915.7</ele>
        <time>2020-01-16T09:21:43Z</time>
      </trkpt>
      <trkpt lat="46.50768" lon="5.92348">
        <ele>915.1</ele>
        <time>2020-01-16T09:21:50Z</time>
      </trkpt>
      <trkpt lat="46.50769" lon="5.92341">
        <ele>914.7</ele>
        <time>2020-01-16T09:21:54Z</time>
      </trkpt>
      <trkpt lat="46.5077" lon="5.92333">
        <ele>914.3</ele>
        <time>2020-01-16T09:21:59Z</time>
      </trkpt>
      <trkpt lat="46.50771" lon="5.92325">
        <ele>914.1</ele>
        <time>2020-01-16T09:22:03Z</time>
      </trkpt>
      <trkpt lat="46.50772" lon="5.92319">
        <ele>914.1</ele>
        <time>2020-01-16T09:22:09Z</time>
      </trkpt>
      <trkpt lat="46.50773" lon="5.92312">
        <ele>914.1</ele>
        <time>2020-01-16T09:22:15Z</time>
      </trkpt>
      <trkpt lat="46.50774" lon="5.92304">
        <ele>914.1</ele>
        <time>2020-01-16T09:22:20Z</time>
      </trkpt>
      <trkpt lat="46.50775" lon="5.92297">
        <ele>914</ele>
        <time>2020-01-16T09:22:24Z</time>
      </trkpt>
      <trkpt lat="46.50775" lon="5.92291">
        <ele>913.8</ele>
        <time>2020-01-16T09:22:29Z</time>
      </trkpt>
      <trkpt lat="46.50775" lon="5.92283">
        <ele>913.4</ele>
        <time>2020-01-16T09:22:44Z</time>
      </trkpt>
      <trkpt lat="46.50775" lon="5.92275">
        <ele>913.5</ele>
        <time>2020-01-16T09:22:48Z</time>
      </trkpt>
      <trkpt lat="46.50774" lon="5.92267">
        <ele>913.7</ele>
        <time>2020-01-16T09:22:52Z</time>
      </trkpt>
      <trkpt lat="46.50774" lon="5.9226">
        <ele>913.9</ele>
        <time>2020-01-16T09:22:56Z</time>
      </trkpt>
      <trkpt lat="46.50774" lon="5.92253">
        <ele>914.3</ele>
        <time>2020-01-16T09:23:02Z</time>
      </trkpt>
      <trkpt lat="46.50773" lon="5.92245">
        <ele>914.8</ele>
        <time>2020-01-16T09:23:08Z</time>
      </trkpt>
      <trkpt lat="46.50773" lon="5.92238">
        <ele>915</ele>
        <time>2020-01-16T09:23:11Z</time>
      </trkpt>
      <trkpt lat="46.50771" lon="5.9223">
        <ele>915.3</ele>
        <time>2020-01-16T09:23:15Z</time>
      </trkpt>
      <trkpt lat="46.5077" lon="5.92223">
        <ele>915.4</ele>
        <time>2020-01-16T09:23:22Z</time>
      </trkpt>
      <trkpt lat="46.5077" lon="5.92216">
        <ele>915.7</ele>
        <time>2020-01-16T09:23:28Z</time>
      </trkpt>
      <trkpt lat="46.50768" lon="5.92209">
        <ele>915.8</ele>
        <time>2020-01-16T09:23:31Z</time>
      </trkpt>
      <trkpt lat="46.50767" lon="5.92202">
        <ele>915.9</ele>
        <time>2020-01-16T09:23:35Z</time>
      </trkpt>
      <trkpt lat="46.50766" lon="5.92195">
        <ele>915.7</ele>
        <time>2020-01-16T09:23:40Z</time>
      </trkpt>
      <trkpt lat="46.50765" lon="5.92187">
        <ele>915.6</ele>
        <time>2020-01-16T09:23:47Z</time>
      </trkpt>
      <trkpt lat="46.50764" lon="5.9218">
        <ele>915.7</ele>
        <time>2020-01-16T09:23:52Z</time>
      </trkpt>
      <trkpt lat="46.50762" lon="5.92173">
        <ele>915.9</ele>
        <time>2020-01-16T09:23:56Z</time>
      </trkpt>
      <trkpt lat="46.50761" lon="5.92166">
        <ele>916.1</ele>
        <time>2020-01-16T09:24:00Z</time>
      </trkpt>
      <trkpt lat="46.50761" lon="5.92159">
        <ele>916.2</ele>
        <time>2020-01-16T09:24:04Z</time>
      </trkpt>
      <trkpt lat="46.50761" lon="5.92152">
        <ele>916.3</ele>
        <time>2020-01-16T09:24:08Z</time>
      </trkpt>
      <trkpt lat="46.50758" lon="5.92145">
        <ele>916.6</ele>
        <time>2020-01-16T09:24:13Z</time>
      </trkpt>
      <trkpt lat="46.50757" lon="5.92139">
        <ele>917</ele>
        <time>2020-01-16T09:24:17Z</time>
      </trkpt>
      <trkpt lat="46.50755" lon="5.92131">
        <ele>917.3</ele>
        <time>2020-01-16T09:24:21Z</time>
      </trkpt>
      <trkpt lat="46.50754" lon="5.92123">
        <ele>917.5</ele>
        <time>2020-01-16T09:24:26Z</time>
      </trkpt>
      <trkpt lat="46.50753" lon="5.92116">
        <ele>917.8</ele>
        <time>2020-01-16T09:24:31Z</time>
      </trkpt>
      <trkpt lat="46.50752" lon="5.92109">
        <ele>918.5</ele>
        <time>2020-01-16T09:24:37Z</time>
      </trkpt>
      <trkpt lat="46.5075" lon="5.92101">
        <ele>919</ele>
        <time>2020-01-16T09:24:42Z</time>
      </trkpt>
      <trkpt lat="46.50749" lon="5.92094">
        <ele>919.4</ele>
        <time>2020-01-16T09:24:46Z</time>
      </trkpt>
      <trkpt lat="46.50748" lon="5.92088">
        <ele>919.8</ele>
        <time>2020-01-16T09:24:50Z</time>
      </trkpt>
      <trkpt lat="46.50747" lon="5.9208">
        <ele>920.3</ele>
        <time>2020-01-16T09:24:55Z</time>
      </trkpt>
      <trkpt lat="46.50747" lon="5.92073">
        <ele>920.7</ele>
        <time>2020-01-16T09:25:01Z</time>
      </trkpt>
      <trkpt lat="46.50746" lon="5.92065">
        <ele>921.3</ele>
        <time>2020-01-16T09:25:07Z</time>
      </trkpt>
      <trkpt lat="46.50745" lon="5.92058">
        <ele>921.5</ele>
        <time>2020-01-16T09:25:11Z</time>
      </trkpt>
      <trkpt lat="46.50745" lon="5.9205">
        <ele>921.8</ele>
        <time>2020-01-16T09:25:15Z</time>
      </trkpt>
      <trkpt lat="46.50744" lon="5.92042">
        <ele>922.1</ele>
        <time>2020-01-16T09:25:19Z</time>
      </trkpt>
      <trkpt lat="46.50743" lon="5.92035">
        <ele>922.5</ele>
        <time>2020-01-16T09:25:23Z</time>
      </trkpt>
      <trkpt lat="46.50742" lon="5.92028">
        <ele>923.1</ele>
        <time>2020-01-16T09:25:28Z</time>
      </trkpt>
      <trkpt lat="46.50741" lon="5.92022">
        <ele>923.6</ele>
        <time>2020-01-16T09:25:32Z</time>
      </trkpt>
      <trkpt lat="46.50739" lon="5.92014">
        <ele>924.4</ele>
        <time>2020-01-16T09:25:38Z</time>
      </trkpt>
      <trkpt lat="46.50737" lon="5.92007">
        <ele>924.8</ele>
        <time>2020-01-16T09:25:43Z</time>
      </trkpt>
      <trkpt lat="46.50735" lon="5.92">
        <ele>925.1</ele>
        <time>2020-01-16T09:25:47Z</time>
      </trkpt>
      <trkpt lat="46.50734" lon="5.91993">
        <ele>925.7</ele>
        <time>2020-01-16T09:25:53Z</time>
      </trkpt>
      <trkpt lat="46.50736" lon="5.91986">
        <ele>926.3</ele>
        <time>2020-01-16T09:25:58Z</time>
      </trkpt>
      <trkpt lat="46.50738" lon="5.91979">
        <ele>927.1</ele>
        <time>2020-01-16T09:26:04Z</time>
      </trkpt>
      <trkpt lat="46.50741" lon="5.91973">
        <ele>927.5</ele>
        <time>2020-01-16T09:26:10Z</time>
      </trkpt>
      <trkpt lat="46.50745" lon="5.91968">
        <ele>927.9</ele>
        <time>2020-01-16T09:26:15Z</time>
      </trkpt>
      <trkpt lat="46.50749" lon="5.91963">
        <ele>928.6</ele>
        <time>2020-01-16T09:26:21Z</time>
      </trkpt>
      <trkpt lat="46.50753" lon="5.91958">
        <ele>929.1</ele>
        <time>2020-01-16T09:26:26Z</time>
      </trkpt>
      <trkpt lat="46.50756" lon="5.91953">
        <ele>930.3</ele>
        <time>2020-01-16T09:26:34Z</time>
      </trkpt>
      <trkpt lat="46.5076" lon="5.91947">
        <ele>931.4</ele>
        <time>2020-01-16T09:26:40Z</time>
      </trkpt>
      <trkpt lat="46.50763" lon="5.91942">
        <ele>932.5</ele>
        <time>2020-01-16T09:26:46Z</time>
      </trkpt>
      <trkpt lat="46.50767" lon="5.91938">
        <ele>933.1</ele>
        <time>2020-01-16T09:26:50Z</time>
      </trkpt>
      <trkpt lat="46.50772" lon="5.91934">
        <ele>933.5</ele>
        <time>2020-01-16T09:26:54Z</time>
      </trkpt>
      <trkpt lat="46.50775" lon="5.9193">
        <ele>933.7</ele>
        <time>2020-01-16T09:26:58Z</time>
      </trkpt>
      <trkpt lat="46.50779" lon="5.91926">
        <ele>933.6</ele>
        <time>2020-01-16T09:27:02Z</time>
      </trkpt>
      <trkpt lat="46.50783" lon="5.91922">
        <ele>933.4</ele>
        <time>2020-01-16T09:27:07Z</time>
      </trkpt>
      <trkpt lat="46.50786" lon="5.91916">
        <ele>933.1</ele>
        <time>2020-01-16T09:27:11Z</time>
      </trkpt>
      <trkpt lat="46.50787" lon="5.9191">
        <ele>932.8</ele>
        <time>2020-01-16T09:27:14Z</time>
      </trkpt>
      <trkpt lat="46.50789" lon="5.91903">
        <ele>932.3</ele>
        <time>2020-01-16T09:27:19Z</time>
      </trkpt>
      <trkpt lat="46.50791" lon="5.91896">
        <ele>932.1</ele>
        <time>2020-01-16T09:27:23Z</time>
      </trkpt>
      <trkpt lat="46.50792" lon="5.9189">
        <ele>932</ele>
        <time>2020-01-16T09:27:27Z</time>
      </trkpt>
      <trkpt lat="46.50794" lon="5.91882">
        <ele>931.8</ele>
        <time>2020-01-16T09:27:30Z</time>
      </trkpt>
      <trkpt lat="46.50794" lon="5.91876">
        <ele>931.5</ele>
        <time>2020-01-16T09:27:34Z</time>
      </trkpt>
      <trkpt lat="46.50794" lon="5.91868">
        <ele>931.3</ele>
        <time>2020-01-16T09:27:39Z</time>
      </trkpt>
      <trkpt lat="46.50793" lon="5.91861">
        <ele>931.1</ele>
        <time>2020-01-16T09:27:44Z</time>
      </trkpt>
      <trkpt lat="46.50795" lon="5.91855">
        <ele>930.7</ele>
        <time>2020-01-16T09:27:51Z</time>
      </trkpt>
      <trkpt lat="46.50796" lon="5.91848">
        <ele>930</ele>
        <time>2020-01-16T09:27:57Z</time>
      </trkpt>
      <trkpt lat="46.50796" lon="5.91841">
        <ele>929</ele>
        <time>2020-01-16T09:28:04Z</time>
      </trkpt>
      <trkpt lat="46.50795" lon="5.91834">
        <ele>928.5</ele>
        <time>2020-01-16T09:28:07Z</time>
      </trkpt>
      <trkpt lat="46.50793" lon="5.91827">
        <ele>928.1</ele>
        <time>2020-01-16T09:28:10Z</time>
      </trkpt>
      <trkpt lat="46.50793" lon="5.91818">
        <ele>927.6</ele>
        <time>2020-01-16T09:28:14Z</time>
      </trkpt>
      <trkpt lat="46.50792" lon="5.91811">
        <ele>927.1</ele>
        <time>2020-01-16T09:28:17Z</time>
      </trkpt>
      <trkpt lat="46.50791" lon="5.91804">
        <ele>926.5</ele>
        <time>2020-01-16T09:28:21Z</time>
      </trkpt>
      <trkpt lat="46.5079" lon="5.91797">
        <ele>926</ele>
        <time>2020-01-16T09:28:26Z</time>
      </trkpt>
      <trkpt lat="46.50789" lon="5.9179">
        <ele>925.7</ele>
        <time>2020-01-16T09:28:32Z</time>
      </trkpt>
      <trkpt lat="46.50788" lon="5.91781">
        <ele>925.6</ele>
        <time>2020-01-16T09:28:36Z</time>
      </trkpt>
      <trkpt lat="46.50788" lon="5.91774">
        <ele>925.6</ele>
        <time>2020-01-16T09:28:39Z</time>
      </trkpt>
      <trkpt lat="46.50786" lon="5.91767">
        <ele>925.7</ele>
        <time>2020-01-16T09:28:42Z</time>
      </trkpt>
      <trkpt lat="46.50784" lon="5.9176">
        <ele>926.1</ele>
        <time>2020-01-16T09:28:46Z</time>
      </trkpt>
      <trkpt lat="46.50782" lon="5.91753">
        <ele>926.5</ele>
        <time>2020-01-16T09:28:51Z</time>
      </trkpt>
      <trkpt lat="46.5078" lon="5.91746">
        <ele>926.9</ele>
        <time>2020-01-16T09:28:57Z</time>
      </trkpt>
      <trkpt lat="46.50779" lon="5.91739">
        <ele>927.2</ele>
        <time>2020-01-16T09:29:01Z</time>
      </trkpt>
      <trkpt lat="46.50777" lon="5.91733">
        <ele>927.4</ele>
        <time>2020-01-16T09:29:05Z</time>
      </trkpt>
      <trkpt lat="46.50777" lon="5.91725">
        <ele>927.6</ele>
        <time>2020-01-16T09:29:09Z</time>
      </trkpt>
      <trkpt lat="46.50777" lon="5.91717">
        <ele>927.7</ele>
        <time>2020-01-16T09:29:13Z</time>
      </trkpt>
      <trkpt lat="46.50778" lon="5.9171">
        <ele>927.7</ele>
        <time>2020-01-16T09:29:17Z</time>
      </trkpt>
      <trkpt lat="46.50778" lon="5.91703">
        <ele>927.7</ele>
        <time>2020-01-16T09:29:21Z</time>
      </trkpt>
      <trkpt lat="46.50777" lon="5.91696">
        <ele>927.8</ele>
        <time>2020-01-16T09:29:27Z</time>
      </trkpt>
      <trkpt lat="46.50776" lon="5.91689">
        <ele>928.1</ele>
        <time>2020-01-16T09:29:32Z</time>
      </trkpt>
      <trkpt lat="46.50775" lon="5.9168">
        <ele>928.3</ele>
        <time>2020-01-16T09:29:36Z</time>
      </trkpt>
      <trkpt lat="46.50774" lon="5.91674">
        <ele>928.4</ele>
        <time>2020-01-16T09:29:40Z</time>
      </trkpt>
      <trkpt lat="46.50773" lon="5.91666">
        <ele>928.4</ele>
        <time>2020-01-16T09:29:45Z</time>
      </trkpt>
      <trkpt lat="46.50771" lon="5.91659">
        <ele>928.5</ele>
        <time>2020-01-16T09:29:49Z</time>
      </trkpt>
      <trkpt lat="46.5077" lon="5.91653">
        <ele>928.7</ele>
        <time>2020-01-16T09:29:53Z</time>
      </trkpt>
      <trkpt lat="46.50767" lon="5.91647">
        <ele>929</ele>
        <time>2020-01-16T09:29:57Z</time>
      </trkpt>
      <trkpt lat="46.50764" lon="5.91641">
        <ele>929.3</ele>
        <time>2020-01-16T09:30:02Z</time>
      </trkpt>
      <trkpt lat="46.50761" lon="5.91636">
        <ele>929.9</ele>
        <time>2020-01-16T09:30:08Z</time>
      </trkpt>
      <trkpt lat="46.50758" lon="5.91629">
        <ele>930.5</ele>
        <time>2020-01-16T09:30:14Z</time>
      </trkpt>
      <trkpt lat="46.50755" lon="5.91623">
        <ele>931.1</ele>
        <time>2020-01-16T09:30:19Z</time>
      </trkpt>
      <trkpt lat="46.50752" lon="5.91618">
        <ele>931.8</ele>
        <time>2020-01-16T09:30:24Z</time>
      </trkpt>
      <trkpt lat="46.50749" lon="5.91612">
        <ele>932.8</ele>
        <time>2020-01-16T09:30:31Z</time>
      </trkpt>
      <trkpt lat="46.50746" lon="5.91607">
        <ele>933.3</ele>
        <time>2020-01-16T09:30:36Z</time>
      </trkpt>
      <trkpt lat="46.50742" lon="5.91603">
        <ele>933.3</ele>
        <time>2020-01-16T09:30:40Z</time>
      </trkpt>
      <trkpt lat="46.50738" lon="5.91599">
        <ele>933.3</ele>
        <time>2020-01-16T09:30:43Z</time>
      </trkpt>
      <trkpt lat="46.50734" lon="5.91594">
        <ele>933.2</ele>
        <time>2020-01-16T09:30:46Z</time>
      </trkpt>
      <trkpt lat="46.5073" lon="5.9159">
        <ele>933.3</ele>
        <time>2020-01-16T09:30:49Z</time>
      </trkpt>
      <trkpt lat="46.50726" lon="5.91586">
        <ele>933.2</ele>
        <time>2020-01-16T09:30:53Z</time>
      </trkpt>
      <trkpt lat="46.50722" lon="5.91583">
        <ele>933.4</ele>
        <time>2020-01-16T09:30:58Z</time>
      </trkpt>
      <trkpt lat="46.50718" lon="5.91579">
        <ele>933.5</ele>
        <time>2020-01-16T09:31:03Z</time>
      </trkpt>
      <trkpt lat="46.50714" lon="5.91575">
        <ele>933.9</ele>
        <time>2020-01-16T09:31:09Z</time>
      </trkpt>
      <trkpt lat="46.5071" lon="5.9157">
        <ele>934.1</ele>
        <time>2020-01-16T09:31:13Z</time>
      </trkpt>
      <trkpt lat="46.50706" lon="5.91566">
        <ele>934.5</ele>
        <time>2020-01-16T09:31:17Z</time>
      </trkpt>
      <trkpt lat="46.50702" lon="5.91562">
        <ele>934.8</ele>
        <time>2020-01-16T09:31:21Z</time>
      </trkpt>
      <trkpt lat="46.50697" lon="5.91557">
        <ele>935</ele>
        <time>2020-01-16T09:31:25Z</time>
      </trkpt>
      <trkpt lat="46.50692" lon="5.91554">
        <ele>935.4</ele>
        <time>2020-01-16T09:31:29Z</time>
      </trkpt>
      <trkpt lat="46.50688" lon="5.91551">
        <ele>936.1</ele>
        <time>2020-01-16T09:31:34Z</time>
      </trkpt>
      <trkpt lat="46.50684" lon="5.91544">
        <ele>936.9</ele>
        <time>2020-01-16T09:31:40Z</time>
      </trkpt>
      <trkpt lat="46.50681" lon="5.91539">
        <ele>937.4</ele>
        <time>2020-01-16T09:31:44Z</time>
      </trkpt>
      <trkpt lat="46.50679" lon="5.91533">
        <ele>938.1</ele>
        <time>2020-01-16T09:31:48Z</time>
      </trkpt>
      <trkpt lat="46.50676" lon="5.91525">
        <ele>939.1</ele>
        <time>2020-01-16T09:31:53Z</time>
      </trkpt>
      <trkpt lat="46.50674" lon="5.91519">
        <ele>939.8</ele>
        <time>2020-01-16T09:31:57Z</time>
      </trkpt>
      <trkpt lat="46.50672" lon="5.91513">
        <ele>940.8</ele>
        <time>2020-01-16T09:32:02Z</time>
      </trkpt>
      <trkpt lat="46.5067" lon="5.91507">
        <ele>941.9</ele>
        <time>2020-01-16T09:32:07Z</time>
      </trkpt>
      <trkpt lat="46.50667" lon="5.915">
        <ele>942.8</ele>
        <time>2020-01-16T09:32:11Z</time>
      </trkpt>
      <trkpt lat="46.50666" lon="5.91493">
        <ele>943.7</ele>
        <time>2020-01-16T09:32:15Z</time>
      </trkpt>
      <trkpt lat="46.50665" lon="5.91486">
        <ele>944.4</ele>
        <time>2020-01-16T09:32:19Z</time>
      </trkpt>
      <trkpt lat="46.50663" lon="5.91479">
        <ele>945</ele>
        <time>2020-01-16T09:32:23Z</time>
      </trkpt>
      <trkpt lat="46.50661" lon="5.91472">
        <ele>945.5</ele>
        <time>2020-01-16T09:32:28Z</time>
      </trkpt>
      <trkpt lat="46.50659" lon="5.91465">
        <ele>946</ele>
        <time>2020-01-16T09:32:33Z</time>
      </trkpt>
      <trkpt lat="46.50657" lon="5.91458">
        <ele>946.1</ele>
        <time>2020-01-16T09:32:38Z</time>
      </trkpt>
      <trkpt lat="46.50656" lon="5.91451">
        <ele>946.1</ele>
        <time>2020-01-16T09:32:42Z</time>
      </trkpt>
      <trkpt lat="46.50654" lon="5.91444">
        <ele>946.2</ele>
        <time>2020-01-16T09:32:46Z</time>
      </trkpt>
      <trkpt lat="46.50654" lon="5.91436">
        <ele>946.3</ele>
        <time>2020-01-16T09:32:50Z</time>
      </trkpt>
      <trkpt lat="46.50654" lon="5.91429">
        <ele>946.5</ele>
        <time>2020-01-16T09:32:54Z</time>
      </trkpt>
      <trkpt lat="46.50653" lon="5.91421">
        <ele>946.7</ele>
        <time>2020-01-16T09:32:59Z</time>
      </trkpt>
      <trkpt lat="46.50653" lon="5.91414">
        <ele>946.9</ele>
        <time>2020-01-16T09:33:03Z</time>
      </trkpt>
      <trkpt lat="46.50654" lon="5.91406">
        <ele>947.4</ele>
        <time>2020-01-16T09:33:08Z</time>
      </trkpt>
      <trkpt lat="46.50654" lon="5.914">
        <ele>947.8</ele>
        <time>2020-01-16T09:33:12Z</time>
      </trkpt>
      <trkpt lat="46.50652" lon="5.91393">
        <ele>948.1</ele>
        <time>2020-01-16T09:33:16Z</time>
      </trkpt>
      <trkpt lat="46.50651" lon="5.91386">
        <ele>948.2</ele>
        <time>2020-01-16T09:33:20Z</time>
      </trkpt>
      <trkpt lat="46.5065" lon="5.91379">
        <ele>948.2</ele>
        <time>2020-01-16T09:33:25Z</time>
      </trkpt>
      <trkpt lat="46.50649" lon="5.91371">
        <ele>948.4</ele>
        <time>2020-01-16T09:33:30Z</time>
      </trkpt>
      <trkpt lat="46.50647" lon="5.91364">
        <ele>948.6</ele>
        <time>2020-01-16T09:33:35Z</time>
      </trkpt>
      <trkpt lat="46.50647" lon="5.91357">
        <ele>948.5</ele>
        <time>2020-01-16T09:33:39Z</time>
      </trkpt>
      <trkpt lat="46.50646" lon="5.9135">
        <ele>948.3</ele>
        <time>2020-01-16T09:33:45Z</time>
      </trkpt>
      <trkpt lat="46.50645" lon="5.91343">
        <ele>948.1</ele>
        <time>2020-01-16T09:33:50Z</time>
      </trkpt>
      <trkpt lat="46.50644" lon="5.91336">
        <ele>948</ele>
        <time>2020-01-16T09:33:54Z</time>
      </trkpt>
      <trkpt lat="46.50644" lon="5.91328">
        <ele>947.7</ele>
        <time>2020-01-16T09:33:59Z</time>
      </trkpt>
      <trkpt lat="46.50643" lon="5.91322">
        <ele>947.6</ele>
        <time>2020-01-16T09:34:03Z</time>
      </trkpt>
      <trkpt lat="46.50641" lon="5.91314">
        <ele>947.6</ele>
        <time>2020-01-16T09:34:09Z</time>
      </trkpt>
      <trkpt lat="46.5064" lon="5.91308">
        <ele>947.6</ele>
        <time>2020-01-16T09:34:13Z</time>
      </trkpt>
      <trkpt lat="46.50639" lon="5.913">
        <ele>947.6</ele>
        <time>2020-01-16T09:34:18Z</time>
      </trkpt>
      <trkpt lat="46.50637" lon="5.91294">
        <ele>947.6</ele>
        <time>2020-01-16T09:34:22Z</time>
      </trkpt>
      <trkpt lat="46.50634" lon="5.91288">
        <ele>947.4</ele>
        <time>2020-01-16T09:34:28Z</time>
      </trkpt>
      <trkpt lat="46.50632" lon="5.91282">
        <ele>947.2</ele>
        <time>2020-01-16T09:34:33Z</time>
      </trkpt>
      <trkpt lat="46.50629" lon="5.91276">
        <ele>947</ele>
        <time>2020-01-16T09:34:37Z</time>
      </trkpt>
      <trkpt lat="46.50626" lon="5.91271">
        <ele>946.7</ele>
        <time>2020-01-16T09:34:42Z</time>
      </trkpt>
      <trkpt lat="46.50623" lon="5.91265">
        <ele>946.3</ele>
        <time>2020-01-16T09:34:46Z</time>
      </trkpt>
      <trkpt lat="46.5062" lon="5.9126">
        <ele>945.6</ele>
        <time>2020-01-16T09:34:51Z</time>
      </trkpt>
      <trkpt lat="46.50616" lon="5.91253">
        <ele>944.5</ele>
        <time>2020-01-16T09:35:00Z</time>
      </trkpt>
      <trkpt lat="46.50614" lon="5.91246">
        <ele>943.9</ele>
        <time>2020-01-16T09:35:04Z</time>
      </trkpt>
      <trkpt lat="46.50611" lon="5.91239">
        <ele>943.4</ele>
        <time>2020-01-16T09:35:08Z</time>
      </trkpt>
      <trkpt lat="46.50609" lon="5.91233">
        <ele>943.1</ele>
        <time>2020-01-16T09:35:11Z</time>
      </trkpt>
      <trkpt lat="46.50607" lon="5.91227">
        <ele>943</ele>
        <time>2020-01-16T09:35:15Z</time>
      </trkpt>
      <trkpt lat="46.50604" lon="5.91221">
        <ele>943.2</ele>
        <time>2020-01-16T09:35:20Z</time>
      </trkpt>
      <trkpt lat="46.50602" lon="5.91214">
        <ele>943.4</ele>
        <time>2020-01-16T09:35:24Z</time>
      </trkpt>
      <trkpt lat="46.506" lon="5.91207">
        <ele>943.6</ele>
        <time>2020-01-16T09:35:30Z</time>
      </trkpt>
      <trkpt lat="46.50598" lon="5.91201">
        <ele>943.7</ele>
        <time>2020-01-16T09:35:36Z</time>
      </trkpt>
      <trkpt lat="46.50597" lon="5.91193">
        <ele>943.6</ele>
        <time>2020-01-16T09:35:40Z</time>
      </trkpt>
      <trkpt lat="46.50596" lon="5.91186">
        <ele>943.6</ele>
        <time>2020-01-16T09:35:45Z</time>
      </trkpt>
      <trkpt lat="46.50593" lon="5.9118">
        <ele>945</ele>
        <time>2020-01-16T09:36:17Z</time>
      </trkpt>
      <trkpt lat="46.50592" lon="5.91173">
        <ele>945.2</ele>
        <time>2020-01-16T09:36:22Z</time>
      </trkpt>
      <trkpt lat="46.5059" lon="5.91166">
        <ele>945.3</ele>
        <time>2020-01-16T09:36:26Z</time>
      </trkpt>
      <trkpt lat="46.50587" lon="5.9116">
        <ele>945.2</ele>
        <time>2020-01-16T09:36:33Z</time>
      </trkpt>
      <trkpt lat="46.50586" lon="5.91154">
        <ele>945.2</ele>
        <time>2020-01-16T09:36:38Z</time>
      </trkpt>
      <trkpt lat="46.50583" lon="5.91148">
        <ele>945.4</ele>
        <time>2020-01-16T09:36:43Z</time>
      </trkpt>
      <trkpt lat="46.50579" lon="5.91142">
        <ele>945.3</ele>
        <time>2020-01-16T09:36:47Z</time>
      </trkpt>
      <trkpt lat="46.50576" lon="5.91137">
        <ele>945</ele>
        <time>2020-01-16T09:36:53Z</time>
      </trkpt>
      <trkpt lat="46.50573" lon="5.91132">
        <ele>944.5</ele>
        <time>2020-01-16T09:36:57Z</time>
      </trkpt>
      <trkpt lat="46.50571" lon="5.91124">
        <ele>943.9</ele>
        <time>2020-01-16T09:37:03Z</time>
      </trkpt>
      <trkpt lat="46.5057" lon="5.91118">
        <ele>943.3</ele>
        <time>2020-01-16T09:37:07Z</time>
      </trkpt>
      <trkpt lat="46.50568" lon="5.91111">
        <ele>942.3</ele>
        <time>2020-01-16T09:37:13Z</time>
      </trkpt>
      <trkpt lat="46.50567" lon="5.91104">
        <ele>941.4</ele>
        <time>2020-01-16T09:37:18Z</time>
      </trkpt>
      <trkpt lat="46.50566" lon="5.91097">
        <ele>940.4</ele>
        <time>2020-01-16T09:37:23Z</time>
      </trkpt>
      <trkpt lat="46.50566" lon="5.91091">
        <ele>939</ele>
        <time>2020-01-16T09:37:29Z</time>
      </trkpt>
      <trkpt lat="46.50567" lon="5.91083">
        <ele>937.5</ele>
        <time>2020-01-16T09:37:35Z</time>
      </trkpt>
      <trkpt lat="46.50568" lon="5.91076">
        <ele>936.5</ele>
        <time>2020-01-16T09:37:39Z</time>
      </trkpt>
      <trkpt lat="46.50569" lon="5.91069">
        <ele>935.4</ele>
        <time>2020-01-16T09:37:44Z</time>
      </trkpt>
      <trkpt lat="46.50571" lon="5.91063">
        <ele>934.4</ele>
        <time>2020-01-16T09:37:49Z</time>
      </trkpt>
      <trkpt lat="46.50573" lon="5.91055">
        <ele>933.5</ele>
        <time>2020-01-16T09:37:54Z</time>
      </trkpt>
      <trkpt lat="46.50573" lon="5.91048">
        <ele>932.6</ele>
        <time>2020-01-16T09:37:58Z</time>
      </trkpt>
      <trkpt lat="46.50573" lon="5.91041">
        <ele>931.6</ele>
        <time>2020-01-16T09:38:02Z</time>
      </trkpt>
      <trkpt lat="46.50575" lon="5.91034">
        <ele>930.3</ele>
        <time>2020-01-16T09:38:07Z</time>
      </trkpt>
      <trkpt lat="46.50577" lon="5.91028">
        <ele>927.6</ele>
        <time>2020-01-16T09:38:16Z</time>
      </trkpt>
      <trkpt lat="46.50577" lon="5.91021">
        <ele>926</ele>
        <time>2020-01-16T09:38:21Z</time>
      </trkpt>
      <trkpt lat="46.50579" lon="5.91009">
        <ele>921.8</ele>
        <time>2020-01-16T09:38:31Z</time>
      </trkpt>
      <trkpt lat="46.50583" lon="5.90987">
        <ele>921.7</ele>
        <time>2020-01-16T09:38:41Z</time>
      </trkpt>
      <trkpt lat="46.50585" lon="5.9098">
        <ele>922.3</ele>
        <time>2020-01-16T09:38:44Z</time>
      </trkpt>
      <trkpt lat="46.50587" lon="5.90973">
        <ele>923.1</ele>
        <time>2020-01-16T09:38:47Z</time>
      </trkpt>
      <trkpt lat="46.50589" lon="5.90966">
        <ele>924</ele>
        <time>2020-01-16T09:38:50Z</time>
      </trkpt>
      <trkpt lat="46.5059" lon="5.90959">
        <ele>924.8</ele>
        <time>2020-01-16T09:38:53Z</time>
      </trkpt>
      <trkpt lat="46.5059" lon="5.9095">
        <ele>925.8</ele>
        <time>2020-01-16T09:38:57Z</time>
      </trkpt>
      <trkpt lat="46.5059" lon="5.90942">
        <ele>926.8</ele>
        <time>2020-01-16T09:39:02Z</time>
      </trkpt>
      <trkpt lat="46.5059" lon="5.90933">
        <ele>927.8</ele>
        <time>2020-01-16T09:39:07Z</time>
      </trkpt>
      <trkpt lat="46.50591" lon="5.90926">
        <ele>928.5</ele>
        <time>2020-01-16T09:39:11Z</time>
      </trkpt>
      <trkpt lat="46.5059" lon="5.90919">
        <ele>929.4</ele>
        <time>2020-01-16T09:39:16Z</time>
      </trkpt>
      <trkpt lat="46.5059" lon="5.90911">
        <ele>930.3</ele>
        <time>2020-01-16T09:39:21Z</time>
      </trkpt>
      <trkpt lat="46.5059" lon="5.90903">
        <ele>931</ele>
        <time>2020-01-16T09:39:26Z</time>
      </trkpt>
      <trkpt lat="46.5059" lon="5.90896">
        <ele>931.5</ele>
        <time>2020-01-16T09:39:31Z</time>
      </trkpt>
      <trkpt lat="46.50589" lon="5.90889">
        <ele>931.6</ele>
        <time>2020-01-16T09:39:37Z</time>
      </trkpt>
      <trkpt lat="46.50589" lon="5.90882">
        <ele>931.4</ele>
        <time>2020-01-16T09:39:42Z</time>
      </trkpt>
      <trkpt lat="46.50588" lon="5.90875">
        <ele>931.2</ele>
        <time>2020-01-16T09:39:47Z</time>
      </trkpt>
      <trkpt lat="46.50589" lon="5.90868">
        <ele>930.8</ele>
        <time>2020-01-16T09:39:53Z</time>
      </trkpt>
      <trkpt lat="46.50589" lon="5.9086">
        <ele>930.3</ele>
        <time>2020-01-16T09:39:58Z</time>
      </trkpt>
      <trkpt lat="46.50589" lon="5.90853">
        <ele>929.9</ele>
        <time>2020-01-16T09:40:01Z</time>
      </trkpt>
      <trkpt lat="46.5059" lon="5.90845">
        <ele>929.5</ele>
        <time>2020-01-16T09:40:05Z</time>
      </trkpt>
      <trkpt lat="46.50589" lon="5.90839">
        <ele>929.3</ele>
        <time>2020-01-16T09:40:09Z</time>
      </trkpt>
      <trkpt lat="46.50589" lon="5.90832">
        <ele>929.2</ele>
        <time>2020-01-16T09:40:12Z</time>
      </trkpt>
      <trkpt lat="46.50588" lon="5.90824">
        <ele>929.2</ele>
        <time>2020-01-16T09:40:16Z</time>
      </trkpt>
      <trkpt lat="46.50587" lon="5.90816">
        <ele>929.2</ele>
        <time>2020-01-16T09:40:21Z</time>
      </trkpt>
      <trkpt lat="46.50587" lon="5.90809">
        <ele>929</ele>
        <time>2020-01-16T09:40:26Z</time>
      </trkpt>
      <trkpt lat="46.50587" lon="5.90802">
        <ele>929</ele>
        <time>2020-01-16T09:40:30Z</time>
      </trkpt>
      <trkpt lat="46.50585" lon="5.90795">
        <ele>929.3</ele>
        <time>2020-01-16T09:40:34Z</time>
      </trkpt>
      <trkpt lat="46.50584" lon="5.90787">
        <ele>929.7</ele>
        <time>2020-01-16T09:40:37Z</time>
      </trkpt>
      <trkpt lat="46.50585" lon="5.90779">
        <ele>930.3</ele>
        <time>2020-01-16T09:40:42Z</time>
      </trkpt>
      <trkpt lat="46.50584" lon="5.90764">
        <ele>932.2</ele>
        <time>2020-01-16T09:40:53Z</time>
      </trkpt>
      <trkpt lat="46.50583" lon="5.90756">
        <ele>932.5</ele>
        <time>2020-01-16T09:40:58Z</time>
      </trkpt>
      <trkpt lat="46.50581" lon="5.90749">
        <ele>932.8</ele>
        <time>2020-01-16T09:41:02Z</time>
      </trkpt>
      <trkpt lat="46.50579" lon="5.90742">
        <ele>933.1</ele>
        <time>2020-01-16T09:41:06Z</time>
      </trkpt>
      <trkpt lat="46.50577" lon="5.90735">
        <ele>933.4</ele>
        <time>2020-01-16T09:41:10Z</time>
      </trkpt>
      <trkpt lat="46.50576" lon="5.90728">
        <ele>933.6</ele>
        <time>2020-01-16T09:41:14Z</time>
      </trkpt>
      <trkpt lat="46.50573" lon="5.90722">
        <ele>934.1</ele>
        <time>2020-01-16T09:41:21Z</time>
      </trkpt>
      <trkpt lat="46.5057" lon="5.90716">
        <ele>934.2</ele>
        <time>2020-01-16T09:41:27Z</time>
      </trkpt>
      <trkpt lat="46.50568" lon="5.9071">
        <ele>934.4</ele>
        <time>2020-01-16T09:41:32Z</time>
      </trkpt>
      <trkpt lat="46.50565" lon="5.90705">
        <ele>934.7</ele>
        <time>2020-01-16T09:41:36Z</time>
      </trkpt>
      <trkpt lat="46.50562" lon="5.90697">
        <ele>934.9</ele>
        <time>2020-01-16T09:41:39Z</time>
      </trkpt>
      <trkpt lat="46.50559" lon="5.90692">
        <ele>935.1</ele>
        <time>2020-01-16T09:41:42Z</time>
      </trkpt>
      <trkpt lat="46.50556" lon="5.90686">
        <ele>935.2</ele>
        <time>2020-01-16T09:41:47Z</time>
      </trkpt>
      <trkpt lat="46.50554" lon="5.9068">
        <ele>935.2</ele>
        <time>2020-01-16T09:41:51Z</time>
      </trkpt>
      <trkpt lat="46.50552" lon="5.90674">
        <ele>935.2</ele>
        <time>2020-01-16T09:41:57Z</time>
      </trkpt>
      <trkpt lat="46.50549" lon="5.90667">
        <ele>935.1</ele>
        <time>2020-01-16T09:42:03Z</time>
      </trkpt>
      <trkpt lat="46.50547" lon="5.90661">
        <ele>935</ele>
        <time>2020-01-16T09:42:07Z</time>
      </trkpt>
      <trkpt lat="46.50544" lon="5.90655">
        <ele>934.7</ele>
        <time>2020-01-16T09:42:12Z</time>
      </trkpt>
      <trkpt lat="46.50542" lon="5.90649">
        <ele>934.3</ele>
        <time>2020-01-16T09:42:16Z</time>
      </trkpt>
      <trkpt lat="46.50539" lon="5.90643">
        <ele>934.1</ele>
        <time>2020-01-16T09:42:20Z</time>
      </trkpt>
      <trkpt lat="46.50537" lon="5.90638">
        <ele>933.8</ele>
        <time>2020-01-16T09:42:25Z</time>
      </trkpt>
      <trkpt lat="46.50534" lon="5.90631">
        <ele>933.8</ele>
        <time>2020-01-16T09:42:30Z</time>
      </trkpt>
      <trkpt lat="46.50531" lon="5.90625">
        <ele>933.7</ele>
        <time>2020-01-16T09:42:34Z</time>
      </trkpt>
      <trkpt lat="46.50528" lon="5.90619">
        <ele>933.6</ele>
        <time>2020-01-16T09:42:38Z</time>
      </trkpt>
      <trkpt lat="46.50526" lon="5.90613">
        <ele>933.5</ele>
        <time>2020-01-16T09:42:41Z</time>
      </trkpt>
      <trkpt lat="46.50523" lon="5.90607">
        <ele>933.5</ele>
        <time>2020-01-16T09:42:45Z</time>
      </trkpt>
      <trkpt lat="46.5052" lon="5.906">
        <ele>933.8</ele>
        <time>2020-01-16T09:42:50Z</time>
      </trkpt>
      <trkpt lat="46.50518" lon="5.90592">
        <ele>933.9</ele>
        <time>2020-01-16T09:42:55Z</time>
      </trkpt>
      <trkpt lat="46.50516" lon="5.90586">
        <ele>933.8</ele>
        <time>2020-01-16T09:42:58Z</time>
      </trkpt>
      <trkpt lat="46.50514" lon="5.90579">
        <ele>933.9</ele>
        <time>2020-01-16T09:43:03Z</time>
      </trkpt>
      <trkpt lat="46.50511" lon="5.90573">
        <ele>934</ele>
        <time>2020-01-16T09:43:07Z</time>
      </trkpt>
      <trkpt lat="46.50513" lon="5.90567">
        <ele>934.8</ele>
        <time>2020-01-16T09:43:44Z</time>
      </trkpt>
      <trkpt lat="46.50509" lon="5.90563">
        <ele>934.2</ele>
        <time>2020-01-16T09:43:48Z</time>
      </trkpt>
      <trkpt lat="46.50506" lon="5.90558">
        <ele>933.6</ele>
        <time>2020-01-16T09:43:53Z</time>
      </trkpt>
      <trkpt lat="46.50502" lon="5.90553">
        <ele>933.3</ele>
        <time>2020-01-16T09:43:57Z</time>
      </trkpt>
      <trkpt lat="46.50498" lon="5.90548">
        <ele>933.1</ele>
        <time>2020-01-16T09:44:02Z</time>
      </trkpt>
      <trkpt lat="46.50494" lon="5.90544">
        <ele>933.4</ele>
        <time>2020-01-16T09:44:07Z</time>
      </trkpt>
      <trkpt lat="46.5049" lon="5.90538">
        <ele>933.8</ele>
        <time>2020-01-16T09:44:13Z</time>
      </trkpt>
      <trkpt lat="46.50487" lon="5.90532">
        <ele>934.3</ele>
        <time>2020-01-16T09:44:18Z</time>
      </trkpt>
      <trkpt lat="46.50483" lon="5.90526">
        <ele>935</ele>
        <time>2020-01-16T09:44:23Z</time>
      </trkpt>
      <trkpt lat="46.50479" lon="5.9052">
        <ele>935.6</ele>
        <time>2020-01-16T09:44:28Z</time>
      </trkpt>
      <trkpt lat="46.50475" lon="5.90516">
        <ele>936.3</ele>
        <time>2020-01-16T09:44:34Z</time>
      </trkpt>
      <trkpt lat="46.50471" lon="5.90513">
        <ele>936.8</ele>
        <time>2020-01-16T09:44:38Z</time>
      </trkpt>
      <trkpt lat="46.50466" lon="5.90509">
        <ele>937.3</ele>
        <time>2020-01-16T09:44:43Z</time>
      </trkpt>
      <trkpt lat="46.50463" lon="5.90504">
        <ele>937.5</ele>
        <time>2020-01-16T09:44:47Z</time>
      </trkpt>
      <trkpt lat="46.5046" lon="5.90499">
        <ele>937.4</ele>
        <time>2020-01-16T09:44:52Z</time>
      </trkpt>
      <trkpt lat="46.50456" lon="5.90494">
        <ele>937.3</ele>
        <time>2020-01-16T09:44:57Z</time>
      </trkpt>
      <trkpt lat="46.50451" lon="5.9049">
        <ele>937.3</ele>
        <time>2020-01-16T09:45:00Z</time>
      </trkpt>
      <trkpt lat="46.50447" lon="5.90486">
        <ele>937.5</ele>
        <time>2020-01-16T09:45:06Z</time>
      </trkpt>
      <trkpt lat="46.50441" lon="5.90478">
        <ele>939.1</ele>
        <time>2020-01-16T09:45:51Z</time>
      </trkpt>
      <trkpt lat="46.50443" lon="5.9047">
        <ele>941.5</ele>
        <time>2020-01-16T09:46:25Z</time>
      </trkpt>
      <trkpt lat="46.50446" lon="5.90466">
        <ele>941.4</ele>
        <time>2020-01-16T09:46:29Z</time>
      </trkpt>
      <trkpt lat="46.50455" lon="5.90467">
        <ele>945.9</ele>
        <time>2020-01-16T09:49:27Z</time>
      </trkpt>
      <trkpt lat="46.5046" lon="5.90464">
        <ele>946</ele>
        <time>2020-01-16T09:49:30Z</time>
      </trkpt>
      <trkpt lat="46.50465" lon="5.90463">
        <ele>946.1</ele>
        <time>2020-01-16T09:49:34Z</time>
      </trkpt>
      <trkpt lat="46.50471" lon="5.90463">
        <ele>946.4</ele>
        <time>2020-01-16T09:49:40Z</time>
      </trkpt>
      <trkpt lat="46.50475" lon="5.90463">
        <ele>946.5</ele>
        <time>2020-01-16T09:49:47Z</time>
      </trkpt>
      <trkpt lat="46.5048" lon="5.90462">
        <ele>946.3</ele>
        <time>2020-01-16T09:49:55Z</time>
      </trkpt>
      <trkpt lat="46.50485" lon="5.90461">
        <ele>946.4</ele>
        <time>2020-01-16T09:50:04Z</time>
      </trkpt>
      <trkpt lat="46.50489" lon="5.90461">
        <ele>946.7</ele>
        <time>2020-01-16T09:50:10Z</time>
      </trkpt>
      <trkpt lat="46.50494" lon="5.90464">
        <ele>948.1</ele>
        <time>2020-01-16T09:50:18Z</time>
      </trkpt>
      <trkpt lat="46.50499" lon="5.90466">
        <ele>950.1</ele>
        <time>2020-01-16T09:50:24Z</time>
      </trkpt>
      <trkpt lat="46.50504" lon="5.90468">
        <ele>950.7</ele>
        <time>2020-01-16T09:50:26Z</time>
      </trkpt>
      <trkpt lat="46.50508" lon="5.90471">
        <ele>951.4</ele>
        <time>2020-01-16T09:50:28Z</time>
      </trkpt>
      <trkpt lat="46.50513" lon="5.90472">
        <ele>952.2</ele>
        <time>2020-01-16T09:50:31Z</time>
      </trkpt>
      <trkpt lat="46.50518" lon="5.90474">
        <ele>953.2</ele>
        <time>2020-01-16T09:50:35Z</time>
      </trkpt>
      <trkpt lat="46.50522" lon="5.90475">
        <ele>953.9</ele>
        <time>2020-01-16T09:50:39Z</time>
      </trkpt>
      <trkpt lat="46.50528" lon="5.90475">
        <ele>954.2</ele>
        <time>2020-01-16T09:50:47Z</time>
      </trkpt>
      <trkpt lat="46.50532" lon="5.90474">
        <ele>954.2</ele>
        <time>2020-01-16T09:50:54Z</time>
      </trkpt>
      <trkpt lat="46.50538" lon="5.90473">
        <ele>957.1</ele>
        <time>2020-01-16T09:51:09Z</time>
      </trkpt>
      <trkpt lat="46.50543" lon="5.90474">
        <ele>958.7</ele>
        <time>2020-01-16T09:51:16Z</time>
      </trkpt>
      <trkpt lat="46.50549" lon="5.90475">
        <ele>959.5</ele>
        <time>2020-01-16T09:51:20Z</time>
      </trkpt>
      <trkpt lat="46.50555" lon="5.90475">
        <ele>959.9</ele>
        <time>2020-01-16T09:51:23Z</time>
      </trkpt>
      <trkpt lat="46.50559" lon="5.90479">
        <ele>960.3</ele>
        <time>2020-01-16T09:51:30Z</time>
      </trkpt>
      <trkpt lat="46.50563" lon="5.90483">
        <ele>960.5</ele>
        <time>2020-01-16T09:51:37Z</time>
      </trkpt>
      <trkpt lat="46.50568" lon="5.90483">
        <ele>960.8</ele>
        <time>2020-01-16T09:51:44Z</time>
      </trkpt>
      <trkpt lat="46.50573" lon="5.90483">
        <ele>961.4</ele>
        <time>2020-01-16T09:51:57Z</time>
      </trkpt>
      <trkpt lat="46.50577" lon="5.90484">
        <ele>962.1</ele>
        <time>2020-01-16T09:52:04Z</time>
      </trkpt>
      <trkpt lat="46.50582" lon="5.90486">
        <ele>962.7</ele>
        <time>2020-01-16T09:52:10Z</time>
      </trkpt>
      <trkpt lat="46.50588" lon="5.90489">
        <ele>963.2</ele>
        <time>2020-01-16T09:52:14Z</time>
      </trkpt>
      <trkpt lat="46.50593" lon="5.90489">
        <ele>963.6</ele>
        <time>2020-01-16T09:52:17Z</time>
      </trkpt>
      <trkpt lat="46.50597" lon="5.9049">
        <ele>964.7</ele>
        <time>2020-01-16T09:52:24Z</time>
      </trkpt>
      <trkpt lat="46.50602" lon="5.9049">
        <ele>966.2</ele>
        <time>2020-01-16T09:52:32Z</time>
      </trkpt>
      <trkpt lat="46.50606" lon="5.90488">
        <ele>967.7</ele>
        <time>2020-01-16T09:52:38Z</time>
      </trkpt>
      <trkpt lat="46.50611" lon="5.90488">
        <ele>968.4</ele>
        <time>2020-01-16T09:52:40Z</time>
      </trkpt>
      <trkpt lat="46.50616" lon="5.90486">
        <ele>969.8</ele>
        <time>2020-01-16T09:52:45Z</time>
      </trkpt>
      <trkpt lat="46.50613" lon="5.90473">
        <ele>971.9</ele>
        <time>2020-01-16T09:53:00Z</time>
      </trkpt>
      <trkpt lat="46.5061" lon="5.90468">
        <ele>972.1</ele>
        <time>2020-01-16T09:53:07Z</time>
      </trkpt>
      <trkpt lat="46.50605" lon="5.90464">
        <ele>973.1</ele>
        <time>2020-01-16T09:53:15Z</time>
      </trkpt>
      <trkpt lat="46.50603" lon="5.90458">
        <ele>973.6</ele>
        <time>2020-01-16T09:53:20Z</time>
      </trkpt>
      <trkpt lat="46.50599" lon="5.90453">
        <ele>973.8</ele>
        <time>2020-01-16T09:53:25Z</time>
      </trkpt>
      <trkpt lat="46.50595" lon="5.90449">
        <ele>973.6</ele>
        <time>2020-01-16T09:53:31Z</time>
      </trkpt>
      <trkpt lat="46.50592" lon="5.90444">
        <ele>972.9</ele>
        <time>2020-01-16T09:53:37Z</time>
      </trkpt>
      <trkpt lat="46.50588" lon="5.90438">
        <ele>972.3</ele>
        <time>2020-01-16T09:53:43Z</time>
      </trkpt>
      <trkpt lat="46.50586" lon="5.90433">
        <ele>971.7</ele>
        <time>2020-01-16T09:53:49Z</time>
      </trkpt>
      <trkpt lat="46.50584" lon="5.90427">
        <ele>971.4</ele>
        <time>2020-01-16T09:53:59Z</time>
      </trkpt>
      <trkpt lat="46.50586" lon="5.9042">
        <ele>971.8</ele>
        <time>2020-01-16T09:54:06Z</time>
      </trkpt>
      <trkpt lat="46.50588" lon="5.90414">
        <ele>972.2</ele>
        <time>2020-01-16T09:54:10Z</time>
      </trkpt>
      <trkpt lat="46.50592" lon="5.90409">
        <ele>972.9</ele>
        <time>2020-01-16T09:54:14Z</time>
      </trkpt>
      <trkpt lat="46.50596" lon="5.90404">
        <ele>974.1</ele>
        <time>2020-01-16T09:54:23Z</time>
      </trkpt>
      <trkpt lat="46.506" lon="5.904">
        <ele>974.3</ele>
        <time>2020-01-16T09:54:31Z</time>
      </trkpt>
      <trkpt lat="46.50602" lon="5.90394">
        <ele>973.5</ele>
        <time>2020-01-16T09:54:40Z</time>
      </trkpt>
      <trkpt lat="46.50601" lon="5.90387">
        <ele>972.5</ele>
        <time>2020-01-16T09:54:54Z</time>
      </trkpt>
      <trkpt lat="46.50598" lon="5.90382">
        <ele>973.8</ele>
        <time>2020-01-16T09:55:02Z</time>
      </trkpt>
      <trkpt lat="46.50594" lon="5.90372">
        <ele>974.6</ele>
        <time>2020-01-16T09:55:05Z</time>
      </trkpt>
      <trkpt lat="46.50591" lon="5.90365">
        <ele>975.2</ele>
        <time>2020-01-16T09:55:07Z</time>
      </trkpt>
      <trkpt lat="46.50588" lon="5.90361">
        <ele>976.1</ele>
        <time>2020-01-16T09:55:11Z</time>
      </trkpt>
      <trkpt lat="46.50584" lon="5.90357">
        <ele>977.4</ele>
        <time>2020-01-16T09:55:18Z</time>
      </trkpt>
      <trkpt lat="46.50582" lon="5.90351">
        <ele>978</ele>
        <time>2020-01-16T09:55:23Z</time>
      </trkpt>
      <trkpt lat="46.5058" lon="5.90345">
        <ele>978.4</ele>
        <time>2020-01-16T09:55:28Z</time>
      </trkpt>
      <trkpt lat="46.50579" lon="5.90338">
        <ele>978.8</ele>
        <time>2020-01-16T09:55:32Z</time>
      </trkpt>
      <trkpt lat="46.50577" lon="5.90332">
        <ele>979.1</ele>
        <time>2020-01-16T09:55:36Z</time>
      </trkpt>
      <trkpt lat="46.50573" lon="5.90329">
        <ele>979.6</ele>
        <time>2020-01-16T09:55:40Z</time>
      </trkpt>
      <trkpt lat="46.50569" lon="5.90326">
        <ele>980.9</ele>
        <time>2020-01-16T09:55:49Z</time>
      </trkpt>
      <trkpt lat="46.50563" lon="5.90324">
        <ele>981.6</ele>
        <time>2020-01-16T09:55:54Z</time>
      </trkpt>
      <trkpt lat="46.50556" lon="5.90319">
        <ele>981.7</ele>
        <time>2020-01-16T09:56:08Z</time>
      </trkpt>
      <trkpt lat="46.50552" lon="5.90312">
        <ele>984.9</ele>
        <time>2020-01-16T09:56:55Z</time>
      </trkpt>
      <trkpt lat="46.50548" lon="5.90309">
        <ele>985.7</ele>
        <time>2020-01-16T09:56:59Z</time>
      </trkpt>
      <trkpt lat="46.50544" lon="5.90304">
        <ele>986.4</ele>
        <time>2020-01-16T09:57:03Z</time>
      </trkpt>
      <trkpt lat="46.50541" lon="5.903">
        <ele>986.9</ele>
        <time>2020-01-16T09:57:06Z</time>
      </trkpt>
      <trkpt lat="46.50535" lon="5.90296">
        <ele>987.3</ele>
        <time>2020-01-16T09:57:10Z</time>
      </trkpt>
      <trkpt lat="46.50532" lon="5.90291">
        <ele>987.7</ele>
        <time>2020-01-16T09:57:16Z</time>
      </trkpt>
      <trkpt lat="46.50529" lon="5.90285">
        <ele>987.3</ele>
        <time>2020-01-16T09:57:23Z</time>
      </trkpt>
      <trkpt lat="46.50525" lon="5.90281">
        <ele>986.7</ele>
        <time>2020-01-16T09:57:27Z</time>
      </trkpt>
      <trkpt lat="46.50519" lon="5.90278">
        <ele>985.9</ele>
        <time>2020-01-16T09:57:33Z</time>
      </trkpt>
      <trkpt lat="46.50514" lon="5.90275">
        <ele>985.5</ele>
        <time>2020-01-16T09:57:39Z</time>
      </trkpt>
      <trkpt lat="46.50511" lon="5.90272">
        <ele>985.4</ele>
        <time>2020-01-16T09:57:42Z</time>
      </trkpt>
      <trkpt lat="46.50506" lon="5.9027">
        <ele>985.3</ele>
        <time>2020-01-16T09:57:46Z</time>
      </trkpt>
      <trkpt lat="46.50502" lon="5.90266">
        <ele>985.9</ele>
        <time>2020-01-16T09:57:52Z</time>
      </trkpt>
      <trkpt lat="46.50497" lon="5.90263">
        <ele>987.3</ele>
        <time>2020-01-16T09:57:58Z</time>
      </trkpt>
      <trkpt lat="46.50495" lon="5.90256">
        <ele>991.7</ele>
        <time>2020-01-16T09:58:14Z</time>
      </trkpt>
      <trkpt lat="46.5049" lon="5.90251">
        <ele>992.6</ele>
        <time>2020-01-16T09:58:18Z</time>
      </trkpt>
      <trkpt lat="46.50487" lon="5.90246">
        <ele>993.2</ele>
        <time>2020-01-16T09:58:22Z</time>
      </trkpt>
      <trkpt lat="46.50483" lon="5.90241">
        <ele>993.6</ele>
        <time>2020-01-16T09:58:26Z</time>
      </trkpt>
      <trkpt lat="46.50479" lon="5.90235">
        <ele>994.1</ele>
        <time>2020-01-16T09:58:31Z</time>
      </trkpt>
      <trkpt lat="46.50474" lon="5.90227">
        <ele>995.2</ele>
        <time>2020-01-16T09:58:39Z</time>
      </trkpt>
      <trkpt lat="46.5047" lon="5.90222">
        <ele>995.7</ele>
        <time>2020-01-16T09:58:42Z</time>
      </trkpt>
      <trkpt lat="46.50465" lon="5.9022">
        <ele>996.5</ele>
        <time>2020-01-16T09:58:48Z</time>
      </trkpt>
      <trkpt lat="46.5046" lon="5.90218">
        <ele>997.3</ele>
        <time>2020-01-16T09:58:55Z</time>
      </trkpt>
      <trkpt lat="46.5045" lon="5.90215">
        <ele>1000.2</ele>
        <time>2020-01-16T09:59:13Z</time>
      </trkpt>
      <trkpt lat="46.50442" lon="5.9021">
        <ele>1002.2</ele>
        <time>2020-01-16T09:59:23Z</time>
      </trkpt>
      <trkpt lat="46.5044" lon="5.90204">
        <ele>1002.3</ele>
        <time>2020-01-16T09:59:33Z</time>
      </trkpt>
      <trkpt lat="46.50438" lon="5.90197">
        <ele>1002.6</ele>
        <time>2020-01-16T09:59:37Z</time>
      </trkpt>
      <trkpt lat="46.50436" lon="5.9019">
        <ele>1002.9</ele>
        <time>2020-01-16T09:59:42Z</time>
      </trkpt>
      <trkpt lat="46.50437" lon="5.90183">
        <ele>1002.5</ele>
        <time>2020-01-16T09:59:50Z</time>
      </trkpt>
      <trkpt lat="46.50441" lon="5.90178">
        <ele>1001.6</ele>
        <time>2020-01-16T10:00:01Z</time>
      </trkpt>
      <trkpt lat="46.50442" lon="5.90171">
        <ele>1001.6</ele>
        <time>2020-01-16T10:00:06Z</time>
      </trkpt>
      <trkpt lat="46.5044" lon="5.90164">
        <ele>1001.8</ele>
        <time>2020-01-16T10:00:09Z</time>
      </trkpt>
      <trkpt lat="46.50441" lon="5.90157">
        <ele>1002.3</ele>
        <time>2020-01-16T10:00:16Z</time>
      </trkpt>
      <trkpt lat="46.5044" lon="5.9015">
        <ele>1002.8</ele>
        <time>2020-01-16T10:00:25Z</time>
      </trkpt>
      <trkpt lat="46.50441" lon="5.90143">
        <ele>1003.2</ele>
        <time>2020-01-16T10:00:30Z</time>
      </trkpt>
      <trkpt lat="46.50443" lon="5.90138">
        <ele>1003.4</ele>
        <time>2020-01-16T10:00:35Z</time>
      </trkpt>
      <trkpt lat="46.50444" lon="5.90131">
        <ele>1003.2</ele>
        <time>2020-01-16T10:00:42Z</time>
      </trkpt>
      <trkpt lat="46.50444" lon="5.90124">
        <ele>1002.5</ele>
        <time>2020-01-16T10:00:49Z</time>
      </trkpt>
      <trkpt lat="46.50446" lon="5.90117">
        <ele>1001.5</ele>
        <time>2020-01-16T10:00:56Z</time>
      </trkpt>
      <trkpt lat="46.50449" lon="5.90112">
        <ele>1000.5</ele>
        <time>2020-01-16T10:01:03Z</time>
      </trkpt>
      <trkpt lat="46.50454" lon="5.90108">
        <ele>1000.1</ele>
        <time>2020-01-16T10:01:08Z</time>
      </trkpt>
      <trkpt lat="46.50458" lon="5.90103">
        <ele>999.9</ele>
        <time>2020-01-16T10:01:15Z</time>
      </trkpt>
      <trkpt lat="46.50459" lon="5.90097">
        <ele>998.2</ele>
        <time>2020-01-16T10:01:32Z</time>
      </trkpt>
      <trkpt lat="46.50458" lon="5.90089">
        <ele>998.5</ele>
        <time>2020-01-16T10:01:38Z</time>
      </trkpt>
      <trkpt lat="46.50456" lon="5.90083">
        <ele>999.5</ele>
        <time>2020-01-16T10:01:44Z</time>
      </trkpt>
      <trkpt lat="46.50452" lon="5.90078">
        <ele>1000.3</ele>
        <time>2020-01-16T10:01:48Z</time>
      </trkpt>
      <trkpt lat="46.50448" lon="5.90074">
        <ele>1001.6</ele>
        <time>2020-01-16T10:01:53Z</time>
      </trkpt>
      <trkpt lat="46.50452" lon="5.90081">
        <ele>1012.1</ele>
        <time>2020-01-16T10:15:35Z</time>
      </trkpt>
      <trkpt lat="46.50456" lon="5.90085">
        <ele>1012.1</ele>
        <time>2020-01-16T10:15:42Z</time>
      </trkpt>
      <trkpt lat="46.50454" lon="5.9009">
        <ele>1011.9</ele>
        <time>2020-01-16T10:16:02Z</time>
      </trkpt>
      <trkpt lat="46.50452" lon="5.90096">
        <ele>1011.6</ele>
        <time>2020-01-16T10:16:08Z</time>
      </trkpt>
      <trkpt lat="46.5045" lon="5.90103">
        <ele>1011.5</ele>
        <time>2020-01-16T10:16:15Z</time>
      </trkpt>
      <trkpt lat="46.50445" lon="5.90107">
        <ele>1011.5</ele>
        <time>2020-01-16T10:16:18Z</time>
      </trkpt>
      <trkpt lat="46.50437" lon="5.90115">
        <ele>1012.4</ele>
        <time>2020-01-16T10:16:49Z</time>
      </trkpt>
      <trkpt lat="46.50432" lon="5.90114">
        <ele>1011.6</ele>
        <time>2020-01-16T10:16:54Z</time>
      </trkpt>
      <trkpt lat="46.50428" lon="5.90115">
        <ele>1011.1</ele>
        <time>2020-01-16T10:17:00Z</time>
      </trkpt>
      <trkpt lat="46.50422" lon="5.90116">
        <ele>1009</ele>
        <time>2020-01-16T10:17:11Z</time>
      </trkpt>
      <trkpt lat="46.5041" lon="5.90122">
        <ele>1006.4</ele>
        <time>2020-01-16T10:18:13Z</time>
      </trkpt>
      <trkpt lat="46.50406" lon="5.90126">
        <ele>1005.9</ele>
        <time>2020-01-16T10:18:21Z</time>
      </trkpt>
      <trkpt lat="46.504" lon="5.90129">
        <ele>1005.7</ele>
        <time>2020-01-16T10:18:24Z</time>
      </trkpt>
      <trkpt lat="46.50394" lon="5.9013">
        <ele>1005.6</ele>
        <time>2020-01-16T10:18:28Z</time>
      </trkpt>
      <trkpt lat="46.50389" lon="5.9013">
        <ele>1005.5</ele>
        <time>2020-01-16T10:18:30Z</time>
      </trkpt>
      <trkpt lat="46.50383" lon="5.9013">
        <ele>1005.4</ele>
        <time>2020-01-16T10:18:33Z</time>
      </trkpt>
      <trkpt lat="46.50378" lon="5.90131">
        <ele>1005.3</ele>
        <time>2020-01-16T10:18:37Z</time>
      </trkpt>
      <trkpt lat="46.50373" lon="5.90133">
        <ele>1005.1</ele>
        <time>2020-01-16T10:18:40Z</time>
      </trkpt>
      <trkpt lat="46.50366" lon="5.90135">
        <ele>1004.6</ele>
        <time>2020-01-16T10:18:45Z</time>
      </trkpt>
      <trkpt lat="46.50361" lon="5.90137">
        <ele>1004.3</ele>
        <time>2020-01-16T10:18:50Z</time>
      </trkpt>
      <trkpt lat="46.50356" lon="5.90139">
        <ele>1004.1</ele>
        <time>2020-01-16T10:18:55Z</time>
      </trkpt>
      <trkpt lat="46.5035" lon="5.90139">
        <ele>1004.1</ele>
        <time>2020-01-16T10:18:59Z</time>
      </trkpt>
      <trkpt lat="46.50344" lon="5.9014">
        <ele>1004</ele>
        <time>2020-01-16T10:19:03Z</time>
      </trkpt>
      <trkpt lat="46.50339" lon="5.90139">
        <ele>1003.9</ele>
        <time>2020-01-16T10:19:07Z</time>
      </trkpt>
      <trkpt lat="46.50334" lon="5.90139">
        <ele>1003.8</ele>
        <time>2020-01-16T10:19:11Z</time>
      </trkpt>
      <trkpt lat="46.50329" lon="5.9014">
        <ele>1003.6</ele>
        <time>2020-01-16T10:19:16Z</time>
      </trkpt>
      <trkpt lat="46.50325" lon="5.9014">
        <ele>1003.1</ele>
        <time>2020-01-16T10:19:24Z</time>
      </trkpt>
      <trkpt lat="46.5032" lon="5.90141">
        <ele>1002.7</ele>
        <time>2020-01-16T10:19:31Z</time>
      </trkpt>
      <trkpt lat="46.50315" lon="5.90148">
        <ele>1001</ele>
        <time>2020-01-16T10:19:43Z</time>
      </trkpt>
      <trkpt lat="46.50299" lon="5.90165">
        <ele>999.2</ele>
        <time>2020-01-16T10:19:56Z</time>
      </trkpt>
      <trkpt lat="46.50293" lon="5.90166">
        <ele>998.8</ele>
        <time>2020-01-16T10:19:59Z</time>
      </trkpt>
      <trkpt lat="46.50288" lon="5.90166">
        <ele>998.5</ele>
        <time>2020-01-16T10:20:02Z</time>
      </trkpt>
      <trkpt lat="46.50283" lon="5.90167">
        <ele>997.8</ele>
        <time>2020-01-16T10:20:08Z</time>
      </trkpt>
      <trkpt lat="46.50279" lon="5.90168">
        <ele>997.1</ele>
        <time>2020-01-16T10:20:12Z</time>
      </trkpt>
      <trkpt lat="46.50274" lon="5.90171">
        <ele>995.9</ele>
        <time>2020-01-16T10:20:18Z</time>
      </trkpt>
      <trkpt lat="46.50269" lon="5.90173">
        <ele>995.1</ele>
        <time>2020-01-16T10:20:22Z</time>
      </trkpt>
      <trkpt lat="46.50265" lon="5.90175">
        <ele>994.2</ele>
        <time>2020-01-16T10:20:27Z</time>
      </trkpt>
      <trkpt lat="46.5026" lon="5.90178">
        <ele>993.1</ele>
        <time>2020-01-16T10:20:33Z</time>
      </trkpt>
      <trkpt lat="46.50257" lon="5.90183">
        <ele>992.7</ele>
        <time>2020-01-16T10:20:35Z</time>
      </trkpt>
      <trkpt lat="46.50252" lon="5.90187">
        <ele>992.1</ele>
        <time>2020-01-16T10:20:38Z</time>
      </trkpt>
      <trkpt lat="46.50247" lon="5.90189">
        <ele>991.5</ele>
        <time>2020-01-16T10:20:42Z</time>
      </trkpt>
      <trkpt lat="46.50242" lon="5.9019">
        <ele>991.1</ele>
        <time>2020-01-16T10:20:46Z</time>
      </trkpt>
      <trkpt lat="46.50232" lon="5.90188">
        <ele>990.2</ele>
        <time>2020-01-16T10:20:56Z</time>
      </trkpt>
      <trkpt lat="46.50228" lon="5.90185">
        <ele>990.1</ele>
        <time>2020-01-16T10:21:00Z</time>
      </trkpt>
      <trkpt lat="46.50223" lon="5.90184">
        <ele>990</ele>
        <time>2020-01-16T10:21:02Z</time>
      </trkpt>
      <trkpt lat="46.50219" lon="5.90181">
        <ele>989.6</ele>
        <time>2020-01-16T10:21:06Z</time>
      </trkpt>
      <trkpt lat="46.50215" lon="5.90176">
        <ele>989.3</ele>
        <time>2020-01-16T10:21:12Z</time>
      </trkpt>
      <trkpt lat="46.50206" lon="5.90162">
        <ele>989</ele>
        <time>2020-01-16T10:21:27Z</time>
      </trkpt>
      <trkpt lat="46.50202" lon="5.90158">
        <ele>989.2</ele>
        <time>2020-01-16T10:21:32Z</time>
      </trkpt>
      <trkpt lat="46.502" lon="5.90152">
        <ele>989.5</ele>
        <time>2020-01-16T10:21:38Z</time>
      </trkpt>
      <trkpt lat="46.50197" lon="5.90146">
        <ele>989.2</ele>
        <time>2020-01-16T10:21:44Z</time>
      </trkpt>
      <trkpt lat="46.50194" lon="5.90141">
        <ele>988.4</ele>
        <time>2020-01-16T10:21:50Z</time>
      </trkpt>
      <trkpt lat="46.5019" lon="5.90136">
        <ele>987.9</ele>
        <time>2020-01-16T10:21:55Z</time>
      </trkpt>
      <trkpt lat="46.50187" lon="5.9013">
        <ele>987.1</ele>
        <time>2020-01-16T10:22:01Z</time>
      </trkpt>
      <trkpt lat="46.50183" lon="5.90125">
        <ele>986.3</ele>
        <time>2020-01-16T10:22:06Z</time>
      </trkpt>
      <trkpt lat="46.5018" lon="5.9012">
        <ele>985.7</ele>
        <time>2020-01-16T10:22:10Z</time>
      </trkpt>
      <trkpt lat="46.50176" lon="5.90115">
        <ele>985</ele>
        <time>2020-01-16T10:22:14Z</time>
      </trkpt>
      <trkpt lat="46.50173" lon="5.9011">
        <ele>984.3</ele>
        <time>2020-01-16T10:22:18Z</time>
      </trkpt>
      <trkpt lat="46.5017" lon="5.90104">
        <ele>983.6</ele>
        <time>2020-01-16T10:22:23Z</time>
      </trkpt>
      <trkpt lat="46.50166" lon="5.90098">
        <ele>983</ele>
        <time>2020-01-16T10:22:29Z</time>
      </trkpt>
      <trkpt lat="46.50163" lon="5.90093">
        <ele>982.2</ele>
        <time>2020-01-16T10:22:35Z</time>
      </trkpt>
      <trkpt lat="46.50159" lon="5.90088">
        <ele>981.1</ele>
        <time>2020-01-16T10:22:42Z</time>
      </trkpt>
      <trkpt lat="46.50155" lon="5.90085">
        <ele>980.5</ele>
        <time>2020-01-16T10:22:47Z</time>
      </trkpt>
      <trkpt lat="46.50151" lon="5.90084">
        <ele>980.2</ele>
        <time>2020-01-16T10:22:50Z</time>
      </trkpt>
      <trkpt lat="46.50146" lon="5.90083">
        <ele>980.1</ele>
        <time>2020-01-16T10:22:53Z</time>
      </trkpt>
      <trkpt lat="46.50141" lon="5.90082">
        <ele>979.8</ele>
        <time>2020-01-16T10:22:57Z</time>
      </trkpt>
      <trkpt lat="46.50137" lon="5.9008">
        <ele>979.6</ele>
        <time>2020-01-16T10:23:03Z</time>
      </trkpt>
      <trkpt lat="46.50132" lon="5.90079">
        <ele>979.2</ele>
        <time>2020-01-16T10:23:10Z</time>
      </trkpt>
      <trkpt lat="46.50127" lon="5.90079">
        <ele>978.8</ele>
        <time>2020-01-16T10:23:14Z</time>
      </trkpt>
      <trkpt lat="46.50122" lon="5.90078">
        <ele>978.2</ele>
        <time>2020-01-16T10:23:19Z</time>
      </trkpt>
      <trkpt lat="46.50117" lon="5.90078">
        <ele>977.8</ele>
        <time>2020-01-16T10:23:24Z</time>
      </trkpt>
      <trkpt lat="46.50112" lon="5.90079">
        <ele>977.2</ele>
        <time>2020-01-16T10:23:30Z</time>
      </trkpt>
      <trkpt lat="46.50107" lon="5.90081">
        <ele>976.5</ele>
        <time>2020-01-16T10:23:35Z</time>
      </trkpt>
      <trkpt lat="46.50102" lon="5.90081">
        <ele>975.8</ele>
        <time>2020-01-16T10:23:39Z</time>
      </trkpt>
      <trkpt lat="46.50097" lon="5.90081">
        <ele>975</ele>
        <time>2020-01-16T10:23:44Z</time>
      </trkpt>
      <trkpt lat="46.50092" lon="5.90082">
        <ele>974.5</ele>
        <time>2020-01-16T10:23:48Z</time>
      </trkpt>
      <trkpt lat="46.50087" lon="5.90084">
        <ele>974.1</ele>
        <time>2020-01-16T10:23:52Z</time>
      </trkpt>
      <trkpt lat="46.50082" lon="5.90083">
        <ele>973.8</ele>
        <time>2020-01-16T10:23:57Z</time>
      </trkpt>
      <trkpt lat="46.50077" lon="5.90081">
        <ele>973.5</ele>
        <time>2020-01-16T10:24:02Z</time>
      </trkpt>
      <trkpt lat="46.50072" lon="5.90077">
        <ele>973.8</ele>
        <time>2020-01-16T10:24:26Z</time>
      </trkpt>
      <trkpt lat="46.50068" lon="5.90073">
        <ele>973.7</ele>
        <time>2020-01-16T10:24:30Z</time>
      </trkpt>
      <trkpt lat="46.50063" lon="5.90071">
        <ele>973.4</ele>
        <time>2020-01-16T10:24:37Z</time>
      </trkpt>
      <trkpt lat="46.50059" lon="5.90069">
        <ele>973.1</ele>
        <time>2020-01-16T10:24:42Z</time>
      </trkpt>
      <trkpt lat="46.50054" lon="5.90068">
        <ele>972.7</ele>
        <time>2020-01-16T10:24:48Z</time>
      </trkpt>
      <trkpt lat="46.5005" lon="5.90066">
        <ele>972.1</ele>
        <time>2020-01-16T10:24:53Z</time>
      </trkpt>
      <trkpt lat="46.50045" lon="5.90064">
        <ele>971.6</ele>
        <time>2020-01-16T10:24:58Z</time>
      </trkpt>
      <trkpt lat="46.5004" lon="5.90064">
        <ele>971.3</ele>
        <time>2020-01-16T10:25:01Z</time>
      </trkpt>
      <trkpt lat="46.50035" lon="5.90062">
        <ele>970.7</ele>
        <time>2020-01-16T10:25:05Z</time>
      </trkpt>
      <trkpt lat="46.5003" lon="5.9006">
        <ele>970.1</ele>
        <time>2020-01-16T10:25:09Z</time>
      </trkpt>
      <trkpt lat="46.50025" lon="5.9006">
        <ele>969.5</ele>
        <time>2020-01-16T10:25:13Z</time>
      </trkpt>
      <trkpt lat="46.50021" lon="5.90061">
        <ele>968.9</ele>
        <time>2020-01-16T10:25:18Z</time>
      </trkpt>
      <trkpt lat="46.50016" lon="5.9006">
        <ele>968.5</ele>
        <time>2020-01-16T10:25:22Z</time>
      </trkpt>
      <trkpt lat="46.50011" lon="5.90059">
        <ele>968.2</ele>
        <time>2020-01-16T10:25:25Z</time>
      </trkpt>
      <trkpt lat="46.50006" lon="5.90063">
        <ele>968</ele>
        <time>2020-01-16T10:25:37Z</time>
      </trkpt>
      <trkpt lat="46.50004" lon="5.90068">
        <ele>967.7</ele>
        <time>2020-01-16T10:25:46Z</time>
      </trkpt>
      <trkpt lat="46.49998" lon="5.90072">
        <ele>966.6</ele>
        <time>2020-01-16T10:25:59Z</time>
      </trkpt>
      <trkpt lat="46.49993" lon="5.90072">
        <ele>966.2</ele>
        <time>2020-01-16T10:26:03Z</time>
      </trkpt>
      <trkpt lat="46.49989" lon="5.90072">
        <ele>965.4</ele>
        <time>2020-01-16T10:26:09Z</time>
      </trkpt>
      <trkpt lat="46.49984" lon="5.90073">
        <ele>964.3</ele>
        <time>2020-01-16T10:26:26Z</time>
      </trkpt>
      <trkpt lat="46.49979" lon="5.9007">
        <ele>964.1</ele>
        <time>2020-01-16T10:26:32Z</time>
      </trkpt>
      <trkpt lat="46.49974" lon="5.90069">
        <ele>963.4</ele>
        <time>2020-01-16T10:26:49Z</time>
      </trkpt>
      <trkpt lat="46.49969" lon="5.90067">
        <ele>962.9</ele>
        <time>2020-01-16T10:26:53Z</time>
      </trkpt>
      <trkpt lat="46.49964" lon="5.90068">
        <ele>962.2</ele>
        <time>2020-01-16T10:26:57Z</time>
      </trkpt>
      <trkpt lat="46.49959" lon="5.90069">
        <ele>961.8</ele>
        <time>2020-01-16T10:27:00Z</time>
      </trkpt>
      <trkpt lat="46.49954" lon="5.90068">
        <ele>961.4</ele>
        <time>2020-01-16T10:27:03Z</time>
      </trkpt>
      <trkpt lat="46.49948" lon="5.90067">
        <ele>961.1</ele>
        <time>2020-01-16T10:27:06Z</time>
      </trkpt>
      <trkpt lat="46.49942" lon="5.90066">
        <ele>960.7</ele>
        <time>2020-01-16T10:27:09Z</time>
      </trkpt>
      <trkpt lat="46.49938" lon="5.90067">
        <ele>960.2</ele>
        <time>2020-01-16T10:27:13Z</time>
      </trkpt>
      <trkpt lat="46.49933" lon="5.90065">
        <ele>959.6</ele>
        <time>2020-01-16T10:27:18Z</time>
      </trkpt>
      <trkpt lat="46.49929" lon="5.90061">
        <ele>959</ele>
        <time>2020-01-16T10:27:23Z</time>
      </trkpt>
      <trkpt lat="46.49926" lon="5.90056">
        <ele>958.7</ele>
        <time>2020-01-16T10:27:28Z</time>
      </trkpt>
      <trkpt lat="46.49922" lon="5.90052">
        <ele>958.5</ele>
        <time>2020-01-16T10:27:33Z</time>
      </trkpt>
      <trkpt lat="46.49918" lon="5.90048">
        <ele>958.4</ele>
        <time>2020-01-16T10:27:39Z</time>
      </trkpt>
      <trkpt lat="46.49913" lon="5.90044">
        <ele>958.2</ele>
        <time>2020-01-16T10:27:44Z</time>
      </trkpt>
      <trkpt lat="46.49909" lon="5.9004">
        <ele>957.7</ele>
        <time>2020-01-16T10:27:48Z</time>
      </trkpt>
      <trkpt lat="46.49905" lon="5.90037">
        <ele>956.9</ele>
        <time>2020-01-16T10:27:54Z</time>
      </trkpt>
      <trkpt lat="46.499" lon="5.90033">
        <ele>956.1</ele>
        <time>2020-01-16T10:27:59Z</time>
      </trkpt>
      <trkpt lat="46.49895" lon="5.90029">
        <ele>955.2</ele>
        <time>2020-01-16T10:28:04Z</time>
      </trkpt>
      <trkpt lat="46.49891" lon="5.90024">
        <ele>954.4</ele>
        <time>2020-01-16T10:28:08Z</time>
      </trkpt>
      <trkpt lat="46.49886" lon="5.90021">
        <ele>953.8</ele>
        <time>2020-01-16T10:28:12Z</time>
      </trkpt>
      <trkpt lat="46.49881" lon="5.90017">
        <ele>953.4</ele>
        <time>2020-01-16T10:28:16Z</time>
      </trkpt>
      <trkpt lat="46.49876" lon="5.90013">
        <ele>953</ele>
        <time>2020-01-16T10:28:21Z</time>
      </trkpt>
      <trkpt lat="46.49872" lon="5.9001">
        <ele>952.6</ele>
        <time>2020-01-16T10:28:26Z</time>
      </trkpt>
      <trkpt lat="46.49868" lon="5.90006">
        <ele>952.2</ele>
        <time>2020-01-16T10:28:30Z</time>
      </trkpt>
      <trkpt lat="46.49865" lon="5.90001">
        <ele>951.6</ele>
        <time>2020-01-16T10:28:34Z</time>
      </trkpt>
      <trkpt lat="46.49863" lon="5.89995">
        <ele>950.7</ele>
        <time>2020-01-16T10:28:40Z</time>
      </trkpt>
      <trkpt lat="46.49862" lon="5.89988">
        <ele>949.5</ele>
        <time>2020-01-16T10:28:47Z</time>
      </trkpt>
      <trkpt lat="46.49863" lon="5.89981">
        <ele>948</ele>
        <time>2020-01-16T10:28:55Z</time>
      </trkpt>
      <trkpt lat="46.49866" lon="5.89975">
        <ele>947.2</ele>
        <time>2020-01-16T10:29:02Z</time>
      </trkpt>
      <trkpt lat="46.49867" lon="5.89968">
        <ele>946.8</ele>
        <time>2020-01-16T10:29:07Z</time>
      </trkpt>
      <trkpt lat="46.49869" lon="5.89962">
        <ele>946.6</ele>
        <time>2020-01-16T10:29:15Z</time>
      </trkpt>
      <trkpt lat="46.49871" lon="5.89956">
        <ele>946.9</ele>
        <time>2020-01-16T10:29:24Z</time>
      </trkpt>
      <trkpt lat="46.49872" lon="5.89949">
        <ele>947</ele>
        <time>2020-01-16T10:29:30Z</time>
      </trkpt>
      <trkpt lat="46.49872" lon="5.89942">
        <ele>946.7</ele>
        <time>2020-01-16T10:29:35Z</time>
      </trkpt>
      <trkpt lat="46.49875" lon="5.89935">
        <ele>946.1</ele>
        <time>2020-01-16T10:29:39Z</time>
      </trkpt>
      <trkpt lat="46.49877" lon="5.89929">
        <ele>945.6</ele>
        <time>2020-01-16T10:29:43Z</time>
      </trkpt>
      <trkpt lat="46.4988" lon="5.89923">
        <ele>944.9</ele>
        <time>2020-01-16T10:29:48Z</time>
      </trkpt>
      <trkpt lat="46.49884" lon="5.89918">
        <ele>943.8</ele>
        <time>2020-01-16T10:29:54Z</time>
      </trkpt>
      <trkpt lat="46.49888" lon="5.89915">
        <ele>942.8</ele>
        <time>2020-01-16T10:30:00Z</time>
      </trkpt>
      <trkpt lat="46.49892" lon="5.89911">
        <ele>942.2</ele>
        <time>2020-01-16T10:30:04Z</time>
      </trkpt>
      <trkpt lat="46.49896" lon="5.89907">
        <ele>941.4</ele>
        <time>2020-01-16T10:30:09Z</time>
      </trkpt>
      <trkpt lat="46.499" lon="5.89905">
        <ele>940.9</ele>
        <time>2020-01-16T10:30:13Z</time>
      </trkpt>
      <trkpt lat="46.49905" lon="5.89899">
        <ele>940.5</ele>
        <time>2020-01-16T10:30:17Z</time>
      </trkpt>
      <trkpt lat="46.49908" lon="5.89895">
        <ele>940.1</ele>
        <time>2020-01-16T10:30:21Z</time>
      </trkpt>
      <trkpt lat="46.49912" lon="5.89891">
        <ele>939.6</ele>
        <time>2020-01-16T10:30:25Z</time>
      </trkpt>
      <trkpt lat="46.49916" lon="5.89887">
        <ele>939.1</ele>
        <time>2020-01-16T10:30:29Z</time>
      </trkpt>
      <trkpt lat="46.49924" lon="5.89881">
        <ele>937.7</ele>
        <time>2020-01-16T10:30:38Z</time>
      </trkpt>
      <trkpt lat="46.49929" lon="5.89877">
        <ele>937.6</ele>
        <time>2020-01-16T10:30:42Z</time>
      </trkpt>
      <trkpt lat="46.49942" lon="5.89861">
        <ele>937.5</ele>
        <time>2020-01-16T10:30:59Z</time>
      </trkpt>
      <trkpt lat="46.49947" lon="5.89858">
        <ele>937.5</ele>
        <time>2020-01-16T10:31:04Z</time>
      </trkpt>
      <trkpt lat="46.49953" lon="5.89855">
        <ele>937.6</ele>
        <time>2020-01-16T10:31:08Z</time>
      </trkpt>
      <trkpt lat="46.49958" lon="5.89853">
        <ele>937.8</ele>
        <time>2020-01-16T10:31:12Z</time>
      </trkpt>
      <trkpt lat="46.49963" lon="5.89852">
        <ele>938.3</ele>
        <time>2020-01-16T10:31:16Z</time>
      </trkpt>
      <trkpt lat="46.49967" lon="5.89849">
        <ele>938.7</ele>
        <time>2020-01-16T10:31:20Z</time>
      </trkpt>
      <trkpt lat="46.49972" lon="5.89846">
        <ele>939.3</ele>
        <time>2020-01-16T10:31:27Z</time>
      </trkpt>
      <trkpt lat="46.49976" lon="5.89842">
        <ele>939.5</ele>
        <time>2020-01-16T10:31:32Z</time>
      </trkpt>
      <trkpt lat="46.49982" lon="5.89841">
        <ele>939.7</ele>
        <time>2020-01-16T10:31:36Z</time>
      </trkpt>
      <trkpt lat="46.49986" lon="5.89838">
        <ele>939.8</ele>
        <time>2020-01-16T10:31:44Z</time>
      </trkpt>
      <trkpt lat="46.49989" lon="5.89834">
        <ele>939.9</ele>
        <time>2020-01-16T10:31:47Z</time>
      </trkpt>
      <trkpt lat="46.49994" lon="5.89829">
        <ele>939.8</ele>
        <time>2020-01-16T10:31:51Z</time>
      </trkpt>
      <trkpt lat="46.49999" lon="5.89826">
        <ele>939.6</ele>
        <time>2020-01-16T10:31:55Z</time>
      </trkpt>
      <trkpt lat="46.50004" lon="5.89824">
        <ele>939.2</ele>
        <time>2020-01-16T10:31:59Z</time>
      </trkpt>
      <trkpt lat="46.50009" lon="5.89826">
        <ele>938.8</ele>
        <time>2020-01-16T10:32:03Z</time>
      </trkpt>
      <trkpt lat="46.50013" lon="5.89824">
        <ele>938.7</ele>
        <time>2020-01-16T10:32:07Z</time>
      </trkpt>
      <trkpt lat="46.50017" lon="5.8982">
        <ele>938.7</ele>
        <time>2020-01-16T10:32:10Z</time>
      </trkpt>
      <trkpt lat="46.5002" lon="5.89815">
        <ele>938.9</ele>
        <time>2020-01-16T10:32:14Z</time>
      </trkpt>
      <trkpt lat="46.50024" lon="5.89812">
        <ele>939.2</ele>
        <time>2020-01-16T10:32:18Z</time>
      </trkpt>
      <trkpt lat="46.50029" lon="5.89809">
        <ele>939.5</ele>
        <time>2020-01-16T10:32:22Z</time>
      </trkpt>
      <trkpt lat="46.50034" lon="5.89808">
        <ele>939.7</ele>
        <time>2020-01-16T10:32:26Z</time>
      </trkpt>
      <trkpt lat="46.50038" lon="5.89806">
        <ele>939.9</ele>
        <time>2020-01-16T10:32:30Z</time>
      </trkpt>
      <trkpt lat="46.50043" lon="5.89805">
        <ele>940.2</ele>
        <time>2020-01-16T10:32:35Z</time>
      </trkpt>
      <trkpt lat="46.50048" lon="5.89805">
        <ele>939.4</ele>
        <time>2020-01-16T10:32:46Z</time>
      </trkpt>
      <trkpt lat="46.50053" lon="5.89802">
        <ele>938.6</ele>
        <time>2020-01-16T10:32:51Z</time>
      </trkpt>
      <trkpt lat="46.50057" lon="5.898">
        <ele>938</ele>
        <time>2020-01-16T10:32:56Z</time>
      </trkpt>
      <trkpt lat="46.50069" lon="5.89792">
        <ele>936.7</ele>
        <time>2020-01-16T10:33:10Z</time>
      </trkpt>
      <trkpt lat="46.50078" lon="5.89789">
        <ele>937</ele>
        <time>2020-01-16T10:33:32Z</time>
      </trkpt>
      <trkpt lat="46.50081" lon="5.89786">
        <ele>937.1</ele>
        <time>2020-01-16T10:33:35Z</time>
      </trkpt>
      <trkpt lat="46.50087" lon="5.89783">
        <ele>937.2</ele>
        <time>2020-01-16T10:33:38Z</time>
      </trkpt>
      <trkpt lat="46.50092" lon="5.89779">
        <ele>937.4</ele>
        <time>2020-01-16T10:33:41Z</time>
      </trkpt>
      <trkpt lat="46.50097" lon="5.89776">
        <ele>937.6</ele>
        <time>2020-01-16T10:33:43Z</time>
      </trkpt>
      <trkpt lat="46.50102" lon="5.89773">
        <ele>938</ele>
        <time>2020-01-16T10:33:46Z</time>
      </trkpt>
      <trkpt lat="46.50107" lon="5.89771">
        <ele>938.5</ele>
        <time>2020-01-16T10:33:49Z</time>
      </trkpt>
      <trkpt lat="46.50112" lon="5.89768">
        <ele>938.9</ele>
        <time>2020-01-16T10:33:53Z</time>
      </trkpt>
      <trkpt lat="46.50117" lon="5.89766">
        <ele>938.9</ele>
        <time>2020-01-16T10:33:57Z</time>
      </trkpt>
      <trkpt lat="46.50122" lon="5.89764">
        <ele>938.7</ele>
        <time>2020-01-16T10:34:02Z</time>
      </trkpt>
      <trkpt lat="46.50127" lon="5.89762">
        <ele>938.7</ele>
        <time>2020-01-16T10:34:09Z</time>
      </trkpt>
      <trkpt lat="46.50132" lon="5.8976">
        <ele>938.3</ele>
        <time>2020-01-16T10:34:15Z</time>
      </trkpt>
      <trkpt lat="46.50137" lon="5.89759">
        <ele>937.7</ele>
        <time>2020-01-16T10:34:20Z</time>
      </trkpt>
      <trkpt lat="46.50142" lon="5.89756">
        <ele>937.1</ele>
        <time>2020-01-16T10:34:25Z</time>
      </trkpt>
      <trkpt lat="46.50146" lon="5.89753">
        <ele>936.7</ele>
        <time>2020-01-16T10:34:28Z</time>
      </trkpt>
      <trkpt lat="46.50151" lon="5.89751">
        <ele>936.2</ele>
        <time>2020-01-16T10:34:32Z</time>
      </trkpt>
      <trkpt lat="46.50156" lon="5.89748">
        <ele>935.7</ele>
        <time>2020-01-16T10:34:38Z</time>
      </trkpt>
      <trkpt lat="46.5016" lon="5.89747">
        <ele>935.4</ele>
        <time>2020-01-16T10:34:43Z</time>
      </trkpt>
      <trkpt lat="46.50165" lon="5.89745">
        <ele>934.8</ele>
        <time>2020-01-16T10:34:48Z</time>
      </trkpt>
      <trkpt lat="46.50169" lon="5.89742">
        <ele>934.5</ele>
        <time>2020-01-16T10:34:52Z</time>
      </trkpt>
      <trkpt lat="46.50174" lon="5.89741">
        <ele>934.1</ele>
        <time>2020-01-16T10:34:57Z</time>
      </trkpt>
      <trkpt lat="46.50178" lon="5.89738">
        <ele>933.6</ele>
        <time>2020-01-16T10:35:02Z</time>
      </trkpt>
      <trkpt lat="46.50184" lon="5.89736">
        <ele>933.1</ele>
        <time>2020-01-16T10:35:06Z</time>
      </trkpt>
      <trkpt lat="46.50189" lon="5.89734">
        <ele>932.6</ele>
        <time>2020-01-16T10:35:10Z</time>
      </trkpt>
      <trkpt lat="46.50193" lon="5.89733">
        <ele>932.1</ele>
        <time>2020-01-16T10:35:14Z</time>
      </trkpt>
      <trkpt lat="46.50198" lon="5.89731">
        <ele>931.7</ele>
        <time>2020-01-16T10:35:18Z</time>
      </trkpt>
      <trkpt lat="46.50203" lon="5.8973">
        <ele>931.4</ele>
        <time>2020-01-16T10:35:22Z</time>
      </trkpt>
      <trkpt lat="46.50208" lon="5.89726">
        <ele>931</ele>
        <time>2020-01-16T10:35:26Z</time>
      </trkpt>
      <trkpt lat="46.50212" lon="5.89723">
        <ele>930.6</ele>
        <time>2020-01-16T10:35:30Z</time>
      </trkpt>
      <trkpt lat="46.50218" lon="5.8972">
        <ele>930.1</ele>
        <time>2020-01-16T10:35:35Z</time>
      </trkpt>
      <trkpt lat="46.50222" lon="5.89718">
        <ele>929.7</ele>
        <time>2020-01-16T10:35:39Z</time>
      </trkpt>
      <trkpt lat="46.50227" lon="5.89715">
        <ele>929</ele>
        <time>2020-01-16T10:35:44Z</time>
      </trkpt>
      <trkpt lat="46.50232" lon="5.89713">
        <ele>928.5</ele>
        <time>2020-01-16T10:35:48Z</time>
      </trkpt>
      <trkpt lat="46.50237" lon="5.8971">
        <ele>927.9</ele>
        <time>2020-01-16T10:35:53Z</time>
      </trkpt>
      <trkpt lat="46.50243" lon="5.89709">
        <ele>927.2</ele>
        <time>2020-01-16T10:35:58Z</time>
      </trkpt>
      <trkpt lat="46.50248" lon="5.89707">
        <ele>926.6</ele>
        <time>2020-01-16T10:36:02Z</time>
      </trkpt>
      <trkpt lat="46.50253" lon="5.89705">
        <ele>926</ele>
        <time>2020-01-16T10:36:06Z</time>
      </trkpt>
      <trkpt lat="46.50257" lon="5.89702">
        <ele>925.4</ele>
        <time>2020-01-16T10:36:10Z</time>
      </trkpt>
      <trkpt lat="46.50262" lon="5.897">
        <ele>924.9</ele>
        <time>2020-01-16T10:36:15Z</time>
      </trkpt>
      <trkpt lat="46.50267" lon="5.89698">
        <ele>924.7</ele>
        <time>2020-01-16T10:36:19Z</time>
      </trkpt>
      <trkpt lat="46.50273" lon="5.89695">
        <ele>924.5</ele>
        <time>2020-01-16T10:36:23Z</time>
      </trkpt>
      <trkpt lat="46.50277" lon="5.89692">
        <ele>924.5</ele>
        <time>2020-01-16T10:36:27Z</time>
      </trkpt>
      <trkpt lat="46.50282" lon="5.89689">
        <ele>924.5</ele>
        <time>2020-01-16T10:36:32Z</time>
      </trkpt>
      <trkpt lat="46.50286" lon="5.89687">
        <ele>924.6</ele>
        <time>2020-01-16T10:36:37Z</time>
      </trkpt>
      <trkpt lat="46.50291" lon="5.89685">
        <ele>925</ele>
        <time>2020-01-16T10:36:42Z</time>
      </trkpt>
      <trkpt lat="46.50297" lon="5.89683">
        <ele>925.3</ele>
        <time>2020-01-16T10:36:47Z</time>
      </trkpt>
      <trkpt lat="46.50301" lon="5.89682">
        <ele>925.3</ele>
        <time>2020-01-16T10:36:51Z</time>
      </trkpt>
      <trkpt lat="46.50306" lon="5.8968">
        <ele>925.2</ele>
        <time>2020-01-16T10:36:55Z</time>
      </trkpt>
      <trkpt lat="46.50311" lon="5.89679">
        <ele>925</ele>
        <time>2020-01-16T10:36:59Z</time>
      </trkpt>
      <trkpt lat="46.50316" lon="5.89676">
        <ele>924.6</ele>
        <time>2020-01-16T10:37:03Z</time>
      </trkpt>
      <trkpt lat="46.5032" lon="5.89674">
        <ele>924.2</ele>
        <time>2020-01-16T10:37:08Z</time>
      </trkpt>
      <trkpt lat="46.50324" lon="5.89671">
        <ele>923.9</ele>
        <time>2020-01-16T10:37:14Z</time>
      </trkpt>
      <trkpt lat="46.50329" lon="5.89668">
        <ele>923.8</ele>
        <time>2020-01-16T10:37:20Z</time>
      </trkpt>
      <trkpt lat="46.50334" lon="5.89666">
        <ele>923.6</ele>
        <time>2020-01-16T10:37:24Z</time>
      </trkpt>
      <trkpt lat="46.50339" lon="5.89665">
        <ele>923.4</ele>
        <time>2020-01-16T10:37:28Z</time>
      </trkpt>
      <trkpt lat="46.50345" lon="5.89663">
        <ele>923.1</ele>
        <time>2020-01-16T10:37:32Z</time>
      </trkpt>
      <trkpt lat="46.50349" lon="5.89661">
        <ele>923</ele>
        <time>2020-01-16T10:37:36Z</time>
      </trkpt>
      <trkpt lat="46.50354" lon="5.8966">
        <ele>922.9</ele>
        <time>2020-01-16T10:37:40Z</time>
      </trkpt>
      <trkpt lat="46.50359" lon="5.89659">
        <ele>922.7</ele>
        <time>2020-01-16T10:37:45Z</time>
      </trkpt>
      <trkpt lat="46.50364" lon="5.89658">
        <ele>922.4</ele>
        <time>2020-01-16T10:37:50Z</time>
      </trkpt>
      <trkpt lat="46.50369" lon="5.89656">
        <ele>921.9</ele>
        <time>2020-01-16T10:37:55Z</time>
      </trkpt>
      <trkpt lat="46.50374" lon="5.89653">
        <ele>921.3</ele>
        <time>2020-01-16T10:37:59Z</time>
      </trkpt>
      <trkpt lat="46.50378" lon="5.89649">
        <ele>920.7</ele>
        <time>2020-01-16T10:38:03Z</time>
      </trkpt>
      <trkpt lat="46.50383" lon="5.89646">
        <ele>920.2</ele>
        <time>2020-01-16T10:38:07Z</time>
      </trkpt>
      <trkpt lat="46.50388" lon="5.89644">
        <ele>919.8</ele>
        <time>2020-01-16T10:38:13Z</time>
      </trkpt>
      <trkpt lat="46.50392" lon="5.89642">
        <ele>920</ele>
        <time>2020-01-16T10:38:18Z</time>
      </trkpt>
      <trkpt lat="46.50397" lon="5.89641">
        <ele>920.3</ele>
        <time>2020-01-16T10:38:23Z</time>
      </trkpt>
      <trkpt lat="46.50402" lon="5.8964">
        <ele>920.8</ele>
        <time>2020-01-16T10:38:34Z</time>
      </trkpt>
      <trkpt lat="46.50407" lon="5.8964">
        <ele>920.9</ele>
        <time>2020-01-16T10:38:44Z</time>
      </trkpt>
      <trkpt lat="46.50412" lon="5.89637">
        <ele>920.8</ele>
        <time>2020-01-16T10:38:49Z</time>
      </trkpt>
      <trkpt lat="46.50418" lon="5.89635">
        <ele>920.6</ele>
        <time>2020-01-16T10:38:53Z</time>
      </trkpt>
      <trkpt lat="46.50422" lon="5.89633">
        <ele>920.6</ele>
        <time>2020-01-16T10:38:56Z</time>
      </trkpt>
      <trkpt lat="46.50427" lon="5.89629">
        <ele>920.4</ele>
        <time>2020-01-16T10:39:01Z</time>
      </trkpt>
      <trkpt lat="46.50432" lon="5.89625">
        <ele>920.6</ele>
        <time>2020-01-16T10:39:05Z</time>
      </trkpt>
      <trkpt lat="46.50436" lon="5.89624">
        <ele>920.9</ele>
        <time>2020-01-16T10:39:08Z</time>
      </trkpt>
      <trkpt lat="46.50441" lon="5.89622">
        <ele>921.1</ele>
        <time>2020-01-16T10:39:11Z</time>
      </trkpt>
      <trkpt lat="46.50445" lon="5.8962">
        <ele>921.5</ele>
        <time>2020-01-16T10:39:14Z</time>
      </trkpt>
      <trkpt lat="46.5045" lon="5.89616">
        <ele>921.8</ele>
        <time>2020-01-16T10:39:18Z</time>
      </trkpt>
      <trkpt lat="46.50455" lon="5.89613">
        <ele>921.9</ele>
        <time>2020-01-16T10:39:24Z</time>
      </trkpt>
      <trkpt lat="46.50459" lon="5.89613">
        <ele>921.7</ele>
        <time>2020-01-16T10:39:29Z</time>
      </trkpt>
      <trkpt lat="46.50464" lon="5.8961">
        <ele>921.1</ele>
        <time>2020-01-16T10:39:35Z</time>
      </trkpt>
      <trkpt lat="46.50469" lon="5.89607">
        <ele>920.6</ele>
        <time>2020-01-16T10:39:39Z</time>
      </trkpt>
      <trkpt lat="46.50474" lon="5.89605">
        <ele>920.2</ele>
        <time>2020-01-16T10:39:42Z</time>
      </trkpt>
      <trkpt lat="46.5048" lon="5.89603">
        <ele>919.8</ele>
        <time>2020-01-16T10:39:46Z</time>
      </trkpt>
      <trkpt lat="46.50491" lon="5.89599">
        <ele>919.4</ele>
        <time>2020-01-16T10:39:57Z</time>
      </trkpt>
      <trkpt lat="46.50496" lon="5.89597">
        <ele>919.2</ele>
        <time>2020-01-16T10:40:01Z</time>
      </trkpt>
      <trkpt lat="46.50501" lon="5.89596">
        <ele>919</ele>
        <time>2020-01-16T10:40:05Z</time>
      </trkpt>
      <trkpt lat="46.50506" lon="5.89594">
        <ele>918.9</ele>
        <time>2020-01-16T10:40:09Z</time>
      </trkpt>
      <trkpt lat="46.5051" lon="5.89593">
        <ele>918.6</ele>
        <time>2020-01-16T10:40:13Z</time>
      </trkpt>
      <trkpt lat="46.50514" lon="5.89589">
        <ele>918.4</ele>
        <time>2020-01-16T10:40:16Z</time>
      </trkpt>
      <trkpt lat="46.50519" lon="5.89587">
        <ele>917.9</ele>
        <time>2020-01-16T10:40:20Z</time>
      </trkpt>
      <trkpt lat="46.50526" lon="5.89584">
        <ele>917.5</ele>
        <time>2020-01-16T10:40:25Z</time>
      </trkpt>
      <trkpt lat="46.50531" lon="5.89583">
        <ele>917.4</ele>
        <time>2020-01-16T10:40:28Z</time>
      </trkpt>
      <trkpt lat="46.50535" lon="5.89581">
        <ele>917.2</ele>
        <time>2020-01-16T10:40:32Z</time>
      </trkpt>
      <trkpt lat="46.5054" lon="5.89578">
        <ele>917.3</ele>
        <time>2020-01-16T10:40:35Z</time>
      </trkpt>
      <trkpt lat="46.50544" lon="5.89577">
        <ele>917.4</ele>
        <time>2020-01-16T10:40:38Z</time>
      </trkpt>
      <trkpt lat="46.50549" lon="5.89575">
        <ele>917.6</ele>
        <time>2020-01-16T10:40:43Z</time>
      </trkpt>
      <trkpt lat="46.50555" lon="5.89573">
        <ele>917.8</ele>
        <time>2020-01-16T10:40:48Z</time>
      </trkpt>
      <trkpt lat="46.50559" lon="5.89571">
        <ele>918</ele>
        <time>2020-01-16T10:40:52Z</time>
      </trkpt>
      <trkpt lat="46.50564" lon="5.89569">
        <ele>918</ele>
        <time>2020-01-16T10:40:57Z</time>
      </trkpt>
      <trkpt lat="46.50569" lon="5.89567">
        <ele>917.8</ele>
        <time>2020-01-16T10:41:02Z</time>
      </trkpt>
      <trkpt lat="46.50574" lon="5.89566">
        <ele>917.4</ele>
        <time>2020-01-16T10:41:06Z</time>
      </trkpt>
      <trkpt lat="46.50579" lon="5.89564">
        <ele>917.1</ele>
        <time>2020-01-16T10:41:10Z</time>
      </trkpt>
      <trkpt lat="46.50584" lon="5.8956">
        <ele>916.9</ele>
        <time>2020-01-16T10:41:15Z</time>
      </trkpt>
      <trkpt lat="46.50588" lon="5.89557">
        <ele>916.9</ele>
        <time>2020-01-16T10:41:20Z</time>
      </trkpt>
      <trkpt lat="46.50594" lon="5.89556">
        <ele>917.5</ele>
        <time>2020-01-16T10:41:25Z</time>
      </trkpt>
      <trkpt lat="46.50596" lon="5.89563">
        <ele>918.3</ele>
        <time>2020-01-16T10:41:31Z</time>
      </trkpt>
      <trkpt lat="46.50598" lon="5.89568">
        <ele>918.8</ele>
        <time>2020-01-16T10:41:35Z</time>
      </trkpt>
      <trkpt lat="46.50602" lon="5.89573">
        <ele>919.5</ele>
        <time>2020-01-16T10:41:39Z</time>
      </trkpt>
      <trkpt lat="46.50606" lon="5.89577">
        <ele>920.1</ele>
        <time>2020-01-16T10:41:42Z</time>
      </trkpt>
      <trkpt lat="46.50611" lon="5.8958">
        <ele>920.7</ele>
        <time>2020-01-16T10:41:45Z</time>
      </trkpt>
      <trkpt lat="46.50616" lon="5.89585">
        <ele>921.6</ele>
        <time>2020-01-16T10:41:49Z</time>
      </trkpt>
      <trkpt lat="46.50619" lon="5.89589">
        <ele>922.5</ele>
        <time>2020-01-16T10:41:53Z</time>
      </trkpt>
      <trkpt lat="46.50623" lon="5.89595">
        <ele>923.7</ele>
        <time>2020-01-16T10:41:58Z</time>
      </trkpt>
      <trkpt lat="46.50626" lon="5.89601">
        <ele>924.5</ele>
        <time>2020-01-16T10:42:02Z</time>
      </trkpt>
      <trkpt lat="46.5063" lon="5.89607">
        <ele>925.2</ele>
        <time>2020-01-16T10:42:06Z</time>
      </trkpt>
      <trkpt lat="46.50633" lon="5.89613">
        <ele>925.9</ele>
        <time>2020-01-16T10:42:11Z</time>
      </trkpt>
      <trkpt lat="46.50637" lon="5.89617">
        <ele>926.2</ele>
        <time>2020-01-16T10:42:15Z</time>
      </trkpt>
      <trkpt lat="46.50641" lon="5.89622">
        <ele>926.5</ele>
        <time>2020-01-16T10:42:19Z</time>
      </trkpt>
      <trkpt lat="46.50644" lon="5.89627">
        <ele>927.1</ele>
        <time>2020-01-16T10:42:24Z</time>
      </trkpt>
      <trkpt lat="46.50646" lon="5.89634">
        <ele>927.5</ele>
        <time>2020-01-16T10:42:28Z</time>
      </trkpt>
      <trkpt lat="46.50647" lon="5.89641">
        <ele>927.8</ele>
        <time>2020-01-16T10:42:32Z</time>
      </trkpt>
      <trkpt lat="46.50649" lon="5.89648">
        <ele>928</ele>
        <time>2020-01-16T10:42:35Z</time>
      </trkpt>
      <trkpt lat="46.50651" lon="5.89654">
        <ele>928.1</ele>
        <time>2020-01-16T10:42:40Z</time>
      </trkpt>
      <trkpt lat="46.50655" lon="5.89659">
        <ele>928.2</ele>
        <time>2020-01-16T10:42:45Z</time>
      </trkpt>
      <trkpt lat="46.50658" lon="5.89664">
        <ele>928.7</ele>
        <time>2020-01-16T10:42:51Z</time>
      </trkpt>
      <trkpt lat="46.50661" lon="5.89669">
        <ele>929.3</ele>
        <time>2020-01-16T10:42:56Z</time>
      </trkpt>
      <trkpt lat="46.50664" lon="5.89674">
        <ele>930</ele>
        <time>2020-01-16T10:43:00Z</time>
      </trkpt>
      <trkpt lat="46.50667" lon="5.89679">
        <ele>930.5</ele>
        <time>2020-01-16T10:43:03Z</time>
      </trkpt>
      <trkpt lat="46.50671" lon="5.89684">
        <ele>931</ele>
        <time>2020-01-16T10:43:07Z</time>
      </trkpt>
      <trkpt lat="46.50675" lon="5.89688">
        <ele>931.5</ele>
        <time>2020-01-16T10:43:13Z</time>
      </trkpt>
      <trkpt lat="46.5068" lon="5.8969">
        <ele>931.7</ele>
        <time>2020-01-16T10:43:17Z</time>
      </trkpt>
      <trkpt lat="46.50685" lon="5.89692">
        <ele>931.7</ele>
        <time>2020-01-16T10:43:23Z</time>
      </trkpt>
      <trkpt lat="46.5069" lon="5.89695">
        <ele>931.6</ele>
        <time>2020-01-16T10:43:27Z</time>
      </trkpt>
      <trkpt lat="46.50694" lon="5.89697">
        <ele>931.5</ele>
        <time>2020-01-16T10:43:32Z</time>
      </trkpt>
      <trkpt lat="46.50699" lon="5.89699">
        <ele>931.4</ele>
        <time>2020-01-16T10:43:38Z</time>
      </trkpt>
      <trkpt lat="46.50704" lon="5.897">
        <ele>931.2</ele>
        <time>2020-01-16T10:43:43Z</time>
      </trkpt>
      <trkpt lat="46.5071" lon="5.89701">
        <ele>930.8</ele>
        <time>2020-01-16T10:43:49Z</time>
      </trkpt>
      <trkpt lat="46.50715" lon="5.89701">
        <ele>930.4</ele>
        <time>2020-01-16T10:43:54Z</time>
      </trkpt>
      <trkpt lat="46.5072" lon="5.89701">
        <ele>930.2</ele>
        <time>2020-01-16T10:44:01Z</time>
      </trkpt>
      <trkpt lat="46.50725" lon="5.89702">
        <ele>930.3</ele>
        <time>2020-01-16T10:44:08Z</time>
      </trkpt>
      <trkpt lat="46.5073" lon="5.89704">
        <ele>930.4</ele>
        <time>2020-01-16T10:44:13Z</time>
      </trkpt>
      <trkpt lat="46.50734" lon="5.89705">
        <ele>930.4</ele>
        <time>2020-01-16T10:44:18Z</time>
      </trkpt>
      <trkpt lat="46.50739" lon="5.89706">
        <ele>930.2</ele>
        <time>2020-01-16T10:44:24Z</time>
      </trkpt>
      <trkpt lat="46.50744" lon="5.89708">
        <ele>930</ele>
        <time>2020-01-16T10:44:29Z</time>
      </trkpt>
      <trkpt lat="46.50749" lon="5.89712">
        <ele>929.8</ele>
        <time>2020-01-16T10:44:34Z</time>
      </trkpt>
      <trkpt lat="46.50754" lon="5.89714">
        <ele>929.7</ele>
        <time>2020-01-16T10:44:38Z</time>
      </trkpt>
      <trkpt lat="46.50759" lon="5.89717">
        <ele>929.8</ele>
        <time>2020-01-16T10:44:41Z</time>
      </trkpt>
      <trkpt lat="46.50764" lon="5.8972">
        <ele>929.8</ele>
        <time>2020-01-16T10:44:44Z</time>
      </trkpt>
      <trkpt lat="46.50768" lon="5.89723">
        <ele>929.9</ele>
        <time>2020-01-16T10:44:47Z</time>
      </trkpt>
      <trkpt lat="46.50773" lon="5.89726">
        <ele>930</ele>
        <time>2020-01-16T10:44:50Z</time>
      </trkpt>
      <trkpt lat="46.50777" lon="5.89729">
        <ele>930.3</ele>
        <time>2020-01-16T10:44:56Z</time>
      </trkpt>
      <trkpt lat="46.5078" lon="5.89737">
        <ele>931.1</ele>
        <time>2020-01-16T10:45:02Z</time>
      </trkpt>
      <trkpt lat="46.50783" lon="5.89743">
        <ele>931.8</ele>
        <time>2020-01-16T10:45:07Z</time>
      </trkpt>
      <trkpt lat="46.50786" lon="5.89748">
        <ele>932.6</ele>
        <time>2020-01-16T10:45:12Z</time>
      </trkpt>
      <trkpt lat="46.50789" lon="5.89754">
        <ele>933.1</ele>
        <time>2020-01-16T10:45:15Z</time>
      </trkpt>
      <trkpt lat="46.50792" lon="5.89759">
        <ele>933.8</ele>
        <time>2020-01-16T10:45:20Z</time>
      </trkpt>
      <trkpt lat="46.50795" lon="5.89765">
        <ele>934.4</ele>
        <time>2020-01-16T10:45:25Z</time>
      </trkpt>
      <trkpt lat="46.50798" lon="5.8977">
        <ele>934.8</ele>
        <time>2020-01-16T10:45:30Z</time>
      </trkpt>
      <trkpt lat="46.50801" lon="5.89776">
        <ele>935.8</ele>
        <time>2020-01-16T10:45:37Z</time>
      </trkpt>
      <trkpt lat="46.50804" lon="5.89782">
        <ele>937</ele>
        <time>2020-01-16T10:45:43Z</time>
      </trkpt>
      <trkpt lat="46.50807" lon="5.89788">
        <ele>937.8</ele>
        <time>2020-01-16T10:45:47Z</time>
      </trkpt>
      <trkpt lat="46.5081" lon="5.89794">
        <ele>938.4</ele>
        <time>2020-01-16T10:45:51Z</time>
      </trkpt>
      <trkpt lat="46.50814" lon="5.89799">
        <ele>939</ele>
        <time>2020-01-16T10:45:56Z</time>
      </trkpt>
      <trkpt lat="46.50816" lon="5.89806">
        <ele>939.6</ele>
        <time>2020-01-16T10:46:01Z</time>
      </trkpt>
      <trkpt lat="46.50817" lon="5.89812">
        <ele>940</ele>
        <time>2020-01-16T10:46:06Z</time>
      </trkpt>
      <trkpt lat="46.50818" lon="5.8982">
        <ele>940.3</ele>
        <time>2020-01-16T10:46:11Z</time>
      </trkpt>
      <trkpt lat="46.50817" lon="5.89827">
        <ele>940.6</ele>
        <time>2020-01-16T10:46:18Z</time>
      </trkpt>
      <trkpt lat="46.50817" lon="5.89835">
        <ele>940.9</ele>
        <time>2020-01-16T10:46:23Z</time>
      </trkpt>
      <trkpt lat="46.50816" lon="5.89843">
        <ele>941.2</ele>
        <time>2020-01-16T10:46:28Z</time>
      </trkpt>
      <trkpt lat="46.50816" lon="5.8985">
        <ele>941.8</ele>
        <time>2020-01-16T10:46:33Z</time>
      </trkpt>
      <trkpt lat="46.50815" lon="5.89857">
        <ele>942.6</ele>
        <time>2020-01-16T10:46:38Z</time>
      </trkpt>
      <trkpt lat="46.50816" lon="5.89865">
        <ele>943.3</ele>
        <time>2020-01-16T10:46:42Z</time>
      </trkpt>
      <trkpt lat="46.50817" lon="5.89871">
        <ele>943.7</ele>
        <time>2020-01-16T10:46:46Z</time>
      </trkpt>
      <trkpt lat="46.50817" lon="5.89878">
        <ele>944</ele>
        <time>2020-01-16T10:46:52Z</time>
      </trkpt>
      <trkpt lat="46.50815" lon="5.89885">
        <ele>944.2</ele>
        <time>2020-01-16T10:47:07Z</time>
      </trkpt>
      <trkpt lat="46.50814" lon="5.89893">
        <ele>944.5</ele>
        <time>2020-01-16T10:47:12Z</time>
      </trkpt>
      <trkpt lat="46.50813" lon="5.899">
        <ele>944.8</ele>
        <time>2020-01-16T10:47:16Z</time>
      </trkpt>
      <trkpt lat="46.50813" lon="5.89908">
        <ele>945.1</ele>
        <time>2020-01-16T10:47:19Z</time>
      </trkpt>
      <trkpt lat="46.50813" lon="5.89915">
        <ele>945.2</ele>
        <time>2020-01-16T10:47:22Z</time>
      </trkpt>
      <trkpt lat="46.50813" lon="5.89921">
        <ele>945.2</ele>
        <time>2020-01-16T10:47:28Z</time>
      </trkpt>
      <trkpt lat="46.50813" lon="5.89928">
        <ele>945.3</ele>
        <time>2020-01-16T10:47:32Z</time>
      </trkpt>
      <trkpt lat="46.50813" lon="5.89935">
        <ele>945.1</ele>
        <time>2020-01-16T10:47:35Z</time>
      </trkpt>
      <trkpt lat="46.50814" lon="5.89941">
        <ele>944.9</ele>
        <time>2020-01-16T10:47:38Z</time>
      </trkpt>
      <trkpt lat="46.50814" lon="5.89949">
        <ele>944.5</ele>
        <time>2020-01-16T10:47:43Z</time>
      </trkpt>
      <trkpt lat="46.50813" lon="5.89955">
        <ele>944.1</ele>
        <time>2020-01-16T10:47:47Z</time>
      </trkpt>
      <trkpt lat="46.50813" lon="5.89964">
        <ele>943.8</ele>
        <time>2020-01-16T10:47:51Z</time>
      </trkpt>
      <trkpt lat="46.50813" lon="5.89971">
        <ele>943.7</ele>
        <time>2020-01-16T10:47:55Z</time>
      </trkpt>
      <trkpt lat="46.50813" lon="5.89979">
        <ele>943.4</ele>
        <time>2020-01-16T10:47:59Z</time>
      </trkpt>
      <trkpt lat="46.50814" lon="5.89985">
        <ele>943</ele>
        <time>2020-01-16T10:48:02Z</time>
      </trkpt>
      <trkpt lat="46.50815" lon="5.89993">
        <ele>942.3</ele>
        <time>2020-01-16T10:48:06Z</time>
      </trkpt>
      <trkpt lat="46.50816" lon="5.9">
        <ele>941.3</ele>
        <time>2020-01-16T10:48:12Z</time>
      </trkpt>
      <trkpt lat="46.50817" lon="5.90007">
        <ele>940.9</ele>
        <time>2020-01-16T10:48:19Z</time>
      </trkpt>
      <trkpt lat="46.50816" lon="5.90014">
        <ele>940.8</ele>
        <time>2020-01-16T10:48:24Z</time>
      </trkpt>
      <trkpt lat="46.50816" lon="5.90021">
        <ele>940.6</ele>
        <time>2020-01-16T10:48:30Z</time>
      </trkpt>
      <trkpt lat="46.50817" lon="5.90028">
        <ele>940.6</ele>
        <time>2020-01-16T10:48:34Z</time>
      </trkpt>
      <trkpt lat="46.50817" lon="5.90036">
        <ele>940.7</ele>
        <time>2020-01-16T10:48:39Z</time>
      </trkpt>
      <trkpt lat="46.50818" lon="5.90043">
        <ele>941</ele>
        <time>2020-01-16T10:48:43Z</time>
      </trkpt>
      <trkpt lat="46.50819" lon="5.9005">
        <ele>941.2</ele>
        <time>2020-01-16T10:48:47Z</time>
      </trkpt>
      <trkpt lat="46.5082" lon="5.90057">
        <ele>941.4</ele>
        <time>2020-01-16T10:48:51Z</time>
      </trkpt>
      <trkpt lat="46.50822" lon="5.90065">
        <ele>941.3</ele>
        <time>2020-01-16T10:48:56Z</time>
      </trkpt>
      <trkpt lat="46.50823" lon="5.90072">
        <ele>940.9</ele>
        <time>2020-01-16T10:49:00Z</time>
      </trkpt>
      <trkpt lat="46.50823" lon="5.90079">
        <ele>940.5</ele>
        <time>2020-01-16T10:49:04Z</time>
      </trkpt>
      <trkpt lat="46.50824" lon="5.90086">
        <ele>940.2</ele>
        <time>2020-01-16T10:49:08Z</time>
      </trkpt>
      <trkpt lat="46.50825" lon="5.90092">
        <ele>939.6</ele>
        <time>2020-01-16T10:49:12Z</time>
      </trkpt>
      <trkpt lat="46.50827" lon="5.901">
        <ele>939</ele>
        <time>2020-01-16T10:49:16Z</time>
      </trkpt>
      <trkpt lat="46.50828" lon="5.90106">
        <ele>938.5</ele>
        <time>2020-01-16T10:49:19Z</time>
      </trkpt>
      <trkpt lat="46.50831" lon="5.90112">
        <ele>937.9</ele>
        <time>2020-01-16T10:49:24Z</time>
      </trkpt>
      <trkpt lat="46.50835" lon="5.90117">
        <ele>937.7</ele>
        <time>2020-01-16T10:49:30Z</time>
      </trkpt>
      <trkpt lat="46.50837" lon="5.90123">
        <ele>937.8</ele>
        <time>2020-01-16T10:49:35Z</time>
      </trkpt>
      <trkpt lat="46.50835" lon="5.90129">
        <ele>937.9</ele>
        <time>2020-01-16T10:49:42Z</time>
      </trkpt>
      <trkpt lat="46.50832" lon="5.90134">
        <ele>937.9</ele>
        <time>2020-01-16T10:49:47Z</time>
      </trkpt>
      <trkpt lat="46.50829" lon="5.90141">
        <ele>937.7</ele>
        <time>2020-01-16T10:49:53Z</time>
      </trkpt>
      <trkpt lat="46.50826" lon="5.90147">
        <ele>937.3</ele>
        <time>2020-01-16T10:49:58Z</time>
      </trkpt>
      <trkpt lat="46.50824" lon="5.90153">
        <ele>937.2</ele>
        <time>2020-01-16T10:50:02Z</time>
      </trkpt>
      <trkpt lat="46.5082" lon="5.90157">
        <ele>937.3</ele>
        <time>2020-01-16T10:50:07Z</time>
      </trkpt>
      <trkpt lat="46.50815" lon="5.90162">
        <ele>937.5</ele>
        <time>2020-01-16T10:50:12Z</time>
      </trkpt>
      <trkpt lat="46.50811" lon="5.90166">
        <ele>937.6</ele>
        <time>2020-01-16T10:50:15Z</time>
      </trkpt>
      <trkpt lat="46.50804" lon="5.9017">
        <ele>937.7</ele>
        <time>2020-01-16T10:50:19Z</time>
      </trkpt>
      <trkpt lat="46.50799" lon="5.90171">
        <ele>937.7</ele>
        <time>2020-01-16T10:50:21Z</time>
      </trkpt>
      <trkpt lat="46.50795" lon="5.90173">
        <ele>937.8</ele>
        <time>2020-01-16T10:50:23Z</time>
      </trkpt>
      <trkpt lat="46.50789" lon="5.90176">
        <ele>937.8</ele>
        <time>2020-01-16T10:50:26Z</time>
      </trkpt>
      <trkpt lat="46.50785" lon="5.90181">
        <ele>937.8</ele>
        <time>2020-01-16T10:50:31Z</time>
      </trkpt>
      <trkpt lat="46.50784" lon="5.90188">
        <ele>937.5</ele>
        <time>2020-01-16T10:50:37Z</time>
      </trkpt>
      <trkpt lat="46.50785" lon="5.90194">
        <ele>936.9</ele>
        <time>2020-01-16T10:50:42Z</time>
      </trkpt>
      <trkpt lat="46.50787" lon="5.90202">
        <ele>936.4</ele>
        <time>2020-01-16T10:50:45Z</time>
      </trkpt>
      <trkpt lat="46.5079" lon="5.90209">
        <ele>935.6</ele>
        <time>2020-01-16T10:50:50Z</time>
      </trkpt>
      <trkpt lat="46.50793" lon="5.90214">
        <ele>935.6</ele>
        <time>2020-01-16T10:51:03Z</time>
      </trkpt>
      <trkpt lat="46.50798" lon="5.90218">
        <ele>936.8</ele>
        <time>2020-01-16T10:51:10Z</time>
      </trkpt>
      <trkpt lat="46.50802" lon="5.90223">
        <ele>937.6</ele>
        <time>2020-01-16T10:51:15Z</time>
      </trkpt>
      <trkpt lat="46.50805" lon="5.90228">
        <ele>938.2</ele>
        <time>2020-01-16T10:51:21Z</time>
      </trkpt>
      <trkpt lat="46.50809" lon="5.90233">
        <ele>938.7</ele>
        <time>2020-01-16T10:51:26Z</time>
      </trkpt>
      <trkpt lat="46.50814" lon="5.90237">
        <ele>939.1</ele>
        <time>2020-01-16T10:51:30Z</time>
      </trkpt>
      <trkpt lat="46.50817" lon="5.90242">
        <ele>939.4</ele>
        <time>2020-01-16T10:51:35Z</time>
      </trkpt>
      <trkpt lat="46.50819" lon="5.90248">
        <ele>939.4</ele>
        <time>2020-01-16T10:51:40Z</time>
      </trkpt>
      <trkpt lat="46.50822" lon="5.90252">
        <ele>939.5</ele>
        <time>2020-01-16T10:51:46Z</time>
      </trkpt>
      <trkpt lat="46.50826" lon="5.90256">
        <ele>939.4</ele>
        <time>2020-01-16T10:51:50Z</time>
      </trkpt>
      <trkpt lat="46.5083" lon="5.9026">
        <ele>939.4</ele>
        <time>2020-01-16T10:51:54Z</time>
      </trkpt>
      <trkpt lat="46.50834" lon="5.90263">
        <ele>939.4</ele>
        <time>2020-01-16T10:51:59Z</time>
      </trkpt>
      <trkpt lat="46.50839" lon="5.90267">
        <ele>939.4</ele>
        <time>2020-01-16T10:52:05Z</time>
      </trkpt>
      <trkpt lat="46.50843" lon="5.90269">
        <ele>939.2</ele>
        <time>2020-01-16T10:52:10Z</time>
      </trkpt>
      <trkpt lat="46.50848" lon="5.90273">
        <ele>939.1</ele>
        <time>2020-01-16T10:52:15Z</time>
      </trkpt>
      <trkpt lat="46.50853" lon="5.90278">
        <ele>938.9</ele>
        <time>2020-01-16T10:52:19Z</time>
      </trkpt>
      <trkpt lat="46.5086" lon="5.90291">
        <ele>938.1</ele>
        <time>2020-01-16T10:52:30Z</time>
      </trkpt>
      <trkpt lat="46.50863" lon="5.90299">
        <ele>938.5</ele>
        <time>2020-01-16T10:52:36Z</time>
      </trkpt>
      <trkpt lat="46.50866" lon="5.90304">
        <ele>939</ele>
        <time>2020-01-16T10:52:41Z</time>
      </trkpt>
      <trkpt lat="46.50871" lon="5.9031">
        <ele>939.4</ele>
        <time>2020-01-16T10:52:44Z</time>
      </trkpt>
      <trkpt lat="46.50883" lon="5.90322">
        <ele>941.5</ele>
        <time>2020-01-16T10:52:54Z</time>
      </trkpt>
      <trkpt lat="46.50888" lon="5.90334">
        <ele>943.9</ele>
        <time>2020-01-16T10:53:09Z</time>
      </trkpt>
      <trkpt lat="46.50892" lon="5.90338">
        <ele>944.5</ele>
        <time>2020-01-16T10:53:13Z</time>
      </trkpt>
      <trkpt lat="46.50896" lon="5.90341">
        <ele>945.4</ele>
        <time>2020-01-16T10:53:18Z</time>
      </trkpt>
      <trkpt lat="46.509" lon="5.90343">
        <ele>946.8</ele>
        <time>2020-01-16T10:53:26Z</time>
      </trkpt>
      <trkpt lat="46.50907" lon="5.90345">
        <ele>948.2</ele>
        <time>2020-01-16T10:53:33Z</time>
      </trkpt>
      <trkpt lat="46.50913" lon="5.90346">
        <ele>948.6</ele>
        <time>2020-01-16T10:53:36Z</time>
      </trkpt>
      <trkpt lat="46.50918" lon="5.90346">
        <ele>948.9</ele>
        <time>2020-01-16T10:53:39Z</time>
      </trkpt>
      <trkpt lat="46.50923" lon="5.90345">
        <ele>948.7</ele>
        <time>2020-01-16T10:53:45Z</time>
      </trkpt>
      <trkpt lat="46.5094" lon="5.9034">
        <ele>946.4</ele>
        <time>2020-01-16T10:54:03Z</time>
      </trkpt>
      <trkpt lat="46.50944" lon="5.90338">
        <ele>946.6</ele>
        <time>2020-01-16T10:54:07Z</time>
      </trkpt>
      <trkpt lat="46.50956" lon="5.90338">
        <ele>949.1</ele>
        <time>2020-01-16T10:54:28Z</time>
      </trkpt>
      <trkpt lat="46.50968" lon="5.90339">
        <ele>949.4</ele>
        <time>2020-01-16T10:54:39Z</time>
      </trkpt>
      <trkpt lat="46.50973" lon="5.90342">
        <ele>949.2</ele>
        <time>2020-01-16T10:54:43Z</time>
      </trkpt>
      <trkpt lat="46.50985" lon="5.90351">
        <ele>948.3</ele>
        <time>2020-01-16T10:54:58Z</time>
      </trkpt>
      <trkpt lat="46.50989" lon="5.90355">
        <ele>948.3</ele>
        <time>2020-01-16T10:55:02Z</time>
      </trkpt>
      <trkpt lat="46.50993" lon="5.90358">
        <ele>948.5</ele>
        <time>2020-01-16T10:55:06Z</time>
      </trkpt>
      <trkpt lat="46.51003" lon="5.90364">
        <ele>949.5</ele>
        <time>2020-01-16T10:55:22Z</time>
      </trkpt>
      <trkpt lat="46.51008" lon="5.90367">
        <ele>949.8</ele>
        <time>2020-01-16T10:55:26Z</time>
      </trkpt>
      <trkpt lat="46.51014" lon="5.9037">
        <ele>950.1</ele>
        <time>2020-01-16T10:55:30Z</time>
      </trkpt>
      <trkpt lat="46.51018" lon="5.90372">
        <ele>950.5</ele>
        <time>2020-01-16T10:55:34Z</time>
      </trkpt>
      <trkpt lat="46.51023" lon="5.90373">
        <ele>951</ele>
        <time>2020-01-16T10:55:38Z</time>
      </trkpt>
      <trkpt lat="46.51028" lon="5.90376">
        <ele>951.6</ele>
        <time>2020-01-16T10:55:42Z</time>
      </trkpt>
      <trkpt lat="46.51033" lon="5.90379">
        <ele>952.1</ele>
        <time>2020-01-16T10:55:47Z</time>
      </trkpt>
      <trkpt lat="46.51038" lon="5.90383">
        <ele>952.5</ele>
        <time>2020-01-16T10:55:52Z</time>
      </trkpt>
      <trkpt lat="46.51043" lon="5.90387">
        <ele>953.1</ele>
        <time>2020-01-16T10:55:57Z</time>
      </trkpt>
      <trkpt lat="46.51047" lon="5.9039">
        <ele>953.6</ele>
        <time>2020-01-16T10:56:01Z</time>
      </trkpt>
      <trkpt lat="46.51051" lon="5.90394">
        <ele>954.1</ele>
        <time>2020-01-16T10:56:05Z</time>
      </trkpt>
      <trkpt lat="46.51055" lon="5.90398">
        <ele>954.4</ele>
        <time>2020-01-16T10:56:09Z</time>
      </trkpt>
      <trkpt lat="46.51059" lon="5.90403">
        <ele>954.9</ele>
        <time>2020-01-16T10:56:14Z</time>
      </trkpt>
      <trkpt lat="46.51062" lon="5.90408">
        <ele>955.4</ele>
        <time>2020-01-16T10:56:18Z</time>
      </trkpt>
      <trkpt lat="46.51064" lon="5.90415">
        <ele>956.1</ele>
        <time>2020-01-16T10:56:23Z</time>
      </trkpt>
      <trkpt lat="46.51068" lon="5.9042">
        <ele>957.1</ele>
        <time>2020-01-16T10:56:28Z</time>
      </trkpt>
      <trkpt lat="46.51072" lon="5.90425">
        <ele>957.8</ele>
        <time>2020-01-16T10:56:31Z</time>
      </trkpt>
      <trkpt lat="46.51076" lon="5.90429">
        <ele>958.6</ele>
        <time>2020-01-16T10:56:34Z</time>
      </trkpt>
      <trkpt lat="46.5108" lon="5.90434">
        <ele>959.8</ele>
        <time>2020-01-16T10:56:39Z</time>
      </trkpt>
      <trkpt lat="46.51083" lon="5.90439">
        <ele>960.7</ele>
        <time>2020-01-16T10:56:43Z</time>
      </trkpt>
      <trkpt lat="46.51086" lon="5.90444">
        <ele>961.3</ele>
        <time>2020-01-16T10:56:47Z</time>
      </trkpt>
      <trkpt lat="46.51088" lon="5.90451">
        <ele>961.7</ele>
        <time>2020-01-16T10:56:53Z</time>
      </trkpt>
      <trkpt lat="46.51091" lon="5.90457">
        <ele>961.8</ele>
        <time>2020-01-16T10:56:58Z</time>
      </trkpt>
      <trkpt lat="46.51094" lon="5.90463">
        <ele>962.1</ele>
        <time>2020-01-16T10:57:03Z</time>
      </trkpt>
      <trkpt lat="46.51097" lon="5.90468">
        <ele>962.4</ele>
        <time>2020-01-16T10:57:08Z</time>
      </trkpt>
      <trkpt lat="46.511" lon="5.90475">
        <ele>963.1</ele>
        <time>2020-01-16T10:57:14Z</time>
      </trkpt>
      <trkpt lat="46.51104" lon="5.90486">
        <ele>968.3</ele>
        <time>2020-01-16T10:57:40Z</time>
      </trkpt>
      <trkpt lat="46.51109" lon="5.90484">
        <ele>969.1</ele>
        <time>2020-01-16T10:57:46Z</time>
      </trkpt>
      <trkpt lat="46.51113" lon="5.90482">
        <ele>969.8</ele>
        <time>2020-01-16T10:57:53Z</time>
      </trkpt>
      <trkpt lat="46.51117" lon="5.90478">
        <ele>970.6</ele>
        <time>2020-01-16T10:58:01Z</time>
      </trkpt>
      <trkpt lat="46.51123" lon="5.90477">
        <ele>970.4</ele>
        <time>2020-01-16T10:58:08Z</time>
      </trkpt>
      <trkpt lat="46.51132" lon="5.90472">
        <ele>969.5</ele>
        <time>2020-01-16T10:58:41Z</time>
      </trkpt>
      <trkpt lat="46.51137" lon="5.9047">
        <ele>969.2</ele>
        <time>2020-01-16T10:58:46Z</time>
      </trkpt>
      <trkpt lat="46.51142" lon="5.90468">
        <ele>968.9</ele>
        <time>2020-01-16T10:58:50Z</time>
      </trkpt>
      <trkpt lat="46.51147" lon="5.90466">
        <ele>968.5</ele>
        <time>2020-01-16T10:58:54Z</time>
      </trkpt>
      <trkpt lat="46.51151" lon="5.90464">
        <ele>968</ele>
        <time>2020-01-16T10:58:59Z</time>
      </trkpt>
      <trkpt lat="46.51156" lon="5.90461">
        <ele>967</ele>
        <time>2020-01-16T10:59:05Z</time>
      </trkpt>
      <trkpt lat="46.51161" lon="5.9046">
        <ele>965.7</ele>
        <time>2020-01-16T10:59:11Z</time>
      </trkpt>
      <trkpt lat="46.51165" lon="5.90457">
        <ele>964.2</ele>
        <time>2020-01-16T10:59:17Z</time>
      </trkpt>
      <trkpt lat="46.51171" lon="5.90453">
        <ele>963.5</ele>
        <time>2020-01-16T10:59:23Z</time>
      </trkpt>
      <trkpt lat="46.51175" lon="5.9045">
        <ele>963.4</ele>
        <time>2020-01-16T10:59:28Z</time>
      </trkpt>
      <trkpt lat="46.51179" lon="5.90446">
        <ele>963.4</ele>
        <time>2020-01-16T10:59:34Z</time>
      </trkpt>
      <trkpt lat="46.51183" lon="5.90441">
        <ele>963.6</ele>
        <time>2020-01-16T10:59:38Z</time>
      </trkpt>
      <trkpt lat="46.51186" lon="5.90435">
        <ele>964</ele>
        <time>2020-01-16T10:59:42Z</time>
      </trkpt>
      <trkpt lat="46.51189" lon="5.9043">
        <ele>964.5</ele>
        <time>2020-01-16T10:59:47Z</time>
      </trkpt>
      <trkpt lat="46.51192" lon="5.90424">
        <ele>964.9</ele>
        <time>2020-01-16T10:59:52Z</time>
      </trkpt>
      <trkpt lat="46.51195" lon="5.90419">
        <ele>965.2</ele>
        <time>2020-01-16T10:59:56Z</time>
      </trkpt>
      <trkpt lat="46.51199" lon="5.90414">
        <ele>965.4</ele>
        <time>2020-01-16T11:00:00Z</time>
      </trkpt>
      <trkpt lat="46.51203" lon="5.90408">
        <ele>965.6</ele>
        <time>2020-01-16T11:00:04Z</time>
      </trkpt>
      <trkpt lat="46.51202" lon="5.90396">
        <ele>968.1</ele>
        <time>2020-01-16T11:00:23Z</time>
      </trkpt>
      <trkpt lat="46.512" lon="5.9039">
        <ele>969.1</ele>
        <time>2020-01-16T11:00:27Z</time>
      </trkpt>
      <trkpt lat="46.51201" lon="5.90383">
        <ele>970.9</ele>
        <time>2020-01-16T11:00:37Z</time>
      </trkpt>
      <trkpt lat="46.512" lon="5.90375">
        <ele>971.3</ele>
        <time>2020-01-16T11:00:45Z</time>
      </trkpt>
      <trkpt lat="46.51198" lon="5.9037">
        <ele>971.4</ele>
        <time>2020-01-16T11:00:50Z</time>
      </trkpt>
      <trkpt lat="46.5121" lon="5.90351">
        <ele>964.5</ele>
        <time>2020-01-16T11:45:48Z</time>
      </trkpt>
      <trkpt lat="46.51214" lon="5.90356">
        <ele>964.4</ele>
        <time>2020-01-16T11:45:51Z</time>
      </trkpt>
      <trkpt lat="46.51217" lon="5.90361">
        <ele>964.7</ele>
        <time>2020-01-16T11:45:54Z</time>
      </trkpt>
      <trkpt lat="46.51221" lon="5.90367">
        <ele>965.1</ele>
        <time>2020-01-16T11:45:58Z</time>
      </trkpt>
      <trkpt lat="46.51226" lon="5.90369">
        <ele>965.7</ele>
        <time>2020-01-16T11:46:02Z</time>
      </trkpt>
      <trkpt lat="46.51233" lon="5.90388">
        <ele>968.1</ele>
        <time>2020-01-16T11:46:14Z</time>
      </trkpt>
      <trkpt lat="46.51235" lon="5.90393">
        <ele>968.7</ele>
        <time>2020-01-16T11:46:19Z</time>
      </trkpt>
      <trkpt lat="46.51239" lon="5.90399">
        <ele>969.3</ele>
        <time>2020-01-16T11:46:24Z</time>
      </trkpt>
      <trkpt lat="46.51241" lon="5.90405">
        <ele>969.5</ele>
        <time>2020-01-16T11:46:27Z</time>
      </trkpt>
      <trkpt lat="46.51244" lon="5.9041">
        <ele>969.7</ele>
        <time>2020-01-16T11:46:32Z</time>
      </trkpt>
      <trkpt lat="46.51248" lon="5.90418">
        <ele>969.6</ele>
        <time>2020-01-16T11:46:36Z</time>
      </trkpt>
      <trkpt lat="46.51254" lon="5.90435">
        <ele>970.4</ele>
        <time>2020-01-16T11:46:47Z</time>
      </trkpt>
      <trkpt lat="46.51258" lon="5.90439">
        <ele>970.4</ele>
        <time>2020-01-16T11:46:52Z</time>
      </trkpt>
      <trkpt lat="46.51261" lon="5.90445">
        <ele>970.4</ele>
        <time>2020-01-16T11:46:55Z</time>
      </trkpt>
      <trkpt lat="46.51264" lon="5.9045">
        <ele>970.2</ele>
        <time>2020-01-16T11:46:59Z</time>
      </trkpt>
      <trkpt lat="46.51268" lon="5.90457">
        <ele>970</ele>
        <time>2020-01-16T11:47:04Z</time>
      </trkpt>
      <trkpt lat="46.5127" lon="5.90465">
        <ele>970</ele>
        <time>2020-01-16T11:47:08Z</time>
      </trkpt>
      <trkpt lat="46.51274" lon="5.90471">
        <ele>970.1</ele>
        <time>2020-01-16T11:47:12Z</time>
      </trkpt>
      <trkpt lat="46.51276" lon="5.90476">
        <ele>970</ele>
        <time>2020-01-16T11:47:16Z</time>
      </trkpt>
      <trkpt lat="46.51279" lon="5.90482">
        <ele>969.7</ele>
        <time>2020-01-16T11:47:21Z</time>
      </trkpt>
      <trkpt lat="46.51281" lon="5.9049">
        <ele>969.5</ele>
        <time>2020-01-16T11:47:26Z</time>
      </trkpt>
      <trkpt lat="46.51282" lon="5.90497">
        <ele>969.1</ele>
        <time>2020-01-16T11:47:30Z</time>
      </trkpt>
      <trkpt lat="46.51285" lon="5.90504">
        <ele>968.5</ele>
        <time>2020-01-16T11:47:34Z</time>
      </trkpt>
      <trkpt lat="46.51287" lon="5.90512">
        <ele>967.9</ele>
        <time>2020-01-16T11:47:37Z</time>
      </trkpt>
      <trkpt lat="46.5129" lon="5.90518">
        <ele>967.4</ele>
        <time>2020-01-16T11:47:41Z</time>
      </trkpt>
      <trkpt lat="46.51292" lon="5.90525">
        <ele>967.1</ele>
        <time>2020-01-16T11:47:45Z</time>
      </trkpt>
      <trkpt lat="46.51306" lon="5.90554">
        <ele>966.3</ele>
        <time>2020-01-16T11:48:02Z</time>
      </trkpt>
      <trkpt lat="46.5131" lon="5.9056">
        <ele>966.3</ele>
        <time>2020-01-16T11:48:05Z</time>
      </trkpt>
      <trkpt lat="46.51314" lon="5.90565">
        <ele>966.5</ele>
        <time>2020-01-16T11:48:09Z</time>
      </trkpt>
      <trkpt lat="46.51319" lon="5.90569">
        <ele>967</ele>
        <time>2020-01-16T11:48:13Z</time>
      </trkpt>
      <trkpt lat="46.51324" lon="5.90574">
        <ele>967.3</ele>
        <time>2020-01-16T11:48:17Z</time>
      </trkpt>
      <trkpt lat="46.51329" lon="5.90576">
        <ele>967.3</ele>
        <time>2020-01-16T11:48:21Z</time>
      </trkpt>
      <trkpt lat="46.51333" lon="5.90581">
        <ele>967.3</ele>
        <time>2020-01-16T11:48:26Z</time>
      </trkpt>
      <trkpt lat="46.51337" lon="5.90587">
        <ele>967.6</ele>
        <time>2020-01-16T11:48:30Z</time>
      </trkpt>
      <trkpt lat="46.51339" lon="5.90593">
        <ele>967.8</ele>
        <time>2020-01-16T11:48:33Z</time>
      </trkpt>
      <trkpt lat="46.51343" lon="5.90598">
        <ele>968.3</ele>
        <time>2020-01-16T11:48:37Z</time>
      </trkpt>
      <trkpt lat="46.51347" lon="5.90603">
        <ele>968.7</ele>
        <time>2020-01-16T11:48:41Z</time>
      </trkpt>
      <trkpt lat="46.51351" lon="5.90607">
        <ele>969</ele>
        <time>2020-01-16T11:48:45Z</time>
      </trkpt>
      <trkpt lat="46.51355" lon="5.90611">
        <ele>969.3</ele>
        <time>2020-01-16T11:48:50Z</time>
      </trkpt>
      <trkpt lat="46.51361" lon="5.90615">
        <ele>969.4</ele>
        <time>2020-01-16T11:48:53Z</time>
      </trkpt>
      <trkpt lat="46.51365" lon="5.90618">
        <ele>969.5</ele>
        <time>2020-01-16T11:48:57Z</time>
      </trkpt>
      <trkpt lat="46.5137" lon="5.90623">
        <ele>969.7</ele>
        <time>2020-01-16T11:49:01Z</time>
      </trkpt>
      <trkpt lat="46.51375" lon="5.90627">
        <ele>969.9</ele>
        <time>2020-01-16T11:49:06Z</time>
      </trkpt>
      <trkpt lat="46.51379" lon="5.90631">
        <ele>970.1</ele>
        <time>2020-01-16T11:49:11Z</time>
      </trkpt>
      <trkpt lat="46.51382" lon="5.90636">
        <ele>970.1</ele>
        <time>2020-01-16T11:49:15Z</time>
      </trkpt>
      <trkpt lat="46.51385" lon="5.90642">
        <ele>970.1</ele>
        <time>2020-01-16T11:49:19Z</time>
      </trkpt>
      <trkpt lat="46.51388" lon="5.90648">
        <ele>970.1</ele>
        <time>2020-01-16T11:49:22Z</time>
      </trkpt>
      <trkpt lat="46.51391" lon="5.90652">
        <ele>970.1</ele>
        <time>2020-01-16T11:49:26Z</time>
      </trkpt>
      <trkpt lat="46.51395" lon="5.90658">
        <ele>970.3</ele>
        <time>2020-01-16T11:49:31Z</time>
      </trkpt>
      <trkpt lat="46.51398" lon="5.90664">
        <ele>970.6</ele>
        <time>2020-01-16T11:49:36Z</time>
      </trkpt>
      <trkpt lat="46.51401" lon="5.9067">
        <ele>970.9</ele>
        <time>2020-01-16T11:49:41Z</time>
      </trkpt>
      <trkpt lat="46.51403" lon="5.90677">
        <ele>971.2</ele>
        <time>2020-01-16T11:49:46Z</time>
      </trkpt>
      <trkpt lat="46.51406" lon="5.90682">
        <ele>971.4</ele>
        <time>2020-01-16T11:49:51Z</time>
      </trkpt>
      <trkpt lat="46.5141" lon="5.90689">
        <ele>971.5</ele>
        <time>2020-01-16T11:49:56Z</time>
      </trkpt>
      <trkpt lat="46.51414" lon="5.90693">
        <ele>971.4</ele>
        <time>2020-01-16T11:50:01Z</time>
      </trkpt>
      <trkpt lat="46.51418" lon="5.90697">
        <ele>971</ele>
        <time>2020-01-16T11:50:06Z</time>
      </trkpt>
      <trkpt lat="46.51423" lon="5.907">
        <ele>970.3</ele>
        <time>2020-01-16T11:50:11Z</time>
      </trkpt>
      <trkpt lat="46.51427" lon="5.90701">
        <ele>969.8</ele>
        <time>2020-01-16T11:50:14Z</time>
      </trkpt>
      <trkpt lat="46.51432" lon="5.90703">
        <ele>969.1</ele>
        <time>2020-01-16T11:50:18Z</time>
      </trkpt>
      <trkpt lat="46.51437" lon="5.90707">
        <ele>968.4</ele>
        <time>2020-01-16T11:50:22Z</time>
      </trkpt>
      <trkpt lat="46.5144" lon="5.90713">
        <ele>967.9</ele>
        <time>2020-01-16T11:50:26Z</time>
      </trkpt>
      <trkpt lat="46.51444" lon="5.90719">
        <ele>967.4</ele>
        <time>2020-01-16T11:50:30Z</time>
      </trkpt>
      <trkpt lat="46.51448" lon="5.90723">
        <ele>967.1</ele>
        <time>2020-01-16T11:50:34Z</time>
      </trkpt>
      <trkpt lat="46.51451" lon="5.90728">
        <ele>967</ele>
        <time>2020-01-16T11:50:38Z</time>
      </trkpt>
      <trkpt lat="46.51455" lon="5.90732">
        <ele>966.9</ele>
        <time>2020-01-16T11:50:44Z</time>
      </trkpt>
      <trkpt lat="46.5146" lon="5.90735">
        <ele>966.2</ele>
        <time>2020-01-16T11:50:50Z</time>
      </trkpt>
      <trkpt lat="46.51468" lon="5.90742">
        <ele>964</ele>
        <time>2020-01-16T11:51:01Z</time>
      </trkpt>
      <trkpt lat="46.51473" lon="5.90746">
        <ele>963.3</ele>
        <time>2020-01-16T11:51:06Z</time>
      </trkpt>
      <trkpt lat="46.51477" lon="5.9075">
        <ele>962.8</ele>
        <time>2020-01-16T11:51:10Z</time>
      </trkpt>
      <trkpt lat="46.51482" lon="5.90754">
        <ele>962.6</ele>
        <time>2020-01-16T11:51:13Z</time>
      </trkpt>
      <trkpt lat="46.51486" lon="5.90759">
        <ele>962.4</ele>
        <time>2020-01-16T11:51:17Z</time>
      </trkpt>
      <trkpt lat="46.51489" lon="5.90764">
        <ele>962.3</ele>
        <time>2020-01-16T11:51:22Z</time>
      </trkpt>
      <trkpt lat="46.51501" lon="5.90773">
        <ele>962.8</ele>
        <time>2020-01-16T11:51:32Z</time>
      </trkpt>
      <trkpt lat="46.51506" lon="5.90775">
        <ele>963.1</ele>
        <time>2020-01-16T11:51:36Z</time>
      </trkpt>
      <trkpt lat="46.51511" lon="5.90778">
        <ele>963.3</ele>
        <time>2020-01-16T11:51:39Z</time>
      </trkpt>
      <trkpt lat="46.51515" lon="5.90784">
        <ele>963.1</ele>
        <time>2020-01-16T11:51:45Z</time>
      </trkpt>
      <trkpt lat="46.51518" lon="5.90792">
        <ele>962.9</ele>
        <time>2020-01-16T11:51:49Z</time>
      </trkpt>
      <trkpt lat="46.51521" lon="5.90799">
        <ele>962.7</ele>
        <time>2020-01-16T11:51:53Z</time>
      </trkpt>
      <trkpt lat="46.51524" lon="5.90804">
        <ele>962.5</ele>
        <time>2020-01-16T11:51:57Z</time>
      </trkpt>
      <trkpt lat="46.51528" lon="5.9081">
        <ele>962.2</ele>
        <time>2020-01-16T11:52:03Z</time>
      </trkpt>
      <trkpt lat="46.51532" lon="5.90815">
        <ele>962.2</ele>
        <time>2020-01-16T11:52:07Z</time>
      </trkpt>
      <trkpt lat="46.51536" lon="5.9082">
        <ele>962.2</ele>
        <time>2020-01-16T11:52:11Z</time>
      </trkpt>
      <trkpt lat="46.5154" lon="5.90825">
        <ele>962.1</ele>
        <time>2020-01-16T11:52:15Z</time>
      </trkpt>
      <trkpt lat="46.51544" lon="5.9083">
        <ele>961.9</ele>
        <time>2020-01-16T11:52:20Z</time>
      </trkpt>
      <trkpt lat="46.51548" lon="5.90835">
        <ele>961.6</ele>
        <time>2020-01-16T11:52:25Z</time>
      </trkpt>
      <trkpt lat="46.51551" lon="5.9084">
        <ele>961.4</ele>
        <time>2020-01-16T11:52:30Z</time>
      </trkpt>
      <trkpt lat="46.51555" lon="5.90843">
        <ele>960.9</ele>
        <time>2020-01-16T11:52:36Z</time>
      </trkpt>
      <trkpt lat="46.5156" lon="5.90844">
        <ele>960.3</ele>
        <time>2020-01-16T11:52:43Z</time>
      </trkpt>
      <trkpt lat="46.51565" lon="5.90846">
        <ele>959.8</ele>
        <time>2020-01-16T11:52:49Z</time>
      </trkpt>
      <trkpt lat="46.5157" lon="5.90846">
        <ele>959.8</ele>
        <time>2020-01-16T11:52:55Z</time>
      </trkpt>
      <trkpt lat="46.51576" lon="5.90846">
        <ele>960.1</ele>
        <time>2020-01-16T11:53:00Z</time>
      </trkpt>
      <trkpt lat="46.5158" lon="5.90846">
        <ele>960.8</ele>
        <time>2020-01-16T11:53:07Z</time>
      </trkpt>
      <trkpt lat="46.51585" lon="5.90849">
        <ele>961.2</ele>
        <time>2020-01-16T11:53:10Z</time>
      </trkpt>
      <trkpt lat="46.51591" lon="5.90852">
        <ele>961.7</ele>
        <time>2020-01-16T11:53:13Z</time>
      </trkpt>
      <trkpt lat="46.51595" lon="5.90857">
        <ele>962.1</ele>
        <time>2020-01-16T11:53:15Z</time>
      </trkpt>
      <trkpt lat="46.516" lon="5.90861">
        <ele>962.5</ele>
        <time>2020-01-16T11:53:17Z</time>
      </trkpt>
      <trkpt lat="46.51603" lon="5.90865">
        <ele>963.5</ele>
        <time>2020-01-16T11:53:21Z</time>
      </trkpt>
      <trkpt lat="46.51608" lon="5.9087">
        <ele>965.7</ele>
        <time>2020-01-16T11:53:31Z</time>
      </trkpt>
      <trkpt lat="46.51612" lon="5.90875">
        <ele>966.5</ele>
        <time>2020-01-16T11:53:35Z</time>
      </trkpt>
      <trkpt lat="46.51614" lon="5.90881">
        <ele>967.3</ele>
        <time>2020-01-16T11:53:40Z</time>
      </trkpt>
      <trkpt lat="46.51615" lon="5.90888">
        <ele>967.6</ele>
        <time>2020-01-16T11:53:43Z</time>
      </trkpt>
      <trkpt lat="46.51617" lon="5.90894">
        <ele>968</ele>
        <time>2020-01-16T11:53:48Z</time>
      </trkpt>
      <trkpt lat="46.5162" lon="5.90899">
        <ele>968</ele>
        <time>2020-01-16T11:53:58Z</time>
      </trkpt>
      <trkpt lat="46.51624" lon="5.90903">
        <ele>967.9</ele>
        <time>2020-01-16T11:54:02Z</time>
      </trkpt>
      <trkpt lat="46.51628" lon="5.90906">
        <ele>967.8</ele>
        <time>2020-01-16T11:54:06Z</time>
      </trkpt>
      <trkpt lat="46.51635" lon="5.90917">
        <ele>968.5</ele>
        <time>2020-01-16T11:54:18Z</time>
      </trkpt>
      <trkpt lat="46.51639" lon="5.9092">
        <ele>969.5</ele>
        <time>2020-01-16T11:54:27Z</time>
      </trkpt>
      <trkpt lat="46.51645" lon="5.9092">
        <ele>970.7</ele>
        <time>2020-01-16T11:54:35Z</time>
      </trkpt>
      <trkpt lat="46.5165" lon="5.90921">
        <ele>971.5</ele>
        <time>2020-01-16T11:54:40Z</time>
      </trkpt>
      <trkpt lat="46.51655" lon="5.90923">
        <ele>972.3</ele>
        <time>2020-01-16T11:54:46Z</time>
      </trkpt>
      <trkpt lat="46.51659" lon="5.90919">
        <ele>973.8</ele>
        <time>2020-01-16T11:55:15Z</time>
      </trkpt>
      <trkpt lat="46.51663" lon="5.90914">
        <ele>974.2</ele>
        <time>2020-01-16T11:55:19Z</time>
      </trkpt>
      <trkpt lat="46.51665" lon="5.90907">
        <ele>974.8</ele>
        <time>2020-01-16T11:55:24Z</time>
      </trkpt>
      <trkpt lat="46.51668" lon="5.909">
        <ele>975.5</ele>
        <time>2020-01-16T11:55:31Z</time>
      </trkpt>
      <trkpt lat="46.51672" lon="5.90895">
        <ele>976.2</ele>
        <time>2020-01-16T11:55:37Z</time>
      </trkpt>
      <trkpt lat="46.51676" lon="5.90894">
        <ele>976.7</ele>
        <time>2020-01-16T11:55:42Z</time>
      </trkpt>
      <trkpt lat="46.51684" lon="5.90891">
        <ele>977.4</ele>
        <time>2020-01-16T11:55:56Z</time>
      </trkpt>
      <trkpt lat="46.51688" lon="5.9089">
        <ele>977</ele>
        <time>2020-01-16T11:56:01Z</time>
      </trkpt>
      <trkpt lat="46.51693" lon="5.90886">
        <ele>976.7</ele>
        <time>2020-01-16T11:56:12Z</time>
      </trkpt>
      <trkpt lat="46.51697" lon="5.90882">
        <ele>977.4</ele>
        <time>2020-01-16T11:56:19Z</time>
      </trkpt>
      <trkpt lat="46.51702" lon="5.9088">
        <ele>978.2</ele>
        <time>2020-01-16T11:56:26Z</time>
      </trkpt>
      <trkpt lat="46.51706" lon="5.90878">
        <ele>978.7</ele>
        <time>2020-01-16T11:56:30Z</time>
      </trkpt>
      <trkpt lat="46.51711" lon="5.90876">
        <ele>978.9</ele>
        <time>2020-01-16T11:56:33Z</time>
      </trkpt>
      <trkpt lat="46.51717" lon="5.90872">
        <ele>979.2</ele>
        <time>2020-01-16T11:56:37Z</time>
      </trkpt>
      <trkpt lat="46.51721" lon="5.90868">
        <ele>979.4</ele>
        <time>2020-01-16T11:56:41Z</time>
      </trkpt>
      <trkpt lat="46.51725" lon="5.90864">
        <ele>979.8</ele>
        <time>2020-01-16T11:56:47Z</time>
      </trkpt>
      <trkpt lat="46.5173" lon="5.90862">
        <ele>980</ele>
        <time>2020-01-16T11:56:52Z</time>
      </trkpt>
      <trkpt lat="46.51735" lon="5.90862">
        <ele>980</ele>
        <time>2020-01-16T11:56:56Z</time>
      </trkpt>
      <trkpt lat="46.5174" lon="5.90861">
        <ele>980</ele>
        <time>2020-01-16T11:56:59Z</time>
      </trkpt>
      <trkpt lat="46.51745" lon="5.90859">
        <ele>979.9</ele>
        <time>2020-01-16T11:57:02Z</time>
      </trkpt>
      <trkpt lat="46.5175" lon="5.90858">
        <ele>979.8</ele>
        <time>2020-01-16T11:57:05Z</time>
      </trkpt>
      <trkpt lat="46.51755" lon="5.90857">
        <ele>979.6</ele>
        <time>2020-01-16T11:57:09Z</time>
      </trkpt>
      <trkpt lat="46.5176" lon="5.90856">
        <ele>979.2</ele>
        <time>2020-01-16T11:57:13Z</time>
      </trkpt>
      <trkpt lat="46.51765" lon="5.90854">
        <ele>978.8</ele>
        <time>2020-01-16T11:57:17Z</time>
      </trkpt>
      <trkpt lat="46.51768" lon="5.90849">
        <ele>978.1</ele>
        <time>2020-01-16T11:57:22Z</time>
      </trkpt>
      <trkpt lat="46.5178" lon="5.90851">
        <ele>975.6</ele>
        <time>2020-01-16T11:57:34Z</time>
      </trkpt>
      <trkpt lat="46.51783" lon="5.90857">
        <ele>975.2</ele>
        <time>2020-01-16T11:57:37Z</time>
      </trkpt>
      <trkpt lat="46.51786" lon="5.90863">
        <ele>974.7</ele>
        <time>2020-01-16T11:57:41Z</time>
      </trkpt>
      <trkpt lat="46.5179" lon="5.90868">
        <ele>974.4</ele>
        <time>2020-01-16T11:57:44Z</time>
      </trkpt>
      <trkpt lat="46.51793" lon="5.90874">
        <ele>974.1</ele>
        <time>2020-01-16T11:57:48Z</time>
      </trkpt>
      <trkpt lat="46.51794" lon="5.90881">
        <ele>974</ele>
        <time>2020-01-16T11:57:52Z</time>
      </trkpt>
      <trkpt lat="46.51796" lon="5.90887">
        <ele>973.9</ele>
        <time>2020-01-16T11:57:56Z</time>
      </trkpt>
      <trkpt lat="46.51799" lon="5.90894">
        <ele>973.9</ele>
        <time>2020-01-16T11:58:00Z</time>
      </trkpt>
      <trkpt lat="46.51802" lon="5.90903">
        <ele>974</ele>
        <time>2020-01-16T11:58:05Z</time>
      </trkpt>
      <trkpt lat="46.51804" lon="5.90909">
        <ele>974.1</ele>
        <time>2020-01-16T11:58:09Z</time>
      </trkpt>
      <trkpt lat="46.51806" lon="5.90916">
        <ele>974.1</ele>
        <time>2020-01-16T11:58:15Z</time>
      </trkpt>
      <trkpt lat="46.51809" lon="5.90922">
        <ele>974.2</ele>
        <time>2020-01-16T11:58:21Z</time>
      </trkpt>
      <trkpt lat="46.51812" lon="5.90929">
        <ele>974.1</ele>
        <time>2020-01-16T11:58:25Z</time>
      </trkpt>
      <trkpt lat="46.51815" lon="5.90935">
        <ele>973.9</ele>
        <time>2020-01-16T11:58:31Z</time>
      </trkpt>
      <trkpt lat="46.51817" lon="5.90941">
        <ele>974</ele>
        <time>2020-01-16T11:58:40Z</time>
      </trkpt>
      <trkpt lat="46.51811" lon="5.90967">
        <ele>976.4</ele>
        <time>2020-01-16T11:59:13Z</time>
      </trkpt>
      <trkpt lat="46.51812" lon="5.90975">
        <ele>977.1</ele>
        <time>2020-01-16T11:59:19Z</time>
      </trkpt>
      <trkpt lat="46.51806" lon="5.90994">
        <ele>979.8</ele>
        <time>2020-01-16T11:59:37Z</time>
      </trkpt>
      <trkpt lat="46.51804" lon="5.91001">
        <ele>981.3</ele>
        <time>2020-01-16T11:59:45Z</time>
      </trkpt>
      <trkpt lat="46.51802" lon="5.91007">
        <ele>983.2</ele>
        <time>2020-01-16T11:59:52Z</time>
      </trkpt>
      <trkpt lat="46.51803" lon="5.91014">
        <ele>984.9</ele>
        <time>2020-01-16T11:59:59Z</time>
      </trkpt>
      <trkpt lat="46.51804" lon="5.91021">
        <ele>985.7</ele>
        <time>2020-01-16T12:00:06Z</time>
      </trkpt>
      <trkpt lat="46.51805" lon="5.91039">
        <ele>987.7</ele>
        <time>2020-01-16T12:00:20Z</time>
      </trkpt>
      <trkpt lat="46.51805" lon="5.91046">
        <ele>987.6</ele>
        <time>2020-01-16T12:00:25Z</time>
      </trkpt>
      <trkpt lat="46.51807" lon="5.91053">
        <ele>987.2</ele>
        <time>2020-01-16T12:00:32Z</time>
      </trkpt>
      <trkpt lat="46.51808" lon="5.91061">
        <ele>987</ele>
        <time>2020-01-16T12:00:39Z</time>
      </trkpt>
      <trkpt lat="46.51808" lon="5.91068">
        <ele>986.8</ele>
        <time>2020-01-16T12:00:47Z</time>
      </trkpt>
      <trkpt lat="46.51809" lon="5.91075">
        <ele>986.6</ele>
        <time>2020-01-16T12:00:53Z</time>
      </trkpt>
      <trkpt lat="46.51811" lon="5.91089">
        <ele>986.4</ele>
        <time>2020-01-16T12:01:08Z</time>
      </trkpt>
      <trkpt lat="46.51813" lon="5.91096">
        <ele>986.4</ele>
        <time>2020-01-16T12:01:14Z</time>
      </trkpt>
      <trkpt lat="46.51815" lon="5.91103">
        <ele>986.3</ele>
        <time>2020-01-16T12:01:20Z</time>
      </trkpt>
      <trkpt lat="46.51817" lon="5.91109">
        <ele>986.3</ele>
        <time>2020-01-16T12:01:24Z</time>
      </trkpt>
      <trkpt lat="46.51819" lon="5.91117">
        <ele>986.4</ele>
        <time>2020-01-16T12:01:29Z</time>
      </trkpt>
      <trkpt lat="46.51821" lon="5.91123">
        <ele>986.8</ele>
        <time>2020-01-16T12:01:34Z</time>
      </trkpt>
      <trkpt lat="46.5183" lon="5.91137">
        <ele>988.4</ele>
        <time>2020-01-16T12:01:50Z</time>
      </trkpt>
      <trkpt lat="46.51834" lon="5.91142">
        <ele>988.5</ele>
        <time>2020-01-16T12:01:56Z</time>
      </trkpt>
      <trkpt lat="46.51835" lon="5.91149">
        <ele>988.7</ele>
        <time>2020-01-16T12:02:05Z</time>
      </trkpt>
      <trkpt lat="46.51838" lon="5.91156">
        <ele>989.1</ele>
        <time>2020-01-16T12:02:12Z</time>
      </trkpt>
      <trkpt lat="46.51841" lon="5.91163">
        <ele>989.7</ele>
        <time>2020-01-16T12:02:18Z</time>
      </trkpt>
      <trkpt lat="46.51843" lon="5.91169">
        <ele>990</ele>
        <time>2020-01-16T12:02:22Z</time>
      </trkpt>
      <trkpt lat="46.51845" lon="5.91174">
        <ele>990.2</ele>
        <time>2020-01-16T12:02:27Z</time>
      </trkpt>
      <trkpt lat="46.51849" lon="5.91179">
        <ele>990.5</ele>
        <time>2020-01-16T12:02:32Z</time>
      </trkpt>
      <trkpt lat="46.51852" lon="5.91183">
        <ele>990.7</ele>
        <time>2020-01-16T12:02:36Z</time>
      </trkpt>
      <trkpt lat="46.51858" lon="5.91189">
        <ele>990.9</ele>
        <time>2020-01-16T12:02:40Z</time>
      </trkpt>
      <trkpt lat="46.51861" lon="5.91193">
        <ele>991</ele>
        <time>2020-01-16T12:02:44Z</time>
      </trkpt>
      <trkpt lat="46.51865" lon="5.91197">
        <ele>991</ele>
        <time>2020-01-16T12:02:51Z</time>
      </trkpt>
      <trkpt lat="46.51869" lon="5.91201">
        <ele>990.9</ele>
        <time>2020-01-16T12:02:55Z</time>
      </trkpt>
      <trkpt lat="46.51872" lon="5.91206">
        <ele>990.9</ele>
        <time>2020-01-16T12:03:01Z</time>
      </trkpt>
      <trkpt lat="46.51877" lon="5.91211">
        <ele>991</ele>
        <time>2020-01-16T12:03:06Z</time>
      </trkpt>
      <trkpt lat="46.5188" lon="5.91216">
        <ele>991.3</ele>
        <time>2020-01-16T12:03:12Z</time>
      </trkpt>
      <trkpt lat="46.51882" lon="5.91223">
        <ele>991.5</ele>
        <time>2020-01-16T12:03:18Z</time>
      </trkpt>
      <trkpt lat="46.51885" lon="5.9123">
        <ele>991.7</ele>
        <time>2020-01-16T12:03:23Z</time>
      </trkpt>
      <trkpt lat="46.51886" lon="5.91236">
        <ele>992</ele>
        <time>2020-01-16T12:03:28Z</time>
      </trkpt>
      <trkpt lat="46.51888" lon="5.91242">
        <ele>992.6</ele>
        <time>2020-01-16T12:03:33Z</time>
      </trkpt>
      <trkpt lat="46.5189" lon="5.91248">
        <ele>993.5</ele>
        <time>2020-01-16T12:03:39Z</time>
      </trkpt>
      <trkpt lat="46.51893" lon="5.91254">
        <ele>994.1</ele>
        <time>2020-01-16T12:03:45Z</time>
      </trkpt>
      <trkpt lat="46.51898" lon="5.91257">
        <ele>994.3</ele>
        <time>2020-01-16T12:03:49Z</time>
      </trkpt>
      <trkpt lat="46.51902" lon="5.91261">
        <ele>994.5</ele>
        <time>2020-01-16T12:03:53Z</time>
      </trkpt>
      <trkpt lat="46.51904" lon="5.91268">
        <ele>995.1</ele>
        <time>2020-01-16T12:03:59Z</time>
      </trkpt>
      <trkpt lat="46.51907" lon="5.91275">
        <ele>995.7</ele>
        <time>2020-01-16T12:04:03Z</time>
      </trkpt>
      <trkpt lat="46.5191" lon="5.91281">
        <ele>996.6</ele>
        <time>2020-01-16T12:04:08Z</time>
      </trkpt>
      <trkpt lat="46.51913" lon="5.91287">
        <ele>997.5</ele>
        <time>2020-01-16T12:04:13Z</time>
      </trkpt>
      <trkpt lat="46.51916" lon="5.91293">
        <ele>998.4</ele>
        <time>2020-01-16T12:04:19Z</time>
      </trkpt>
      <trkpt lat="46.5192" lon="5.91297">
        <ele>999</ele>
        <time>2020-01-16T12:04:23Z</time>
      </trkpt>
      <trkpt lat="46.51925" lon="5.91301">
        <ele>999.8</ele>
        <time>2020-01-16T12:04:30Z</time>
      </trkpt>
      <trkpt lat="46.51928" lon="5.91306">
        <ele>1000.6</ele>
        <time>2020-01-16T12:04:37Z</time>
      </trkpt>
      <trkpt lat="46.51932" lon="5.91309">
        <ele>1001.2</ele>
        <time>2020-01-16T12:04:44Z</time>
      </trkpt>
      <trkpt lat="46.51937" lon="5.91312">
        <ele>1001.7</ele>
        <time>2020-01-16T12:04:50Z</time>
      </trkpt>
      <trkpt lat="46.51947" lon="5.91316">
        <ele>1002.6</ele>
        <time>2020-01-16T12:05:02Z</time>
      </trkpt>
      <trkpt lat="46.51952" lon="5.91317">
        <ele>1002.5</ele>
        <time>2020-01-16T12:05:07Z</time>
      </trkpt>
      <trkpt lat="46.51956" lon="5.91316">
        <ele>1002.2</ele>
        <time>2020-01-16T12:05:12Z</time>
      </trkpt>
      <trkpt lat="46.51962" lon="5.91317">
        <ele>1002.1</ele>
        <time>2020-01-16T12:05:19Z</time>
      </trkpt>
      <trkpt lat="46.51967" lon="5.91317">
        <ele>1002</ele>
        <time>2020-01-16T12:05:23Z</time>
      </trkpt>
      <trkpt lat="46.51972" lon="5.91316">
        <ele>1002</ele>
        <time>2020-01-16T12:05:27Z</time>
      </trkpt>
      <trkpt lat="46.51977" lon="5.91315">
        <ele>1001.8</ele>
        <time>2020-01-16T12:05:33Z</time>
      </trkpt>
      <trkpt lat="46.51982" lon="5.91316">
        <ele>1001.5</ele>
        <time>2020-01-16T12:05:39Z</time>
      </trkpt>
      <trkpt lat="46.51987" lon="5.91315">
        <ele>1001.1</ele>
        <time>2020-01-16T12:05:47Z</time>
      </trkpt>
      <trkpt lat="46.51991" lon="5.91316">
        <ele>1000.9</ele>
        <time>2020-01-16T12:05:52Z</time>
      </trkpt>
      <trkpt lat="46.51996" lon="5.91316">
        <ele>1000.5</ele>
        <time>2020-01-16T12:05:57Z</time>
      </trkpt>
      <trkpt lat="46.52001" lon="5.91316">
        <ele>1000.2</ele>
        <time>2020-01-16T12:06:02Z</time>
      </trkpt>
      <trkpt lat="46.52006" lon="5.91316">
        <ele>999.8</ele>
        <time>2020-01-16T12:06:07Z</time>
      </trkpt>
      <trkpt lat="46.52011" lon="5.91316">
        <ele>999.4</ele>
        <time>2020-01-16T12:06:13Z</time>
      </trkpt>
      <trkpt lat="46.52024" lon="5.9132">
        <ele>998.8</ele>
        <time>2020-01-16T12:06:31Z</time>
      </trkpt>
      <trkpt lat="46.52037" lon="5.9132">
        <ele>998.5</ele>
        <time>2020-01-16T12:06:43Z</time>
      </trkpt>
      <trkpt lat="46.52042" lon="5.91317">
        <ele>998.6</ele>
        <time>2020-01-16T12:06:47Z</time>
      </trkpt>
      <trkpt lat="46.52051" lon="5.91322">
        <ele>998.6</ele>
        <time>2020-01-16T12:06:58Z</time>
      </trkpt>
      <trkpt lat="46.52056" lon="5.91321">
        <ele>997.6</ele>
        <time>2020-01-16T12:07:05Z</time>
      </trkpt>
      <trkpt lat="46.5206" lon="5.91316">
        <ele>995.4</ele>
        <time>2020-01-16T12:07:13Z</time>
      </trkpt>
      <trkpt lat="46.52062" lon="5.9131">
        <ele>993.3</ele>
        <time>2020-01-16T12:07:21Z</time>
      </trkpt>
      <trkpt lat="46.52065" lon="5.91301">
        <ele>994.1</ele>
        <time>2020-01-16T12:07:42Z</time>
      </trkpt>
      <trkpt lat="46.52067" lon="5.91295">
        <ele>995</ele>
        <time>2020-01-16T12:07:47Z</time>
      </trkpt>
      <trkpt lat="46.52071" lon="5.91291">
        <ele>996.3</ele>
        <time>2020-01-16T12:07:56Z</time>
      </trkpt>
      <trkpt lat="46.52068" lon="5.91294">
        <ele>981.5</ele>
        <time>2020-01-16T12:14:59Z</time>
      </trkpt>
      <trkpt lat="46.52064" lon="5.91286">
        <ele>977.5</ele>
        <time>2020-01-16T12:15:14Z</time>
      </trkpt>
      <trkpt lat="46.52065" lon="5.91277">
        <ele>977.4</ele>
        <time>2020-01-16T12:15:18Z</time>
      </trkpt>
      <trkpt lat="46.52069" lon="5.91263">
        <ele>979.1</ele>
        <time>2020-01-16T12:15:40Z</time>
      </trkpt>
      <trkpt lat="46.52073" lon="5.91259">
        <ele>978.2</ele>
        <time>2020-01-16T12:15:44Z</time>
      </trkpt>
      <trkpt lat="46.52076" lon="5.91255">
        <ele>977.6</ele>
        <time>2020-01-16T12:15:47Z</time>
      </trkpt>
      <trkpt lat="46.52079" lon="5.91249">
        <ele>976.8</ele>
        <time>2020-01-16T12:15:52Z</time>
      </trkpt>
      <trkpt lat="46.52083" lon="5.91244">
        <ele>976</ele>
        <time>2020-01-16T12:16:02Z</time>
      </trkpt>
      <trkpt lat="46.52124" lon="5.91193">
        <ele>972.3</ele>
        <time>2020-01-16T12:17:58Z</time>
      </trkpt>
      <trkpt lat="46.52129" lon="5.9119">
        <ele>972.1</ele>
        <time>2020-01-16T12:18:01Z</time>
      </trkpt>
      <trkpt lat="46.5215" lon="5.91166">
        <ele>967</ele>
        <time>2020-01-16T12:18:56Z</time>
      </trkpt>
      <trkpt lat="46.52153" lon="5.9116">
        <ele>966.1</ele>
        <time>2020-01-16T12:19:05Z</time>
      </trkpt>
      <trkpt lat="46.52157" lon="5.91157">
        <ele>965.4</ele>
        <time>2020-01-16T12:19:08Z</time>
      </trkpt>
      <trkpt lat="46.52161" lon="5.91153">
        <ele>963</ele>
        <time>2020-01-16T12:19:18Z</time>
      </trkpt>
      <trkpt lat="46.52165" lon="5.91154">
        <ele>957.8</ele>
        <time>2020-01-16T12:19:34Z</time>
      </trkpt>
      <trkpt lat="46.52169" lon="5.91158">
        <ele>955.8</ele>
        <time>2020-01-16T12:19:42Z</time>
      </trkpt>
      <trkpt lat="46.52173" lon="5.91161">
        <ele>954.6</ele>
        <time>2020-01-16T12:19:49Z</time>
      </trkpt>
      <trkpt lat="46.52174" lon="5.91156">
        <ele>947.4</ele>
        <time>2020-01-16T12:20:25Z</time>
      </trkpt>
      <trkpt lat="46.52171" lon="5.9115">
        <ele>945.5</ele>
        <time>2020-01-16T12:20:30Z</time>
      </trkpt>
      <trkpt lat="46.52168" lon="5.91143">
        <ele>943.1</ele>
        <time>2020-01-16T12:20:37Z</time>
      </trkpt>
      <trkpt lat="46.52163" lon="5.91132">
        <ele>939.2</ele>
        <time>2020-01-16T12:20:48Z</time>
      </trkpt>
      <trkpt lat="46.5216" lon="5.91126">
        <ele>938.3</ele>
        <time>2020-01-16T12:20:54Z</time>
      </trkpt>
      <trkpt lat="46.52159" lon="5.91118">
        <ele>937.9</ele>
        <time>2020-01-16T12:20:59Z</time>
      </trkpt>
      <trkpt lat="46.52159" lon="5.91111">
        <ele>937.4</ele>
        <time>2020-01-16T12:21:07Z</time>
      </trkpt>
      <trkpt lat="46.52157" lon="5.91104">
        <ele>936.6</ele>
        <time>2020-01-16T12:21:16Z</time>
      </trkpt>
      <trkpt lat="46.52158" lon="5.91097">
        <ele>936.3</ele>
        <time>2020-01-16T12:21:23Z</time>
      </trkpt>
      <trkpt lat="46.5216" lon="5.91091">
        <ele>935.7</ele>
        <time>2020-01-16T12:21:30Z</time>
      </trkpt>
      <trkpt lat="46.52164" lon="5.91086">
        <ele>934.4</ele>
        <time>2020-01-16T12:21:39Z</time>
      </trkpt>
      <trkpt lat="46.52164" lon="5.91078">
        <ele>932.9</ele>
        <time>2020-01-16T12:21:47Z</time>
      </trkpt>
      <trkpt lat="46.52163" lon="5.91028">
        <ele>929.8</ele>
        <time>2020-01-16T12:22:16Z</time>
      </trkpt>
      <trkpt lat="46.52164" lon="5.91019">
        <ele>929.6</ele>
        <time>2020-01-16T12:22:22Z</time>
      </trkpt>
      <trkpt lat="46.52165" lon="5.9101">
        <ele>929.7</ele>
        <time>2020-01-16T12:22:26Z</time>
      </trkpt>
      <trkpt lat="46.52166" lon="5.91003">
        <ele>929.9</ele>
        <time>2020-01-16T12:22:29Z</time>
      </trkpt>
      <trkpt lat="46.52168" lon="5.90987">
        <ele>930.9</ele>
        <time>2020-01-16T12:22:46Z</time>
      </trkpt>
      <trkpt lat="46.52163" lon="5.90967">
        <ele>931.2</ele>
        <time>2020-01-16T12:23:02Z</time>
      </trkpt>
      <trkpt lat="46.5216" lon="5.9096">
        <ele>931.4</ele>
        <time>2020-01-16T12:23:10Z</time>
      </trkpt>
      <trkpt lat="46.5216" lon="5.90945">
        <ele>930.9</ele>
        <time>2020-01-16T12:23:21Z</time>
      </trkpt>
      <trkpt lat="46.52161" lon="5.90938">
        <ele>929.7</ele>
        <time>2020-01-16T12:23:27Z</time>
      </trkpt>
      <trkpt lat="46.52165" lon="5.90933">
        <ele>926.9</ele>
        <time>2020-01-16T12:23:36Z</time>
      </trkpt>
      <trkpt lat="46.52169" lon="5.9093">
        <ele>925.2</ele>
        <time>2020-01-16T12:23:42Z</time>
      </trkpt>
      <trkpt lat="46.52173" lon="5.90928">
        <ele>923.6</ele>
        <time>2020-01-16T12:23:50Z</time>
      </trkpt>
      <trkpt lat="46.52178" lon="5.90921">
        <ele>922.8</ele>
        <time>2020-01-16T12:23:58Z</time>
      </trkpt>
      <trkpt lat="46.52183" lon="5.90916">
        <ele>922.6</ele>
        <time>2020-01-16T12:24:01Z</time>
      </trkpt>
      <trkpt lat="46.52187" lon="5.90911">
        <ele>922.3</ele>
        <time>2020-01-16T12:24:07Z</time>
      </trkpt>
      <trkpt lat="46.52189" lon="5.90905">
        <ele>922</ele>
        <time>2020-01-16T12:24:14Z</time>
      </trkpt>
      <trkpt lat="46.52192" lon="5.90901">
        <ele>921.9</ele>
        <time>2020-01-16T12:24:19Z</time>
      </trkpt>
      <trkpt lat="46.52196" lon="5.90897">
        <ele>921.9</ele>
        <time>2020-01-16T12:24:24Z</time>
      </trkpt>
      <trkpt lat="46.522" lon="5.90893">
        <ele>921.5</ele>
        <time>2020-01-16T12:24:28Z</time>
      </trkpt>
      <trkpt lat="46.52205" lon="5.9089">
        <ele>920.8</ele>
        <time>2020-01-16T12:24:33Z</time>
      </trkpt>
      <trkpt lat="46.52209" lon="5.90886">
        <ele>919</ele>
        <time>2020-01-16T12:24:41Z</time>
      </trkpt>
      <trkpt lat="46.52212" lon="5.90881">
        <ele>916.9</ele>
        <time>2020-01-16T12:24:48Z</time>
      </trkpt>
      <trkpt lat="46.52217" lon="5.90877">
        <ele>914.5</ele>
        <time>2020-01-16T12:24:56Z</time>
      </trkpt>
      <trkpt lat="46.52221" lon="5.90875">
        <ele>913.1</ele>
        <time>2020-01-16T12:25:01Z</time>
      </trkpt>
      <trkpt lat="46.52225" lon="5.9087">
        <ele>911.5</ele>
        <time>2020-01-16T12:25:07Z</time>
      </trkpt>
      <trkpt lat="46.52229" lon="5.90866">
        <ele>910.3</ele>
        <time>2020-01-16T12:25:19Z</time>
      </trkpt>
      <trkpt lat="46.52231" lon="5.9086">
        <ele>910.1</ele>
        <time>2020-01-16T12:25:28Z</time>
      </trkpt>
      <trkpt lat="46.52235" lon="5.90856">
        <ele>909.7</ele>
        <time>2020-01-16T12:25:32Z</time>
      </trkpt>
      <trkpt lat="46.52238" lon="5.90851">
        <ele>909.3</ele>
        <time>2020-01-16T12:25:35Z</time>
      </trkpt>
      <trkpt lat="46.5224" lon="5.90844">
        <ele>908.5</ele>
        <time>2020-01-16T12:25:42Z</time>
      </trkpt>
      <trkpt lat="46.52244" lon="5.9084">
        <ele>907.3</ele>
        <time>2020-01-16T12:25:50Z</time>
      </trkpt>
      <trkpt lat="46.52247" lon="5.90832">
        <ele>906.8</ele>
        <time>2020-01-16T12:25:54Z</time>
      </trkpt>
      <trkpt lat="46.52248" lon="5.90824">
        <ele>906.6</ele>
        <time>2020-01-16T12:25:56Z</time>
      </trkpt>
      <trkpt lat="46.52252" lon="5.90818">
        <ele>906.4</ele>
        <time>2020-01-16T12:25:59Z</time>
      </trkpt>
      <trkpt lat="46.52256" lon="5.90813">
        <ele>906.4</ele>
        <time>2020-01-16T12:26:02Z</time>
      </trkpt>
      <trkpt lat="46.52259" lon="5.90808">
        <ele>906.3</ele>
        <time>2020-01-16T12:26:05Z</time>
      </trkpt>
      <trkpt lat="46.52262" lon="5.90803">
        <ele>906.1</ele>
        <time>2020-01-16T12:26:10Z</time>
      </trkpt>
      <trkpt lat="46.52265" lon="5.90796">
        <ele>905.6</ele>
        <time>2020-01-16T12:26:14Z</time>
      </trkpt>
      <trkpt lat="46.52266" lon="5.9079">
        <ele>905.1</ele>
        <time>2020-01-16T12:26:17Z</time>
      </trkpt>
      <trkpt lat="46.52268" lon="5.90784">
        <ele>904.4</ele>
        <time>2020-01-16T12:26:21Z</time>
      </trkpt>
      <trkpt lat="46.52271" lon="5.90778">
        <ele>904.1</ele>
        <time>2020-01-16T12:26:23Z</time>
      </trkpt>
      <trkpt lat="46.52274" lon="5.9077">
        <ele>903.7</ele>
        <time>2020-01-16T12:26:26Z</time>
      </trkpt>
      <trkpt lat="46.52276" lon="5.90764">
        <ele>903.4</ele>
        <time>2020-01-16T12:26:29Z</time>
      </trkpt>
      <trkpt lat="46.52277" lon="5.90757">
        <ele>902.9</ele>
        <time>2020-01-16T12:26:34Z</time>
      </trkpt>
      <trkpt lat="46.52279" lon="5.9075">
        <ele>902.4</ele>
        <time>2020-01-16T12:26:39Z</time>
      </trkpt>
      <trkpt lat="46.52281" lon="5.90743">
        <ele>901.9</ele>
        <time>2020-01-16T12:26:42Z</time>
      </trkpt>
      <trkpt lat="46.52282" lon="5.90736">
        <ele>901.1</ele>
        <time>2020-01-16T12:26:46Z</time>
      </trkpt>
      <trkpt lat="46.52286" lon="5.90731">
        <ele>900.1</ele>
        <time>2020-01-16T12:26:51Z</time>
      </trkpt>
      <trkpt lat="46.52289" lon="5.90725">
        <ele>899.4</ele>
        <time>2020-01-16T12:26:55Z</time>
      </trkpt>
      <trkpt lat="46.52292" lon="5.90721">
        <ele>898.9</ele>
        <time>2020-01-16T12:26:58Z</time>
      </trkpt>
      <trkpt lat="46.52296" lon="5.90715">
        <ele>897.6</ele>
        <time>2020-01-16T12:27:05Z</time>
      </trkpt>
      <trkpt lat="46.52299" lon="5.90711">
        <ele>896.8</ele>
        <time>2020-01-16T12:27:09Z</time>
      </trkpt>
      <trkpt lat="46.52302" lon="5.90705">
        <ele>896</ele>
        <time>2020-01-16T12:27:13Z</time>
      </trkpt>
      <trkpt lat="46.52304" lon="5.90699">
        <ele>895.3</ele>
        <time>2020-01-16T12:27:17Z</time>
      </trkpt>
      <trkpt lat="46.52303" lon="5.90692">
        <ele>894.3</ele>
        <time>2020-01-16T12:27:21Z</time>
      </trkpt>
      <trkpt lat="46.52302" lon="5.90685">
        <ele>893.3</ele>
        <time>2020-01-16T12:27:25Z</time>
      </trkpt>
      <trkpt lat="46.52301" lon="5.90678">
        <ele>891.6</ele>
        <time>2020-01-16T12:27:32Z</time>
      </trkpt>
      <trkpt lat="46.52298" lon="5.90671">
        <ele>889.8</ele>
        <time>2020-01-16T12:27:52Z</time>
      </trkpt>
      <trkpt lat="46.52295" lon="5.90664">
        <ele>889.4</ele>
        <time>2020-01-16T12:27:56Z</time>
      </trkpt>
      <trkpt lat="46.52293" lon="5.90658">
        <ele>889.2</ele>
        <time>2020-01-16T12:27:59Z</time>
      </trkpt>
      <trkpt lat="46.52289" lon="5.90653">
        <ele>888.8</ele>
        <time>2020-01-16T12:28:03Z</time>
      </trkpt>
      <trkpt lat="46.52286" lon="5.90649">
        <ele>888.4</ele>
        <time>2020-01-16T12:28:09Z</time>
      </trkpt>
      <trkpt lat="46.52284" lon="5.90643">
        <ele>888</ele>
        <time>2020-01-16T12:28:13Z</time>
      </trkpt>
      <trkpt lat="46.52281" lon="5.90637">
        <ele>887.4</ele>
        <time>2020-01-16T12:28:18Z</time>
      </trkpt>
      <trkpt lat="46.52277" lon="5.90633">
        <ele>886.5</ele>
        <time>2020-01-16T12:28:25Z</time>
      </trkpt>
      <trkpt lat="46.52272" lon="5.90629">
        <ele>886</ele>
        <time>2020-01-16T12:28:30Z</time>
      </trkpt>
      <trkpt lat="46.52268" lon="5.90625">
        <ele>885.8</ele>
        <time>2020-01-16T12:28:34Z</time>
      </trkpt>
      <trkpt lat="46.52265" lon="5.90619">
        <ele>885.7</ele>
        <time>2020-01-16T12:28:38Z</time>
      </trkpt>
      <trkpt lat="46.52263" lon="5.90614">
        <ele>885.6</ele>
        <time>2020-01-16T12:28:43Z</time>
      </trkpt>
      <trkpt lat="46.52259" lon="5.90608">
        <ele>885.4</ele>
        <time>2020-01-16T12:28:48Z</time>
      </trkpt>
      <trkpt lat="46.52256" lon="5.90603">
        <ele>885.3</ele>
        <time>2020-01-16T12:28:52Z</time>
      </trkpt>
      <trkpt lat="46.52252" lon="5.90597">
        <ele>884.9</ele>
        <time>2020-01-16T12:28:57Z</time>
      </trkpt>
      <trkpt lat="46.5225" lon="5.90591">
        <ele>884.6</ele>
        <time>2020-01-16T12:29:01Z</time>
      </trkpt>
      <trkpt lat="46.52246" lon="5.90585">
        <ele>884.3</ele>
        <time>2020-01-16T12:29:05Z</time>
      </trkpt>
      <trkpt lat="46.52242" lon="5.9058">
        <ele>884</ele>
        <time>2020-01-16T12:29:09Z</time>
      </trkpt>
      <trkpt lat="46.52239" lon="5.90575">
        <ele>883.6</ele>
        <time>2020-01-16T12:29:13Z</time>
      </trkpt>
      <trkpt lat="46.52236" lon="5.9057">
        <ele>883.4</ele>
        <time>2020-01-16T12:29:17Z</time>
      </trkpt>
      <trkpt lat="46.52233" lon="5.90565">
        <ele>883.5</ele>
        <time>2020-01-16T12:29:21Z</time>
      </trkpt>
      <trkpt lat="46.5223" lon="5.90557">
        <ele>883.9</ele>
        <time>2020-01-16T12:29:26Z</time>
      </trkpt>
      <trkpt lat="46.52227" lon="5.90551">
        <ele>884.3</ele>
        <time>2020-01-16T12:29:30Z</time>
      </trkpt>
      <trkpt lat="46.52224" lon="5.90544">
        <ele>884.9</ele>
        <time>2020-01-16T12:29:34Z</time>
      </trkpt>
      <trkpt lat="46.5222" lon="5.90538">
        <ele>885.7</ele>
        <time>2020-01-16T12:29:38Z</time>
      </trkpt>
      <trkpt lat="46.52217" lon="5.90531">
        <ele>886.4</ele>
        <time>2020-01-16T12:29:42Z</time>
      </trkpt>
      <trkpt lat="46.52215" lon="5.90524">
        <ele>887.1</ele>
        <time>2020-01-16T12:29:47Z</time>
      </trkpt>
      <trkpt lat="46.52213" lon="5.90519">
        <ele>887.6</ele>
        <time>2020-01-16T12:29:51Z</time>
      </trkpt>
      <trkpt lat="46.5221" lon="5.90512">
        <ele>888.2</ele>
        <time>2020-01-16T12:29:56Z</time>
      </trkpt>
      <trkpt lat="46.52208" lon="5.90505">
        <ele>888.3</ele>
        <time>2020-01-16T12:30:00Z</time>
      </trkpt>
      <trkpt lat="46.52204" lon="5.90499">
        <ele>888.3</ele>
        <time>2020-01-16T12:30:05Z</time>
      </trkpt>
      <trkpt lat="46.52202" lon="5.90492">
        <ele>888.2</ele>
        <time>2020-01-16T12:30:11Z</time>
      </trkpt>
      <trkpt lat="46.522" lon="5.90486">
        <ele>888.1</ele>
        <time>2020-01-16T12:30:17Z</time>
      </trkpt>
      <trkpt lat="46.52198" lon="5.90479">
        <ele>888.2</ele>
        <time>2020-01-16T12:30:22Z</time>
      </trkpt>
      <trkpt lat="46.52194" lon="5.90472">
        <ele>888.5</ele>
        <time>2020-01-16T12:30:26Z</time>
      </trkpt>
      <trkpt lat="46.52192" lon="5.90466">
        <ele>888.9</ele>
        <time>2020-01-16T12:30:30Z</time>
      </trkpt>
      <trkpt lat="46.52188" lon="5.90461">
        <ele>890</ele>
        <time>2020-01-16T12:30:36Z</time>
      </trkpt>
      <trkpt lat="46.52184" lon="5.90457">
        <ele>891.1</ele>
        <time>2020-01-16T12:30:41Z</time>
      </trkpt>
      <trkpt lat="46.5218" lon="5.90453">
        <ele>891.9</ele>
        <time>2020-01-16T12:30:45Z</time>
      </trkpt>
      <trkpt lat="46.52177" lon="5.90447">
        <ele>892.7</ele>
        <time>2020-01-16T12:30:49Z</time>
      </trkpt>
      <trkpt lat="46.52175" lon="5.90441">
        <ele>893.5</ele>
        <time>2020-01-16T12:30:53Z</time>
      </trkpt>
      <trkpt lat="46.52171" lon="5.90436">
        <ele>894.3</ele>
        <time>2020-01-16T12:30:58Z</time>
      </trkpt>
      <trkpt lat="46.52168" lon="5.9043">
        <ele>894.8</ele>
        <time>2020-01-16T12:31:03Z</time>
      </trkpt>
      <trkpt lat="46.52165" lon="5.90424">
        <ele>895</ele>
        <time>2020-01-16T12:31:07Z</time>
      </trkpt>
      <trkpt lat="46.52161" lon="5.90417">
        <ele>895</ele>
        <time>2020-01-16T12:31:11Z</time>
      </trkpt>
      <trkpt lat="46.52158" lon="5.90412">
        <ele>894.8</ele>
        <time>2020-01-16T12:31:15Z</time>
      </trkpt>
      <trkpt lat="46.52155" lon="5.90407">
        <ele>894.6</ele>
        <time>2020-01-16T12:31:18Z</time>
      </trkpt>
      <trkpt lat="46.52152" lon="5.90402">
        <ele>894.1</ele>
        <time>2020-01-16T12:31:23Z</time>
      </trkpt>
      <trkpt lat="46.52148" lon="5.90396">
        <ele>893.6</ele>
        <time>2020-01-16T12:31:28Z</time>
      </trkpt>
      <trkpt lat="46.52145" lon="5.90391">
        <ele>893.3</ele>
        <time>2020-01-16T12:31:34Z</time>
      </trkpt>
      <trkpt lat="46.52142" lon="5.90385">
        <ele>893.1</ele>
        <time>2020-01-16T12:31:38Z</time>
      </trkpt>
      <trkpt lat="46.52139" lon="5.90378">
        <ele>893</ele>
        <time>2020-01-16T12:31:42Z</time>
      </trkpt>
      <trkpt lat="46.52136" lon="5.90373">
        <ele>892.9</ele>
        <time>2020-01-16T12:31:45Z</time>
      </trkpt>
      <trkpt lat="46.52132" lon="5.90368">
        <ele>893.2</ele>
        <time>2020-01-16T12:31:49Z</time>
      </trkpt>
      <trkpt lat="46.52128" lon="5.90362">
        <ele>893.9</ele>
        <time>2020-01-16T12:31:54Z</time>
      </trkpt>
      <trkpt lat="46.52123" lon="5.90357">
        <ele>894.4</ele>
        <time>2020-01-16T12:31:58Z</time>
      </trkpt>
      <trkpt lat="46.52119" lon="5.90353">
        <ele>894.9</ele>
        <time>2020-01-16T12:32:02Z</time>
      </trkpt>
      <trkpt lat="46.52115" lon="5.90347">
        <ele>895.3</ele>
        <time>2020-01-16T12:32:06Z</time>
      </trkpt>
      <trkpt lat="46.52111" lon="5.9034">
        <ele>895.4</ele>
        <time>2020-01-16T12:32:09Z</time>
      </trkpt>
      <trkpt lat="46.52106" lon="5.90335">
        <ele>895.3</ele>
        <time>2020-01-16T12:32:14Z</time>
      </trkpt>
      <trkpt lat="46.52102" lon="5.90332">
        <ele>895</ele>
        <time>2020-01-16T12:32:18Z</time>
      </trkpt>
      <trkpt lat="46.52097" lon="5.90331">
        <ele>894.6</ele>
        <time>2020-01-16T12:32:23Z</time>
      </trkpt>
      <trkpt lat="46.52092" lon="5.90331">
        <ele>893.9</ele>
        <time>2020-01-16T12:32:29Z</time>
      </trkpt>
      <trkpt lat="46.52088" lon="5.90329">
        <ele>893.4</ele>
        <time>2020-01-16T12:32:34Z</time>
      </trkpt>
      <trkpt lat="46.52081" lon="5.90327">
        <ele>892.3</ele>
        <time>2020-01-16T12:32:47Z</time>
      </trkpt>
      <trkpt lat="46.52075" lon="5.90324">
        <ele>891.9</ele>
        <time>2020-01-16T12:32:52Z</time>
      </trkpt>
      <trkpt lat="46.5207" lon="5.90321">
        <ele>891.3</ele>
        <time>2020-01-16T12:32:57Z</time>
      </trkpt>
      <trkpt lat="46.52066" lon="5.90319">
        <ele>890.7</ele>
        <time>2020-01-16T12:33:01Z</time>
      </trkpt>
      <trkpt lat="46.52061" lon="5.90315">
        <ele>890.2</ele>
        <time>2020-01-16T12:33:06Z</time>
      </trkpt>
      <trkpt lat="46.52057" lon="5.9031">
        <ele>889.8</ele>
        <time>2020-01-16T12:33:10Z</time>
      </trkpt>
      <trkpt lat="46.52053" lon="5.90307">
        <ele>889.4</ele>
        <time>2020-01-16T12:33:13Z</time>
      </trkpt>
      <trkpt lat="46.52049" lon="5.90304">
        <ele>888.9</ele>
        <time>2020-01-16T12:33:16Z</time>
      </trkpt>
      <trkpt lat="46.52044" lon="5.903">
        <ele>888.2</ele>
        <time>2020-01-16T12:33:20Z</time>
      </trkpt>
      <trkpt lat="46.52041" lon="5.90295">
        <ele>887.3</ele>
        <time>2020-01-16T12:33:25Z</time>
      </trkpt>
      <trkpt lat="46.52034" lon="5.90276">
        <ele>887.4</ele>
        <time>2020-01-16T12:33:37Z</time>
      </trkpt>
      <trkpt lat="46.52031" lon="5.90268">
        <ele>887.8</ele>
        <time>2020-01-16T12:33:41Z</time>
      </trkpt>
      <trkpt lat="46.5203" lon="5.90261">
        <ele>888.4</ele>
        <time>2020-01-16T12:33:45Z</time>
      </trkpt>
      <trkpt lat="46.52029" lon="5.90254">
        <ele>889.2</ele>
        <time>2020-01-16T12:33:49Z</time>
      </trkpt>
      <trkpt lat="46.52028" lon="5.90247">
        <ele>889.9</ele>
        <time>2020-01-16T12:33:53Z</time>
      </trkpt>
      <trkpt lat="46.52027" lon="5.9024">
        <ele>890.7</ele>
        <time>2020-01-16T12:33:57Z</time>
      </trkpt>
      <trkpt lat="46.52025" lon="5.90233">
        <ele>891.4</ele>
        <time>2020-01-16T12:34:01Z</time>
      </trkpt>
      <trkpt lat="46.52023" lon="5.90227">
        <ele>892</ele>
        <time>2020-01-16T12:34:05Z</time>
      </trkpt>
      <trkpt lat="46.5202" lon="5.9022">
        <ele>892.9</ele>
        <time>2020-01-16T12:34:10Z</time>
      </trkpt>
      <trkpt lat="46.52018" lon="5.90213">
        <ele>894.3</ele>
        <time>2020-01-16T12:34:16Z</time>
      </trkpt>
      <trkpt lat="46.5202" lon="5.90207">
        <ele>895.2</ele>
        <time>2020-01-16T12:34:22Z</time>
      </trkpt>
      <trkpt lat="46.52023" lon="5.90202">
        <ele>895.1</ele>
        <time>2020-01-16T12:34:27Z</time>
      </trkpt>
      <trkpt lat="46.52026" lon="5.90197">
        <ele>894.8</ele>
        <time>2020-01-16T12:34:31Z</time>
      </trkpt>
      <trkpt lat="46.52031" lon="5.90193">
        <ele>894.4</ele>
        <time>2020-01-16T12:34:36Z</time>
      </trkpt>
      <trkpt lat="46.52036" lon="5.90189">
        <ele>894.1</ele>
        <time>2020-01-16T12:34:41Z</time>
      </trkpt>
      <trkpt lat="46.5204" lon="5.90187">
        <ele>893.9</ele>
        <time>2020-01-16T12:34:45Z</time>
      </trkpt>
      <trkpt lat="46.52045" lon="5.90187">
        <ele>893.6</ele>
        <time>2020-01-16T12:34:50Z</time>
      </trkpt>
      <trkpt lat="46.5205" lon="5.90184">
        <ele>893.4</ele>
        <time>2020-01-16T12:34:54Z</time>
      </trkpt>
      <trkpt lat="46.52054" lon="5.90181">
        <ele>893.2</ele>
        <time>2020-01-16T12:34:58Z</time>
      </trkpt>
      <trkpt lat="46.52059" lon="5.90179">
        <ele>892.8</ele>
        <time>2020-01-16T12:35:04Z</time>
      </trkpt>
      <trkpt lat="46.52063" lon="5.90176">
        <ele>892.8</ele>
        <time>2020-01-16T12:35:09Z</time>
      </trkpt>
      <trkpt lat="46.52068" lon="5.90173">
        <ele>892.9</ele>
        <time>2020-01-16T12:35:14Z</time>
      </trkpt>
      <trkpt lat="46.52073" lon="5.9017">
        <ele>893</ele>
        <time>2020-01-16T12:35:20Z</time>
      </trkpt>
      <trkpt lat="46.52077" lon="5.90166">
        <ele>893</ele>
        <time>2020-01-16T12:35:26Z</time>
      </trkpt>
      <trkpt lat="46.52083" lon="5.90165">
        <ele>893</ele>
        <time>2020-01-16T12:35:31Z</time>
      </trkpt>
      <trkpt lat="46.52089" lon="5.90165">
        <ele>892.9</ele>
        <time>2020-01-16T12:35:35Z</time>
      </trkpt>
      <trkpt lat="46.52093" lon="5.90166">
        <ele>892.7</ele>
        <time>2020-01-16T12:35:38Z</time>
      </trkpt>
      <trkpt lat="46.52098" lon="5.90168">
        <ele>892.1</ele>
        <time>2020-01-16T12:35:43Z</time>
      </trkpt>
      <trkpt lat="46.52103" lon="5.9017">
        <ele>891.2</ele>
        <time>2020-01-16T12:35:48Z</time>
      </trkpt>
      <trkpt lat="46.52107" lon="5.90172">
        <ele>886.9</ele>
        <time>2020-01-16T12:36:11Z</time>
      </trkpt>
      <trkpt lat="46.52111" lon="5.90174">
        <ele>886.1</ele>
        <time>2020-01-16T12:36:18Z</time>
      </trkpt>
      <trkpt lat="46.52116" lon="5.90176">
        <ele>885.7</ele>
        <time>2020-01-16T12:36:22Z</time>
      </trkpt>
      <trkpt lat="46.5212" lon="5.9018">
        <ele>883.9</ele>
        <time>2020-01-16T12:36:42Z</time>
      </trkpt>
      <trkpt lat="46.52124" lon="5.90183">
        <ele>882.4</ele>
        <time>2020-01-16T12:36:48Z</time>
      </trkpt>
      <trkpt lat="46.52128" lon="5.90185">
        <ele>881.3</ele>
        <time>2020-01-16T12:36:53Z</time>
      </trkpt>
      <trkpt lat="46.52133" lon="5.90187">
        <ele>880.5</ele>
        <time>2020-01-16T12:36:57Z</time>
      </trkpt>
      <trkpt lat="46.52138" lon="5.9019">
        <ele>879.7</ele>
        <time>2020-01-16T12:37:02Z</time>
      </trkpt>
      <trkpt lat="46.5214" lon="5.90196">
        <ele>879.1</ele>
        <time>2020-01-16T12:37:10Z</time>
      </trkpt>
      <trkpt lat="46.52137" lon="5.9019">
        <ele>878.5</ele>
        <time>2020-01-16T12:37:21Z</time>
      </trkpt>
      <trkpt lat="46.52136" lon="5.90182">
        <ele>878.6</ele>
        <time>2020-01-16T12:37:26Z</time>
      </trkpt>
      <trkpt lat="46.52134" lon="5.90176">
        <ele>879</ele>
        <time>2020-01-16T12:37:30Z</time>
      </trkpt>
      <trkpt lat="46.52133" lon="5.90169">
        <ele>879.6</ele>
        <time>2020-01-16T12:37:35Z</time>
      </trkpt>
      <trkpt lat="46.52132" lon="5.90161">
        <ele>880.6</ele>
        <time>2020-01-16T12:37:41Z</time>
      </trkpt>
      <trkpt lat="46.5213" lon="5.90155">
        <ele>881.3</ele>
        <time>2020-01-16T12:37:45Z</time>
      </trkpt>
      <trkpt lat="46.52129" lon="5.90148">
        <ele>882.3</ele>
        <time>2020-01-16T12:37:50Z</time>
      </trkpt>
      <trkpt lat="46.52129" lon="5.90141">
        <ele>883</ele>
        <time>2020-01-16T12:37:54Z</time>
      </trkpt>
      <trkpt lat="46.52127" lon="5.90133">
        <ele>883.6</ele>
        <time>2020-01-16T12:37:58Z</time>
      </trkpt>
      <trkpt lat="46.52125" lon="5.90125">
        <ele>884.1</ele>
        <time>2020-01-16T12:38:02Z</time>
      </trkpt>
      <trkpt lat="46.52124" lon="5.90119">
        <ele>884.1</ele>
        <time>2020-01-16T12:38:07Z</time>
      </trkpt>
      <trkpt lat="46.52125" lon="5.90112">
        <ele>883.8</ele>
        <time>2020-01-16T12:38:11Z</time>
      </trkpt>
      <trkpt lat="46.52129" lon="5.90106">
        <ele>882.9</ele>
        <time>2020-01-16T12:38:16Z</time>
      </trkpt>
      <trkpt lat="46.52133" lon="5.90102">
        <ele>882.2</ele>
        <time>2020-01-16T12:38:20Z</time>
      </trkpt>
      <trkpt lat="46.52137" lon="5.90098">
        <ele>881.2</ele>
        <time>2020-01-16T12:38:25Z</time>
      </trkpt>
      <trkpt lat="46.52142" lon="5.90095">
        <ele>880</ele>
        <time>2020-01-16T12:38:30Z</time>
      </trkpt>
      <trkpt lat="46.52148" lon="5.90092">
        <ele>878.9</ele>
        <time>2020-01-16T12:38:35Z</time>
      </trkpt>
      <trkpt lat="46.52153" lon="5.90089">
        <ele>878.3</ele>
        <time>2020-01-16T12:38:39Z</time>
      </trkpt>
      <trkpt lat="46.52158" lon="5.90085">
        <ele>877.7</ele>
        <time>2020-01-16T12:38:43Z</time>
      </trkpt>
      <trkpt lat="46.52162" lon="5.90081">
        <ele>876.7</ele>
        <time>2020-01-16T12:38:49Z</time>
      </trkpt>
      <trkpt lat="46.52166" lon="5.90076">
        <ele>875.9</ele>
        <time>2020-01-16T12:38:54Z</time>
      </trkpt>
      <trkpt lat="46.5217" lon="5.90069">
        <ele>875.3</ele>
        <time>2020-01-16T12:38:59Z</time>
      </trkpt>
      <trkpt lat="46.52173" lon="5.90064">
        <ele>874.9</ele>
        <time>2020-01-16T12:39:03Z</time>
      </trkpt>
      <trkpt lat="46.52174" lon="5.90057">
        <ele>874.1</ele>
        <time>2020-01-16T12:39:12Z</time>
      </trkpt>
      <trkpt lat="46.52176" lon="5.9005">
        <ele>873.8</ele>
        <time>2020-01-16T12:39:16Z</time>
      </trkpt>
      <trkpt lat="46.52177" lon="5.90042">
        <ele>873.5</ele>
        <time>2020-01-16T12:39:20Z</time>
      </trkpt>
      <trkpt lat="46.52178" lon="5.90034">
        <ele>873.4</ele>
        <time>2020-01-16T12:39:25Z</time>
      </trkpt>
      <trkpt lat="46.52179" lon="5.90028">
        <ele>873.5</ele>
        <time>2020-01-16T12:39:29Z</time>
      </trkpt>
      <trkpt lat="46.5218" lon="5.90021">
        <ele>873.9</ele>
        <time>2020-01-16T12:39:35Z</time>
      </trkpt>
      <trkpt lat="46.52182" lon="5.90014">
        <ele>874.3</ele>
        <time>2020-01-16T12:39:39Z</time>
      </trkpt>
      <trkpt lat="46.52184" lon="5.90007">
        <ele>874.5</ele>
        <time>2020-01-16T12:39:43Z</time>
      </trkpt>
      <trkpt lat="46.52186" lon="5.90001">
        <ele>874.6</ele>
        <time>2020-01-16T12:39:48Z</time>
      </trkpt>
      <trkpt lat="46.52189" lon="5.89994">
        <ele>874.8</ele>
        <time>2020-01-16T12:39:52Z</time>
      </trkpt>
      <trkpt lat="46.52192" lon="5.89988">
        <ele>874.9</ele>
        <time>2020-01-16T12:39:56Z</time>
      </trkpt>
      <trkpt lat="46.52194" lon="5.89981">
        <ele>875.1</ele>
        <time>2020-01-16T12:40:00Z</time>
      </trkpt>
      <trkpt lat="46.52197" lon="5.89975">
        <ele>875.3</ele>
        <time>2020-01-16T12:40:05Z</time>
      </trkpt>
      <trkpt lat="46.52199" lon="5.89968">
        <ele>875.4</ele>
        <time>2020-01-16T12:40:09Z</time>
      </trkpt>
      <trkpt lat="46.522" lon="5.89961">
        <ele>875.5</ele>
        <time>2020-01-16T12:40:13Z</time>
      </trkpt>
      <trkpt lat="46.52202" lon="5.89953">
        <ele>875.8</ele>
        <time>2020-01-16T12:40:18Z</time>
      </trkpt>
      <trkpt lat="46.52203" lon="5.89946">
        <ele>876.1</ele>
        <time>2020-01-16T12:40:22Z</time>
      </trkpt>
      <trkpt lat="46.52204" lon="5.89939">
        <ele>876.3</ele>
        <time>2020-01-16T12:40:26Z</time>
      </trkpt>
      <trkpt lat="46.52204" lon="5.89933">
        <ele>876.5</ele>
        <time>2020-01-16T12:40:31Z</time>
      </trkpt>
      <trkpt lat="46.52205" lon="5.89925">
        <ele>876.7</ele>
        <time>2020-01-16T12:40:37Z</time>
      </trkpt>
      <trkpt lat="46.52206" lon="5.89918">
        <ele>877</ele>
        <time>2020-01-16T12:40:42Z</time>
      </trkpt>
      <trkpt lat="46.52207" lon="5.89911">
        <ele>877.2</ele>
        <time>2020-01-16T12:40:45Z</time>
      </trkpt>
      <trkpt lat="46.52207" lon="5.89903">
        <ele>877.3</ele>
        <time>2020-01-16T12:40:49Z</time>
      </trkpt>
      <trkpt lat="46.52207" lon="5.89895">
        <ele>877.5</ele>
        <time>2020-01-16T12:40:53Z</time>
      </trkpt>
      <trkpt lat="46.52207" lon="5.89888">
        <ele>877.6</ele>
        <time>2020-01-16T12:40:57Z</time>
      </trkpt>
      <trkpt lat="46.52207" lon="5.89881">
        <ele>877.7</ele>
        <time>2020-01-16T12:41:01Z</time>
      </trkpt>
      <trkpt lat="46.52207" lon="5.89874">
        <ele>877.8</ele>
        <time>2020-01-16T12:41:05Z</time>
      </trkpt>
      <trkpt lat="46.52208" lon="5.89866">
        <ele>877.9</ele>
        <time>2020-01-16T12:41:09Z</time>
      </trkpt>
      <trkpt lat="46.5221" lon="5.8986">
        <ele>878.5</ele>
        <time>2020-01-16T12:41:16Z</time>
      </trkpt>
      <trkpt lat="46.52213" lon="5.89855">
        <ele>879.6</ele>
        <time>2020-01-16T12:41:23Z</time>
      </trkpt>
      <trkpt lat="46.52217" lon="5.89849">
        <ele>880.3</ele>
        <time>2020-01-16T12:41:28Z</time>
      </trkpt>
      <trkpt lat="46.52219" lon="5.89843">
        <ele>880.6</ele>
        <time>2020-01-16T12:41:32Z</time>
      </trkpt>
      <trkpt lat="46.52222" lon="5.89838">
        <ele>880.9</ele>
        <time>2020-01-16T12:41:37Z</time>
      </trkpt>
      <trkpt lat="46.52226" lon="5.89831">
        <ele>881.1</ele>
        <time>2020-01-16T12:41:42Z</time>
      </trkpt>
      <trkpt lat="46.52229" lon="5.89826">
        <ele>881.4</ele>
        <time>2020-01-16T12:41:46Z</time>
      </trkpt>
      <trkpt lat="46.52232" lon="5.8982">
        <ele>881.5</ele>
        <time>2020-01-16T12:41:51Z</time>
      </trkpt>
      <trkpt lat="46.52235" lon="5.89815">
        <ele>881.7</ele>
        <time>2020-01-16T12:41:55Z</time>
      </trkpt>
      <trkpt lat="46.52238" lon="5.89809">
        <ele>882.1</ele>
        <time>2020-01-16T12:42:01Z</time>
      </trkpt>
      <trkpt lat="46.52242" lon="5.89803">
        <ele>882.5</ele>
        <time>2020-01-16T12:42:06Z</time>
      </trkpt>
      <trkpt lat="46.52245" lon="5.89798">
        <ele>882.4</ele>
        <time>2020-01-16T12:42:11Z</time>
      </trkpt>
      <trkpt lat="46.52248" lon="5.89793">
        <ele>882.4</ele>
        <time>2020-01-16T12:42:15Z</time>
      </trkpt>
      <trkpt lat="46.52252" lon="5.89786">
        <ele>882.3</ele>
        <time>2020-01-16T12:42:19Z</time>
      </trkpt>
      <trkpt lat="46.52256" lon="5.8978">
        <ele>882.1</ele>
        <time>2020-01-16T12:42:24Z</time>
      </trkpt>
      <trkpt lat="46.5226" lon="5.89774">
        <ele>882</ele>
        <time>2020-01-16T12:42:28Z</time>
      </trkpt>
      <trkpt lat="46.52264" lon="5.89768">
        <ele>882</ele>
        <time>2020-01-16T12:42:32Z</time>
      </trkpt>
      <trkpt lat="46.52268" lon="5.89763">
        <ele>881.6</ele>
        <time>2020-01-16T12:42:37Z</time>
      </trkpt>
      <trkpt lat="46.52271" lon="5.89756">
        <ele>881.3</ele>
        <time>2020-01-16T12:42:41Z</time>
      </trkpt>
      <trkpt lat="46.52274" lon="5.8975">
        <ele>880.8</ele>
        <time>2020-01-16T12:42:45Z</time>
      </trkpt>
      <trkpt lat="46.52278" lon="5.89744">
        <ele>880.5</ele>
        <time>2020-01-16T12:42:49Z</time>
      </trkpt>
      <trkpt lat="46.52283" lon="5.89741">
        <ele>880.3</ele>
        <time>2020-01-16T12:42:53Z</time>
      </trkpt>
      <trkpt lat="46.52287" lon="5.89737">
        <ele>880.2</ele>
        <time>2020-01-16T12:42:57Z</time>
      </trkpt>
      <trkpt lat="46.52291" lon="5.89734">
        <ele>880.1</ele>
        <time>2020-01-16T12:43:01Z</time>
      </trkpt>
      <trkpt lat="46.52296" lon="5.89731">
        <ele>880.2</ele>
        <time>2020-01-16T12:43:06Z</time>
      </trkpt>
      <trkpt lat="46.523" lon="5.89728">
        <ele>880.1</ele>
        <time>2020-01-16T12:43:12Z</time>
      </trkpt>
      <trkpt lat="46.52304" lon="5.89723">
        <ele>879.9</ele>
        <time>2020-01-16T12:43:16Z</time>
      </trkpt>
      <trkpt lat="46.52308" lon="5.89718">
        <ele>879.6</ele>
        <time>2020-01-16T12:43:20Z</time>
      </trkpt>
      <trkpt lat="46.52311" lon="5.89714">
        <ele>879.3</ele>
        <time>2020-01-16T12:43:24Z</time>
      </trkpt>
      <trkpt lat="46.52315" lon="5.89709">
        <ele>879</ele>
        <time>2020-01-16T12:43:28Z</time>
      </trkpt>
      <trkpt lat="46.52318" lon="5.89703">
        <ele>878.8</ele>
        <time>2020-01-16T12:43:32Z</time>
      </trkpt>
      <trkpt lat="46.52321" lon="5.89696">
        <ele>878.7</ele>
        <time>2020-01-16T12:43:37Z</time>
      </trkpt>
      <trkpt lat="46.52324" lon="5.89688">
        <ele>878.7</ele>
        <time>2020-01-16T12:43:41Z</time>
      </trkpt>
      <trkpt lat="46.52327" lon="5.89683">
        <ele>878.8</ele>
        <time>2020-01-16T12:43:44Z</time>
      </trkpt>
      <trkpt lat="46.52329" lon="5.89676">
        <ele>878.8</ele>
        <time>2020-01-16T12:43:48Z</time>
      </trkpt>
      <trkpt lat="46.52332" lon="5.89669">
        <ele>878.7</ele>
        <time>2020-01-16T12:43:53Z</time>
      </trkpt>
      <trkpt lat="46.52335" lon="5.89663">
        <ele>878.7</ele>
        <time>2020-01-16T12:43:58Z</time>
      </trkpt>
      <trkpt lat="46.52338" lon="5.89657">
        <ele>878.9</ele>
        <time>2020-01-16T12:44:02Z</time>
      </trkpt>
      <trkpt lat="46.52341" lon="5.89652">
        <ele>879.1</ele>
        <time>2020-01-16T12:44:06Z</time>
      </trkpt>
      <trkpt lat="46.52344" lon="5.89645">
        <ele>879.3</ele>
        <time>2020-01-16T12:44:11Z</time>
      </trkpt>
      <trkpt lat="46.52346" lon="5.89639">
        <ele>879.5</ele>
        <time>2020-01-16T12:44:14Z</time>
      </trkpt>
      <trkpt lat="46.52348" lon="5.89633">
        <ele>879.6</ele>
        <time>2020-01-16T12:44:17Z</time>
      </trkpt>
      <trkpt lat="46.5235" lon="5.89626">
        <ele>879.7</ele>
        <time>2020-01-16T12:44:20Z</time>
      </trkpt>
      <trkpt lat="46.52352" lon="5.89619">
        <ele>879.8</ele>
        <time>2020-01-16T12:44:24Z</time>
      </trkpt>
      <trkpt lat="46.52354" lon="5.89613">
        <ele>879.9</ele>
        <time>2020-01-16T12:44:27Z</time>
      </trkpt>
      <trkpt lat="46.52356" lon="5.89606">
        <ele>880</ele>
        <time>2020-01-16T12:44:31Z</time>
      </trkpt>
      <trkpt lat="46.52359" lon="5.89599">
        <ele>880.3</ele>
        <time>2020-01-16T12:44:37Z</time>
      </trkpt>
      <trkpt lat="46.52362" lon="5.89593">
        <ele>880.4</ele>
        <time>2020-01-16T12:44:42Z</time>
      </trkpt>
      <trkpt lat="46.52366" lon="5.89589">
        <ele>880.5</ele>
        <time>2020-01-16T12:44:47Z</time>
      </trkpt>
      <trkpt lat="46.5237" lon="5.89584">
        <ele>880.6</ele>
        <time>2020-01-16T12:44:51Z</time>
      </trkpt>
      <trkpt lat="46.52373" lon="5.89579">
        <ele>880.6</ele>
        <time>2020-01-16T12:44:55Z</time>
      </trkpt>
      <trkpt lat="46.52376" lon="5.89574">
        <ele>880.5</ele>
        <time>2020-01-16T12:45:00Z</time>
      </trkpt>
      <trkpt lat="46.5238" lon="5.89569">
        <ele>880.3</ele>
        <time>2020-01-16T12:45:05Z</time>
      </trkpt>
      <trkpt lat="46.52384" lon="5.89564">
        <ele>880</ele>
        <time>2020-01-16T12:45:09Z</time>
      </trkpt>
      <trkpt lat="46.52388" lon="5.89559">
        <ele>879.7</ele>
        <time>2020-01-16T12:45:13Z</time>
      </trkpt>
      <trkpt lat="46.52392" lon="5.89554">
        <ele>879.3</ele>
        <time>2020-01-16T12:45:17Z</time>
      </trkpt>
      <trkpt lat="46.52396" lon="5.8955">
        <ele>879</ele>
        <time>2020-01-16T12:45:22Z</time>
      </trkpt>
      <trkpt lat="46.52401" lon="5.89548">
        <ele>878.7</ele>
        <time>2020-01-16T12:45:28Z</time>
      </trkpt>
      <trkpt lat="46.52406" lon="5.89549">
        <ele>878.4</ele>
        <time>2020-01-16T12:45:33Z</time>
      </trkpt>
      <trkpt lat="46.52411" lon="5.89552">
        <ele>878.2</ele>
        <time>2020-01-16T12:45:38Z</time>
      </trkpt>
      <trkpt lat="46.52415" lon="5.89557">
        <ele>878</ele>
        <time>2020-01-16T12:45:42Z</time>
      </trkpt>
      <trkpt lat="46.52418" lon="5.89562">
        <ele>877.7</ele>
        <time>2020-01-16T12:45:46Z</time>
      </trkpt>
      <trkpt lat="46.52422" lon="5.89566">
        <ele>877.3</ele>
        <time>2020-01-16T12:45:51Z</time>
      </trkpt>
      <trkpt lat="46.52427" lon="5.8957">
        <ele>876.9</ele>
        <time>2020-01-16T12:45:56Z</time>
      </trkpt>
      <trkpt lat="46.52431" lon="5.89575">
        <ele>876.5</ele>
        <time>2020-01-16T12:46:02Z</time>
      </trkpt>
      <trkpt lat="46.52435" lon="5.8958">
        <ele>876.3</ele>
        <time>2020-01-16T12:46:07Z</time>
      </trkpt>
      <trkpt lat="46.5244" lon="5.89583">
        <ele>875.9</ele>
        <time>2020-01-16T12:46:12Z</time>
      </trkpt>
      <trkpt lat="46.52444" lon="5.89588">
        <ele>875.5</ele>
        <time>2020-01-16T12:46:17Z</time>
      </trkpt>
      <trkpt lat="46.52447" lon="5.89593">
        <ele>875.3</ele>
        <time>2020-01-16T12:46:22Z</time>
      </trkpt>
      <trkpt lat="46.52449" lon="5.89599">
        <ele>875.1</ele>
        <time>2020-01-16T12:46:26Z</time>
      </trkpt>
      <trkpt lat="46.52452" lon="5.89605">
        <ele>875</ele>
        <time>2020-01-16T12:46:30Z</time>
      </trkpt>
      <trkpt lat="46.52455" lon="5.8961">
        <ele>874.9</ele>
        <time>2020-01-16T12:46:35Z</time>
      </trkpt>
      <trkpt lat="46.52459" lon="5.89617">
        <ele>875</ele>
        <time>2020-01-16T12:46:40Z</time>
      </trkpt>
      <trkpt lat="46.52462" lon="5.89623">
        <ele>875.2</ele>
        <time>2020-01-16T12:46:44Z</time>
      </trkpt>
      <trkpt lat="46.52465" lon="5.89629">
        <ele>875.4</ele>
        <time>2020-01-16T12:46:49Z</time>
      </trkpt>
      <trkpt lat="46.52468" lon="5.89636">
        <ele>875.6</ele>
        <time>2020-01-16T12:46:53Z</time>
      </trkpt>
      <trkpt lat="46.52471" lon="5.89642">
        <ele>875.8</ele>
        <time>2020-01-16T12:46:58Z</time>
      </trkpt>
      <trkpt lat="46.52474" lon="5.89648">
        <ele>875.7</ele>
        <time>2020-01-16T12:47:04Z</time>
      </trkpt>
      <trkpt lat="46.52477" lon="5.89654">
        <ele>875.7</ele>
        <time>2020-01-16T12:47:08Z</time>
      </trkpt>
      <trkpt lat="46.5248" lon="5.8966">
        <ele>875.7</ele>
        <time>2020-01-16T12:47:12Z</time>
      </trkpt>
      <trkpt lat="46.52483" lon="5.89667">
        <ele>875.8</ele>
        <time>2020-01-16T12:47:17Z</time>
      </trkpt>
      <trkpt lat="46.52486" lon="5.89673">
        <ele>876</ele>
        <time>2020-01-16T12:47:21Z</time>
      </trkpt>
      <trkpt lat="46.5249" lon="5.89678">
        <ele>876</ele>
        <time>2020-01-16T12:47:26Z</time>
      </trkpt>
      <trkpt lat="46.52493" lon="5.89683">
        <ele>876.1</ele>
        <time>2020-01-16T12:47:32Z</time>
      </trkpt>
      <trkpt lat="46.52498" lon="5.89686">
        <ele>876</ele>
        <time>2020-01-16T12:47:36Z</time>
      </trkpt>
      <trkpt lat="46.52503" lon="5.89689">
        <ele>875.8</ele>
        <time>2020-01-16T12:47:40Z</time>
      </trkpt>
      <trkpt lat="46.52507" lon="5.89691">
        <ele>875.5</ele>
        <time>2020-01-16T12:47:44Z</time>
      </trkpt>
      <trkpt lat="46.52512" lon="5.89693">
        <ele>875</ele>
        <time>2020-01-16T12:47:49Z</time>
      </trkpt>
      <trkpt lat="46.52517" lon="5.89698">
        <ele>874.6</ele>
        <time>2020-01-16T12:47:57Z</time>
      </trkpt>
      <trkpt lat="46.52521" lon="5.89703">
        <ele>874.6</ele>
        <time>2020-01-16T12:48:01Z</time>
      </trkpt>
      <trkpt lat="46.52525" lon="5.89706">
        <ele>874.8</ele>
        <time>2020-01-16T12:48:05Z</time>
      </trkpt>
      <trkpt lat="46.5253" lon="5.89708">
        <ele>875.1</ele>
        <time>2020-01-16T12:48:09Z</time>
      </trkpt>
      <trkpt lat="46.52536" lon="5.89709">
        <ele>875.5</ele>
        <time>2020-01-16T12:48:15Z</time>
      </trkpt>
      <trkpt lat="46.52541" lon="5.89711">
        <ele>875.8</ele>
        <time>2020-01-16T12:48:18Z</time>
      </trkpt>
      <trkpt lat="46.52545" lon="5.89713">
        <ele>876.1</ele>
        <time>2020-01-16T12:48:22Z</time>
      </trkpt>
      <trkpt lat="46.5255" lon="5.89716">
        <ele>876.3</ele>
        <time>2020-01-16T12:48:26Z</time>
      </trkpt>
      <trkpt lat="46.52554" lon="5.89719">
        <ele>876.4</ele>
        <time>2020-01-16T12:48:30Z</time>
      </trkpt>
      <trkpt lat="46.52558" lon="5.89723">
        <ele>876.6</ele>
        <time>2020-01-16T12:48:34Z</time>
      </trkpt>
      <trkpt lat="46.52562" lon="5.89727">
        <ele>876.7</ele>
        <time>2020-01-16T12:48:38Z</time>
      </trkpt>
      <trkpt lat="46.52565" lon="5.89732">
        <ele>876.7</ele>
        <time>2020-01-16T12:48:42Z</time>
      </trkpt>
      <trkpt lat="46.5257" lon="5.89737">
        <ele>876.9</ele>
        <time>2020-01-16T12:48:47Z</time>
      </trkpt>
      <trkpt lat="46.52573" lon="5.89741">
        <ele>876.8</ele>
        <time>2020-01-16T12:48:51Z</time>
      </trkpt>
      <trkpt lat="46.52577" lon="5.89746">
        <ele>876.7</ele>
        <time>2020-01-16T12:48:55Z</time>
      </trkpt>
      <trkpt lat="46.5258" lon="5.89751">
        <ele>876.7</ele>
        <time>2020-01-16T12:48:59Z</time>
      </trkpt>
      <trkpt lat="46.52584" lon="5.89756">
        <ele>876.6</ele>
        <time>2020-01-16T12:49:03Z</time>
      </trkpt>
      <trkpt lat="46.52587" lon="5.89762">
        <ele>876.6</ele>
        <time>2020-01-16T12:49:08Z</time>
      </trkpt>
      <trkpt lat="46.5259" lon="5.89766">
        <ele>876.5</ele>
        <time>2020-01-16T12:49:14Z</time>
      </trkpt>
      <trkpt lat="46.52594" lon="5.89771">
        <ele>876.5</ele>
        <time>2020-01-16T12:49:18Z</time>
      </trkpt>
      <trkpt lat="46.52597" lon="5.89775">
        <ele>876.5</ele>
        <time>2020-01-16T12:49:22Z</time>
      </trkpt>
      <trkpt lat="46.52601" lon="5.8978">
        <ele>876.5</ele>
        <time>2020-01-16T12:49:27Z</time>
      </trkpt>
      <trkpt lat="46.52606" lon="5.89785">
        <ele>876.4</ele>
        <time>2020-01-16T12:49:31Z</time>
      </trkpt>
      <trkpt lat="46.52611" lon="5.8979">
        <ele>876.4</ele>
        <time>2020-01-16T12:49:35Z</time>
      </trkpt>
      <trkpt lat="46.52614" lon="5.89795">
        <ele>876.3</ele>
        <time>2020-01-16T12:49:38Z</time>
      </trkpt>
      <trkpt lat="46.52618" lon="5.89799">
        <ele>876.5</ele>
        <time>2020-01-16T12:49:42Z</time>
      </trkpt>
      <trkpt lat="46.52622" lon="5.89804">
        <ele>876.7</ele>
        <time>2020-01-16T12:49:46Z</time>
      </trkpt>
      <trkpt lat="46.52625" lon="5.89808">
        <ele>877</ele>
        <time>2020-01-16T12:49:53Z</time>
      </trkpt>
      <trkpt lat="46.52629" lon="5.89812">
        <ele>877.3</ele>
        <time>2020-01-16T12:49:58Z</time>
      </trkpt>
      <trkpt lat="46.52634" lon="5.89816">
        <ele>877.4</ele>
        <time>2020-01-16T12:50:03Z</time>
      </trkpt>
      <trkpt lat="46.52639" lon="5.89819">
        <ele>877.4</ele>
        <time>2020-01-16T12:50:07Z</time>
      </trkpt>
      <trkpt lat="46.52644" lon="5.89822">
        <ele>877.3</ele>
        <time>2020-01-16T12:50:12Z</time>
      </trkpt>
      <trkpt lat="46.52649" lon="5.89823">
        <ele>877.2</ele>
        <time>2020-01-16T12:50:17Z</time>
      </trkpt>
      <trkpt lat="46.52654" lon="5.89824">
        <ele>877.2</ele>
        <time>2020-01-16T12:50:21Z</time>
      </trkpt>
      <trkpt lat="46.52659" lon="5.89825">
        <ele>877</ele>
        <time>2020-01-16T12:50:25Z</time>
      </trkpt>
      <trkpt lat="46.52664" lon="5.89827">
        <ele>876.9</ele>
        <time>2020-01-16T12:50:29Z</time>
      </trkpt>
      <trkpt lat="46.52668" lon="5.89828">
        <ele>876.5</ele>
        <time>2020-01-16T12:50:33Z</time>
      </trkpt>
      <trkpt lat="46.52673" lon="5.89829">
        <ele>876.3</ele>
        <time>2020-01-16T12:50:37Z</time>
      </trkpt>
      <trkpt lat="46.52678" lon="5.89831">
        <ele>876.2</ele>
        <time>2020-01-16T12:50:42Z</time>
      </trkpt>
      <trkpt lat="46.52682" lon="5.89831">
        <ele>876.1</ele>
        <time>2020-01-16T12:50:49Z</time>
      </trkpt>
      <trkpt lat="46.52687" lon="5.89829">
        <ele>876.2</ele>
        <time>2020-01-16T12:50:53Z</time>
      </trkpt>
      <trkpt lat="46.52692" lon="5.89826">
        <ele>876.3</ele>
        <time>2020-01-16T12:50:57Z</time>
      </trkpt>
      <trkpt lat="46.52696" lon="5.89821">
        <ele>876.4</ele>
        <time>2020-01-16T12:51:02Z</time>
      </trkpt>
      <trkpt lat="46.52699" lon="5.89816">
        <ele>876.5</ele>
        <time>2020-01-16T12:51:06Z</time>
      </trkpt>
      <trkpt lat="46.52703" lon="5.89812">
        <ele>876.8</ele>
        <time>2020-01-16T12:51:12Z</time>
      </trkpt>
      <trkpt lat="46.52708" lon="5.89809">
        <ele>877.1</ele>
        <time>2020-01-16T12:51:17Z</time>
      </trkpt>
      <trkpt lat="46.52713" lon="5.8981">
        <ele>877.3</ele>
        <time>2020-01-16T12:51:21Z</time>
      </trkpt>
      <trkpt lat="46.52717" lon="5.89809">
        <ele>877.4</ele>
        <time>2020-01-16T12:51:24Z</time>
      </trkpt>
      <trkpt lat="46.52723" lon="5.89809">
        <ele>877.8</ele>
        <time>2020-01-16T12:51:28Z</time>
      </trkpt>
      <trkpt lat="46.52728" lon="5.8981">
        <ele>878.4</ele>
        <time>2020-01-16T12:51:33Z</time>
      </trkpt>
      <trkpt lat="46.52733" lon="5.89811">
        <ele>879.1</ele>
        <time>2020-01-16T12:51:38Z</time>
      </trkpt>
      <trkpt lat="46.52738" lon="5.89811">
        <ele>879.7</ele>
        <time>2020-01-16T12:51:42Z</time>
      </trkpt>
      <trkpt lat="46.52743" lon="5.89809">
        <ele>880.3</ele>
        <time>2020-01-16T12:51:48Z</time>
      </trkpt>
      <trkpt lat="46.52747" lon="5.89804">
        <ele>881.2</ele>
        <time>2020-01-16T12:51:56Z</time>
      </trkpt>
      <trkpt lat="46.52749" lon="5.89799">
        <ele>881.8</ele>
        <time>2020-01-16T12:52:01Z</time>
      </trkpt>
      <trkpt lat="46.52752" lon="5.89792">
        <ele>882.4</ele>
        <time>2020-01-16T12:52:05Z</time>
      </trkpt>
      <trkpt lat="46.52754" lon="5.89786">
        <ele>883.3</ele>
        <time>2020-01-16T12:52:10Z</time>
      </trkpt>
      <trkpt lat="46.52756" lon="5.89779">
        <ele>884.2</ele>
        <time>2020-01-16T12:52:15Z</time>
      </trkpt>
      <trkpt lat="46.52761" lon="5.89776">
        <ele>885.1</ele>
        <time>2020-01-16T12:52:22Z</time>
      </trkpt>
      <trkpt lat="46.52765" lon="5.89779">
        <ele>885.6</ele>
        <time>2020-01-16T12:52:27Z</time>
      </trkpt>
      <trkpt lat="46.5277" lon="5.8978">
        <ele>886.2</ele>
        <time>2020-01-16T12:52:31Z</time>
      </trkpt>
      <trkpt lat="46.52775" lon="5.89783">
        <ele>887.1</ele>
        <time>2020-01-16T12:52:37Z</time>
      </trkpt>
      <trkpt lat="46.52781" lon="5.89785">
        <ele>888</ele>
        <time>2020-01-16T12:52:43Z</time>
      </trkpt>
      <trkpt lat="46.52785" lon="5.89787">
        <ele>888.6</ele>
        <time>2020-01-16T12:52:47Z</time>
      </trkpt>
      <trkpt lat="46.52789" lon="5.8979">
        <ele>889</ele>
        <time>2020-01-16T12:52:50Z</time>
      </trkpt>
      <trkpt lat="46.52794" lon="5.89793">
        <ele>889.4</ele>
        <time>2020-01-16T12:52:54Z</time>
      </trkpt>
      <trkpt lat="46.52799" lon="5.89795">
        <ele>889.8</ele>
        <time>2020-01-16T12:52:59Z</time>
      </trkpt>
      <trkpt lat="46.52804" lon="5.89796">
        <ele>890.2</ele>
        <time>2020-01-16T12:53:04Z</time>
      </trkpt>
      <trkpt lat="46.52808" lon="5.89798">
        <ele>890.8</ele>
        <time>2020-01-16T12:53:10Z</time>
      </trkpt>
      <trkpt lat="46.52813" lon="5.89799">
        <ele>891.3</ele>
        <time>2020-01-16T12:53:15Z</time>
      </trkpt>
      <trkpt lat="46.52819" lon="5.89799">
        <ele>891.8</ele>
        <time>2020-01-16T12:53:20Z</time>
      </trkpt>
      <trkpt lat="46.52824" lon="5.898">
        <ele>892.3</ele>
        <time>2020-01-16T12:53:24Z</time>
      </trkpt>
      <trkpt lat="46.52829" lon="5.89802">
        <ele>892.6</ele>
        <time>2020-01-16T12:53:28Z</time>
      </trkpt>
      <trkpt lat="46.52834" lon="5.89803">
        <ele>892.9</ele>
        <time>2020-01-16T12:53:32Z</time>
      </trkpt>
      <trkpt lat="46.52839" lon="5.89805">
        <ele>893.1</ele>
        <time>2020-01-16T12:53:38Z</time>
      </trkpt>
      <trkpt lat="46.52844" lon="5.89807">
        <ele>893.1</ele>
        <time>2020-01-16T12:53:43Z</time>
      </trkpt>
      <trkpt lat="46.5285" lon="5.89809">
        <ele>893.2</ele>
        <time>2020-01-16T12:53:47Z</time>
      </trkpt>
      <trkpt lat="46.52855" lon="5.89811">
        <ele>893.5</ele>
        <time>2020-01-16T12:53:53Z</time>
      </trkpt>
      <trkpt lat="46.52859" lon="5.89814">
        <ele>893.6</ele>
        <time>2020-01-16T12:53:57Z</time>
      </trkpt>
      <trkpt lat="46.52864" lon="5.89815">
        <ele>893.9</ele>
        <time>2020-01-16T12:54:04Z</time>
      </trkpt>
      <trkpt lat="46.52868" lon="5.89816">
        <ele>894</ele>
        <time>2020-01-16T12:54:10Z</time>
      </trkpt>
      <trkpt lat="46.52873" lon="5.89819">
        <ele>894</ele>
        <time>2020-01-16T12:54:14Z</time>
      </trkpt>
      <trkpt lat="46.52879" lon="5.89821">
        <ele>894.1</ele>
        <time>2020-01-16T12:54:19Z</time>
      </trkpt>
      <trkpt lat="46.52883" lon="5.89824">
        <ele>894.1</ele>
        <time>2020-01-16T12:54:24Z</time>
      </trkpt>
      <trkpt lat="46.52888" lon="5.89825">
        <ele>894.2</ele>
        <time>2020-01-16T12:54:30Z</time>
      </trkpt>
      <trkpt lat="46.52893" lon="5.89826">
        <ele>894.1</ele>
        <time>2020-01-16T12:54:34Z</time>
      </trkpt>
      <trkpt lat="46.52897" lon="5.89827">
        <ele>894</ele>
        <time>2020-01-16T12:54:37Z</time>
      </trkpt>
      <trkpt lat="46.52902" lon="5.89829">
        <ele>893.9</ele>
        <time>2020-01-16T12:54:41Z</time>
      </trkpt>
      <trkpt lat="46.52907" lon="5.89829">
        <ele>893.8</ele>
        <time>2020-01-16T12:54:46Z</time>
      </trkpt>
      <trkpt lat="46.52913" lon="5.8983">
        <ele>893.8</ele>
        <time>2020-01-16T12:54:51Z</time>
      </trkpt>
      <trkpt lat="46.52918" lon="5.89831">
        <ele>893.6</ele>
        <time>2020-01-16T12:54:55Z</time>
      </trkpt>
      <trkpt lat="46.52922" lon="5.89831">
        <ele>893.6</ele>
        <time>2020-01-16T12:54:58Z</time>
      </trkpt>
      <trkpt lat="46.52927" lon="5.89831">
        <ele>893.5</ele>
        <time>2020-01-16T12:55:01Z</time>
      </trkpt>
      <trkpt lat="46.52932" lon="5.89833">
        <ele>893.5</ele>
        <time>2020-01-16T12:55:07Z</time>
      </trkpt>
      <trkpt lat="46.52936" lon="5.89837">
        <ele>893.1</ele>
        <time>2020-01-16T12:55:14Z</time>
      </trkpt>
      <trkpt lat="46.52941" lon="5.89839">
        <ele>892.9</ele>
        <time>2020-01-16T12:55:18Z</time>
      </trkpt>
      <trkpt lat="46.52945" lon="5.89841">
        <ele>892.9</ele>
        <time>2020-01-16T12:55:21Z</time>
      </trkpt>
      <trkpt lat="46.5295" lon="5.89842">
        <ele>893</ele>
        <time>2020-01-16T12:55:30Z</time>
      </trkpt>
      <trkpt lat="46.52954" lon="5.89842">
        <ele>892.9</ele>
        <time>2020-01-16T12:55:35Z</time>
      </trkpt>
      <trkpt lat="46.5296" lon="5.89845">
        <ele>892.8</ele>
        <time>2020-01-16T12:55:40Z</time>
      </trkpt>
      <trkpt lat="46.52966" lon="5.89846">
        <ele>892.7</ele>
        <time>2020-01-16T12:55:43Z</time>
      </trkpt>
      <trkpt lat="46.52971" lon="5.89847">
        <ele>892.7</ele>
        <time>2020-01-16T12:55:46Z</time>
      </trkpt>
      <trkpt lat="46.52975" lon="5.8985">
        <ele>892.7</ele>
        <time>2020-01-16T12:55:52Z</time>
      </trkpt>
      <trkpt lat="46.5298" lon="5.89851">
        <ele>892.7</ele>
        <time>2020-01-16T12:56:02Z</time>
      </trkpt>
      <trkpt lat="46.52985" lon="5.89853">
        <ele>892.6</ele>
        <time>2020-01-16T12:56:08Z</time>
      </trkpt>
      <trkpt lat="46.5299" lon="5.89854">
        <ele>892.8</ele>
        <time>2020-01-16T12:56:15Z</time>
      </trkpt>
      <trkpt lat="46.52994" lon="5.89854">
        <ele>892.9</ele>
        <time>2020-01-16T12:56:20Z</time>
      </trkpt>
      <trkpt lat="46.52999" lon="5.89856">
        <ele>893</ele>
        <time>2020-01-16T12:56:24Z</time>
      </trkpt>
      <trkpt lat="46.53004" lon="5.89858">
        <ele>893.1</ele>
        <time>2020-01-16T12:56:28Z</time>
      </trkpt>
      <trkpt lat="46.53009" lon="5.89862">
        <ele>893.3</ele>
        <time>2020-01-16T12:56:32Z</time>
      </trkpt>
      <trkpt lat="46.53014" lon="5.89865">
        <ele>893.4</ele>
        <time>2020-01-16T12:56:36Z</time>
      </trkpt>
      <trkpt lat="46.53018" lon="5.89869">
        <ele>893.4</ele>
        <time>2020-01-16T12:56:40Z</time>
      </trkpt>
      <trkpt lat="46.53022" lon="5.89873">
        <ele>893.3</ele>
        <time>2020-01-16T12:56:44Z</time>
      </trkpt>
      <trkpt lat="46.53025" lon="5.89878">
        <ele>893.2</ele>
        <time>2020-01-16T12:56:49Z</time>
      </trkpt>
      <trkpt lat="46.53029" lon="5.89882">
        <ele>893.1</ele>
        <time>2020-01-16T12:56:54Z</time>
      </trkpt>
      <trkpt lat="46.53033" lon="5.89886">
        <ele>893.2</ele>
        <time>2020-01-16T12:57:00Z</time>
      </trkpt>
      <trkpt lat="46.53037" lon="5.8989">
        <ele>893.2</ele>
        <time>2020-01-16T12:57:04Z</time>
      </trkpt>
      <trkpt lat="46.53041" lon="5.89895">
        <ele>893.4</ele>
        <time>2020-01-16T12:57:09Z</time>
      </trkpt>
      <trkpt lat="46.53045" lon="5.899">
        <ele>893.7</ele>
        <time>2020-01-16T12:57:14Z</time>
      </trkpt>
      <trkpt lat="46.53048" lon="5.89905">
        <ele>893.8</ele>
        <time>2020-01-16T12:57:19Z</time>
      </trkpt>
      <trkpt lat="46.53052" lon="5.89911">
        <ele>893.9</ele>
        <time>2020-01-16T12:57:24Z</time>
      </trkpt>
      <trkpt lat="46.53056" lon="5.89915">
        <ele>893.9</ele>
        <time>2020-01-16T12:57:30Z</time>
      </trkpt>
      <trkpt lat="46.53061" lon="5.8992">
        <ele>893.8</ele>
        <time>2020-01-16T12:57:36Z</time>
      </trkpt>
      <trkpt lat="46.53065" lon="5.89925">
        <ele>893.8</ele>
        <time>2020-01-16T12:57:40Z</time>
      </trkpt>
      <trkpt lat="46.53069" lon="5.89931">
        <ele>893.9</ele>
        <time>2020-01-16T12:57:44Z</time>
      </trkpt>
      <trkpt lat="46.53073" lon="5.89936">
        <ele>894</ele>
        <time>2020-01-16T12:57:48Z</time>
      </trkpt>
      <trkpt lat="46.53077" lon="5.89939">
        <ele>894.1</ele>
        <time>2020-01-16T12:57:52Z</time>
      </trkpt>
      <trkpt lat="46.53082" lon="5.89943">
        <ele>894</ele>
        <time>2020-01-16T12:57:58Z</time>
      </trkpt>
      <trkpt lat="46.53086" lon="5.89946">
        <ele>894</ele>
        <time>2020-01-16T12:58:03Z</time>
      </trkpt>
      <trkpt lat="46.5309" lon="5.8995">
        <ele>894</ele>
        <time>2020-01-16T12:58:08Z</time>
      </trkpt>
      <trkpt lat="46.53094" lon="5.89954">
        <ele>894.1</ele>
        <time>2020-01-16T12:58:12Z</time>
      </trkpt>
      <trkpt lat="46.53099" lon="5.89958">
        <ele>894.2</ele>
        <time>2020-01-16T12:58:17Z</time>
      </trkpt>
      <trkpt lat="46.53103" lon="5.89962">
        <ele>894.2</ele>
        <time>2020-01-16T12:58:21Z</time>
      </trkpt>
      <trkpt lat="46.53108" lon="5.89965">
        <ele>894.2</ele>
        <time>2020-01-16T12:58:26Z</time>
      </trkpt>
      <trkpt lat="46.53112" lon="5.89969">
        <ele>894.3</ele>
        <time>2020-01-16T12:58:30Z</time>
      </trkpt>
      <trkpt lat="46.53117" lon="5.89974">
        <ele>894.4</ele>
        <time>2020-01-16T12:58:34Z</time>
      </trkpt>
      <trkpt lat="46.5312" lon="5.89979">
        <ele>894.4</ele>
        <time>2020-01-16T12:58:38Z</time>
      </trkpt>
      <trkpt lat="46.53123" lon="5.89986">
        <ele>894.5</ele>
        <time>2020-01-16T12:58:43Z</time>
      </trkpt>
      <trkpt lat="46.53125" lon="5.89992">
        <ele>894.6</ele>
        <time>2020-01-16T12:58:48Z</time>
      </trkpt>
      <trkpt lat="46.53127" lon="5.9">
        <ele>894.5</ele>
        <time>2020-01-16T12:58:52Z</time>
      </trkpt>
      <trkpt lat="46.53129" lon="5.90007">
        <ele>894.5</ele>
        <time>2020-01-16T12:58:56Z</time>
      </trkpt>
      <trkpt lat="46.53131" lon="5.90013">
        <ele>894.6</ele>
        <time>2020-01-16T12:59:02Z</time>
      </trkpt>
      <trkpt lat="46.53133" lon="5.90019">
        <ele>894.8</ele>
        <time>2020-01-16T12:59:07Z</time>
      </trkpt>
      <trkpt lat="46.53135" lon="5.90025">
        <ele>894.6</ele>
        <time>2020-01-16T12:59:20Z</time>
      </trkpt>
      <trkpt lat="46.53137" lon="5.90033">
        <ele>894.2</ele>
        <time>2020-01-16T12:59:25Z</time>
      </trkpt>
      <trkpt lat="46.53139" lon="5.90039">
        <ele>893.9</ele>
        <time>2020-01-16T12:59:29Z</time>
      </trkpt>
      <trkpt lat="46.53141" lon="5.90046">
        <ele>893.7</ele>
        <time>2020-01-16T12:59:33Z</time>
      </trkpt>
      <trkpt lat="46.53144" lon="5.90052">
        <ele>893.7</ele>
        <time>2020-01-16T12:59:37Z</time>
      </trkpt>
      <trkpt lat="46.53147" lon="5.90058">
        <ele>893.8</ele>
        <time>2020-01-16T12:59:41Z</time>
      </trkpt>
      <trkpt lat="46.53151" lon="5.90064">
        <ele>894.1</ele>
        <time>2020-01-16T12:59:45Z</time>
      </trkpt>
      <trkpt lat="46.53154" lon="5.90068">
        <ele>894.6</ele>
        <time>2020-01-16T12:59:49Z</time>
      </trkpt>
      <trkpt lat="46.53158" lon="5.90072">
        <ele>895.1</ele>
        <time>2020-01-16T12:59:53Z</time>
      </trkpt>
      <trkpt lat="46.53163" lon="5.90077">
        <ele>895.7</ele>
        <time>2020-01-16T12:59:58Z</time>
      </trkpt>
      <trkpt lat="46.53166" lon="5.90082">
        <ele>896.2</ele>
        <time>2020-01-16T13:00:02Z</time>
      </trkpt>
      <trkpt lat="46.5317" lon="5.90087">
        <ele>896.6</ele>
        <time>2020-01-16T13:00:07Z</time>
      </trkpt>
      <trkpt lat="46.53173" lon="5.90092">
        <ele>896.9</ele>
        <time>2020-01-16T13:00:12Z</time>
      </trkpt>
      <trkpt lat="46.53177" lon="5.90097">
        <ele>897.2</ele>
        <time>2020-01-16T13:00:17Z</time>
      </trkpt>
      <trkpt lat="46.5318" lon="5.90103">
        <ele>897.4</ele>
        <time>2020-01-16T13:00:22Z</time>
      </trkpt>
      <trkpt lat="46.53184" lon="5.90109">
        <ele>897.6</ele>
        <time>2020-01-16T13:00:27Z</time>
      </trkpt>
      <trkpt lat="46.53187" lon="5.90115">
        <ele>897.8</ele>
        <time>2020-01-16T13:00:31Z</time>
      </trkpt>
      <trkpt lat="46.5319" lon="5.9012">
        <ele>897.8</ele>
        <time>2020-01-16T13:00:36Z</time>
      </trkpt>
      <trkpt lat="46.53194" lon="5.90125">
        <ele>897.8</ele>
        <time>2020-01-16T13:00:41Z</time>
      </trkpt>
      <trkpt lat="46.53198" lon="5.9013">
        <ele>897.8</ele>
        <time>2020-01-16T13:00:46Z</time>
      </trkpt>
      <trkpt lat="46.53202" lon="5.90135">
        <ele>897.8</ele>
        <time>2020-01-16T13:00:50Z</time>
      </trkpt>
      <trkpt lat="46.53207" lon="5.90139">
        <ele>898</ele>
        <time>2020-01-16T13:00:55Z</time>
      </trkpt>
      <trkpt lat="46.53211" lon="5.90142">
        <ele>898.4</ele>
        <time>2020-01-16T13:01:00Z</time>
      </trkpt>
      <trkpt lat="46.53215" lon="5.90145">
        <ele>898.8</ele>
        <time>2020-01-16T13:01:05Z</time>
      </trkpt>
      <trkpt lat="46.5322" lon="5.90149">
        <ele>899.1</ele>
        <time>2020-01-16T13:01:10Z</time>
      </trkpt>
      <trkpt lat="46.53224" lon="5.90153">
        <ele>899.5</ele>
        <time>2020-01-16T13:01:15Z</time>
      </trkpt>
      <trkpt lat="46.53228" lon="5.90156">
        <ele>899.8</ele>
        <time>2020-01-16T13:01:19Z</time>
      </trkpt>
      <trkpt lat="46.53233" lon="5.90159">
        <ele>900.1</ele>
        <time>2020-01-16T13:01:23Z</time>
      </trkpt>
      <trkpt lat="46.53238" lon="5.90163">
        <ele>900.1</ele>
        <time>2020-01-16T13:01:28Z</time>
      </trkpt>
      <trkpt lat="46.53242" lon="5.90166">
        <ele>899.9</ele>
        <time>2020-01-16T13:01:33Z</time>
      </trkpt>
      <trkpt lat="46.53246" lon="5.9017">
        <ele>899.8</ele>
        <time>2020-01-16T13:01:37Z</time>
      </trkpt>
      <trkpt lat="46.5325" lon="5.90175">
        <ele>899.7</ele>
        <time>2020-01-16T13:01:42Z</time>
      </trkpt>
      <trkpt lat="46.53254" lon="5.90179">
        <ele>899.6</ele>
        <time>2020-01-16T13:01:47Z</time>
      </trkpt>
      <trkpt lat="46.53258" lon="5.90184">
        <ele>899.4</ele>
        <time>2020-01-16T13:01:53Z</time>
      </trkpt>
      <trkpt lat="46.53262" lon="5.90187">
        <ele>899.2</ele>
        <time>2020-01-16T13:01:57Z</time>
      </trkpt>
      <trkpt lat="46.53266" lon="5.90191">
        <ele>899.1</ele>
        <time>2020-01-16T13:02:01Z</time>
      </trkpt>
      <trkpt lat="46.53271" lon="5.90196">
        <ele>898.9</ele>
        <time>2020-01-16T13:02:05Z</time>
      </trkpt>
      <trkpt lat="46.53275" lon="5.90199">
        <ele>899.1</ele>
        <time>2020-01-16T13:02:10Z</time>
      </trkpt>
      <trkpt lat="46.53279" lon="5.90202">
        <ele>899.3</ele>
        <time>2020-01-16T13:02:15Z</time>
      </trkpt>
      <trkpt lat="46.53283" lon="5.90208">
        <ele>899.5</ele>
        <time>2020-01-16T13:02:19Z</time>
      </trkpt>
      <trkpt lat="46.53292" lon="5.90222">
        <ele>899.7</ele>
        <time>2020-01-16T13:02:31Z</time>
      </trkpt>
      <trkpt lat="46.53295" lon="5.90228">
        <ele>899.5</ele>
        <time>2020-01-16T13:02:36Z</time>
      </trkpt>
      <trkpt lat="46.533" lon="5.90231">
        <ele>899.5</ele>
        <time>2020-01-16T13:02:42Z</time>
      </trkpt>
      <trkpt lat="46.53304" lon="5.90235">
        <ele>899.7</ele>
        <time>2020-01-16T13:02:47Z</time>
      </trkpt>
      <trkpt lat="46.5331" lon="5.90239">
        <ele>900</ele>
        <time>2020-01-16T13:02:51Z</time>
      </trkpt>
      <trkpt lat="46.53314" lon="5.90242">
        <ele>900.2</ele>
        <time>2020-01-16T13:02:54Z</time>
      </trkpt>
      <trkpt lat="46.53318" lon="5.90245">
        <ele>900.3</ele>
        <time>2020-01-16T13:02:57Z</time>
      </trkpt>
      <trkpt lat="46.53323" lon="5.90249">
        <ele>900.2</ele>
        <time>2020-01-16T13:03:01Z</time>
      </trkpt>
      <trkpt lat="46.53328" lon="5.90253">
        <ele>900</ele>
        <time>2020-01-16T13:03:05Z</time>
      </trkpt>
      <trkpt lat="46.53332" lon="5.90257">
        <ele>899.8</ele>
        <time>2020-01-16T13:03:10Z</time>
      </trkpt>
      <trkpt lat="46.53336" lon="5.90261">
        <ele>899.7</ele>
        <time>2020-01-16T13:03:15Z</time>
      </trkpt>
      <trkpt lat="46.53341" lon="5.90264">
        <ele>899.8</ele>
        <time>2020-01-16T13:03:20Z</time>
      </trkpt>
      <trkpt lat="46.53345" lon="5.90267">
        <ele>899.8</ele>
        <time>2020-01-16T13:03:24Z</time>
      </trkpt>
      <trkpt lat="46.5335" lon="5.90271">
        <ele>899.4</ele>
        <time>2020-01-16T13:03:29Z</time>
      </trkpt>
      <trkpt lat="46.53354" lon="5.90274">
        <ele>898.9</ele>
        <time>2020-01-16T13:03:33Z</time>
      </trkpt>
      <trkpt lat="46.53358" lon="5.90278">
        <ele>898.3</ele>
        <time>2020-01-16T13:03:37Z</time>
      </trkpt>
      <trkpt lat="46.53361" lon="5.90283">
        <ele>897.6</ele>
        <time>2020-01-16T13:03:42Z</time>
      </trkpt>
      <trkpt lat="46.53365" lon="5.90288">
        <ele>897.1</ele>
        <time>2020-01-16T13:03:48Z</time>
      </trkpt>
      <trkpt lat="46.53369" lon="5.90293">
        <ele>896.5</ele>
        <time>2020-01-16T13:03:54Z</time>
      </trkpt>
      <trkpt lat="46.53374" lon="5.90298">
        <ele>896.1</ele>
        <time>2020-01-16T13:03:59Z</time>
      </trkpt>
      <trkpt lat="46.53379" lon="5.90303">
        <ele>895.7</ele>
        <time>2020-01-16T13:04:03Z</time>
      </trkpt>
      <trkpt lat="46.53382" lon="5.90309">
        <ele>895.3</ele>
        <time>2020-01-16T13:04:08Z</time>
      </trkpt>
      <trkpt lat="46.53385" lon="5.90314">
        <ele>895.1</ele>
        <time>2020-01-16T13:04:12Z</time>
      </trkpt>
      <trkpt lat="46.53388" lon="5.9032">
        <ele>894.7</ele>
        <time>2020-01-16T13:04:17Z</time>
      </trkpt>
      <trkpt lat="46.53391" lon="5.90325">
        <ele>894.1</ele>
        <time>2020-01-16T13:04:22Z</time>
      </trkpt>
      <trkpt lat="46.53394" lon="5.90331">
        <ele>893.6</ele>
        <time>2020-01-16T13:04:27Z</time>
      </trkpt>
      <trkpt lat="46.53395" lon="5.90338">
        <ele>893</ele>
        <time>2020-01-16T13:04:32Z</time>
      </trkpt>
      <trkpt lat="46.53397" lon="5.90346">
        <ele>892.5</ele>
        <time>2020-01-16T13:04:37Z</time>
      </trkpt>
      <trkpt lat="46.53398" lon="5.90353">
        <ele>892</ele>
        <time>2020-01-16T13:04:43Z</time>
      </trkpt>
      <trkpt lat="46.53397" lon="5.90361">
        <ele>891.4</ele>
        <time>2020-01-16T13:04:48Z</time>
      </trkpt>
      <trkpt lat="46.53396" lon="5.90368">
        <ele>890.8</ele>
        <time>2020-01-16T13:04:52Z</time>
      </trkpt>
      <trkpt lat="46.53396" lon="5.90375">
        <ele>890.2</ele>
        <time>2020-01-16T13:04:56Z</time>
      </trkpt>
      <trkpt lat="46.53397" lon="5.90382">
        <ele>889.5</ele>
        <time>2020-01-16T13:05:00Z</time>
      </trkpt>
      <trkpt lat="46.53399" lon="5.90389">
        <ele>888.5</ele>
        <time>2020-01-16T13:05:05Z</time>
      </trkpt>
      <trkpt lat="46.53402" lon="5.90395">
        <ele>887.6</ele>
        <time>2020-01-16T13:05:09Z</time>
      </trkpt>
      <trkpt lat="46.53405" lon="5.90401">
        <ele>886.3</ele>
        <time>2020-01-16T13:05:15Z</time>
      </trkpt>
      <trkpt lat="46.53408" lon="5.90408">
        <ele>885.6</ele>
        <time>2020-01-16T13:05:19Z</time>
      </trkpt>
      <trkpt lat="46.53412" lon="5.90412">
        <ele>885.1</ele>
        <time>2020-01-16T13:05:24Z</time>
      </trkpt>
      <trkpt lat="46.53417" lon="5.90415">
        <ele>884.9</ele>
        <time>2020-01-16T13:05:29Z</time>
      </trkpt>
      <trkpt lat="46.53421" lon="5.90419">
        <ele>884.8</ele>
        <time>2020-01-16T13:05:34Z</time>
      </trkpt>
      <trkpt lat="46.53426" lon="5.90422">
        <ele>884.9</ele>
        <time>2020-01-16T13:05:39Z</time>
      </trkpt>
      <trkpt lat="46.5343" lon="5.90425">
        <ele>885.1</ele>
        <time>2020-01-16T13:05:43Z</time>
      </trkpt>
      <trkpt lat="46.53434" lon="5.90426">
        <ele>885.1</ele>
        <time>2020-01-16T13:05:48Z</time>
      </trkpt>
      <trkpt lat="46.53439" lon="5.90426">
        <ele>885.2</ele>
        <time>2020-01-16T13:05:53Z</time>
      </trkpt>
      <trkpt lat="46.53443" lon="5.90424">
        <ele>885.5</ele>
        <time>2020-01-16T13:06:00Z</time>
      </trkpt>
      <trkpt lat="46.53445" lon="5.90417">
        <ele>885.7</ele>
        <time>2020-01-16T13:06:07Z</time>
      </trkpt>
      <trkpt lat="46.53445" lon="5.9041">
        <ele>885.7</ele>
        <time>2020-01-16T13:06:11Z</time>
      </trkpt>
      <trkpt lat="46.53445" lon="5.90403">
        <ele>885.8</ele>
        <time>2020-01-16T13:06:15Z</time>
      </trkpt>
      <trkpt lat="46.53446" lon="5.90385">
        <ele>885.5</ele>
        <time>2020-01-16T13:06:26Z</time>
      </trkpt>
      <trkpt lat="46.53448" lon="5.90379">
        <ele>885.2</ele>
        <time>2020-01-16T13:06:30Z</time>
      </trkpt>
      <trkpt lat="46.53451" lon="5.90373">
        <ele>884.8</ele>
        <time>2020-01-16T13:06:35Z</time>
      </trkpt>
      <trkpt lat="46.53453" lon="5.90366">
        <ele>884.4</ele>
        <time>2020-01-16T13:06:40Z</time>
      </trkpt>
      <trkpt lat="46.53456" lon="5.90361">
        <ele>884.1</ele>
        <time>2020-01-16T13:06:44Z</time>
      </trkpt>
      <trkpt lat="46.53459" lon="5.90355">
        <ele>883.8</ele>
        <time>2020-01-16T13:06:48Z</time>
      </trkpt>
      <trkpt lat="46.53463" lon="5.90348">
        <ele>883.7</ele>
        <time>2020-01-16T13:06:53Z</time>
      </trkpt>
      <trkpt lat="46.53468" lon="5.90344">
        <ele>883.8</ele>
        <time>2020-01-16T13:06:57Z</time>
      </trkpt>
      <trkpt lat="46.53472" lon="5.90343">
        <ele>883.8</ele>
        <time>2020-01-16T13:07:01Z</time>
      </trkpt>
      <trkpt lat="46.53477" lon="5.90343">
        <ele>883.9</ele>
        <time>2020-01-16T13:07:06Z</time>
      </trkpt>
      <trkpt lat="46.53482" lon="5.90345">
        <ele>884.1</ele>
        <time>2020-01-16T13:07:10Z</time>
      </trkpt>
      <trkpt lat="46.53485" lon="5.90349">
        <ele>884.4</ele>
        <time>2020-01-16T13:07:15Z</time>
      </trkpt>
      <trkpt lat="46.53489" lon="5.90354">
        <ele>884.6</ele>
        <time>2020-01-16T13:07:20Z</time>
      </trkpt>
      <trkpt lat="46.53494" lon="5.90356">
        <ele>884.7</ele>
        <time>2020-01-16T13:07:25Z</time>
      </trkpt>
      <trkpt lat="46.53498" lon="5.90361">
        <ele>885</ele>
        <time>2020-01-16T13:07:29Z</time>
      </trkpt>
      <trkpt lat="46.53503" lon="5.90366">
        <ele>885.2</ele>
        <time>2020-01-16T13:07:32Z</time>
      </trkpt>
      <trkpt lat="46.53508" lon="5.9037">
        <ele>885.5</ele>
        <time>2020-01-16T13:07:37Z</time>
      </trkpt>
      <trkpt lat="46.53512" lon="5.90371">
        <ele>885.6</ele>
        <time>2020-01-16T13:07:40Z</time>
      </trkpt>
      <trkpt lat="46.53517" lon="5.90372">
        <ele>885.7</ele>
        <time>2020-01-16T13:07:43Z</time>
      </trkpt>
      <trkpt lat="46.53522" lon="5.90374">
        <ele>885.8</ele>
        <time>2020-01-16T13:07:47Z</time>
      </trkpt>
      <trkpt lat="46.53527" lon="5.90375">
        <ele>885.9</ele>
        <time>2020-01-16T13:07:52Z</time>
      </trkpt>
      <trkpt lat="46.53532" lon="5.90374">
        <ele>885.9</ele>
        <time>2020-01-16T13:07:58Z</time>
      </trkpt>
      <trkpt lat="46.53537" lon="5.90372">
        <ele>885.9</ele>
        <time>2020-01-16T13:08:02Z</time>
      </trkpt>
      <trkpt lat="46.53543" lon="5.90373">
        <ele>886.1</ele>
        <time>2020-01-16T13:08:07Z</time>
      </trkpt>
      <trkpt lat="46.53548" lon="5.90377">
        <ele>886.3</ele>
        <time>2020-01-16T13:08:13Z</time>
      </trkpt>
      <trkpt lat="46.53552" lon="5.90381">
        <ele>886.3</ele>
        <time>2020-01-16T13:08:19Z</time>
      </trkpt>
      <trkpt lat="46.53555" lon="5.90387">
        <ele>886.2</ele>
        <time>2020-01-16T13:08:25Z</time>
      </trkpt>
      <trkpt lat="46.53557" lon="5.90393">
        <ele>886.1</ele>
        <time>2020-01-16T13:08:29Z</time>
      </trkpt>
      <trkpt lat="46.53558" lon="5.904">
        <ele>886</ele>
        <time>2020-01-16T13:08:33Z</time>
      </trkpt>
      <trkpt lat="46.53557" lon="5.90408">
        <ele>885.8</ele>
        <time>2020-01-16T13:08:37Z</time>
      </trkpt>
      <trkpt lat="46.53556" lon="5.90415">
        <ele>885.6</ele>
        <time>2020-01-16T13:08:41Z</time>
      </trkpt>
      <trkpt lat="46.53556" lon="5.90421">
        <ele>885.4</ele>
        <time>2020-01-16T13:08:45Z</time>
      </trkpt>
      <trkpt lat="46.53556" lon="5.90429">
        <ele>885.3</ele>
        <time>2020-01-16T13:08:50Z</time>
      </trkpt>
      <trkpt lat="46.53556" lon="5.90436">
        <ele>885.3</ele>
        <time>2020-01-16T13:08:56Z</time>
      </trkpt>
      <trkpt lat="46.53558" lon="5.90443">
        <ele>885.3</ele>
        <time>2020-01-16T13:09:00Z</time>
      </trkpt>
      <trkpt lat="46.5356" lon="5.90448">
        <ele>885.3</ele>
        <time>2020-01-16T13:09:04Z</time>
      </trkpt>
      <trkpt lat="46.53564" lon="5.90452">
        <ele>885.1</ele>
        <time>2020-01-16T13:09:11Z</time>
      </trkpt>
      <trkpt lat="46.53564" lon="5.90459">
        <ele>884.1</ele>
        <time>2020-01-16T13:09:52Z</time>
      </trkpt>
      <trkpt lat="46.53566" lon="5.90452">
        <ele>883.9</ele>
        <time>2020-01-16T13:10:06Z</time>
      </trkpt>
      <trkpt lat="46.53571" lon="5.90448">
        <ele>883.7</ele>
        <time>2020-01-16T13:10:10Z</time>
      </trkpt>
      <trkpt lat="46.53576" lon="5.90444">
        <ele>883.5</ele>
        <time>2020-01-16T13:10:14Z</time>
      </trkpt>
      <trkpt lat="46.53581" lon="5.9044">
        <ele>883.4</ele>
        <time>2020-01-16T13:10:18Z</time>
      </trkpt>
      <trkpt lat="46.53585" lon="5.90435">
        <ele>883.3</ele>
        <time>2020-01-16T13:10:22Z</time>
      </trkpt>
      <trkpt lat="46.53587" lon="5.90429">
        <ele>883.1</ele>
        <time>2020-01-16T13:10:26Z</time>
      </trkpt>
      <trkpt lat="46.53589" lon="5.90422">
        <ele>882.9</ele>
        <time>2020-01-16T13:10:31Z</time>
      </trkpt>
      <trkpt lat="46.53592" lon="5.90417">
        <ele>882.6</ele>
        <time>2020-01-16T13:10:36Z</time>
      </trkpt>
      <trkpt lat="46.53595" lon="5.9041">
        <ele>882.2</ele>
        <time>2020-01-16T13:10:44Z</time>
      </trkpt>
      <trkpt lat="46.53606" lon="5.90399">
        <ele>881.1</ele>
        <time>2020-01-16T13:10:55Z</time>
      </trkpt>
      <trkpt lat="46.5361" lon="5.90395">
        <ele>880.9</ele>
        <time>2020-01-16T13:10:59Z</time>
      </trkpt>
      <trkpt lat="46.53614" lon="5.9039">
        <ele>880.6</ele>
        <time>2020-01-16T13:11:03Z</time>
      </trkpt>
      <trkpt lat="46.53619" lon="5.90386">
        <ele>880.3</ele>
        <time>2020-01-16T13:11:07Z</time>
      </trkpt>
      <trkpt lat="46.53623" lon="5.90382">
        <ele>880.1</ele>
        <time>2020-01-16T13:11:10Z</time>
      </trkpt>
      <trkpt lat="46.53628" lon="5.90378">
        <ele>879.7</ele>
        <time>2020-01-16T13:11:14Z</time>
      </trkpt>
      <trkpt lat="46.53633" lon="5.90375">
        <ele>879.5</ele>
        <time>2020-01-16T13:11:18Z</time>
      </trkpt>
      <trkpt lat="46.53638" lon="5.90371">
        <ele>879.3</ele>
        <time>2020-01-16T13:11:22Z</time>
      </trkpt>
      <trkpt lat="46.53641" lon="5.90366">
        <ele>879.1</ele>
        <time>2020-01-16T13:11:25Z</time>
      </trkpt>
      <trkpt lat="46.53641" lon="5.90359">
        <ele>878.2</ele>
        <time>2020-01-16T13:11:32Z</time>
      </trkpt>
      <trkpt lat="46.5364" lon="5.90352">
        <ele>877.3</ele>
        <time>2020-01-16T13:11:39Z</time>
      </trkpt>
      <trkpt lat="46.5364" lon="5.90344">
        <ele>876.9</ele>
        <time>2020-01-16T13:11:44Z</time>
      </trkpt>
      <trkpt lat="46.5364" lon="5.90337">
        <ele>875.7</ele>
        <time>2020-01-16T13:12:00Z</time>
      </trkpt>
      <trkpt lat="46.5364" lon="5.90345">
        <ele>876.2</ele>
        <time>2020-01-16T13:12:16Z</time>
      </trkpt>
      <trkpt lat="46.53638" lon="5.90351">
        <ele>875.9</ele>
        <time>2020-01-16T13:12:20Z</time>
      </trkpt>
      <trkpt lat="46.53637" lon="5.90359">
        <ele>875.7</ele>
        <time>2020-01-16T13:12:24Z</time>
      </trkpt>
      <trkpt lat="46.53634" lon="5.90366">
        <ele>875.4</ele>
        <time>2020-01-16T13:12:28Z</time>
      </trkpt>
      <trkpt lat="46.53631" lon="5.9037">
        <ele>875.1</ele>
        <time>2020-01-16T13:12:34Z</time>
      </trkpt>
      <trkpt lat="46.53627" lon="5.90375">
        <ele>874.6</ele>
        <time>2020-01-16T13:12:41Z</time>
      </trkpt>
      <trkpt lat="46.53623" lon="5.90379">
        <ele>874.7</ele>
        <time>2020-01-16T13:12:47Z</time>
      </trkpt>
      <trkpt lat="46.53619" lon="5.90383">
        <ele>875.2</ele>
        <time>2020-01-16T13:12:53Z</time>
      </trkpt>
      <trkpt lat="46.53615" lon="5.90388">
        <ele>875.7</ele>
        <time>2020-01-16T13:12:58Z</time>
      </trkpt>
      <trkpt lat="46.53612" lon="5.90393">
        <ele>876.1</ele>
        <time>2020-01-16T13:13:03Z</time>
      </trkpt>
      <trkpt lat="46.53608" lon="5.90398">
        <ele>876.6</ele>
        <time>2020-01-16T13:13:09Z</time>
      </trkpt>
      <trkpt lat="46.53604" lon="5.90403">
        <ele>877.1</ele>
        <time>2020-01-16T13:13:14Z</time>
      </trkpt>
      <trkpt lat="46.536" lon="5.9041">
        <ele>877.5</ele>
        <time>2020-01-16T13:13:18Z</time>
      </trkpt>
      <trkpt lat="46.53597" lon="5.90415">
        <ele>877.8</ele>
        <time>2020-01-16T13:13:21Z</time>
      </trkpt>
      <trkpt lat="46.53594" lon="5.90421">
        <ele>878.1</ele>
        <time>2020-01-16T13:13:25Z</time>
      </trkpt>
      <trkpt lat="46.53591" lon="5.90426">
        <ele>878.6</ele>
        <time>2020-01-16T13:13:29Z</time>
      </trkpt>
      <trkpt lat="46.53589" lon="5.90433">
        <ele>879.3</ele>
        <time>2020-01-16T13:13:34Z</time>
      </trkpt>
      <trkpt lat="46.53585" lon="5.90439">
        <ele>880</ele>
        <time>2020-01-16T13:13:40Z</time>
      </trkpt>
      <trkpt lat="46.53581" lon="5.90443">
        <ele>880.3</ele>
        <time>2020-01-16T13:13:44Z</time>
      </trkpt>
      <trkpt lat="46.53578" lon="5.90448">
        <ele>880.7</ele>
        <time>2020-01-16T13:13:50Z</time>
      </trkpt>
      <trkpt lat="46.53573" lon="5.90452">
        <ele>881</ele>
        <time>2020-01-16T13:13:57Z</time>
      </trkpt>
      <trkpt lat="46.53572" lon="5.90458">
        <ele>881.4</ele>
        <time>2020-01-16T13:14:04Z</time>
      </trkpt>
      <trkpt lat="46.53576" lon="5.9046">
        <ele>882.5</ele>
        <time>2020-01-16T13:14:30Z</time>
      </trkpt>
      <trkpt lat="46.53582" lon="5.90459">
        <ele>882.4</ele>
        <time>2020-01-16T13:14:33Z</time>
      </trkpt>
      <trkpt lat="46.53586" lon="5.90457">
        <ele>882.3</ele>
        <time>2020-01-16T13:14:36Z</time>
      </trkpt>
      <trkpt lat="46.53591" lon="5.90455">
        <ele>881.9</ele>
        <time>2020-01-16T13:14:52Z</time>
      </trkpt>
      <trkpt lat="46.53596" lon="5.90455">
        <ele>881.7</ele>
        <time>2020-01-16T13:15:02Z</time>
      </trkpt>
      <trkpt lat="46.53601" lon="5.90453">
        <ele>881.8</ele>
        <time>2020-01-16T13:15:08Z</time>
      </trkpt>
      <trkpt lat="46.53606" lon="5.90451">
        <ele>881.9</ele>
        <time>2020-01-16T13:15:11Z</time>
      </trkpt>
      <trkpt lat="46.5361" lon="5.90448">
        <ele>882</ele>
        <time>2020-01-16T13:15:15Z</time>
      </trkpt>
      <trkpt lat="46.53615" lon="5.90447">
        <ele>882.1</ele>
        <time>2020-01-16T13:15:19Z</time>
      </trkpt>
      <trkpt lat="46.53619" lon="5.90449">
        <ele>882.2</ele>
        <time>2020-01-16T13:15:24Z</time>
      </trkpt>
      <trkpt lat="46.53623" lon="5.90452">
        <ele>882.5</ele>
        <time>2020-01-16T13:15:30Z</time>
      </trkpt>
      <trkpt lat="46.53627" lon="5.90457">
        <ele>882.9</ele>
        <time>2020-01-16T13:15:35Z</time>
      </trkpt>
      <trkpt lat="46.53631" lon="5.90461">
        <ele>883.2</ele>
        <time>2020-01-16T13:15:41Z</time>
      </trkpt>
      <trkpt lat="46.53636" lon="5.90461">
        <ele>885.6</ele>
        <time>2020-01-16T13:16:02Z</time>
      </trkpt>
      <trkpt lat="46.53642" lon="5.9046">
        <ele>885.9</ele>
        <time>2020-01-16T13:16:06Z</time>
      </trkpt>
      <trkpt lat="46.53647" lon="5.90463">
        <ele>886.3</ele>
        <time>2020-01-16T13:16:10Z</time>
      </trkpt>
      <trkpt lat="46.53652" lon="5.90468">
        <ele>886.7</ele>
        <time>2020-01-16T13:16:14Z</time>
      </trkpt>
      <trkpt lat="46.53655" lon="5.90473">
        <ele>887</ele>
        <time>2020-01-16T13:16:18Z</time>
      </trkpt>
      <trkpt lat="46.53659" lon="5.90478">
        <ele>887.1</ele>
        <time>2020-01-16T13:16:23Z</time>
      </trkpt>
      <trkpt lat="46.53661" lon="5.90483">
        <ele>887</ele>
        <time>2020-01-16T13:16:28Z</time>
      </trkpt>
      <trkpt lat="46.53664" lon="5.90489">
        <ele>886.8</ele>
        <time>2020-01-16T13:16:32Z</time>
      </trkpt>
      <trkpt lat="46.53666" lon="5.90496">
        <ele>886.7</ele>
        <time>2020-01-16T13:16:36Z</time>
      </trkpt>
      <trkpt lat="46.53668" lon="5.90502">
        <ele>886.6</ele>
        <time>2020-01-16T13:16:40Z</time>
      </trkpt>
      <trkpt lat="46.5367" lon="5.90509">
        <ele>886.3</ele>
        <time>2020-01-16T13:16:45Z</time>
      </trkpt>
      <trkpt lat="46.53671" lon="5.90515">
        <ele>886.3</ele>
        <time>2020-01-16T13:16:49Z</time>
      </trkpt>
      <trkpt lat="46.53674" lon="5.9052">
        <ele>886.5</ele>
        <time>2020-01-16T13:16:53Z</time>
      </trkpt>
      <trkpt lat="46.53677" lon="5.90526">
        <ele>886.6</ele>
        <time>2020-01-16T13:16:58Z</time>
      </trkpt>
      <trkpt lat="46.53681" lon="5.90531">
        <ele>886.6</ele>
        <time>2020-01-16T13:17:03Z</time>
      </trkpt>
      <trkpt lat="46.53683" lon="5.90538">
        <ele>886.6</ele>
        <time>2020-01-16T13:17:09Z</time>
      </trkpt>
      <trkpt lat="46.53685" lon="5.90545">
        <ele>886.4</ele>
        <time>2020-01-16T13:17:13Z</time>
      </trkpt>
      <trkpt lat="46.53686" lon="5.90552">
        <ele>886.3</ele>
        <time>2020-01-16T13:17:18Z</time>
      </trkpt>
      <trkpt lat="46.53684" lon="5.90558">
        <ele>886.3</ele>
        <time>2020-01-16T13:17:25Z</time>
      </trkpt>
      <trkpt lat="46.53679" lon="5.90562">
        <ele>886.2</ele>
        <time>2020-01-16T13:17:30Z</time>
      </trkpt>
      <trkpt lat="46.53675" lon="5.90567">
        <ele>886</ele>
        <time>2020-01-16T13:17:35Z</time>
      </trkpt>
      <trkpt lat="46.53672" lon="5.9057">
        <ele>885.5</ele>
        <time>2020-01-16T13:17:41Z</time>
      </trkpt>
      <trkpt lat="46.53668" lon="5.90574">
        <ele>885.3</ele>
        <time>2020-01-16T13:17:45Z</time>
      </trkpt>
      <trkpt lat="46.53667" lon="5.90581">
        <ele>885.3</ele>
        <time>2020-01-16T13:17:51Z</time>
      </trkpt>
      <trkpt lat="46.53671" lon="5.90586">
        <ele>885.4</ele>
        <time>2020-01-16T13:17:55Z</time>
      </trkpt>
      <trkpt lat="46.53674" lon="5.90591">
        <ele>885.5</ele>
        <time>2020-01-16T13:17:59Z</time>
      </trkpt>
      <trkpt lat="46.53677" lon="5.90596">
        <ele>885.7</ele>
        <time>2020-01-16T13:18:05Z</time>
      </trkpt>
      <trkpt lat="46.53681" lon="5.906">
        <ele>886</ele>
        <time>2020-01-16T13:18:09Z</time>
      </trkpt>
      <trkpt lat="46.53684" lon="5.90606">
        <ele>886.5</ele>
        <time>2020-01-16T13:18:14Z</time>
      </trkpt>
      <trkpt lat="46.53688" lon="5.9061">
        <ele>886.9</ele>
        <time>2020-01-16T13:18:20Z</time>
      </trkpt>
      <trkpt lat="46.53692" lon="5.90615">
        <ele>887.4</ele>
        <time>2020-01-16T13:18:25Z</time>
      </trkpt>
      <trkpt lat="46.53697" lon="5.90619">
        <ele>887.8</ele>
        <time>2020-01-16T13:18:29Z</time>
      </trkpt>
      <trkpt lat="46.53701" lon="5.90623">
        <ele>888.4</ele>
        <time>2020-01-16T13:18:33Z</time>
      </trkpt>
      <trkpt lat="46.53704" lon="5.90628">
        <ele>889.1</ele>
        <time>2020-01-16T13:18:39Z</time>
      </trkpt>
      <trkpt lat="46.53708" lon="5.90633">
        <ele>889.6</ele>
        <time>2020-01-16T13:18:44Z</time>
      </trkpt>
      <trkpt lat="46.53711" lon="5.90638">
        <ele>890</ele>
        <time>2020-01-16T13:18:48Z</time>
      </trkpt>
      <trkpt lat="46.53715" lon="5.90642">
        <ele>890.6</ele>
        <time>2020-01-16T13:18:54Z</time>
      </trkpt>
      <trkpt lat="46.53719" lon="5.90647">
        <ele>891.1</ele>
        <time>2020-01-16T13:19:00Z</time>
      </trkpt>
      <trkpt lat="46.53723" lon="5.90652">
        <ele>891.6</ele>
        <time>2020-01-16T13:19:05Z</time>
      </trkpt>
      <trkpt lat="46.53726" lon="5.90656">
        <ele>892</ele>
        <time>2020-01-16T13:19:09Z</time>
      </trkpt>
      <trkpt lat="46.5373" lon="5.90662">
        <ele>892.5</ele>
        <time>2020-01-16T13:19:14Z</time>
      </trkpt>
      <trkpt lat="46.53733" lon="5.90667">
        <ele>892.5</ele>
        <time>2020-01-16T13:19:20Z</time>
      </trkpt>
      <trkpt lat="46.53737" lon="5.90672">
        <ele>892.2</ele>
        <time>2020-01-16T13:19:24Z</time>
      </trkpt>
      <trkpt lat="46.53741" lon="5.90676">
        <ele>892.1</ele>
        <time>2020-01-16T13:19:29Z</time>
      </trkpt>
      <trkpt lat="46.53745" lon="5.90681">
        <ele>892.4</ele>
        <time>2020-01-16T13:19:36Z</time>
      </trkpt>
      <trkpt lat="46.53749" lon="5.90685">
        <ele>892.5</ele>
        <time>2020-01-16T13:19:42Z</time>
      </trkpt>
      <trkpt lat="46.53754" lon="5.90689">
        <ele>892.5</ele>
        <time>2020-01-16T13:19:47Z</time>
      </trkpt>
      <trkpt lat="46.53758" lon="5.90692">
        <ele>892.3</ele>
        <time>2020-01-16T13:19:53Z</time>
      </trkpt>
      <trkpt lat="46.53763" lon="5.90697">
        <ele>892.5</ele>
        <time>2020-01-16T13:19:58Z</time>
      </trkpt>
      <trkpt lat="46.53768" lon="5.90701">
        <ele>892.8</ele>
        <time>2020-01-16T13:20:02Z</time>
      </trkpt>
      <trkpt lat="46.53772" lon="5.90705">
        <ele>893.2</ele>
        <time>2020-01-16T13:20:06Z</time>
      </trkpt>
      <trkpt lat="46.53776" lon="5.90709">
        <ele>893.4</ele>
        <time>2020-01-16T13:20:10Z</time>
      </trkpt>
      <trkpt lat="46.53779" lon="5.90715">
        <ele>893.7</ele>
        <time>2020-01-16T13:20:14Z</time>
      </trkpt>
      <trkpt lat="46.53782" lon="5.90721">
        <ele>893.9</ele>
        <time>2020-01-16T13:20:20Z</time>
      </trkpt>
      <trkpt lat="46.53785" lon="5.90727">
        <ele>893.7</ele>
        <time>2020-01-16T13:20:26Z</time>
      </trkpt>
      <trkpt lat="46.53788" lon="5.90732">
        <ele>893.4</ele>
        <time>2020-01-16T13:20:30Z</time>
      </trkpt>
      <trkpt lat="46.53791" lon="5.90738">
        <ele>893.1</ele>
        <time>2020-01-16T13:20:35Z</time>
      </trkpt>
      <trkpt lat="46.53795" lon="5.90742">
        <ele>893</ele>
        <time>2020-01-16T13:20:38Z</time>
      </trkpt>
      <trkpt lat="46.53799" lon="5.90747">
        <ele>892.8</ele>
        <time>2020-01-16T13:20:41Z</time>
      </trkpt>
      <trkpt lat="46.53803" lon="5.90752">
        <ele>892.6</ele>
        <time>2020-01-16T13:20:45Z</time>
      </trkpt>
      <trkpt lat="46.53806" lon="5.90757">
        <ele>892.4</ele>
        <time>2020-01-16T13:20:49Z</time>
      </trkpt>
      <trkpt lat="46.53809" lon="5.90763">
        <ele>892.2</ele>
        <time>2020-01-16T13:20:54Z</time>
      </trkpt>
      <trkpt lat="46.53813" lon="5.90768">
        <ele>892.5</ele>
        <time>2020-01-16T13:20:59Z</time>
      </trkpt>
      <trkpt lat="46.53817" lon="5.90769">
        <ele>892.9</ele>
        <time>2020-01-16T13:21:13Z</time>
      </trkpt>
      <trkpt lat="46.5382" lon="5.90776">
        <ele>893.5</ele>
        <time>2020-01-16T13:21:42Z</time>
      </trkpt>
      <trkpt lat="46.53823" lon="5.90782">
        <ele>893.8</ele>
        <time>2020-01-16T13:21:48Z</time>
      </trkpt>
      <trkpt lat="46.53827" lon="5.90787">
        <ele>893.9</ele>
        <time>2020-01-16T13:21:53Z</time>
      </trkpt>
      <trkpt lat="46.5383" lon="5.90793">
        <ele>893.9</ele>
        <time>2020-01-16T13:21:57Z</time>
      </trkpt>
      <trkpt lat="46.53833" lon="5.90799">
        <ele>894</ele>
        <time>2020-01-16T13:22:01Z</time>
      </trkpt>
      <trkpt lat="46.53835" lon="5.90806">
        <ele>894.2</ele>
        <time>2020-01-16T13:22:06Z</time>
      </trkpt>
      <trkpt lat="46.53837" lon="5.90812">
        <ele>894.4</ele>
        <time>2020-01-16T13:22:11Z</time>
      </trkpt>
      <trkpt lat="46.5384" lon="5.90818">
        <ele>894.4</ele>
        <time>2020-01-16T13:22:17Z</time>
      </trkpt>
      <trkpt lat="46.53842" lon="5.90824">
        <ele>894.4</ele>
        <time>2020-01-16T13:22:21Z</time>
      </trkpt>
      <trkpt lat="46.53845" lon="5.90829">
        <ele>894.4</ele>
        <time>2020-01-16T13:22:26Z</time>
      </trkpt>
      <trkpt lat="46.53848" lon="5.90834">
        <ele>894.6</ele>
        <time>2020-01-16T13:22:31Z</time>
      </trkpt>
      <trkpt lat="46.53852" lon="5.90839">
        <ele>894.6</ele>
        <time>2020-01-16T13:22:36Z</time>
      </trkpt>
      <trkpt lat="46.53854" lon="5.90846">
        <ele>894.5</ele>
        <time>2020-01-16T13:22:51Z</time>
      </trkpt>
      <trkpt lat="46.53856" lon="5.90854">
        <ele>894.5</ele>
        <time>2020-01-16T13:22:56Z</time>
      </trkpt>
      <trkpt lat="46.53857" lon="5.90861">
        <ele>894.5</ele>
        <time>2020-01-16T13:23:00Z</time>
      </trkpt>
      <trkpt lat="46.53857" lon="5.90868">
        <ele>894.5</ele>
        <time>2020-01-16T13:23:05Z</time>
      </trkpt>
      <trkpt lat="46.53858" lon="5.90876">
        <ele>894.4</ele>
        <time>2020-01-16T13:23:10Z</time>
      </trkpt>
      <trkpt lat="46.53861" lon="5.90883">
        <ele>894.3</ele>
        <time>2020-01-16T13:23:15Z</time>
      </trkpt>
      <trkpt lat="46.53863" lon="5.90889">
        <ele>894.1</ele>
        <time>2020-01-16T13:23:19Z</time>
      </trkpt>
      <trkpt lat="46.53865" lon="5.90896">
        <ele>893.8</ele>
        <time>2020-01-16T13:23:25Z</time>
      </trkpt>
      <trkpt lat="46.53869" lon="5.90899">
        <ele>893.7</ele>
        <time>2020-01-16T13:23:33Z</time>
      </trkpt>
      <trkpt lat="46.53874" lon="5.90899">
        <ele>893.8</ele>
        <time>2020-01-16T13:23:38Z</time>
      </trkpt>
      <trkpt lat="46.53879" lon="5.90899">
        <ele>893.8</ele>
        <time>2020-01-16T13:23:42Z</time>
      </trkpt>
      <trkpt lat="46.53884" lon="5.90899">
        <ele>894</ele>
        <time>2020-01-16T13:23:47Z</time>
      </trkpt>
      <trkpt lat="46.53889" lon="5.909">
        <ele>894.3</ele>
        <time>2020-01-16T13:23:51Z</time>
      </trkpt>
      <trkpt lat="46.53894" lon="5.90901">
        <ele>894.6</ele>
        <time>2020-01-16T13:23:55Z</time>
      </trkpt>
      <trkpt lat="46.53899" lon="5.90903">
        <ele>894.9</ele>
        <time>2020-01-16T13:24:02Z</time>
      </trkpt>
      <trkpt lat="46.53903" lon="5.90907">
        <ele>895.5</ele>
        <time>2020-01-16T13:24:09Z</time>
      </trkpt>
      <trkpt lat="46.53907" lon="5.90911">
        <ele>896.3</ele>
        <time>2020-01-16T13:24:16Z</time>
      </trkpt>
      <trkpt lat="46.53911" lon="5.90914">
        <ele>896.8</ele>
        <time>2020-01-16T13:24:27Z</time>
      </trkpt>
      <trkpt lat="46.53916" lon="5.90914">
        <ele>896.6</ele>
        <time>2020-01-16T13:24:42Z</time>
      </trkpt>
      <trkpt lat="46.5392" lon="5.90915">
        <ele>898.5</ele>
        <time>2020-01-16T13:25:41Z</time>
      </trkpt>
      <trkpt lat="46.53923" lon="5.90917">
        <ele>909.7</ele>
        <time>2020-01-16T13:28:51Z</time>
      </trkpt>
      <trkpt lat="46.53927" lon="5.90923">
        <ele>912.9</ele>
        <time>2020-01-16T13:29:49Z</time>
      </trkpt>
      <trkpt lat="46.5393" lon="5.90929">
        <ele>913.6</ele>
        <time>2020-01-16T13:29:55Z</time>
      </trkpt>
      <trkpt lat="46.53934" lon="5.90933">
        <ele>913.9</ele>
        <time>2020-01-16T13:29:59Z</time>
      </trkpt>
      <trkpt lat="46.53938" lon="5.90938">
        <ele>914.3</ele>
        <time>2020-01-16T13:30:04Z</time>
      </trkpt>
      <trkpt lat="46.53943" lon="5.9094">
        <ele>914.5</ele>
        <time>2020-01-16T13:30:10Z</time>
      </trkpt>
      <trkpt lat="46.53947" lon="5.90942">
        <ele>914.5</ele>
        <time>2020-01-16T13:30:20Z</time>
      </trkpt>
      <trkpt lat="46.53952" lon="5.90942">
        <ele>914.6</ele>
        <time>2020-01-16T13:30:25Z</time>
      </trkpt>
      <trkpt lat="46.53957" lon="5.90941">
        <ele>914.5</ele>
        <time>2020-01-16T13:30:31Z</time>
      </trkpt>
      <trkpt lat="46.53962" lon="5.90943">
        <ele>914.5</ele>
        <time>2020-01-16T13:30:37Z</time>
      </trkpt>
      <trkpt lat="46.53966" lon="5.90946">
        <ele>914.4</ele>
        <time>2020-01-16T13:30:43Z</time>
      </trkpt>
      <trkpt lat="46.5397" lon="5.90951">
        <ele>914.5</ele>
        <time>2020-01-16T13:30:49Z</time>
      </trkpt>
      <trkpt lat="46.53973" lon="5.90956">
        <ele>914.3</ele>
        <time>2020-01-16T13:30:55Z</time>
      </trkpt>
      <trkpt lat="46.53976" lon="5.90961">
        <ele>913.7</ele>
        <time>2020-01-16T13:31:01Z</time>
      </trkpt>
      <trkpt lat="46.5398" lon="5.90965">
        <ele>912.7</ele>
        <time>2020-01-16T13:31:18Z</time>
      </trkpt>
      <trkpt lat="46.53983" lon="5.90971">
        <ele>912.4</ele>
        <time>2020-01-16T13:31:23Z</time>
      </trkpt>
      <trkpt lat="46.53985" lon="5.90977">
        <ele>912.4</ele>
        <time>2020-01-16T13:31:27Z</time>
      </trkpt>
      <trkpt lat="46.53988" lon="5.90984">
        <ele>912.9</ele>
        <time>2020-01-16T13:31:33Z</time>
      </trkpt>
      <trkpt lat="46.5399" lon="5.9099">
        <ele>913.2</ele>
        <time>2020-01-16T13:31:38Z</time>
      </trkpt>
      <trkpt lat="46.53995" lon="5.9099">
        <ele>910.3</ele>
        <time>2020-01-16T13:31:58Z</time>
      </trkpt>
      <trkpt lat="46.53998" lon="5.90995">
        <ele>909.2</ele>
        <time>2020-01-16T13:32:03Z</time>
      </trkpt>
      <trkpt lat="46.54" lon="5.91001">
        <ele>908.4</ele>
        <time>2020-01-16T13:32:10Z</time>
      </trkpt>
      <trkpt lat="46.53999" lon="5.91008">
        <ele>908</ele>
        <time>2020-01-16T13:32:14Z</time>
      </trkpt>
      <trkpt lat="46.53999" lon="5.91014">
        <ele>907.7</ele>
        <time>2020-01-16T13:32:17Z</time>
      </trkpt>
      <trkpt lat="46.53999" lon="5.91022">
        <ele>907.3</ele>
        <time>2020-01-16T13:32:21Z</time>
      </trkpt>
      <trkpt lat="46.53999" lon="5.91029">
        <ele>907</ele>
        <time>2020-01-16T13:32:24Z</time>
      </trkpt>
      <trkpt lat="46.54" lon="5.91035">
        <ele>906.7</ele>
        <time>2020-01-16T13:32:28Z</time>
      </trkpt>
      <trkpt lat="46.54001" lon="5.91043">
        <ele>906.3</ele>
        <time>2020-01-16T13:32:32Z</time>
      </trkpt>
      <trkpt lat="46.54001" lon="5.91049">
        <ele>906</ele>
        <time>2020-01-16T13:32:36Z</time>
      </trkpt>
      <trkpt lat="46.54" lon="5.91057">
        <ele>905.8</ele>
        <time>2020-01-16T13:32:39Z</time>
      </trkpt>
      <trkpt lat="46.54" lon="5.91064">
        <ele>905.6</ele>
        <time>2020-01-16T13:32:44Z</time>
      </trkpt>
      <trkpt lat="46.54001" lon="5.91071">
        <ele>905.4</ele>
        <time>2020-01-16T13:32:49Z</time>
      </trkpt>
      <trkpt lat="46.54002" lon="5.91078">
        <ele>905.2</ele>
        <time>2020-01-16T13:32:53Z</time>
      </trkpt>
      <trkpt lat="46.54003" lon="5.91086">
        <ele>905</ele>
        <time>2020-01-16T13:32:57Z</time>
      </trkpt>
      <trkpt lat="46.54002" lon="5.91092">
        <ele>904.8</ele>
        <time>2020-01-16T13:33:00Z</time>
      </trkpt>
      <trkpt lat="46.54001" lon="5.91099">
        <ele>904.5</ele>
        <time>2020-01-16T13:33:03Z</time>
      </trkpt>
      <trkpt lat="46.54" lon="5.91105">
        <ele>904.1</ele>
        <time>2020-01-16T13:33:07Z</time>
      </trkpt>
      <trkpt lat="46.54" lon="5.91112">
        <ele>904.1</ele>
        <time>2020-01-16T13:33:11Z</time>
      </trkpt>
      <trkpt lat="46.54001" lon="5.9112">
        <ele>904.3</ele>
        <time>2020-01-16T13:33:16Z</time>
      </trkpt>
      <trkpt lat="46.54001" lon="5.91127">
        <ele>904.5</ele>
        <time>2020-01-16T13:33:20Z</time>
      </trkpt>
      <trkpt lat="46.54002" lon="5.91134">
        <ele>904.8</ele>
        <time>2020-01-16T13:33:26Z</time>
      </trkpt>
      <trkpt lat="46.54004" lon="5.91141">
        <ele>905.2</ele>
        <time>2020-01-16T13:33:33Z</time>
      </trkpt>
      <trkpt lat="46.54008" lon="5.91147">
        <ele>905.7</ele>
        <time>2020-01-16T13:33:38Z</time>
      </trkpt>
      <trkpt lat="46.5401" lon="5.91153">
        <ele>906</ele>
        <time>2020-01-16T13:33:42Z</time>
      </trkpt>
      <trkpt lat="46.54012" lon="5.91159">
        <ele>906.3</ele>
        <time>2020-01-16T13:33:47Z</time>
      </trkpt>
      <trkpt lat="46.54015" lon="5.91165">
        <ele>906.7</ele>
        <time>2020-01-16T13:33:52Z</time>
      </trkpt>
      <trkpt lat="46.54018" lon="5.91171">
        <ele>907.1</ele>
        <time>2020-01-16T13:33:57Z</time>
      </trkpt>
      <trkpt lat="46.54021" lon="5.91177">
        <ele>907.4</ele>
        <time>2020-01-16T13:34:02Z</time>
      </trkpt>
      <trkpt lat="46.54025" lon="5.91184">
        <ele>907.5</ele>
        <time>2020-01-16T13:34:06Z</time>
      </trkpt>
      <trkpt lat="46.54028" lon="5.91191">
        <ele>907.5</ele>
        <time>2020-01-16T13:34:10Z</time>
      </trkpt>
      <trkpt lat="46.54032" lon="5.91197">
        <ele>907.3</ele>
        <time>2020-01-16T13:34:14Z</time>
      </trkpt>
      <trkpt lat="46.54034" lon="5.91202">
        <ele>907.4</ele>
        <time>2020-01-16T13:34:19Z</time>
      </trkpt>
      <trkpt lat="46.54037" lon="5.91208">
        <ele>907.4</ele>
        <time>2020-01-16T13:34:24Z</time>
      </trkpt>
      <trkpt lat="46.5404" lon="5.91214">
        <ele>907.5</ele>
        <time>2020-01-16T13:34:30Z</time>
      </trkpt>
      <trkpt lat="46.54043" lon="5.9122">
        <ele>907.7</ele>
        <time>2020-01-16T13:34:35Z</time>
      </trkpt>
      <trkpt lat="46.54047" lon="5.91226">
        <ele>907.8</ele>
        <time>2020-01-16T13:34:40Z</time>
      </trkpt>
      <trkpt lat="46.5405" lon="5.91232">
        <ele>907.9</ele>
        <time>2020-01-16T13:34:46Z</time>
      </trkpt>
      <trkpt lat="46.54052" lon="5.91238">
        <ele>907.8</ele>
        <time>2020-01-16T13:34:51Z</time>
      </trkpt>
      <trkpt lat="46.54053" lon="5.91246">
        <ele>907.3</ele>
        <time>2020-01-16T13:34:57Z</time>
      </trkpt>
      <trkpt lat="46.54056" lon="5.91252">
        <ele>906.4</ele>
        <time>2020-01-16T13:35:02Z</time>
      </trkpt>
      <trkpt lat="46.54059" lon="5.91258">
        <ele>905.3</ele>
        <time>2020-01-16T13:35:07Z</time>
      </trkpt>
      <trkpt lat="46.54063" lon="5.91264">
        <ele>903.3</ele>
        <time>2020-01-16T13:35:14Z</time>
      </trkpt>
      <trkpt lat="46.54065" lon="5.91269">
        <ele>900.9</ele>
        <time>2020-01-16T13:35:21Z</time>
      </trkpt>
      <trkpt lat="46.54068" lon="5.91276">
        <ele>898.9</ele>
        <time>2020-01-16T13:35:27Z</time>
      </trkpt>
      <trkpt lat="46.54071" lon="5.91282">
        <ele>897.4</ele>
        <time>2020-01-16T13:35:32Z</time>
      </trkpt>
      <trkpt lat="46.54074" lon="5.91286">
        <ele>896.2</ele>
        <time>2020-01-16T13:35:37Z</time>
      </trkpt>
      <trkpt lat="46.54078" lon="5.91291">
        <ele>895.1</ele>
        <time>2020-01-16T13:35:42Z</time>
      </trkpt>
      <trkpt lat="46.54081" lon="5.91297">
        <ele>894.1</ele>
        <time>2020-01-16T13:35:47Z</time>
      </trkpt>
      <trkpt lat="46.54083" lon="5.91303">
        <ele>893.2</ele>
        <time>2020-01-16T13:35:51Z</time>
      </trkpt>
      <trkpt lat="46.54087" lon="5.91308">
        <ele>892.1</ele>
        <time>2020-01-16T13:35:56Z</time>
      </trkpt>
      <trkpt lat="46.5409" lon="5.91313">
        <ele>891.1</ele>
        <time>2020-01-16T13:36:00Z</time>
      </trkpt>
      <trkpt lat="46.54094" lon="5.91318">
        <ele>889.9</ele>
        <time>2020-01-16T13:36:05Z</time>
      </trkpt>
      <trkpt lat="46.54099" lon="5.91323">
        <ele>888.8</ele>
        <time>2020-01-16T13:36:10Z</time>
      </trkpt>
      <trkpt lat="46.54102" lon="5.91328">
        <ele>886.8</ele>
        <time>2020-01-16T13:36:23Z</time>
      </trkpt>
      <trkpt lat="46.54106" lon="5.91332">
        <ele>885.5</ele>
        <time>2020-01-16T13:36:37Z</time>
      </trkpt>
      <trkpt lat="46.54109" lon="5.91337">
        <ele>884.7</ele>
        <time>2020-01-16T13:36:43Z</time>
      </trkpt>
      <trkpt lat="46.54112" lon="5.91343">
        <ele>884</ele>
        <time>2020-01-16T13:36:50Z</time>
      </trkpt>
      <trkpt lat="46.54116" lon="5.91347">
        <ele>883.6</ele>
        <time>2020-01-16T13:36:54Z</time>
      </trkpt>
      <trkpt lat="46.5412" lon="5.91352">
        <ele>883.3</ele>
        <time>2020-01-16T13:36:58Z</time>
      </trkpt>
      <trkpt lat="46.54124" lon="5.91357">
        <ele>883</ele>
        <time>2020-01-16T13:37:03Z</time>
      </trkpt>
      <trkpt lat="46.54126" lon="5.91364">
        <ele>882.7</ele>
        <time>2020-01-16T13:37:09Z</time>
      </trkpt>
      <trkpt lat="46.5413" lon="5.91369">
        <ele>882.5</ele>
        <time>2020-01-16T13:37:15Z</time>
      </trkpt>
      <trkpt lat="46.54133" lon="5.91374">
        <ele>882.4</ele>
        <time>2020-01-16T13:37:19Z</time>
      </trkpt>
      <trkpt lat="46.54135" lon="5.91381">
        <ele>882.4</ele>
        <time>2020-01-16T13:37:23Z</time>
      </trkpt>
      <trkpt lat="46.54138" lon="5.91387">
        <ele>882.3</ele>
        <time>2020-01-16T13:37:27Z</time>
      </trkpt>
      <trkpt lat="46.54141" lon="5.91394">
        <ele>882.2</ele>
        <time>2020-01-16T13:37:32Z</time>
      </trkpt>
      <trkpt lat="46.54143" lon="5.91401">
        <ele>882.1</ele>
        <time>2020-01-16T13:37:36Z</time>
      </trkpt>
      <trkpt lat="46.54144" lon="5.91408">
        <ele>882.1</ele>
        <time>2020-01-16T13:37:40Z</time>
      </trkpt>
      <trkpt lat="46.54145" lon="5.91416">
        <ele>882.1</ele>
        <time>2020-01-16T13:37:45Z</time>
      </trkpt>
      <trkpt lat="46.54146" lon="5.91422">
        <ele>882.1</ele>
        <time>2020-01-16T13:37:49Z</time>
      </trkpt>
      <trkpt lat="46.54147" lon="5.9143">
        <ele>882</ele>
        <time>2020-01-16T13:37:53Z</time>
      </trkpt>
      <trkpt lat="46.54147" lon="5.91437">
        <ele>881.7</ele>
        <time>2020-01-16T13:37:58Z</time>
      </trkpt>
      <trkpt lat="46.54147" lon="5.91444">
        <ele>881.1</ele>
        <time>2020-01-16T13:38:04Z</time>
      </trkpt>
      <trkpt lat="46.54147" lon="5.91451">
        <ele>880.6</ele>
        <time>2020-01-16T13:38:09Z</time>
      </trkpt>
      <trkpt lat="46.54147" lon="5.91458">
        <ele>880.1</ele>
        <time>2020-01-16T13:38:13Z</time>
      </trkpt>
      <trkpt lat="46.54145" lon="5.91466">
        <ele>879.8</ele>
        <time>2020-01-16T13:38:18Z</time>
      </trkpt>
      <trkpt lat="46.54143" lon="5.91473">
        <ele>879.4</ele>
        <time>2020-01-16T13:38:23Z</time>
      </trkpt>
      <trkpt lat="46.54141" lon="5.9148">
        <ele>879.2</ele>
        <time>2020-01-16T13:38:27Z</time>
      </trkpt>
      <trkpt lat="46.54138" lon="5.91485">
        <ele>879.1</ele>
        <time>2020-01-16T13:38:31Z</time>
      </trkpt>
      <trkpt lat="46.54135" lon="5.9149">
        <ele>878.9</ele>
        <time>2020-01-16T13:38:37Z</time>
      </trkpt>
      <trkpt lat="46.54132" lon="5.91496">
        <ele>878.9</ele>
        <time>2020-01-16T13:38:44Z</time>
      </trkpt>
      <trkpt lat="46.54128" lon="5.91502">
        <ele>878.8</ele>
        <time>2020-01-16T13:38:51Z</time>
      </trkpt>
      <trkpt lat="46.54124" lon="5.91505">
        <ele>878.6</ele>
        <time>2020-01-16T13:38:55Z</time>
      </trkpt>
      <trkpt lat="46.5412" lon="5.9151">
        <ele>878.3</ele>
        <time>2020-01-16T13:39:00Z</time>
      </trkpt>
      <trkpt lat="46.54117" lon="5.91515">
        <ele>877.8</ele>
        <time>2020-01-16T13:39:05Z</time>
      </trkpt>
      <trkpt lat="46.54115" lon="5.91521">
        <ele>877.5</ele>
        <time>2020-01-16T13:39:09Z</time>
      </trkpt>
      <trkpt lat="46.54113" lon="5.91528">
        <ele>877.4</ele>
        <time>2020-01-16T13:39:13Z</time>
      </trkpt>
      <trkpt lat="46.54111" lon="5.91535">
        <ele>877.2</ele>
        <time>2020-01-16T13:39:17Z</time>
      </trkpt>
      <trkpt lat="46.54108" lon="5.91542">
        <ele>877</ele>
        <time>2020-01-16T13:39:22Z</time>
      </trkpt>
      <trkpt lat="46.54106" lon="5.91549">
        <ele>876.7</ele>
        <time>2020-01-16T13:39:26Z</time>
      </trkpt>
      <trkpt lat="46.54104" lon="5.91557">
        <ele>876.5</ele>
        <time>2020-01-16T13:39:30Z</time>
      </trkpt>
      <trkpt lat="46.54103" lon="5.91565">
        <ele>876.3</ele>
        <time>2020-01-16T13:39:34Z</time>
      </trkpt>
      <trkpt lat="46.54101" lon="5.91572">
        <ele>876</ele>
        <time>2020-01-16T13:39:39Z</time>
      </trkpt>
      <trkpt lat="46.54099" lon="5.91577">
        <ele>875.8</ele>
        <time>2020-01-16T13:39:44Z</time>
      </trkpt>
      <trkpt lat="46.54096" lon="5.91583">
        <ele>875.7</ele>
        <time>2020-01-16T13:39:48Z</time>
      </trkpt>
      <trkpt lat="46.54093" lon="5.91589">
        <ele>875.6</ele>
        <time>2020-01-16T13:39:52Z</time>
      </trkpt>
      <trkpt lat="46.54091" lon="5.91595">
        <ele>875.6</ele>
        <time>2020-01-16T13:39:56Z</time>
      </trkpt>
      <trkpt lat="46.5409" lon="5.91602">
        <ele>875.4</ele>
        <time>2020-01-16T13:40:00Z</time>
      </trkpt>
      <trkpt lat="46.54087" lon="5.91608">
        <ele>875.2</ele>
        <time>2020-01-16T13:40:15Z</time>
      </trkpt>
      <trkpt lat="46.54084" lon="5.91614">
        <ele>875.4</ele>
        <time>2020-01-16T13:40:21Z</time>
      </trkpt>
      <trkpt lat="46.54081" lon="5.91621">
        <ele>875.5</ele>
        <time>2020-01-16T13:40:25Z</time>
      </trkpt>
      <trkpt lat="46.54079" lon="5.91627">
        <ele>875.4</ele>
        <time>2020-01-16T13:40:29Z</time>
      </trkpt>
      <trkpt lat="46.54077" lon="5.91633">
        <ele>875.3</ele>
        <time>2020-01-16T13:40:34Z</time>
      </trkpt>
      <trkpt lat="46.54075" lon="5.9164">
        <ele>875.3</ele>
        <time>2020-01-16T13:40:40Z</time>
      </trkpt>
      <trkpt lat="46.54073" lon="5.91646">
        <ele>875.4</ele>
        <time>2020-01-16T13:40:45Z</time>
      </trkpt>
      <trkpt lat="46.54068" lon="5.91649">
        <ele>875.8</ele>
        <time>2020-01-16T13:40:52Z</time>
      </trkpt>
      <trkpt lat="46.54063" lon="5.91648">
        <ele>876</ele>
        <time>2020-01-16T13:40:56Z</time>
      </trkpt>
      <trkpt lat="46.54058" lon="5.91649">
        <ele>876.1</ele>
        <time>2020-01-16T13:41:00Z</time>
      </trkpt>
      <trkpt lat="46.54053" lon="5.91649">
        <ele>876.1</ele>
        <time>2020-01-16T13:41:04Z</time>
      </trkpt>
      <trkpt lat="46.54047" lon="5.91648">
        <ele>876.1</ele>
        <time>2020-01-16T13:41:08Z</time>
      </trkpt>
      <trkpt lat="46.54042" lon="5.91649">
        <ele>876.1</ele>
        <time>2020-01-16T13:41:13Z</time>
      </trkpt>
      <trkpt lat="46.54038" lon="5.91649">
        <ele>876</ele>
        <time>2020-01-16T13:41:18Z</time>
      </trkpt>
      <trkpt lat="46.54032" lon="5.9165">
        <ele>876</ele>
        <time>2020-01-16T13:41:25Z</time>
      </trkpt>
      <trkpt lat="46.54027" lon="5.91652">
        <ele>876.1</ele>
        <time>2020-01-16T13:41:30Z</time>
      </trkpt>
      <trkpt lat="46.54022" lon="5.91652">
        <ele>876.1</ele>
        <time>2020-01-16T13:41:35Z</time>
      </trkpt>
      <trkpt lat="46.54016" lon="5.91653">
        <ele>876.1</ele>
        <time>2020-01-16T13:41:39Z</time>
      </trkpt>
      <trkpt lat="46.54012" lon="5.91655">
        <ele>876.1</ele>
        <time>2020-01-16T13:41:46Z</time>
      </trkpt>
      <trkpt lat="46.54008" lon="5.91659">
        <ele>876.2</ele>
        <time>2020-01-16T13:41:51Z</time>
      </trkpt>
      <trkpt lat="46.54003" lon="5.91661">
        <ele>876.3</ele>
        <time>2020-01-16T13:41:55Z</time>
      </trkpt>
      <trkpt lat="46.53998" lon="5.91663">
        <ele>876.4</ele>
        <time>2020-01-16T13:41:59Z</time>
      </trkpt>
      <trkpt lat="46.53994" lon="5.91664">
        <ele>876.4</ele>
        <time>2020-01-16T13:42:03Z</time>
      </trkpt>
      <trkpt lat="46.53989" lon="5.91664">
        <ele>876.5</ele>
        <time>2020-01-16T13:42:08Z</time>
      </trkpt>
      <trkpt lat="46.53984" lon="5.91666">
        <ele>876.5</ele>
        <time>2020-01-16T13:42:13Z</time>
      </trkpt>
      <trkpt lat="46.53979" lon="5.91667">
        <ele>876.5</ele>
        <time>2020-01-16T13:42:17Z</time>
      </trkpt>
      <trkpt lat="46.53974" lon="5.91668">
        <ele>876.5</ele>
        <time>2020-01-16T13:42:21Z</time>
      </trkpt>
      <trkpt lat="46.53969" lon="5.91669">
        <ele>876.4</ele>
        <time>2020-01-16T13:42:26Z</time>
      </trkpt>
      <trkpt lat="46.53964" lon="5.9167">
        <ele>876.2</ele>
        <time>2020-01-16T13:42:30Z</time>
      </trkpt>
      <trkpt lat="46.53959" lon="5.9167">
        <ele>876</ele>
        <time>2020-01-16T13:42:35Z</time>
      </trkpt>
      <trkpt lat="46.53954" lon="5.91671">
        <ele>875.9</ele>
        <time>2020-01-16T13:42:40Z</time>
      </trkpt>
      <trkpt lat="46.53949" lon="5.91673">
        <ele>875.8</ele>
        <time>2020-01-16T13:42:46Z</time>
      </trkpt>
      <trkpt lat="46.53945" lon="5.91674">
        <ele>875.7</ele>
        <time>2020-01-16T13:42:51Z</time>
      </trkpt>
      <trkpt lat="46.5394" lon="5.91674">
        <ele>875.6</ele>
        <time>2020-01-16T13:42:56Z</time>
      </trkpt>
      <trkpt lat="46.53935" lon="5.91673">
        <ele>875.5</ele>
        <time>2020-01-16T13:43:00Z</time>
      </trkpt>
      <trkpt lat="46.53929" lon="5.91673">
        <ele>875.5</ele>
        <time>2020-01-16T13:43:04Z</time>
      </trkpt>
      <trkpt lat="46.53924" lon="5.91672">
        <ele>875.6</ele>
        <time>2020-01-16T13:43:09Z</time>
      </trkpt>
      <trkpt lat="46.53918" lon="5.91672">
        <ele>875.6</ele>
        <time>2020-01-16T13:43:14Z</time>
      </trkpt>
      <trkpt lat="46.53913" lon="5.91672">
        <ele>875.5</ele>
        <time>2020-01-16T13:43:19Z</time>
      </trkpt>
      <trkpt lat="46.53908" lon="5.91672">
        <ele>875.3</ele>
        <time>2020-01-16T13:43:24Z</time>
      </trkpt>
      <trkpt lat="46.53903" lon="5.91671">
        <ele>875.1</ele>
        <time>2020-01-16T13:43:29Z</time>
      </trkpt>
      <trkpt lat="46.53898" lon="5.91671">
        <ele>874.7</ele>
        <time>2020-01-16T13:43:35Z</time>
      </trkpt>
      <trkpt lat="46.53893" lon="5.91672">
        <ele>874.3</ele>
        <time>2020-01-16T13:43:39Z</time>
      </trkpt>
      <trkpt lat="46.53889" lon="5.91674">
        <ele>874.1</ele>
        <time>2020-01-16T13:43:42Z</time>
      </trkpt>
      <trkpt lat="46.53884" lon="5.91676">
        <ele>874</ele>
        <time>2020-01-16T13:43:45Z</time>
      </trkpt>
      <trkpt lat="46.5388" lon="5.91679">
        <ele>873.7</ele>
        <time>2020-01-16T13:43:49Z</time>
      </trkpt>
      <trkpt lat="46.53876" lon="5.91683">
        <ele>873.5</ele>
        <time>2020-01-16T13:43:53Z</time>
      </trkpt>
      <trkpt lat="46.53871" lon="5.91686">
        <ele>873.1</ele>
        <time>2020-01-16T13:43:58Z</time>
      </trkpt>
      <trkpt lat="46.53866" lon="5.91689">
        <ele>872.8</ele>
        <time>2020-01-16T13:44:03Z</time>
      </trkpt>
      <trkpt lat="46.53862" lon="5.91693">
        <ele>872.7</ele>
        <time>2020-01-16T13:44:08Z</time>
      </trkpt>
      <trkpt lat="46.53858" lon="5.91696">
        <ele>872.5</ele>
        <time>2020-01-16T13:44:13Z</time>
      </trkpt>
      <trkpt lat="46.53853" lon="5.91697">
        <ele>872.3</ele>
        <time>2020-01-16T13:44:20Z</time>
      </trkpt>
      <trkpt lat="46.53848" lon="5.91699">
        <ele>872</ele>
        <time>2020-01-16T13:44:25Z</time>
      </trkpt>
      <trkpt lat="46.53843" lon="5.91698">
        <ele>871.7</ele>
        <time>2020-01-16T13:44:30Z</time>
      </trkpt>
      <trkpt lat="46.53839" lon="5.91695">
        <ele>871.5</ele>
        <time>2020-01-16T13:44:35Z</time>
      </trkpt>
      <trkpt lat="46.5384" lon="5.91688">
        <ele>871.8</ele>
        <time>2020-01-16T13:44:47Z</time>
      </trkpt>
      <trkpt lat="46.53835" lon="5.91687">
        <ele>872.5</ele>
        <time>2020-01-16T13:45:12Z</time>
      </trkpt>
      <trkpt lat="46.53831" lon="5.91691">
        <ele>874</ele>
        <time>2020-01-16T13:45:28Z</time>
      </trkpt>
      <trkpt lat="46.53832" lon="5.91698">
        <ele>874.8</ele>
        <time>2020-01-16T13:45:33Z</time>
      </trkpt>
      <trkpt lat="46.53828" lon="5.91703">
        <ele>875</ele>
        <time>2020-01-16T13:45:38Z</time>
      </trkpt>
      <trkpt lat="46.53824" lon="5.91707">
        <ele>875.1</ele>
        <time>2020-01-16T13:45:43Z</time>
      </trkpt>
      <trkpt lat="46.53819" lon="5.91711">
        <ele>875.1</ele>
        <time>2020-01-16T13:45:47Z</time>
      </trkpt>
      <trkpt lat="46.53814" lon="5.91712">
        <ele>875</ele>
        <time>2020-01-16T13:45:52Z</time>
      </trkpt>
      <trkpt lat="46.53808" lon="5.91714">
        <ele>874.8</ele>
        <time>2020-01-16T13:45:56Z</time>
      </trkpt>
      <trkpt lat="46.53802" lon="5.91716">
        <ele>874.6</ele>
        <time>2020-01-16T13:46:00Z</time>
      </trkpt>
      <trkpt lat="46.53796" lon="5.91718">
        <ele>874.1</ele>
        <time>2020-01-16T13:46:04Z</time>
      </trkpt>
      <trkpt lat="46.53791" lon="5.9172">
        <ele>873.6</ele>
        <time>2020-01-16T13:46:08Z</time>
      </trkpt>
      <trkpt lat="46.53786" lon="5.91722">
        <ele>873.3</ele>
        <time>2020-01-16T13:46:12Z</time>
      </trkpt>
      <trkpt lat="46.53781" lon="5.91726">
        <ele>872.9</ele>
        <time>2020-01-16T13:46:16Z</time>
      </trkpt>
      <trkpt lat="46.53776" lon="5.91728">
        <ele>872.6</ele>
        <time>2020-01-16T13:46:20Z</time>
      </trkpt>
      <trkpt lat="46.53771" lon="5.91728">
        <ele>872.3</ele>
        <time>2020-01-16T13:46:25Z</time>
      </trkpt>
      <trkpt lat="46.53766" lon="5.91728">
        <ele>872.1</ele>
        <time>2020-01-16T13:46:29Z</time>
      </trkpt>
      <trkpt lat="46.53761" lon="5.91729">
        <ele>872.2</ele>
        <time>2020-01-16T13:46:34Z</time>
      </trkpt>
      <trkpt lat="46.53756" lon="5.91729">
        <ele>872.3</ele>
        <time>2020-01-16T13:46:39Z</time>
      </trkpt>
      <trkpt lat="46.53751" lon="5.91732">
        <ele>872.6</ele>
        <time>2020-01-16T13:46:46Z</time>
      </trkpt>
      <trkpt lat="46.53746" lon="5.91735">
        <ele>872.6</ele>
        <time>2020-01-16T13:46:52Z</time>
      </trkpt>
      <trkpt lat="46.53743" lon="5.91739">
        <ele>872.5</ele>
        <time>2020-01-16T13:46:57Z</time>
      </trkpt>
      <trkpt lat="46.53739" lon="5.91743">
        <ele>872.5</ele>
        <time>2020-01-16T13:47:04Z</time>
      </trkpt>
      <trkpt lat="46.53735" lon="5.91747">
        <ele>872.4</ele>
        <time>2020-01-16T13:47:11Z</time>
      </trkpt>
      <trkpt lat="46.53731" lon="5.91751">
        <ele>872.4</ele>
        <time>2020-01-16T13:47:17Z</time>
      </trkpt>
      <trkpt lat="46.53727" lon="5.91757">
        <ele>872.2</ele>
        <time>2020-01-16T13:47:22Z</time>
      </trkpt>
      <trkpt lat="46.53723" lon="5.9176">
        <ele>872</ele>
        <time>2020-01-16T13:47:26Z</time>
      </trkpt>
      <trkpt lat="46.53719" lon="5.91765">
        <ele>871.1</ele>
        <time>2020-01-16T13:47:33Z</time>
      </trkpt>
      <trkpt lat="46.53716" lon="5.91772">
        <ele>870.5</ele>
        <time>2020-01-16T13:47:38Z</time>
      </trkpt>
      <trkpt lat="46.53714" lon="5.91779">
        <ele>870.1</ele>
        <time>2020-01-16T13:47:41Z</time>
      </trkpt>
      <trkpt lat="46.53713" lon="5.91785">
        <ele>869.9</ele>
        <time>2020-01-16T13:47:47Z</time>
      </trkpt>
      <trkpt lat="46.53709" lon="5.91785">
        <ele>869.4</ele>
        <time>2020-01-16T13:48:12Z</time>
      </trkpt>
      <trkpt lat="46.53711" lon="5.91791">
        <ele>870.7</ele>
        <time>2020-01-16T13:48:34Z</time>
      </trkpt>
      <trkpt lat="46.53712" lon="5.91798">
        <ele>874</ele>
        <time>2020-01-16T13:49:32Z</time>
      </trkpt>
      <trkpt lat="46.5371" lon="5.91806">
        <ele>874</ele>
        <time>2020-01-16T13:49:37Z</time>
      </trkpt>
      <trkpt lat="46.53707" lon="5.91811">
        <ele>873.6</ele>
        <time>2020-01-16T13:49:47Z</time>
      </trkpt>
      <trkpt lat="46.5371" lon="5.91818">
        <ele>873.4</ele>
        <time>2020-01-16T13:49:53Z</time>
      </trkpt>
      <trkpt lat="46.53713" lon="5.91823">
        <ele>873</ele>
        <time>2020-01-16T13:49:58Z</time>
      </trkpt>
      <trkpt lat="46.53716" lon="5.91828">
        <ele>872.7</ele>
        <time>2020-01-16T13:50:05Z</time>
      </trkpt>
      <trkpt lat="46.5372" lon="5.91834">
        <ele>872.8</ele>
        <time>2020-01-16T13:50:10Z</time>
      </trkpt>
      <trkpt lat="46.53723" lon="5.91839">
        <ele>873.1</ele>
        <time>2020-01-16T13:50:15Z</time>
      </trkpt>
      <trkpt lat="46.53727" lon="5.91844">
        <ele>873.2</ele>
        <time>2020-01-16T13:50:20Z</time>
      </trkpt>
      <trkpt lat="46.53728" lon="5.91851">
        <ele>873.3</ele>
        <time>2020-01-16T13:50:28Z</time>
      </trkpt>
      <trkpt lat="46.53731" lon="5.91845">
        <ele>873.4</ele>
        <time>2020-01-16T13:50:34Z</time>
      </trkpt>
      <trkpt lat="46.53735" lon="5.9184">
        <ele>873.4</ele>
        <time>2020-01-16T13:50:38Z</time>
      </trkpt>
      <trkpt lat="46.53739" lon="5.9184">
        <ele>873.1</ele>
        <time>2020-01-16T13:50:58Z</time>
      </trkpt>
      <trkpt lat="46.53744" lon="5.91841">
        <ele>872.8</ele>
        <time>2020-01-16T13:51:05Z</time>
      </trkpt>
      <trkpt lat="46.53749" lon="5.91844">
        <ele>872.7</ele>
        <time>2020-01-16T13:51:09Z</time>
      </trkpt>
      <trkpt lat="46.53753" lon="5.91847">
        <ele>872.8</ele>
        <time>2020-01-16T13:51:13Z</time>
      </trkpt>
      <trkpt lat="46.53758" lon="5.91849">
        <ele>872.9</ele>
        <time>2020-01-16T13:51:17Z</time>
      </trkpt>
      <trkpt lat="46.53764" lon="5.91852">
        <ele>873.2</ele>
        <time>2020-01-16T13:51:22Z</time>
      </trkpt>
      <trkpt lat="46.53768" lon="5.91853">
        <ele>873.4</ele>
        <time>2020-01-16T13:51:25Z</time>
      </trkpt>
      <trkpt lat="46.53773" lon="5.91854">
        <ele>873.6</ele>
        <time>2020-01-16T13:51:29Z</time>
      </trkpt>
      <trkpt lat="46.53778" lon="5.91856">
        <ele>873.8</ele>
        <time>2020-01-16T13:51:35Z</time>
      </trkpt>
      <trkpt lat="46.53783" lon="5.91857">
        <ele>873.7</ele>
        <time>2020-01-16T13:51:40Z</time>
      </trkpt>
      <trkpt lat="46.53788" lon="5.9186">
        <ele>873.7</ele>
        <time>2020-01-16T13:51:45Z</time>
      </trkpt>
      <trkpt lat="46.53791" lon="5.91866">
        <ele>873.7</ele>
        <time>2020-01-16T13:51:51Z</time>
      </trkpt>
      <trkpt lat="46.53793" lon="5.91873">
        <ele>873.6</ele>
        <time>2020-01-16T13:51:55Z</time>
      </trkpt>
      <trkpt lat="46.53795" lon="5.91879">
        <ele>873.4</ele>
        <time>2020-01-16T13:52:00Z</time>
      </trkpt>
      <trkpt lat="46.53799" lon="5.91885">
        <ele>873.2</ele>
        <time>2020-01-16T13:52:05Z</time>
      </trkpt>
      <trkpt lat="46.53802" lon="5.91891">
        <ele>872.9</ele>
        <time>2020-01-16T13:52:11Z</time>
      </trkpt>
      <trkpt lat="46.53806" lon="5.91894">
        <ele>872.6</ele>
        <time>2020-01-16T13:52:16Z</time>
      </trkpt>
      <trkpt lat="46.53811" lon="5.91896">
        <ele>872.4</ele>
        <time>2020-01-16T13:52:21Z</time>
      </trkpt>
      <trkpt lat="46.53816" lon="5.91898">
        <ele>872.5</ele>
        <time>2020-01-16T13:52:25Z</time>
      </trkpt>
      <trkpt lat="46.5382" lon="5.91901">
        <ele>872.8</ele>
        <time>2020-01-16T13:52:30Z</time>
      </trkpt>
      <trkpt lat="46.53824" lon="5.91905">
        <ele>873.4</ele>
        <time>2020-01-16T13:52:35Z</time>
      </trkpt>
      <trkpt lat="46.53826" lon="5.91911">
        <ele>874</ele>
        <time>2020-01-16T13:52:41Z</time>
      </trkpt>
      <trkpt lat="46.53827" lon="5.91918">
        <ele>874.6</ele>
        <time>2020-01-16T13:52:49Z</time>
      </trkpt>
      <trkpt lat="46.53831" lon="5.91923">
        <ele>875.1</ele>
        <time>2020-01-16T13:52:56Z</time>
      </trkpt>
      <trkpt lat="46.53832" lon="5.91931">
        <ele>875.8</ele>
        <time>2020-01-16T13:53:03Z</time>
      </trkpt>
      <trkpt lat="46.53831" lon="5.91938">
        <ele>876.2</ele>
        <time>2020-01-16T13:53:08Z</time>
      </trkpt>
      <trkpt lat="46.53831" lon="5.91946">
        <ele>876.6</ele>
        <time>2020-01-16T13:53:12Z</time>
      </trkpt>
      <trkpt lat="46.53833" lon="5.91951">
        <ele>877.4</ele>
        <time>2020-01-16T13:53:18Z</time>
      </trkpt>
      <trkpt lat="46.53832" lon="5.91959">
        <ele>877.9</ele>
        <time>2020-01-16T13:53:24Z</time>
      </trkpt>
      <trkpt lat="46.53828" lon="5.91964">
        <ele>877.9</ele>
        <time>2020-01-16T13:53:29Z</time>
      </trkpt>
      <trkpt lat="46.53823" lon="5.91967">
        <ele>877.7</ele>
        <time>2020-01-16T13:53:35Z</time>
      </trkpt>
      <trkpt lat="46.53819" lon="5.91969">
        <ele>877.5</ele>
        <time>2020-01-16T13:53:41Z</time>
      </trkpt>
      <trkpt lat="46.53814" lon="5.91971">
        <ele>877</ele>
        <time>2020-01-16T13:53:46Z</time>
      </trkpt>
      <trkpt lat="46.5381" lon="5.91974">
        <ele>876.6</ele>
        <time>2020-01-16T13:53:50Z</time>
      </trkpt>
      <trkpt lat="46.53806" lon="5.91977">
        <ele>876</ele>
        <time>2020-01-16T13:53:54Z</time>
      </trkpt>
      <trkpt lat="46.53801" lon="5.91982">
        <ele>875.6</ele>
        <time>2020-01-16T13:53:58Z</time>
      </trkpt>
      <trkpt lat="46.53796" lon="5.91984">
        <ele>875.1</ele>
        <time>2020-01-16T13:54:02Z</time>
      </trkpt>
      <trkpt lat="46.53792" lon="5.91986">
        <ele>874.7</ele>
        <time>2020-01-16T13:54:07Z</time>
      </trkpt>
      <trkpt lat="46.53788" lon="5.91991">
        <ele>874.3</ele>
        <time>2020-01-16T13:54:12Z</time>
      </trkpt>
      <trkpt lat="46.53784" lon="5.91996">
        <ele>874</ele>
        <time>2020-01-16T13:54:16Z</time>
      </trkpt>
      <trkpt lat="46.53781" lon="5.92001">
        <ele>873.7</ele>
        <time>2020-01-16T13:54:21Z</time>
      </trkpt>
      <trkpt lat="46.53777" lon="5.92006">
        <ele>873.6</ele>
        <time>2020-01-16T13:54:26Z</time>
      </trkpt>
      <trkpt lat="46.53773" lon="5.92009">
        <ele>873.5</ele>
        <time>2020-01-16T13:54:31Z</time>
      </trkpt>
      <trkpt lat="46.5377" lon="5.92014">
        <ele>873.3</ele>
        <time>2020-01-16T13:54:37Z</time>
      </trkpt>
      <trkpt lat="46.53766" lon="5.92019">
        <ele>872.9</ele>
        <time>2020-01-16T13:54:43Z</time>
      </trkpt>
      <trkpt lat="46.53762" lon="5.92023">
        <ele>872.6</ele>
        <time>2020-01-16T13:54:47Z</time>
      </trkpt>
      <trkpt lat="46.53758" lon="5.92028">
        <ele>872.3</ele>
        <time>2020-01-16T13:54:51Z</time>
      </trkpt>
      <trkpt lat="46.53754" lon="5.92033">
        <ele>872.1</ele>
        <time>2020-01-16T13:54:56Z</time>
      </trkpt>
      <trkpt lat="46.53751" lon="5.92037">
        <ele>872.1</ele>
        <time>2020-01-16T13:55:00Z</time>
      </trkpt>
      <trkpt lat="46.53747" lon="5.92042">
        <ele>872</ele>
        <time>2020-01-16T13:55:04Z</time>
      </trkpt>
      <trkpt lat="46.53743" lon="5.92045">
        <ele>872</ele>
        <time>2020-01-16T13:55:08Z</time>
      </trkpt>
      <trkpt lat="46.53739" lon="5.92049">
        <ele>872.1</ele>
        <time>2020-01-16T13:55:12Z</time>
      </trkpt>
      <trkpt lat="46.53735" lon="5.92054">
        <ele>872.2</ele>
        <time>2020-01-16T13:55:17Z</time>
      </trkpt>
      <trkpt lat="46.53732" lon="5.92059">
        <ele>872.1</ele>
        <time>2020-01-16T13:55:22Z</time>
      </trkpt>
      <trkpt lat="46.53728" lon="5.92064">
        <ele>872.1</ele>
        <time>2020-01-16T13:55:27Z</time>
      </trkpt>
      <trkpt lat="46.53723" lon="5.92069">
        <ele>872.1</ele>
        <time>2020-01-16T13:55:31Z</time>
      </trkpt>
      <trkpt lat="46.53719" lon="5.92072">
        <ele>872.1</ele>
        <time>2020-01-16T13:55:34Z</time>
      </trkpt>
      <trkpt lat="46.53716" lon="5.92075">
        <ele>871.9</ele>
        <time>2020-01-16T13:55:38Z</time>
      </trkpt>
      <trkpt lat="46.53711" lon="5.92079">
        <ele>871.8</ele>
        <time>2020-01-16T13:55:44Z</time>
      </trkpt>
      <trkpt lat="46.53706" lon="5.92083">
        <ele>871.9</ele>
        <time>2020-01-16T13:55:49Z</time>
      </trkpt>
      <trkpt lat="46.53702" lon="5.92087">
        <ele>871.9</ele>
        <time>2020-01-16T13:55:54Z</time>
      </trkpt>
      <trkpt lat="46.53699" lon="5.92091">
        <ele>871.7</ele>
        <time>2020-01-16T13:55:58Z</time>
      </trkpt>
      <trkpt lat="46.53694" lon="5.92093">
        <ele>871.5</ele>
        <time>2020-01-16T13:56:04Z</time>
      </trkpt>
      <trkpt lat="46.53688" lon="5.92096">
        <ele>871.5</ele>
        <time>2020-01-16T13:56:09Z</time>
      </trkpt>
      <trkpt lat="46.53684" lon="5.92098">
        <ele>871.5</ele>
        <time>2020-01-16T13:56:13Z</time>
      </trkpt>
      <trkpt lat="46.53679" lon="5.92101">
        <ele>871.3</ele>
        <time>2020-01-16T13:56:19Z</time>
      </trkpt>
      <trkpt lat="46.53674" lon="5.92101">
        <ele>871.3</ele>
        <time>2020-01-16T13:56:23Z</time>
      </trkpt>
      <trkpt lat="46.5367" lon="5.92103">
        <ele>871.3</ele>
        <time>2020-01-16T13:56:27Z</time>
      </trkpt>
      <trkpt lat="46.53665" lon="5.92105">
        <ele>871.2</ele>
        <time>2020-01-16T13:56:32Z</time>
      </trkpt>
      <trkpt lat="46.53659" lon="5.92107">
        <ele>871</ele>
        <time>2020-01-16T13:56:37Z</time>
      </trkpt>
      <trkpt lat="46.53654" lon="5.92108">
        <ele>870.9</ele>
        <time>2020-01-16T13:56:41Z</time>
      </trkpt>
      <trkpt lat="46.53648" lon="5.9211">
        <ele>870.6</ele>
        <time>2020-01-16T13:56:45Z</time>
      </trkpt>
      <trkpt lat="46.53644" lon="5.92112">
        <ele>870.5</ele>
        <time>2020-01-16T13:56:50Z</time>
      </trkpt>
      <trkpt lat="46.53639" lon="5.92113">
        <ele>870.4</ele>
        <time>2020-01-16T13:56:55Z</time>
      </trkpt>
      <trkpt lat="46.53634" lon="5.92116">
        <ele>870.4</ele>
        <time>2020-01-16T13:56:59Z</time>
      </trkpt>
      <trkpt lat="46.53629" lon="5.92118">
        <ele>870.3</ele>
        <time>2020-01-16T13:57:03Z</time>
      </trkpt>
      <trkpt lat="46.53624" lon="5.92118">
        <ele>870.4</ele>
        <time>2020-01-16T13:57:07Z</time>
      </trkpt>
      <trkpt lat="46.53619" lon="5.9212">
        <ele>870.4</ele>
        <time>2020-01-16T13:57:11Z</time>
      </trkpt>
      <trkpt lat="46.53614" lon="5.92122">
        <ele>870.5</ele>
        <time>2020-01-16T13:57:15Z</time>
      </trkpt>
      <trkpt lat="46.53609" lon="5.92123">
        <ele>870.7</ele>
        <time>2020-01-16T13:57:19Z</time>
      </trkpt>
      <trkpt lat="46.53604" lon="5.92124">
        <ele>871</ele>
        <time>2020-01-16T13:57:24Z</time>
      </trkpt>
      <trkpt lat="46.53599" lon="5.92125">
        <ele>871.2</ele>
        <time>2020-01-16T13:57:30Z</time>
      </trkpt>
      <trkpt lat="46.53594" lon="5.92126">
        <ele>871.6</ele>
        <time>2020-01-16T13:57:35Z</time>
      </trkpt>
      <trkpt lat="46.5359" lon="5.92128">
        <ele>871.8</ele>
        <time>2020-01-16T13:57:39Z</time>
      </trkpt>
      <trkpt lat="46.53585" lon="5.92128">
        <ele>872.3</ele>
        <time>2020-01-16T13:57:45Z</time>
      </trkpt>
      <trkpt lat="46.53581" lon="5.92131">
        <ele>872.6</ele>
        <time>2020-01-16T13:57:52Z</time>
      </trkpt>
      <trkpt lat="46.5358" lon="5.92137">
        <ele>873.1</ele>
        <time>2020-01-16T13:57:58Z</time>
      </trkpt>
      <trkpt lat="46.5358" lon="5.92145">
        <ele>873.5</ele>
        <time>2020-01-16T13:58:03Z</time>
      </trkpt>
      <trkpt lat="46.5358" lon="5.92152">
        <ele>873.9</ele>
        <time>2020-01-16T13:58:08Z</time>
      </trkpt>
      <trkpt lat="46.5358" lon="5.92158">
        <ele>874.4</ele>
        <time>2020-01-16T13:58:15Z</time>
      </trkpt>
      <trkpt lat="46.53581" lon="5.92165">
        <ele>874.7</ele>
        <time>2020-01-16T13:58:22Z</time>
      </trkpt>
      <trkpt lat="46.5358" lon="5.92172">
        <ele>875.3</ele>
        <time>2020-01-16T13:58:29Z</time>
      </trkpt>
      <trkpt lat="46.53581" lon="5.9218">
        <ele>875.8</ele>
        <time>2020-01-16T13:58:35Z</time>
      </trkpt>
      <trkpt lat="46.53582" lon="5.92186">
        <ele>876.4</ele>
        <time>2020-01-16T13:58:46Z</time>
      </trkpt>
      <trkpt lat="46.53581" lon="5.92192">
        <ele>877.1</ele>
        <time>2020-01-16T13:59:11Z</time>
      </trkpt>
      <trkpt lat="46.5358" lon="5.922">
        <ele>876.6</ele>
        <time>2020-01-16T13:59:18Z</time>
      </trkpt>
      <trkpt lat="46.53577" lon="5.92206">
        <ele>876.2</ele>
        <time>2020-01-16T13:59:24Z</time>
      </trkpt>
      <trkpt lat="46.53571" lon="5.92206">
        <ele>876.1</ele>
        <time>2020-01-16T13:59:29Z</time>
      </trkpt>
      <trkpt lat="46.53566" lon="5.92205">
        <ele>876.1</ele>
        <time>2020-01-16T13:59:35Z</time>
      </trkpt>
      <trkpt lat="46.53561" lon="5.92207">
        <ele>876.1</ele>
        <time>2020-01-16T13:59:39Z</time>
      </trkpt>
      <trkpt lat="46.53556" lon="5.9221">
        <ele>875.9</ele>
        <time>2020-01-16T13:59:45Z</time>
      </trkpt>
      <trkpt lat="46.53551" lon="5.92212">
        <ele>875.4</ele>
        <time>2020-01-16T13:59:52Z</time>
      </trkpt>
      <trkpt lat="46.53547" lon="5.92216">
        <ele>875.1</ele>
        <time>2020-01-16T13:59:59Z</time>
      </trkpt>
      <trkpt lat="46.53543" lon="5.92215">
        <ele>874.9</ele>
        <time>2020-01-16T14:00:08Z</time>
      </trkpt>
      <trkpt lat="46.53538" lon="5.92213">
        <ele>875.9</ele>
        <time>2020-01-16T14:00:28Z</time>
      </trkpt>
    </trkseg>
  </trk>
</gpx>